<
# Wetter Temperatur Luftdruck Luftfeuchtigkeit Sichtweite Windgeschwindigkeit Windrichtung Zeit
1 Clear 13 1018 32 10000 2.1 330 20:19 17.10.2019
2 Clear 13 1018 32 10000 4.66 50.754 19:59 17.10.2019
3 Clear 13 1018 32 10000 2.1 130 19:39 17.10.2019
4 Clear 13 1018 32 10000 2.1 130 19:19 17.10.2019
5 Clear 14 1018 32 10000 2.1 110 18:58 17.10.2019
6 Clear 14 1019 32 10000 3.6 130 18:38 17.10.2019
7 Clear 14 1019 29 10000 3.6 130 18:19 17.10.2019
8 Clouds 16 1020 29 10000 2.6 50 17:42 17.10.2019
9 Clouds 16 1020 29 10000 2.6 50 17:23 17.10.2019
10 Clouds 15 1020 29 10000 2.1 60 16:57 17.10.2019
11 Clouds 16 1020 29 10000 2.6 90 16:38 17.10.2019
12 Clouds 16 1020 29 10000 2.6 90 16:18 17.10.2019
13 Clouds 17 1020 29 10000 2.1 120 15:55 17.10.2019
14 Clouds 18 1020 29 10000 2.6 140 15:37 17.10.2019
15 Clouds 18 1020 26 10000 2.6 140 15:19 17.10.2019
16 Clouds 18 1020 26 10000 2.6 140 14:42 17.10.2019
17 Clouds 20 1020 26 10000 3.1 130 14:23 17.10.2019
18 Clouds 20 1020 26 10000 3.6 130 13:56 17.10.2019
19 Clouds 21 1020 26 10000 3.6 120 13:38 17.10.2019
20 Clouds 21 1020 26 10000 3.6 120 13:18 17.10.2019
21 Clouds 21 1019 26 10000 3.6 130 12:41 17.10.2019
22 Clouds 21 1019 20 10000 3.6 130 12:21 17.10.2019
23 Clouds 22 1019 20 10000 3.6 130 11:59 17.10.2019
24 Clouds 22 1019 20 10000 3.6 130 11:59 17.10.2019
25 -273 0 0 0 0 0 11:40 17.10.2019
26 Clouds 23 1018 20 10000 3.6 130 11:19 17.10.2019
27 Clouds 23 1018 20 10000 3.6 130 11:19 17.10.2019
28 Clouds 23 1018 20 10000 4.1 120 10:55 17.10.2019
29 Clouds 24 1018 19 10000 4.1 120 10:37 17.10.2019
30 Clouds 24 1018 19 10000 4.1 120 10:18 17.10.2019
31 Clouds 24 1017 19 10000 5.1 120 09:42 17.10.2019
32 Clouds 24 1017 19 10000 5.7 110 09:23 17.10.2019
33 Clouds 23 1017 20 10000 5.7 110 08:59 17.10.2019
34 Clouds 23 1017 20 10000 6.7 120 08:41 17.10.2019
35 Clouds 23 1017 20 10000 6.7 120 08:21 17.10.2019
36 Clouds 23 1018 18 10000 5.7 120 07:56 17.10.2019
37 Clouds 23 1019 18 10000 4.1 120 07:37 17.10.2019
38 Clouds 23 1019 18 10000 4.1 120 07:18 17.10.2019
39 Clouds 23 1019 18 10000 4.1 120 07:18 17.10.2019
40 Clouds 23 1019 18 10000 4.6 160 06:40 17.10.2019
41 Clouds 23 1019 18 10000 4.6 160 06:21 17.10.2019
42 Clouds 23 1019 18 10000 5.1 130 05:52 17.10.2019
43 Clouds 23 1020 18 10000 4.6 160 05:32 17.10.2019
44 Clouds 22 1020 21 10000 6.7 120 04:53 17.10.2019
45 Clouds 23 1021 20 10000 5.7 140 03:55 17.10.2019
46 Clouds 23 1020 23 10000 7.7 120 02:36 17.10.2019
47 Clouds 22 1020 26 10000 7.7 120 00:57 17.10.2019
48 Clouds 21 1019 30 10000 6.7 140 00:38 17.10.2019
49 Clouds 21 1019 30 10000 6.7 140 00:18 17.10.2019
50 Clouds 21 1019 30 10000 6.7 120 23:42 16.10.2019
51 Clouds 20 1018 32 10000 5.7 130 23:21 16.10.2019
52 Clouds 20 1018 32 10000 5.7 130 23:21 16.10.2019
53 Clouds 20 1018 32 10000 6.2 110 22:56 16.10.2019
54 Clouds 20 1018 34 10000 4.1 110 22:37 16.10.2019
55 Clouds 20 1018 34 10000 4.1 110 22:18 16.10.2019
56 Clouds 21 1017 35 10000 4.6 100 21:56 16.10.2019
57 Clouds 21 1017 35 10000 4.1 110 21:37 16.10.2019
58 Clouds 21 1017 35 10000 4.1 110 21:18 16.10.2019
59 Clouds 21 1016 35 10000 5.7 120 20:57 16.10.2019
60 Clouds 22 1016 33 10000 4.6 130 20:38 16.10.2019
61 Clouds 22 1016 33 10000 4.6 130 20:20 16.10.2019
62 Clouds 22 1016 35 10000 4.1 130 19:56 16.10.2019
63 Clouds 23 1016 33 10000 5.7 120 19:38 16.10.2019
64 Clouds 23 1016 33 10000 5.7 120 19:38 16.10.2019
65 Clouds 23 1016 33 10000 5.7 120 19:19 16.10.2019
66 Clouds 23 1016 33 10000 3.6 110 18:39 16.10.2019
67 Clouds 23 1016 33 10000 3.6 110 18:39 16.10.2019
68 Clear 23 1016 33 10000 3.6 110 18:19 16.10.2019
69 Clear 23 1016 33 10000 3.1 110 17:56 16.10.2019
70 Clear 24 1017 31 10000 4.1 140 17:38 16.10.2019
71 Clear 24 1017 31 10000 4.1 140 17:38 16.10.2019
72 Clear 24 1017 31 10000 4.1 140 17:19 16.10.2019
73 Clear 24 1017 31 10000 3.1 150 16:58 16.10.2019
74 Clear 24 1017 31 10000 3.1 150 16:58 16.10.2019
75 Clear 25 1017 29 10000 3.6 130 16:39 16.10.2019
76 Clear 25 1017 29 10000 3.6 130 16:20 16.10.2019
77 Clear 26 1017 27 10000 4.1 130 15:55 16.10.2019
78 Clear 27 1016 26 10000 5.1 130 15:36 16.10.2019
79 Clouds 27 1016 26 10000 5.1 130 15:18 16.10.2019
80 Clouds 27 1016 26 10000 5.1 130 15:18 16.10.2019
81 Clouds 27 1016 26 10000 5.1 130 14:55 16.10.2019
82 Clouds 27 1016 26 10000 5.1 130 14:37 16.10.2019
83 Clouds 27 1016 26 10000 4.6 130 14:18 16.10.2019
84 Clouds 28 1016 24 10000 4.1 140 13:55 16.10.2019
85 Clouds 28 1016 24 10000 4.1 140 13:36 16.10.2019
86 Clouds 28 1015 24 10000 4.6 150 13:18 16.10.2019
87 Clouds 29 1015 21 10000 5.7 150 12:40 16.10.2019
88 Clouds 29 1014 23 10000 5.7 150 12:18 16.10.2019
89 Clouds 30 1014 22 10000 6.7 150 11:42 16.10.2019
90 Clouds 30 1014 22 10000 6.7 150 11:42 16.10.2019
91 Clouds 31 1013 18 10000 5.7 160 11:18 16.10.2019
92 Clouds 31 1013 18 10000 5.7 160 11:18 16.10.2019
93 Clouds 33 1012 16 10000 6.7 150 10:38 16.10.2019
94 Clouds 33 1012 15 10000 6.2 160 10:20 16.10.2019
95 Clouds 34 1012 14 10000 5.7 170 09:55 16.10.2019
96 Clear 34 1012 14 10000 5.7 170 09:36 16.10.2019
97 Clouds 34 1012 13 10000 6.7 200 09:18 16.10.2019
98 Clouds 35 1012 12 10000 4.6 150 08:42 16.10.2019
99 Dust 35 1012 13 10000 5.7 160 08:23 16.10.2019
100 Dust 34 1012 12 10000 3.6 160 07:45 16.10.2019
101 Clouds 34 1013 13 10000 2.6 230 07:25 16.10.2019
102 Clouds 34 1013 13 10000 2.6 140 06:58 16.10.2019
103 Clouds 34 1013 13 10000 2.6 140 06:39 16.10.2019
104 Clouds 33 1013 13 10000 4.1 180 05:44 16.10.2019
105 Clouds 31 1015 14 10000 4.1 180 02:58 16.10.2019
106 Clouds 31 1015 14 10000 4.1 180 02:38 16.10.2019
107 Clouds 29 1014 17 10000 7.2 140 01:19 16.10.2019
108 Clouds 29 1014 16 10000 4.1 170 00:47 16.10.2019
109 Clouds 27 1013 19 10000 0.5 280 00:27 16.10.2019
110 Clouds 24 1013 23 10000 2.6 320 23:40 15.10.2019
111 Clouds 24 1012 23 10000 2.1 290 23:22 15.10.2019
112 Clouds 24 1012 23 10000 2.1 290 23:22 15.10.2019
113 Clouds 23 1012 23 10000 3.91 204 22:56 15.10.2019
114 Clouds 23 1012 23 10000 3.91 204 22:38 15.10.2019
115 Clouds 25 1011 20 10000 3.91 204 22:19 15.10.2019
116 Clouds 26 1011 19 10000 2.6 180 21:56 15.10.2019
117 Clouds 26 1011 19 10000 2.6 180 21:38 15.10.2019
118 Clouds 28 1011 17 10000 5.1 190 21:19 15.10.2019
119 Clouds 28 1010 14 10000 6.2 220 20:57 15.10.2019
120 Clouds 28 1010 14 10000 6.2 220 20:57 15.10.2019
121 Clouds 28 1010 14 10000 6.2 220 20:39 15.10.2019
122 Clouds 26 1009 16 10000 3.6 290 20:20 15.10.2019
123 Clouds 26 1009 16 10000 4.1 290 19:57 15.10.2019
124 Clouds 26 1009 16 10000 4.1 290 19:39 15.10.2019
125 Clouds 27 1009 14 10000 3.1 290 19:19 15.10.2019
126 Clouds 27 1009 15 10000 1.5 320 18:44 15.10.2019
127 Clouds 27 1009 14 10000 3.1 320 18:26 15.10.2019
128 Clear 27 1010 13 10000 4.1 290 17:57 15.10.2019
129 Clear 27 1010 13 10000 4.1 290 17:38 15.10.2019
130 Clear 28 1010 14 10000 3.6 270 17:19 15.10.2019
131 Clear 27 1010 13 10000 3.1 310 16:46 15.10.2019
132 Clear 28 1010 14 10000 2.6 290 16:23 15.10.2019
133 Clear 29 1010 13 10000 3.1 280 15:58 15.10.2019
134 Clear 29 1010 13 10000 3.1 280 15:40 15.10.2019
135 Clouds 29 1010 13 10000 3.1 290 15:20 15.10.2019
136 Clouds 29 1010 13 10000 2.6 310 14:57 15.10.2019
137 Clouds 29 1010 13 10000 2.6 310 14:38 15.10.2019
138 Clouds 30 1010 12 10000 2.6 330 14:19 15.10.2019
139 Clouds 31 1010 11 10000 2.6 320 13:44 15.10.2019
140 Clouds 31 1010 12 10000 2.1 300 13:21 15.10.2019
141 Clouds 32 1010 11 10000 2.1 260 12:59 15.10.2019
142 Clouds 32 1010 11 10000 2.1 260 12:59 15.10.2019
143 Clouds 33 1009 11 10000 3.1 250 12:39 15.10.2019
144 Clouds 33 1009 11 10000 3.1 250 12:20 15.10.2019
145 Clouds 35 1009 10 10000 3.1 260 11:44 15.10.2019
146 Clouds 37 1009 9 10000 5.1 270 11:21 15.10.2019
147 Clouds 37 1008 8 10000 5.1 280 10:57 15.10.2019
148 Clouds 37 1008 8 10000 5.1 280 10:39 15.10.2019
149 Clouds 38 1008 8 10000 5.7 290 10:19 15.10.2019
150 Clouds 38 1008 8 10000 6.7 260 09:56 15.10.2019
151 Clouds 38 1008 8 10000 6.2 240 09:37 15.10.2019
152 Clouds 38 1008 8 10000 6.2 240 09:19 15.10.2019
153 Clear 38 1008 8 10000 7.2 270 08:41 15.10.2019
154 Clear 38 1008 8 10000 7.2 270 08:21 15.10.2019
155 Clouds 39 1009 7 10000 3.6 320 07:55 15.10.2019
156 Dust 38 1009 8 10000 4.1 260 07:37 15.10.2019
157 Dust 38 1009 8 10000 4.1 260 07:37 15.10.2019
158 Dust 38 1009 8 10000 4.1 260 07:18 15.10.2019
159 Clear 39 1009 7 10000 3.1 230 06:43 15.10.2019
160 Clear 40 1010 7 10000 4.6 300 06:20 15.10.2019
161 Clear 38 1010 8 10000 4.6 230 05:37 15.10.2019
162 Clear 38 1011 8 10000 4.1 220 04:54 15.10.2019
163 Clear 38 1011 8 10000 3.6 280 04:20 15.10.2019
164 Clear 36 1012 9 10000 3.1 250 03:35 15.10.2019
165 Clear 36 1012 9 10000 3.1 250 03:35 15.10.2019
166 Clear 31 1013 13 10000 2.6 90 02:19 15.10.2019
167 Clear 30 1013 13 10000 3.6 90 01:41 15.10.2019
168 Clear 30 1013 13 10000 4.1 80 01:18 15.10.2019
169 Clouds 27 1013 18 10000 4.6 80 00:26 15.10.2019
170 Clouds 25 1013 20 10000 4.1 90 23:59 14.10.2019
171 Clouds 25 1013 20 10000 4.1 90 23:39 14.10.2019
172 Clouds 23 1012 23 10000 3.6 90 23:19 14.10.2019
173 Clouds 22 1012 24 10000 3.6 80 22:40 14.10.2019
174 Clouds 22 1012 24 10000 3.6 50 22:21 14.10.2019
175 Clouds 23 1012 25 10000 4.1 90 21:59 14.10.2019
176 Clouds 23 1012 25 10000 4.1 90 21:40 14.10.2019
177 Clouds 22 1012 21 10000 3.6 160 21:21 14.10.2019
178 Clouds 22 1012 21 10000 3.6 160 21:21 14.10.2019
179 Clouds 23 1011 20 10000 2.1 100 20:58 14.10.2019
180 Clouds 23 1011 20 10000 2.1 100 20:38 14.10.2019
181 Clouds 23 1011 18 10000 2.6 80 20:19 14.10.2019
182 Clouds 23 1011 18 10000 2.6 60 19:56 14.10.2019
183 Clouds 23 1011 18 10000 2.6 60 19:37 14.10.2019
184 Clouds 23 1012 20 10000 1 40 19:19 14.10.2019
185 Clouds 23 1012 18 10000 2.1 80 18:57 14.10.2019
186 Clouds 23 1012 18 10000 1.5 60 18:37 14.10.2019
187 Clouds 23 1012 18 10000 1.5 60 18:18 14.10.2019
188 Clouds 26 1013 13 10000 3.1 100 17:41 14.10.2019
189 Clouds 26 1013 13 10000 3.1 100 17:23 14.10.2019
190 Clouds 27 1013 13 10000 1.5 150 16:56 14.10.2019
191 Clouds 27 1013 13 10000 2.1 230 16:38 14.10.2019
192 Clouds 27 1013 13 10000 2.1 230 16:19 14.10.2019
193 Clouds 30 1013 10 10000 3.6 110 15:41 14.10.2019
194 Clouds 30 1013 10 10000 3.6 110 15:21 14.10.2019
195 Clouds 29 1013 12 10000 4.1 190 14:44 14.10.2019
196 Clouds 29 1013 12 10000 4.1 190 14:44 14.10.2019
197 Clouds 30 1013 11 10000 2.6 170 14:25 14.10.2019
198 Clouds 31 1012 10 10000 2.1 120 13:58 14.10.2019
199 Clouds 32 1012 11 10000 3.1 150 13:40 14.10.2019
200 Clouds 32 1012 11 10000 3.1 150 13:20 14.10.2019
201 -273 0 0 0 0 0 12:42 14.10.2019
202 Clouds 33 1011 9 10000 3.6 160 12:21 14.10.2019
203 Clouds 34 1011 9 10000 2.1 50 11:55 14.10.2019
204 Clouds 35 1011 8 10000 1.5 140 11:36 14.10.2019
205 Clouds 35 1011 8 10000 1.5 140 11:18 14.10.2019
206 Clouds 37 1010 7 10000 2.6 120 10:44 14.10.2019
207 Clouds 37 1010 7 10000 2.6 120 10:44 14.10.2019
208 Clouds 38 1010 6 10000 2.1 160 10:21 14.10.2019
209 Clouds 38 1010 6 10000 3.1 170 09:59 14.10.2019
210 Clouds 38 1010 6 10000 3.1 170 09:59 14.10.2019
211 Clouds 38 1010 6 10000 3.6 50 09:38 14.10.2019
212 Clouds 38 1010 6 10000 3.6 50 09:38 14.10.2019
213 Clouds 38 1010 6 10000 3.6 50 09:19 14.10.2019
214 Clouds 38 1010 7 10000 3.6 60 08:47 14.10.2019
215 Clouds 38 1010 6 10000 4.1 110 08:23 14.10.2019
216 Clear 38 1011 6 10000 2.1 210 07:44 14.10.2019
217 Clear 38 1011 6 10000 2.6 210 07:21 14.10.2019
218 Clear 39 1011 7 10000 2.6 240 06:55 14.10.2019
219 Clear 38 1012 6 10000 6.2 30 06:27 14.10.2019
220 Clear 38 1012 6 10000 3.1 50 05:52 14.10.2019
221 Clouds 37 1013 7 10000 4.1 20 04:51 14.10.2019
222 Clouds 35 1014 8 10000 6.7 70 03:48 14.10.2019
223 Clouds 34 1015 9 10000 5.7 70 03:22 14.10.2019
224 Clouds 31 1015 10 10000 7.7 70 01:46 14.10.2019
225 Clouds 30 1015 9 10000 7.7 90 01:18 14.10.2019
226 Clouds 27 1014 13 10000 4.6 80 00:23 14.10.2019
227 Clouds 24 1014 16 10000 3.6 90 23:46 13.10.2019
228 Clouds 21 1014 21 10000 1 40 23:21 13.10.2019
229 Clouds 20 1014 20 10000 2.1 350 23:00 13.10.2019
230 Clouds 21 1014 19 10000 0.5 150 22:41 13.10.2019
231 Clouds 21 1014 19 10000 0.5 150 22:22 13.10.2019
232 Clouds 21 1014 19 10000 0.5 150 22:22 13.10.2019
233 Clouds 22 1013 18 10000 2.6 80 21:58 13.10.2019
234 Clouds 22 1013 18 10000 3.6 60 21:38 13.10.2019
235 Clouds 22 1013 18 10000 3.6 60 21:19 13.10.2019
236 Clouds 22 1013 18 10000 3.1 90 20:58 13.10.2019
237 Clouds 22 1013 18 10000 3.1 90 20:58 13.10.2019
238 Clouds 22 1013 18 10000 3.1 90 20:58 13.10.2019
239 Clouds 22 1012 19 10000 1.99 117.903 20:39 13.10.2019
240 Clouds 22 1012 19 10000 1.99 117.903 20:39 13.10.2019
241 Clouds 22 1012 19 10000 1.99 117.903 20:21 13.10.2019
242 Clouds 22 1012 19 10000 1.99 117.903 20:21 13.10.2019
243 Clouds 22 1012 18 10000 1.99 117.903 19:59 13.10.2019
244 Clouds 23 1012 17 10000 1.5 90 19:39 13.10.2019
245 Clouds 23 1012 17 10000 1.5 90 19:39 13.10.2019
246 Clouds 23 1012 17 10000 1.5 90 19:21 13.10.2019
247 -273 0 0 0 0 0 18:58 13.10.2019
248 -273 0 0 0 0 0 18:58 13.10.2019
249 Clouds 25 1013 14 10000 3.1 140 18:37 13.10.2019
250 Clouds 25 1013 14 10000 3.1 140 18:19 13.10.2019
251 Clouds 26 1013 13 10000 2.6 200 17:57 13.10.2019
252 Clouds 27 1013 13 10000 2.6 220 17:39 13.10.2019
253 Clouds 27 1013 13 10000 2.6 220 17:21 13.10.2019
254 Clouds 29 1013 12 10000 2.6 120 16:43 13.10.2019
255 Clouds 31 1013 10 10000 4.1 120 16:19 13.10.2019
256 Clouds 31 1013 10 10000 3.1 180 15:57 13.10.2019
257 -273 0 0 0 0 0 15:57 13.10.2019
258 Clouds 31 1012 10 10000 3.1 160 15:38 13.10.2019
259 Clouds 31 1012 10 10000 3.1 160 15:18 13.10.2019
260 Clouds 33 1012 9 10000 6.2 120 14:57 13.10.2019
261 Clouds 34 1012 8 10000 8.2 150 14:38 13.10.2019
262 Clouds 34 1012 8 10000 8.2 150 14:19 13.10.2019
263 Clouds 35 1011 8 10000 4.1 330 13:41 13.10.2019
264 Clouds 35 1011 8 10000 4.1 330 13:23 13.10.2019
265 Clouds 36 1011 7 10000 5.7 350 12:59 13.10.2019
266 Clouds 35 1010 8 10000 3.6 300 12:39 13.10.2019
267 Clouds 35 1010 8 10000 3.6 300 12:20 13.10.2019
268 Clouds 35 1010 8 10000 2.1 300 11:58 13.10.2019
269 Clouds 36 1009 7 10000 2.6 290 11:39 13.10.2019
270 Clouds 36 1009 7 10000 2.6 290 11:20 13.10.2019
271 Clouds 37 1009 7 10000 4.6 250 10:56 13.10.2019
272 Clouds 38 1009 6 10000 3.1 250 10:38 13.10.2019
273 Clouds 38 1009 6 10000 3.1 250 10:19 13.10.2019
274 Clouds 39 1009 6 10000 4.6 270 09:39 13.10.2019
275 Clouds 39 1009 6 10000 4.6 270 09:21 13.10.2019
276 Clear 39 1009 6 10000 5.7 240 08:43 13.10.2019
277 Clear 39 1009 6 10000 5.1 310 08:25 13.10.2019
278 Clear 39 1009 6 10000 5.1 310 08:25 13.10.2019
279 Clear 39 1009 6 10000 7.7 310 07:51 13.10.2019
280 Clear 39 1009 6 10000 7.7 320 07:33 13.10.2019
281 Clear 39 1010 6 10000 6.7 260 06:51 13.10.2019
282 Clear 39 1010 6 10000 9.3 310 06:23 13.10.2019
283 Clear 39 1010 6 10000 9.3 310 06:23 13.10.2019
284 Clear 38 1012 7 10000 9.8 300 04:59 13.10.2019
285 Clear 38 1012 6 10000 8.2 300 04:33 13.10.2019
286 Clouds 36 1013 8 10000 6.2 280 02:53 13.10.2019
287 Clouds 35 1013 8 10000 4.6 270 02:27 13.10.2019
288 Clouds 33 1013 9 10000 6.7 310 01:34 13.10.2019
289 Clouds 32 1013 9 10000 3.1 340 00:55 13.10.2019
290 Clouds 29 1013 11 10000 2.6 350 00:37 13.10.2019
291 Clouds 29 1013 11 10000 2.6 350 00:18 13.10.2019
292 Clouds 26 1011 12 10000 2.1 350 23:41 12.10.2019
293 Clouds 26 1011 12 10000 2.1 350 23:22 12.10.2019
294 -273 0 0 0 0 0 22:58 12.10.2019
295 Clouds 25 1010 12 10000 2.6 140 22:40 12.10.2019
296 Clouds 25 1010 12 10000 2.6 140 22:21 12.10.2019
297 -273 0 0 0 0 0 21:57 12.10.2019
298 Clouds 29 1009 10 10000 5.1 310 21:38 12.10.2019
299 Clouds 29 1009 10 10000 5.1 310 21:20 12.10.2019
300 Clouds 29 1009 10 10000 5.1 310 21:20 12.10.2019
301 Clear 30 1009 9 10000 4.1 330 20:45 12.10.2019
302 Clear 29 1009 11 10000 2.6 330 20:27 12.10.2019
303 Clear 26 1009 13 10000 3.6 350 19:42 12.10.2019
304 Clear 26 1009 13 10000 3.6 350 19:23 12.10.2019
305 Clear 24 1009 14 10000 3.1 340 18:59 12.10.2019
306 Clear 24 1009 14 10000 2.6 320 18:41 12.10.2019
307 Clear 24 1009 14 10000 2.6 320 18:23 12.10.2019
308 Clear 26 1010 12 10000 2.6 300 17:45 12.10.2019
309 Clear 26 1010 12 10000 2.6 300 17:21 12.10.2019
310 Clear 26 1010 12 10000 5.24 308.511 16:56 12.10.2019
311 Clear 26 1010 11 10000 1.5 290 16:38 12.10.2019
312 Clear 26 1010 11 10000 1.5 290 16:19 12.10.2019
313 Clear 27 1011 11 10000 1.5 290 15:44 12.10.2019
314 Clear 25 1011 14 10000 1.5 230 15:25 12.10.2019
315 Clear 25 1011 14 10000 1.5 230 15:25 12.10.2019
316 Clear 26 1011 13 10000 0.5 290 14:57 12.10.2019
317 Clear 29 1011 10 10000 2.1 310 14:38 12.10.2019
318 Clear 29 1011 10 10000 2.1 310 14:19 12.10.2019
319 Clear 29 1011 11 10000 2.6 310 13:44 12.10.2019
320 Clear 31 1010 9 10000 3.1 330 13:26 12.10.2019
321 Clear 32 1010 8 10000 3.1 290 12:40 12.10.2019
322 Clear 32 1010 8 10000 3.1 290 12:40 12.10.2019
323 Clear 32 1010 8 10000 3.1 290 12:22 12.10.2019
324 Clear 33 1009 9 10000 4.1 280 11:59 12.10.2019
325 Clear 36 1009 7 10000 4.1 270 11:40 12.10.2019
326 Clear 36 1009 7 10000 4.1 270 11:22 12.10.2019
327 Clear 37 1008 7 10000 4.6 270 10:56 12.10.2019
328 Clear 37 1008 7 10000 6.7 260 10:36 12.10.2019
329 Clear 37 1008 7 10000 6.7 260 10:18 12.10.2019
330 -273 0 0 0 0 0 09:55 12.10.2019
331 Clear 38 1008 6 10000 6.7 260 09:54 12.10.2019
332 Clear 38 1008 6 10000 6.2 260 09:36 12.10.2019
333 Clear 38 1008 6 10000 6.2 260 09:18 12.10.2019
334 Clear 38 1008 6 10000 6.2 260 09:18 12.10.2019
335 Clear 38 1008 6 10000 7.7 280 08:40 12.10.2019
336 Clear 38 1008 6 10000 7.7 280 08:20 12.10.2019
337 -273 0 0 0 0 0 08:20 12.10.2019
338 Clear 38 1009 7 10000 8.2 280 07:35 12.10.2019
339 Clear 38 1009 7 10000 8.2 280 07:35 12.10.2019
340 Clear 38 1009 6 10000 8.2 300 06:57 12.10.2019
341 Clear 37 1010 7 10000 7.7 290 05:48 12.10.2019
342 Clear 36 1011 7 10000 9.8 310 05:24 12.10.2019
343 Clear 35 1012 8 10000 9.8 310 04:24 12.10.2019
344 Clear 33 1012 8 10000 10.3 320 03:33 12.10.2019
345 Clouds 30 1013 9 10000 8.7 330 01:50 12.10.2019
346 Clouds 29 1013 9 10000 8.7 330 01:24 12.10.2019
347 Clouds 26 1013 10 10000 6.2 340 00:42 12.10.2019
348 Clouds 26 1013 10 10000 6.2 340 00:19 12.10.2019
349 Clouds 25 1012 12 10000 7.2 350 23:40 11.10.2019
350 Clouds 25 1012 12 10000 7.2 350 23:20 11.10.2019
351 Clouds 25 1012 13 10000 4.6 350 22:41 11.10.2019
352 Clouds 25 1012 13 10000 4.6 350 22:22 11.10.2019
353 Clouds 25 1011 13 10000 5.1 350 21:58 11.10.2019
354 Clouds 25 1011 12 10000 2.6 350 21:39 11.10.2019
355 Clear 25 1011 12 10000 2.6 350 21:20 11.10.2019
356 Clear 25 1011 12 10000 3.1 360 20:44 11.10.2019
357 Clear 25 1011 12 10000 5.1 10 20:26 11.10.2019
358 Clear 26 1011 11 10000 5.7 10 19:58 11.10.2019
359 Clear 26 1011 11 10000 5.7 10 19:39 11.10.2019
360 Clear 26 1011 11 10000 5.7 10 19:39 11.10.2019
361 Clear 26 1011 11 10000 5.7 10 19:18 11.10.2019
362 Clear 26 1011 12 10000 4.6 10 18:58 11.10.2019
363 Clear 27 1012 11 10000 4.6 10 18:38 11.10.2019
364 Clear 27 1012 11 10000 4.6 10 18:19 11.10.2019
365 Clear 26 1012 12 10000 5.7 10 17:58 11.10.2019
366 Clear 26 1012 13 10000 5.1 360 17:38 11.10.2019
367 Clear 26 1012 13 10000 5.1 360 17:19 11.10.2019
368 Clear 28 1013 12 10000 4.6 20 16:56 11.10.2019
369 Clear 26 1013 13 10000 3.1 30 16:37 11.10.2019
370 Clear 26 1013 13 10000 3.1 30 16:18 11.10.2019
371 Clear 24 1013 14 10000 3.6 30 15:41 11.10.2019
372 Clouds 24 1013 14 10000 3.6 30 15:20 11.10.2019
373 Clouds 24 1014 14 10000 3.6 50 14:58 11.10.2019
374 Clouds 24 1014 14 10000 3.6 50 14:58 11.10.2019
375 Clouds 25 1014 13 10000 2.6 40 14:37 11.10.2019
376 Clouds 25 1014 13 10000 2.6 40 14:19 11.10.2019
377 Clouds 26 1014 12 10000 3.6 50 13:43 11.10.2019
378 Clouds 26 1014 13 10000 3.6 60 13:24 11.10.2019
379 Clouds 27 1014 11 10000 3.1 50 12:56 11.10.2019
380 Clouds 28 1014 12 10000 3.1 70 12:38 11.10.2019
381 Clouds 28 1014 12 10000 3.1 70 12:20 11.10.2019
382 Clouds 30 1013 9 10000 3.6 100 11:57 11.10.2019
383 Clouds 32 1013 10 10000 2.6 130 11:38 11.10.2019
384 Clouds 32 1013 10 10000 2.6 130 11:20 11.10.2019
385 Clouds 33 1013 9 10000 3.1 150 10:42 11.10.2019
386 Clouds 34 1013 8 10000 3.1 130 10:23 11.10.2019
387 Clouds 34 1013 9 10000 2.6 200 09:59 11.10.2019
388 Clouds 34 1013 8 10000 2.6 310 09:40 11.10.2019
389 Clear 34 1013 8 10000 2.6 310 09:20 11.10.2019
390 Clear 35 1013 8 10000 2.1 350 08:56 11.10.2019
391 Clear 34 1013 8 10000 2.1 270 08:37 11.10.2019
392 Clear 34 1013 8 10000 2.1 270 08:19 11.10.2019
393 Clear 34 1014 8 10000 3.1 260 07:45 11.10.2019
394 Clear 34 1014 7 10000 3.6 160 07:27 11.10.2019
395 Clear 33 1015 9 10000 2.6 260 06:49 11.10.2019
396 Clear 34 1015 7 10000 2.6 230 06:24 11.10.2019
397 Clear 32 1016 8 10000 2.6 330 05:41 11.10.2019
398 Clear 32 1016 8 10000 2.6 330 05:20 11.10.2019
399 Clear 30 1017 9 10000 3.1 10 04:28 11.10.2019
400 Clear 26 1018 9 10000 2.6 30 02:41 11.10.2019
401 Clear 22 1018 12 10000 3.1 30 00:51 11.10.2019
402 Clear 21 1018 13 10000 2.1 80 00:29 11.10.2019
403 Clear 14 1018 20 10000 0.5 170 23:46 10.10.2019
404 Clear 12 1018 25 10000 2.1 210 23:23 10.10.2019
405 Clear 11 1018 25 10000 3.55 34.321 22:58 10.10.2019
406 Clear 11 1018 25 10000 2.6 250 22:39 10.10.2019
407 Clear 11 1018 25 10000 2.6 250 22:21 10.10.2019
408 Clear 12 1017 23 10000 3.55 34.321 21:58 10.10.2019
409 Clear 12 1017 22 10000 1.5 350 21:39 10.10.2019
410 Clear 12 1017 22 10000 1.5 350 21:21 10.10.2019
411 Clear 12 1018 23 10000 2.1 270 20:46 10.10.2019
412 Clear 13 1018 22 10000 1 320 20:22 10.10.2019
413 Clear 12 1018 23 10000 3.5 42.636 19:59 10.10.2019
414 Clear 13 1018 22 10000 0.5 330 19:41 10.10.2019
415 Clear 13 1018 22 10000 0.5 330 19:21 10.10.2019
416 Clear 15 1019 18 10000 2.6 330 18:59 10.10.2019
417 Clear 15 1019 18 10000 2.1 290 18:40 10.10.2019
418 Clear 15 1019 18 10000 2.1 290 18:20 10.10.2019
419 Clear 15 1020 18 10000 2.1 290 17:55 10.10.2019
420 Clear 15 1020 18 10000 2.1 290 17:55 10.10.2019
421 Clear 15 1020 18 10000 0.5 30 17:37 10.10.2019
422 Clear 15 1020 18 10000 0.5 30 17:18 10.10.2019
423 Clear 16 1020 17 10000 0.5 50 16:44 10.10.2019
424 Clear 17 1020 14 10000 2.1 360 16:26 10.10.2019
425 Clear 17 1021 14 10000 4.13 68.835 15:57 10.10.2019
426 Clear 17 1021 13 10000 4.13 68.835 15:37 10.10.2019
427 Clear 17 1021 13 10000 4.41 103.346 15:19 10.10.2019
428 Clear 18 1021 13 10000 2.1 50 14:54 10.10.2019
429 Clear 19 1020 12 10000 2.6 120 14:36 10.10.2019
430 Clear 19 1020 12 10000 2.6 120 14:18 10.10.2019
431 Clear 22 1020 10 10000 3.1 120 13:41 10.10.2019
432 Clear 22 1020 10 10000 3.1 120 13:23 10.10.2019
433 Clear 22 1020 10 10000 3.6 140 12:57 10.10.2019
434 Clear 24 1019 8 10000 3.6 150 12:39 10.10.2019
435 Clear 24 1019 8 10000 3.6 150 12:20 10.10.2019
436 Clear 25 1019 7 10000 3.6 150 11:56 10.10.2019
437 Clear 27 1018 6 10000 3.6 150 11:38 10.10.2019
438 Clear 27 1018 6 10000 3.6 150 11:19 10.10.2019
439 Clear 28 1018 7 10000 4.6 140 10:44 10.10.2019
440 Clear 28 1018 7 10000 4.6 130 10:26 10.10.2019
441 Clear 28 1018 7 10000 5.7 120 09:56 10.10.2019
442 Clear 29 1018 7 10000 4.1 170 09:38 10.10.2019
443 Clear 29 1018 7 10000 4.1 170 09:19 10.10.2019
444 Clear 29 1018 7 10000 5.7 120 08:42 10.10.2019
445 Clear 29 1018 7 10000 5.7 120 08:24 10.10.2019
446 Clear 29 1018 6 10000 5.7 170 07:59 10.10.2019
447 Clear 28 1019 8 10000 4.1 170 07:40 10.10.2019
448 Clear 28 1019 8 10000 4.1 170 07:20 10.10.2019
449 Clear 28 1019 8 10000 5.1 120 06:45 10.10.2019
450 Clear 28 1020 7 10000 4.6 90 06:24 10.10.2019
451 Clear 27 1021 10 10000 3.6 80 05:25 10.10.2019
452 Clear 24 1022 12 10000 4.6 100 04:37 10.10.2019
453 Clear 23 1022 12 10000 6.7 110 03:27 10.10.2019
454 Clear 20 1022 15 10000 6.7 70 01:42 10.10.2019
455 Clear 20 1022 15 10000 6.7 70 01:24 10.10.2019
456 Clear 18 1022 17 10000 3.6 60 00:45 10.10.2019
457 Clear 14 1023 24 10000 2.9 61.308 00:20 10.10.2019
458 Clear 9 1022 34 10000 2.1 250 23:39 09.10.2019
459 Clear 9 1022 34 10000 2.1 250 23:20 09.10.2019
460 Clear 9 1022 34 10000 2.1 290 22:43 09.10.2019
461 Clear 9 1022 31 10000 2.1 310 22:24 09.10.2019
462 Clear 10 1022 31 10000 2.1 300 21:59 09.10.2019
463 Clear 10 1022 31 10000 2.1 300 21:59 09.10.2019
464 Clear 11 1021 27 10000 2.1 330 21:39 09.10.2019
465 Clear 11 1021 27 10000 2.1 330 21:20 09.10.2019
466 Clear 10 1021 29 10000 1.5 250 20:56 09.10.2019
467 Clear 10 1021 29 10000 1.5 240 20:37 09.10.2019
468 Clear 10 1021 29 10000 1.5 240 20:18 09.10.2019
469 Clear 10 1021 29 10000 1.5 240 20:18 09.10.2019
470 Clear 10 1021 29 10000 1.5 240 20:18 09.10.2019
471 Clear 11 1021 27 10000 2.1 250 19:45 09.10.2019
472 Clear 12 1021 27 10000 4.11 66.288 19:24 09.10.2019
473 Clear 12 1021 27 10000 4.11 66.288 18:58 09.10.2019
474 Clear 12 1021 27 10000 4.11 66.288 18:38 09.10.2019
475 Clear 12 1021 27 10000 4.44 89.819 18:18 09.10.2019
476 Clear 13 1022 24 10000 4.44 89.819 17:55 09.10.2019
477 Clear 14 1022 24 10000 0.5 150 17:37 09.10.2019
478 Clear 14 1022 24 10000 0.5 150 17:18 09.10.2019
479 Clear 16 1022 21 10000 1.5 150 16:41 09.10.2019
480 Clear 16 1022 21 10000 1.5 150 16:22 09.10.2019
481 Clear 16 1022 19 10000 1.5 90 15:58 09.10.2019
482 Clear 16 1023 19 10000 2.1 120 15:39 09.10.2019
483 Clear 16 1023 19 10000 2.1 120 15:39 09.10.2019
484 Clear 16 1023 19 10000 2.1 120 15:20 09.10.2019
485 Clear 18 1023 17 10000 3.1 130 14:58 09.10.2019
486 Clear 19 1023 16 10000 3.1 130 14:39 09.10.2019
487 Clear 19 1023 16 10000 3.1 130 14:18 09.10.2019
488 Clear 21 1022 13 10000 3.1 130 13:39 09.10.2019
489 Clear 21 1022 13 10000 3.1 130 13:21 09.10.2019
490 Clear 22 1022 12 10000 3.1 140 12:59 09.10.2019
491 Clear 23 1021 11 10000 3.6 140 12:40 09.10.2019
492 Clear 23 1021 11 10000 3.6 140 12:21 09.10.2019
493 Clear 24 1021 12 10000 3.6 140 11:55 09.10.2019
494 Clear 25 1021 11 10000 5.1 140 11:36 09.10.2019
495 Clear 25 1021 11 10000 5.1 140 11:18 09.10.2019
496 Clear 25 1021 11 10000 5.1 140 11:18 09.10.2019
497 Clear 26 1020 9 10000 5.1 130 10:43 09.10.2019
498 Clear 27 1020 10 10000 5.7 120 10:21 09.10.2019
499 Clear 27 1020 10 10000 4.6 140 09:57 09.10.2019
500 Clear 27 1020 10 10000 4.6 140 09:57 09.10.2019
501 Clear 27 1020 10 10000 3.6 140 09:38 09.10.2019
502 Clear 27 1020 10 10000 3.6 140 09:18 09.10.2019
503 Clear 28 1020 10 10000 4.6 170 08:40 09.10.2019
504 Clear 28 1020 10 10000 4.6 170 08:21 09.10.2019
505 Clear 27 1020 10 10000 4.6 80 07:54 09.10.2019
506 Clear 27 1021 11 10000 5.1 100 07:36 09.10.2019
507 Clear 26 1021 11 10000 4.6 160 07:18 09.10.2019
508 Clear 26 1021 11 10000 4.6 160 06:47 09.10.2019
509 Clear 25 1022 14 10000 5.7 130 05:55 09.10.2019
510 Clear 25 1023 13 10000 5.7 130 05:23 09.10.2019
511 Clear 23 1024 16 10000 5.7 130 04:20 09.10.2019
512 Clear 21 1024 19 10000 5.7 100 02:45 09.10.2019
513 Clear 19 1025 24 10000 6.2 100 01:42 09.10.2019
514 Clear 19 1025 24 10000 6.2 100 01:19 09.10.2019
515 Clear 18 1025 23 10000 4.1 90 00:56 09.10.2019
516 Clear 17 1024 27 10000 3.6 100 00:37 09.10.2019
517 Clear 17 1024 27 10000 3.6 100 00:37 09.10.2019
518 Clear 17 1024 27 10000 3.6 100 00:19 09.10.2019
519 Clear 12 1024 37 10000 3.1 140 23:39 08.10.2019
520 Clear 12 1024 37 10000 3.1 140 23:18 08.10.2019
521 Clear 12 1023 37 10000 2.1 150 22:56 08.10.2019
522 Clear 12 1023 37 10000 2.6 100 22:37 08.10.2019
523 Clear 12 1023 37 10000 2.6 100 22:18 08.10.2019
524 Clear 13 1022 35 10000 2.6 70 21:56 08.10.2019
525 Clear 13 1022 32 10000 2.6 130 21:37 08.10.2019
526 Clear 13 1022 32 10000 2.6 130 21:18 08.10.2019
527 Clear 15 1022 30 10000 2.6 120 20:55 08.10.2019
528 Clear 16 1022 29 10000 3.1 120 20:37 08.10.2019
529 Clear 16 1022 29 10000 3.1 120 20:18 08.10.2019
530 Clear 17 1022 27 10000 3.6 120 19:55 08.10.2019
531 Clear 16 1022 29 10000 3.6 120 19:36 08.10.2019
532 Clear 16 1022 29 10000 3.6 120 19:36 08.10.2019
533 Clear 16 1022 29 10000 3.6 120 19:18 08.10.2019
534 Clear 15 1022 30 10000 3.1 160 18:42 08.10.2019
535 Clear 15 1022 30 10000 3.1 160 18:24 08.10.2019
536 Clear 16 1022 29 10000 2.6 130 17:57 08.10.2019
537 Clear 16 1022 29 10000 2.6 130 17:57 08.10.2019
538 Clear 16 1022 29 10000 2.6 130 17:57 08.10.2019
539 Clear 16 1023 29 10000 3.1 150 17:39 08.10.2019
540 Clear 16 1023 29 10000 3.1 150 17:19 08.10.2019
541 Clear 18 1023 25 10000 3.1 130 16:56 08.10.2019
542 Clear 18 1023 25 10000 3.6 130 16:37 08.10.2019
543 Clear 18 1023 25 10000 3.6 130 16:18 08.10.2019
544 Clear 19 1023 24 10000 3.6 130 15:38 08.10.2019
545 Clear 19 1023 24 10000 3.6 130 15:20 08.10.2019
546 Clear 20 1023 22 10000 3.6 130 14:56 08.10.2019
547 Clear 21 1023 21 10000 3.6 130 14:37 08.10.2019
548 Clear 21 1023 21 10000 3.6 130 14:19 08.10.2019
549 -273 0 0 0 0 0 13:55 08.10.2019
550 Clear 22 1022 21 10000 4.1 120 13:37 08.10.2019
551 Clear 22 1022 21 10000 4.1 120 13:18 08.10.2019
552 Clear 22 1022 21 10000 4.1 120 13:18 08.10.2019
553 Clear 23 1022 28 10000 4.6 130 12:40 08.10.2019
554 Clear 23 1022 26 10000 4.6 130 12:20 08.10.2019
555 Clear 24 1021 22 10000 5.1 130 11:57 08.10.2019
556 Clear 24 1021 22 10000 5.1 130 11:57 08.10.2019
557 Clear 25 1021 20 10000 6.2 130 11:38 08.10.2019
558 Clear 25 1021 20 10000 6.2 130 11:20 08.10.2019
559 Clear 26 1020 21 10000 6.2 130 10:42 08.10.2019
560 Clear 26 1020 21 10000 6.2 120 10:23 08.10.2019
561 Clear 27 1020 19 10000 6.7 140 09:59 08.10.2019
562 Clear 27 1020 19 10000 6.7 110 09:40 08.10.2019
563 Clear 27 1020 19 10000 6.7 110 09:40 08.10.2019
564 Clear 27 1020 19 10000 6.7 110 09:22 08.10.2019
565 Clear 27 1020 21 10000 7.2 110 08:45 08.10.2019
566 Clear 27 1020 21 10000 5.7 110 08:25 08.10.2019
567 Clear 26 1020 22 10000 6.7 110 07:48 08.10.2019
568 Clear 27 1021 22 10000 6.7 130 07:23 08.10.2019
569 Clear 26 1021 24 10000 6.7 130 06:59 08.10.2019
570 Clear 26 1022 26 10000 6.7 120 06:39 08.10.2019
571 Clear 26 1022 26 10000 6.7 120 06:21 08.10.2019
572 Clear 25 1022 27 10000 6.7 130 05:40 08.10.2019
573 Clear 25 1023 27 10000 7.2 120 04:56 08.10.2019
574 Clear 23 1024 28 10000 8.2 130 03:31 08.10.2019
575 Clear 22 1024 33 10000 8.7 110 02:41 08.10.2019
576 Clear 21 1025 35 10000 8.7 110 01:56 08.10.2019
577 Clear 21 1024 35 10000 8.2 120 01:38 08.10.2019
578 Clear 20 1024 37 10000 8.7 110 00:55 08.10.2019
579 Clouds 20 1024 37 10000 7.7 120 00:23 08.10.2019
580 Clouds 19 1023 39 10000 5.1 130 23:44 07.10.2019
581 Clouds 19 1023 37 10000 5.1 120 23:21 07.10.2019
582 Clouds 19 1023 37 10000 5.1 120 23:21 07.10.2019
583 Clouds 19 1023 39 10000 4.6 130 22:59 07.10.2019
584 Clouds 19 1022 39 10000 4.6 130 22:40 07.10.2019
585 Clouds 19 1022 39 10000 4.6 130 22:21 07.10.2019
586 Clouds 20 1021 37 10000 6.2 130 21:59 07.10.2019
587 Clouds 20 1021 40 10000 5.7 130 21:40 07.10.2019
588 Clear 20 1021 40 10000 5.7 130 21:20 07.10.2019
589 Clear 21 1020 37 10000 5.7 130 20:58 07.10.2019
590 Clear 21 1020 37 10000 5.1 130 20:39 07.10.2019
591 Clear 21 1020 37 10000 5.1 130 20:39 07.10.2019
592 Clear 21 1020 37 10000 5.1 130 20:21 07.10.2019
593 Clear 21 1020 35 10000 4.1 140 19:59 07.10.2019
594 Clear 22 1020 33 10000 3.1 120 19:41 07.10.2019
595 Clear 22 1020 33 10000 3.1 120 19:20 07.10.2019
596 Clear 22 1020 33 10000 5.1 110 18:58 07.10.2019
597 Clear 23 1020 31 10000 4.6 120 18:39 07.10.2019
598 Clear 23 1020 31 10000 4.6 120 18:19 07.10.2019
599 Clear 21 1020 32 10000 3.1 110 17:43 07.10.2019
600 Clear 20 1020 32 10000 2.6 150 17:23 07.10.2019
601 Clear 21 1020 30 10000 2.1 120 16:59 07.10.2019
602 Clear 23 1020 27 10000 3.1 130 16:41 07.10.2019
603 Clear 23 1020 27 10000 3.1 130 16:22 07.10.2019
604 Clear 24 1020 25 10000 3.1 140 15:46 07.10.2019
605 Clear 23 1020 27 10000 3.6 150 15:26 07.10.2019
606 Clear 24 1019 23 10000 3.1 140 14:58 07.10.2019
607 Clear 25 1019 23 10000 3.1 150 14:40 07.10.2019
608 Clear 25 1019 23 10000 3.1 150 14:21 07.10.2019
609 Clear 26 1019 21 10000 3.1 140 13:43 07.10.2019
610 Clear 28 1018 18 10000 3.6 150 13:21 07.10.2019
611 Clear 28 1018 18 10000 3.6 150 12:57 07.10.2019
612 Clear 29 1018 16 10000 4.6 150 12:39 07.10.2019
613 Clear 29 1018 16 10000 4.6 150 12:19 07.10.2019
614 Clear 30 1017 15 10000 5.1 150 11:57 07.10.2019
615 Clear 31 1017 15 10000 6.2 150 11:38 07.10.2019
616 Clear 31 1017 15 10000 6.2 150 11:20 07.10.2019
617 Clear 33 1016 11 10000 5.7 130 10:42 07.10.2019
618 Clear 33 1016 11 10000 5.7 130 10:21 07.10.2019
619 Clear 33 1016 11 10000 5.1 130 09:43 07.10.2019
620 Clear 33 1015 11 10000 4.6 130 09:25 07.10.2019
621 Clear 34 1015 10 10000 5.1 160 08:58 07.10.2019
622 Clear 34 1015 9 10000 3.1 170 08:39 07.10.2019
623 Clear 34 1015 9 10000 3.1 170 08:20 07.10.2019
624 Clear 35 1015 10 10000 5.1 140 07:43 07.10.2019
625 Clear 34 1016 9 10000 5.1 130 07:25 07.10.2019
626 Clear 34 1016 9 10000 4.1 190 06:55 07.10.2019
627 Clear 33 1017 10 10000 4.1 110 06:37 07.10.2019
628 Clear 33 1017 11 10000 3.1 160 05:50 07.10.2019
629 Clear 33 1018 11 10000 3.1 130 05:24 07.10.2019
630 Clear 32 1018 14 10000 2.6 170 04:42 07.10.2019
631 Clear 30 1019 14 10000 3.6 190 03:45 07.10.2019
632 Clear 30 1019 14 10000 3.6 190 03:45 07.10.2019
633 Clear 29 1019 16 10000 4.1 170 03:23 07.10.2019
634 Clear 29 1019 16 10000 4.1 170 03:23 07.10.2019
635 Clear 28 1020 18 10000 3.6 130 02:23 07.10.2019
636 Clear 28 1020 18 10000 3.6 130 02:23 07.10.2019
637 Clear 26 1020 21 10000 3.6 160 01:57 07.10.2019
638 Clear 26 1020 22 10000 4.1 120 01:22 07.10.2019
639 Clear 25 1019 23 10000 3.1 130 00:44 07.10.2019
640 Clear 23 1019 25 10000 1.5 260 00:22 07.10.2019
641 Clear 20 1019 30 10000 2.1 310 23:56 06.10.2019
642 Clear 18 1018 31 10000 2.6 300 23:38 06.10.2019
643 Clear 18 1018 31 10000 2.6 300 23:18 06.10.2019
644 Clear 18 1018 31 10000 2.1 300 22:42 06.10.2019
645 Clear 18 1017 34 10000 2.1 280 22:22 06.10.2019
646 Clear 19 1017 29 10000 3.1 310 21:58 06.10.2019
647 Clear 18 1016 27 10000 2.1 320 21:38 06.10.2019
648 Clear 18 1016 27 10000 2.1 320 21:19 06.10.2019
649 Clear 19 1016 25 10000 2.6 300 20:58 06.10.2019
650 Clear 21 1016 19 10000 2.6 340 20:40 06.10.2019
651 Clear 21 1016 19 10000 2.6 340 20:21 06.10.2019
652 Clear 20 1016 20 10000 4.1 310 19:58 06.10.2019
653 Clear 20 1015 19 10000 2.6 270 19:38 06.10.2019
654 Clear 20 1015 19 10000 2.6 270 19:19 06.10.2019
655 Clear 19 1015 20 10000 3.1 270 18:57 06.10.2019
656 Clear 22 1015 15 10000 3.6 350 18:39 06.10.2019
657 Clear 22 1015 15 10000 3.6 350 18:19 06.10.2019
658 Clear 22 1015 15 10000 3.6 350 18:19 06.10.2019
659 Clear 22 1015 15 10000 3.6 350 18:19 06.10.2019
660 Clear 21 1015 16 10000 1 190 17:57 06.10.2019
661 Clear 22 1015 17 10000 4.1 240 17:39 06.10.2019
662 Clear 22 1015 17 10000 4.1 240 17:19 06.10.2019
663 Clear 20 1015 19 10000 2.1 50 16:42 06.10.2019
664 Clear 23 1015 15 10000 1.5 140 16:23 06.10.2019
665 Clear 22 1015 17 10000 3.1 160 15:54 06.10.2019
666 Clear 24 1016 13 10000 1.5 60 15:36 06.10.2019
667 Clear 24 1016 13 10000 1.5 60 15:18 06.10.2019
668 Clear 24 1016 13 10000 2.6 50 14:42 06.10.2019
669 Clear 26 1016 11 10000 3.6 70 14:24 06.10.2019
670 Clear 27 1016 11 10000 2.6 90 13:56 06.10.2019
671 Clear 27 1016 11 10000 2.6 90 13:56 06.10.2019
672 Clear 28 1015 11 10000 2.6 90 13:37 06.10.2019
673 Clear 28 1015 11 10000 2.6 90 13:19 06.10.2019
674 Clear 29 1015 9 10000 2.6 100 12:56 06.10.2019
675 Clear 31 1015 9 10000 2.6 110 12:37 06.10.2019
676 Clear 31 1015 9 10000 2.6 110 12:19 06.10.2019
677 Clear 32 1014 8 10000 2.6 110 11:43 06.10.2019
678 Clear 34 1014 7 10000 2.6 130 11:25 06.10.2019
679 Clear 34 1014 7 10000 2.6 130 11:25 06.10.2019
680 Clear 35 1014 6 10000 2.1 130 10:58 06.10.2019
681 Clear 36 1014 6 10000 3.1 130 10:39 06.10.2019
682 Clear 36 1014 6 10000 3.1 130 10:21 06.10.2019
683 Clear 36 1014 7 10000 2.6 320 09:42 06.10.2019
684 Clear 36 1014 7 10000 2.6 320 09:42 06.10.2019
685 Clear 36 1014 7 10000 2.6 70 09:21 06.10.2019
686 Clear 36 1014 7 10000 2.6 70 09:21 06.10.2019
687 Clear 36 1014 7 10000 5.1 90 08:59 06.10.2019
688 Clear 36 1014 7 10000 3.1 170 08:39 06.10.2019
689 Clear 36 1014 7 10000 3.1 170 08:19 06.10.2019
690 Clear 36 1015 7 10000 4.6 130 07:41 06.10.2019
691 Clear 35 1015 6 10000 3.6 240 06:59 06.10.2019
692 Clear 35 1016 7 10000 3.6 210 05:57 06.10.2019
693 Clear 34 1017 7 10000 4.1 290 04:44 06.10.2019
694 Clear 31 1018 9 10000 7.2 350 02:56 06.10.2019
695 Clear 31 1018 8 10000 6.7 340 02:37 06.10.2019
696 Clear 30 1018 9 10000 7.2 350 01:50 06.10.2019
697 Clear 29 1018 9 10000 5.1 350 01:31 06.10.2019
698 Clear 28 1018 9 10000 3.6 340 00:59 06.10.2019
699 Clear 28 1018 9 10000 3.6 340 00:59 06.10.2019
700 Clear 27 1017 10 10000 3.6 360 00:40 06.10.2019
701 Clear 27 1017 10 10000 3.6 360 00:20 06.10.2019
702 Clear 26 1017 10 10000 2.1 360 23:42 05.10.2019
703 Clear 25 1016 11 10000 2.6 360 23:20 05.10.2019
704 Clear 24 1016 12 10000 4.1 360 22:56 05.10.2019
705 Clear 25 1015 11 10000 5.7 10 22:37 05.10.2019
706 Clear 25 1015 11 10000 5.7 10 22:19 05.10.2019
707 Clear 25 1015 10 10000 5.7 10 21:42 05.10.2019
708 Clear 25 1015 12 10000 4.6 10 21:22 05.10.2019
709 Clear 24 1015 13 10000 1.5 10 20:58 05.10.2019
710 Clear 24 1015 13 10000 0.5 340 20:39 05.10.2019
711 Clear 24 1015 13 10000 0.5 340 20:19 05.10.2019
712 Clear 24 1015 13 10000 0.5 340 20:19 05.10.2019
713 Clear 24 1015 13 10000 2.1 50 19:56 05.10.2019
714 Clear 25 1016 13 10000 3.6 30 19:36 05.10.2019
715 Clear 25 1016 13 10000 3.6 30 19:18 05.10.2019
716 Clear 26 1016 13 10000 3.6 10 18:54 05.10.2019
717 Clear 26 1016 13 10000 4.1 20 18:36 05.10.2019
718 Clear 26 1016 13 10000 4.1 20 18:18 05.10.2019
719 Clear 26 1016 13 10000 4.1 20 18:18 05.10.2019
720 Clear 26 1017 15 10000 2.6 30 17:41 05.10.2019
721 Clear 26 1017 15 10000 2.6 30 17:21 05.10.2019
722 Clear 24 1017 17 10000 4.1 20 16:55 05.10.2019
723 Clear 23 1017 18 10000 2.6 30 16:36 05.10.2019
724 Clear 23 1017 18 10000 2.6 30 16:18 05.10.2019
725 Clear 25 1017 16 10000 3.1 110 15:55 05.10.2019
726 Clear 25 1017 16 10000 3.1 110 15:55 05.10.2019
727 Clear 22 1017 18 10000 2.1 360 15:36 05.10.2019
728 Clear 22 1017 18 10000 2.1 360 15:18 05.10.2019
729 Clear 26 1017 15 10000 1.63 341.798 14:41 05.10.2019
730 Clear 26 1017 15 10000 1.63 341.798 14:20 05.10.2019
731 Clear 25 1017 16 10000 0.5 330 13:43 05.10.2019
732 Clear 25 1017 16 10000 0.5 330 13:24 05.10.2019
733 Clear 27 1016 13 10000 2.1 350 12:58 05.10.2019
734 Clear 28 1016 12 10000 1.41 22.148 12:40 05.10.2019
735 Clear 28 1016 12 10000 1.91 39.955 12:18 05.10.2019
736 Clear 32 1015 10 10000 2.6 340 11:39 05.10.2019
737 Clear 32 1015 10 10000 2.6 340 11:19 05.10.2019
738 Clear 34 1015 8 10000 3.1 320 10:54 05.10.2019
739 Clear 34 1015 9 10000 2.6 300 10:36 05.10.2019
740 Clear 34 1015 9 10000 2.6 300 10:18 05.10.2019
741 Clear 34 1015 9 10000 3.6 110 09:39 05.10.2019
742 Clear 34 1015 9 10000 3.6 110 09:21 05.10.2019
743 Clear 34 1015 9 10000 5.1 340 08:41 05.10.2019
744 Clear 34 1015 9 10000 5.1 340 08:21 05.10.2019
745 Clear 34 1015 9 10000 5.1 340 08:21 05.10.2019
746 Clear 35 1015 8 10000 4.6 10 07:58 05.10.2019
747 Clear 34 1016 9 10000 3.1 350 07:37 05.10.2019
748 Clear 34 1016 9 10000 3.1 350 07:19 05.10.2019
749 Clear 33 1017 10 10000 5.1 30 06:28 05.10.2019
750 Clear 34 1017 8 10000 4.1 10 05:59 05.10.2019
751 Clear 32 1019 10 10000 6.2 10 04:42 05.10.2019
752 Clear 32 1020 10 10000 6.7 40 03:29 05.10.2019
753 Clear 30 1020 12 10000 4.6 40 01:55 05.10.2019
754 Clear 28 1020 14 10000 4.6 40 01:23 05.10.2019
755 Clear 27 1020 14 10000 5.1 30 00:45 05.10.2019
756 Clear 26 1020 16 10000 3.1 30 00:26 05.10.2019
757 Clear 19 1019 29 10000 1.5 40 23:45 04.10.2019
758 Clear 18 1019 27 10000 5.83 20.232 23:26 04.10.2019
759 Clear 17 1019 29 10000 3.1 60 22:59 04.10.2019
760 Clear 17 1018 29 10000 2.1 70 22:40 04.10.2019
761 Clear 17 1018 29 10000 2.1 70 22:22 04.10.2019
762 Clear 18 1018 27 10000 5.83 20.232 21:57 04.10.2019
763 Clear 17 1018 29 10000 2.6 60 21:39 04.10.2019
764 Clear 17 1018 29 10000 2.6 60 21:20 04.10.2019
765 Clear 18 1018 27 10000 3.1 60 20:57 04.10.2019
766 Clear 18 1018 27 10000 3.1 60 20:38 04.10.2019
767 Clear 18 1018 27 10000 3.1 60 20:20 04.10.2019
768 Clear 18 1018 18 10000 3.1 70 19:48 04.10.2019
769 Clear 18 1018 18 10000 3.1 70 19:29 04.10.2019
770 Clear 18 1019 18 10000 2.6 90 18:59 04.10.2019
771 Clear 20 1019 22 10000 2.6 80 18:39 04.10.2019
772 Clear 20 1019 22 10000 2.6 80 18:19 04.10.2019
773 Clear 20 1019 22 10000 3.1 70 17:55 04.10.2019
774 Clear 21 1019 21 10000 2.6 70 17:36 04.10.2019
775 Clear 21 1019 21 10000 2.6 70 17:18 04.10.2019
776 Clear 22 1019 21 10000 2.6 60 16:42 04.10.2019
777 Clear 22 1019 19 10000 3.1 50 16:19 04.10.2019
778 Clear 23 1020 18 10000 3.1 80 15:59 04.10.2019
779 Clear 23 1020 17 10000 3.1 70 15:40 04.10.2019
780 Clear 23 1020 17 10000 3.1 70 15:21 04.10.2019
781 Clear 23 1020 17 10000 3.1 70 14:59 04.10.2019
782 Clear 24 1019 17 10000 3.1 70 14:41 04.10.2019
783 Clear 24 1019 17 10000 3.1 70 14:22 04.10.2019
784 Clear 25 1019 15 10000 3.1 80 13:54 04.10.2019
785 Clear 26 1019 14 10000 4.1 100 13:36 04.10.2019
786 Clear 26 1019 14 10000 4.1 100 13:18 04.10.2019
787 Clear 28 1018 13 10000 3.6 100 12:42 04.10.2019
788 Clear 28 1018 13 10000 3.6 100 12:24 04.10.2019
789 Clear 30 1018 10 10000 3.6 100 11:43 04.10.2019
790 Clear 30 1018 10 10000 3.6 100 11:43 04.10.2019
791 Clear 30 1018 10 10000 3.6 100 11:43 04.10.2019
792 Clear 30 1018 10 10000 3.6 100 11:43 04.10.2019
793 Clear 31 1018 10 10000 5.1 90 11:22 04.10.2019
794 Clear 32 1017 10 10000 6.7 80 10:56 04.10.2019
795 Clear 33 1017 9 10000 7.2 90 10:37 04.10.2019
796 Clear 33 1017 9 10000 7.2 90 10:19 04.10.2019
797 Clear 34 1017 8 10000 7.2 100 09:43 04.10.2019
798 Clear 34 1017 9 10000 8.7 110 09:25 04.10.2019
799 Clear 34 1017 7 10000 6.7 90 08:46 04.10.2019
800 Clear 34 1017 9 10000 7.7 100 08:27 04.10.2019
801 Clear 35 1017 8 10000 8.7 90 07:48 04.10.2019
802 Clear 35 1017 8 10000 7.7 70 07:26 04.10.2019
803 Clear 35 1018 8 10000 9.8 90 06:59 04.10.2019
804 Clear 35 1018 8 10000 8.2 80 06:40 04.10.2019
805 Clear 35 1018 8 10000 8.2 80 06:21 04.10.2019
806 Clear 35 1018 8 10000 8.2 80 06:21 04.10.2019
807 Clear 34 1020 9 10000 7.7 80 05:21 04.10.2019
808 Clear 34 1020 9 10000 8.2 60 04:39 04.10.2019
809 Clear 33 1021 10 10000 8.2 60 03:32 04.10.2019
810 Clear 32 1021 11 10000 9.3 70 02:45 04.10.2019
811 Clear 30 1022 12 10000 5.7 60 01:54 04.10.2019
812 Clear 30 1022 12 10000 5.7 60 01:54 04.10.2019
813 Clear 29 1022 13 10000 3.6 60 01:26 04.10.2019
814 Clear 21 1021 28 10000 8.75 49.568 00:34 04.10.2019
815 Clear 16 1021 38 10000 5.72 45.333 23:41 03.10.2019
816 Clear 16 1021 38 10000 5.72 45.333 23:22 03.10.2019
817 Clear 16 1020 38 10000 5.72 45.333 22:58 03.10.2019
818 Clear 16 1020 38 10000 5.72 45.333 22:58 03.10.2019
819 Clear 16 1020 36 10000 5.72 45.333 22:39 03.10.2019
820 Clear 16 1020 36 10000 5.72 45.333 22:39 03.10.2019
821 Clear 16 1020 36 10000 5.72 45.333 22:39 03.10.2019
822 Clear 16 1020 36 10000 5.72 45.333 22:21 03.10.2019
823 Clear 15 1020 41 10000 5.72 45.333 21:58 03.10.2019
824 Clear 16 1019 38 10000 5.72 45.333 21:40 03.10.2019
825 Clear 16 1019 38 10000 6.3 46.011 21:20 03.10.2019
826 Clear 16 1019 38 10000 0.5 320 20:58 03.10.2019
827 Clear 18 1019 31 10000 2.1 330 20:39 03.10.2019
828 Clear 18 1019 31 10000 2.1 330 20:20 03.10.2019
829 Clear 18 1019 31 10000 2.6 260 19:56 03.10.2019
830 Clear 18 1020 31 10000 1 60 19:37 03.10.2019
831 Clear 18 1020 31 10000 1 60 19:19 03.10.2019
832 Clear 19 1020 32 10000 5.65 46.112 18:56 03.10.2019
833 Clear 20 1020 28 10000 5.65 46.112 18:37 03.10.2019
834 Clear 20 1020 28 10000 4.36 55.938 18:18 03.10.2019
835 Clear 21 1020 19 10000 2.6 60 17:42 03.10.2019
836 Clear 21 1020 19 10000 2.6 60 17:42 03.10.2019
837 Clear 21 1020 19 10000 2.6 60 17:21 03.10.2019
838 Clear 22 1020 19 10000 2.6 50 16:55 03.10.2019
839 Clear 24 1021 19 10000 2.6 50 16:37 03.10.2019
840 Clear 24 1021 19 10000 2.6 50 16:19 03.10.2019
841 Clear 25 1021 17 10000 3.1 70 15:43 03.10.2019
842 Clear 25 1021 17 10000 3.1 70 15:43 03.10.2019
843 Clear 25 1020 16 10000 4.1 80 15:23 03.10.2019
844 Clear 26 1020 15 10000 3.6 80 14:57 03.10.2019
845 Clear 27 1020 13 10000 3.6 80 14:36 03.10.2019
846 Clear 27 1020 13 10000 3.6 80 14:36 03.10.2019
847 Clear 27 1020 13 10000 3.6 80 14:36 03.10.2019
848 Clear 27 1020 13 10000 3.6 80 14:18 03.10.2019
849 Clear 27 1020 13 10000 3.6 90 13:43 03.10.2019
850 Clear 27 1020 12 10000 3.1 90 13:22 03.10.2019
851 Clear 27 1020 12 10000 3.1 90 13:22 03.10.2019
852 Clear 28 1019 13 10000 3.1 90 12:58 03.10.2019
853 Clear 29 1019 12 10000 4.6 90 12:39 03.10.2019
854 Clear 29 1019 12 10000 4.6 90 12:39 03.10.2019
855 Clear 29 1019 12 10000 4.6 90 12:19 03.10.2019
856 Clear 29 1019 12 10000 4.6 90 12:19 03.10.2019
857 Clear 31 1019 10 10000 4.6 90 11:57 03.10.2019
858 Clear 31 1019 10 10000 4.6 90 11:56 03.10.2019
859 Clear 31 1019 10 10000 4.6 90 11:56 03.10.2019
860 Clear 32 1018 10 10000 5.7 90 11:37 03.10.2019
861 Clear 32 1018 10 10000 5.7 90 11:19 03.10.2019
862 Clear 34 1018 9 10000 6.7 80 10:42 03.10.2019
863 Clear 34 1018 9 10000 6.7 80 10:19 03.10.2019
864 Clear 35 1018 8 10000 7.2 100 09:59 03.10.2019
865 Clear 35 1018 8 10000 7.2 110 09:40 03.10.2019
866 Clear 35 1018 8 10000 7.2 110 09:40 03.10.2019
867 Clear 35 1018 8 10000 7.2 110 09:22 03.10.2019
868 Clear 35 1018 8 10000 6.7 100 08:59 03.10.2019
869 Clear 35 1018 8 10000 8.2 90 08:40 03.10.2019
870 Clear 35 1018 8 10000 8.2 90 08:22 03.10.2019
871 Clear 35 1018 8 10000 7.7 90 07:41 03.10.2019
872 Clear 35 1018 8 10000 7.7 90 07:19 03.10.2019
873 Clear 35 1019 8 10000 7.7 100 06:51 03.10.2019
874 Clear 35 1019 8 10000 8.7 90 06:25 03.10.2019
875 Clear 34 1019 7 10000 8.7 80 05:47 03.10.2019
876 Clear 35 1020 7 10000 8.2 70 05:20 03.10.2019
877 Clear 33 1021 8 10000 8.7 80 04:31 03.10.2019
878 Clear 32 1022 8 10000 6.7 90 03:24 03.10.2019
879 Clear 30 1022 7 10000 4.6 70 02:39 03.10.2019
880 Clear 29 1022 9 10000 3.6 70 01:59 03.10.2019
881 Clear 27 1022 10 10000 2.1 90 01:35 03.10.2019
882 Clear 25 1022 14 10000 2.1 80 00:51 03.10.2019
883 Clear 22 1022 19 10000 1.5 170 00:19 03.10.2019
884 Clear 19 1021 17 10000 1.5 80 23:43 02.10.2019
885 Clear 17 1021 29 10000 0.5 70 23:22 02.10.2019
886 Clear 18 1021 25 10000 3.1 70 22:46 02.10.2019
887 Clear 18 1020 27 10000 3.6 70 22:22 02.10.2019
888 Clear 19 1020 25 10000 3.1 70 21:58 02.10.2019
889 Clear 18 1020 17 10000 2.6 80 21:38 02.10.2019
890 Clear 18 1020 17 10000 2.6 80 21:20 02.10.2019
891 Clear 17 1020 33 10000 2.1 80 20:57 02.10.2019
892 Clear 18 1020 31 10000 4.15 51.931 20:38 02.10.2019
893 Clear 19 1020 17 10000 4.15 51.931 20:20 02.10.2019
894 Clear 19 1020 17 10000 4.15 51.931 19:55 02.10.2019
895 Clear 19 1020 17 10000 4.15 51.931 19:54 02.10.2019
896 Clear 19 1020 17 10000 4.15 51.931 19:54 02.10.2019
897 Clear 19 1020 17 10000 4.15 51.931 19:54 02.10.2019
898 -273 0 0 0 0 0 19:54 02.10.2019
899 Clear 19 1020 29 10000 4.15 51.931 19:36 02.10.2019
900 Clear 19 1020 29 10000 4.15 51.931 19:18 02.10.2019
901 Clear 19 1020 29 10000 4.15 51.931 18:55 02.10.2019
902 Clear 21 1020 22 10000 3.1 80 18:36 02.10.2019
903 Clear 21 1020 22 10000 3.1 80 18:18 02.10.2019
904 Clear 23 1020 18 10000 3.1 80 17:42 02.10.2019
905 Clear 23 1020 18 10000 3.1 80 17:21 02.10.2019
906 Clear 23 1020 18 10000 3.1 80 17:21 02.10.2019
907 Clear 22 1021 19 10000 3.1 80 16:58 02.10.2019
908 Clear 22 1021 19 10000 3.1 80 16:38 02.10.2019
909 Clear 24 1021 17 10000 3.1 60 16:20 02.10.2019
910 Clear 24 1021 17 10000 3.1 60 15:56 02.10.2019
911 Clear 24 1021 17 10000 3.1 60 15:37 02.10.2019
912 Clouds 25 1021 16 10000 3.6 80 15:18 02.10.2019
913 Clouds 25 1021 16 10000 3.6 80 15:18 02.10.2019
914 Clouds 26 1021 14 10000 4.1 90 14:44 02.10.2019
915 Clouds 26 1021 14 10000 4.1 90 14:25 02.10.2019
916 Clouds 27 1021 13 10000 3.1 70 13:57 02.10.2019
917 Clouds 27 1021 13 10000 3.6 80 13:39 02.10.2019
918 Clouds 27 1021 13 10000 3.6 80 13:21 02.10.2019
919 Clouds 29 1020 12 10000 3.6 80 12:40 02.10.2019
920 Clouds 29 1020 12 10000 3.6 80 12:22 02.10.2019
921 Clouds 29 1020 12 10000 3.6 80 12:22 02.10.2019
922 Clouds 31 1020 11 10000 4.6 80 11:59 02.10.2019
923 Clouds 32 1020 11 10000 5.7 90 11:41 02.10.2019
924 Clouds 32 1020 11 10000 5.7 90 11:20 02.10.2019
925 Clouds 34 1019 9 10000 6.7 70 10:38 02.10.2019
926 Clouds 34 1019 9 10000 6.7 70 10:19 02.10.2019
927 Clouds 35 1019 9 10000 7.2 110 09:41 02.10.2019
928 Clouds 35 1019 9 10000 7.2 110 09:20 02.10.2019
929 Clear 35 1019 8 10000 5.7 160 08:56 02.10.2019
930 Clear 36 1019 9 10000 5.1 120 08:37 02.10.2019
931 Clear 36 1019 9 10000 5.1 120 08:37 02.10.2019
932 Clear 36 1019 9 10000 5.1 120 08:19 02.10.2019
933 Clouds 35 1020 10 10000 4.1 170 07:39 02.10.2019
934 Clouds 35 1020 10 10000 4.1 170 07:21 02.10.2019
935 Clouds 36 1020 9 10000 6.7 70 06:54 02.10.2019
936 Clear 35 1020 10 10000 4.1 360 05:56 02.10.2019
937 Clear 34 1021 9 10000 4.6 30 05:25 02.10.2019
938 Clear 34 1021 9 10000 4.1 50 04:56 02.10.2019
939 Clear 33 1022 11 10000 5.7 80 03:53 02.10.2019
940 Clear 31 1022 11 10000 5.7 20 02:47 02.10.2019
941 Clear 30 1022 13 10000 4.6 40 02:24 02.10.2019
942 Clear 28 1022 14 10000 4.6 60 01:46 02.10.2019
943 Clouds 25 1022 17 10000 2.6 70 00:51 02.10.2019
944 Clouds 25 1022 17 10000 2.6 70 00:27 02.10.2019
945 Clouds 20 1021 28 10000 2.1 50 23:45 01.10.2019
946 Clouds 20 1021 28 10000 2.1 50 23:26 01.10.2019
947 Clouds 20 1021 28 10000 2.1 50 22:59 01.10.2019
948 Clouds 19 1020 32 10000 1.5 50 22:41 01.10.2019
949 Clouds 19 1020 32 10000 1.5 50 22:20 01.10.2019
950 Clouds 18 1020 34 10000 4.99 25.01 21:58 01.10.2019
951 Clouds 19 1020 32 10000 4.99 25.01 21:39 01.10.2019
952 Clouds 19 1020 32 10000 5.78 44.551 21:21 01.10.2019
953 Clouds 19 1020 32 10000 0.5 140 20:56 01.10.2019
954 Clear 20 1020 28 10000 2.1 120 20:38 01.10.2019
955 Clear 23 1020 23 10000 1 80 20:19 01.10.2019
956 Clear 23 1020 23 10000 1 80 19:56 01.10.2019
957 Clear 23 1020 23 10000 2.6 80 19:38 01.10.2019
958 Clear 23 1020 23 10000 2.6 80 19:18 01.10.2019
959 Clear 26 1020 23 10000 5.7 70 18:40 01.10.2019
960 Clear 26 1020 21 10000 5.7 70 18:22 01.10.2019
961 Clear 25 1020 21 10000 4.1 60 17:58 01.10.2019
962 Clear 27 1021 21 10000 4.6 60 17:39 01.10.2019
963 Clear 27 1021 21 10000 4.6 60 17:19 01.10.2019
964 Clear 25 1021 20 10000 3.6 70 16:57 01.10.2019
965 Clear 25 1021 20 10000 4.1 90 16:39 01.10.2019
966 Clear 25 1021 20 10000 4.1 90 16:21 01.10.2019
967 Clear 25 1021 20 10000 4.1 90 16:21 01.10.2019
968 Clear 26 1022 19 10000 4.6 80 15:42 01.10.2019
969 Clouds 26 1022 19 10000 4.6 80 15:23 01.10.2019
970 Clouds 27 1021 18 10000 4.6 90 14:41 01.10.2019
971 Clouds 27 1021 18 10000 4.6 90 14:20 01.10.2019
972 Clouds 28 1021 18 10000 4.1 100 13:58 01.10.2019
973 Clouds 28 1021 18 10000 4.1 100 13:58 01.10.2019
974 Clouds 28 1020 15 10000 4.1 80 13:39 01.10.2019
975 Clouds 28 1020 15 10000 4.1 80 13:20 01.10.2019
976 Clouds 28 1020 15 10000 3.6 80 12:58 01.10.2019
977 Clouds 30 1020 13 10000 4.1 80 12:39 01.10.2019
978 Clouds 31 1019 12 10000 3.6 80 12:19 01.10.2019
979 Clouds 31 1019 12 10000 3.6 80 11:58 01.10.2019
980 Clouds 33 1019 11 10000 3.6 90 11:38 01.10.2019
981 Clouds 33 1019 11 10000 3.6 90 11:18 01.10.2019
982 Clouds 34 1019 10 10000 4.1 100 10:49 01.10.2019
983 Clouds 34 1018 9 10000 3.1 110 10:29 01.10.2019
984 Clouds 35 1018 10 10000 2.6 120 09:49 01.10.2019
985 Clouds 35 1018 10 10000 4.6 110 09:31 01.10.2019
986 Clear 36 1018 9 10000 4.1 130 08:57 01.10.2019
987 Clear 35 1018 10 10000 3.6 50 08:39 01.10.2019
988 Clear 35 1018 10 10000 3.6 50 08:39 01.10.2019
989 Clear 35 1018 10 10000 3.6 50 08:21 01.10.2019
990 Clear 36 1019 9 10000 6.2 30 07:43 01.10.2019
991 Clear 36 1019 9 10000 6.2 30 07:24 01.10.2019
992 Clear 35 1019 10 10000 3.1 60 06:46 01.10.2019
993 Clear 36 1020 9 10000 3.6 20 06:18 01.10.2019
994 Clear 34 1020 10 10000 3.6 50 05:45 01.10.2019
995 Clear 34 1021 12 10000 5.1 60 04:50 01.10.2019
996 Clear 34 1021 13 10000 4.6 50 04:26 01.10.2019
997 Clear 30 1022 13 10000 7.2 60 02:26 01.10.2019
998 Clear 29 1022 18 10000 7.7 60 01:58 01.10.2019
999 Clear 26 1022 19 10000 6.7 60 00:53 01.10.2019
1000 Clear 24 1022 25 10000 0.5 130 00:26 01.10.2019
1001 Clear 17 1021 42 10000 2.6 130 23:55 30.09.2019
1002 Clear 17 1021 42 10000 2.6 130 23:37 30.09.2019
1003 Clear 17 1021 39 10000 1 120 23:18 30.09.2019
1004 Clear 17 1021 42 10000 5.71 55.219 22:42 30.09.2019
1005 Clear 17 1021 42 10000 5.71 55.219 22:24 30.09.2019
1006 Clear 17 1020 39 10000 5.71 55.219 21:56 30.09.2019
1007 Clear 17 1020 39 10000 5.71 55.219 21:37 30.09.2019
1008 Clouds 18 1020 36 10000 1.5 130 21:19 30.09.2019
1009 Clouds 18 1020 36 10000 1.5 130 20:55 30.09.2019
1010 Clouds 18 1020 36 10000 1.5 130 20:55 30.09.2019
1011 Clouds 19 1020 34 10000 2.1 110 20:36 30.09.2019
1012 Clouds 19 1020 34 10000 2.1 110 20:36 30.09.2019
1013 Clouds 19 1020 34 10000 2.6 90 20:18 30.09.2019
1014 Clouds 19 1020 34 10000 2.6 90 19:54 30.09.2019
1015 Clouds 20 1020 30 10000 3.6 70 19:36 30.09.2019
1016 Clouds 20 1020 28 10000 3.6 90 19:18 30.09.2019
1017 Clouds 21 1020 26 10000 2.6 90 18:41 30.09.2019
1018 Clear 22 1020 24 10000 2.6 80 18:21 30.09.2019
1019 Clear 22 1020 24 10000 2.6 80 17:57 30.09.2019
1020 Clear 22 1020 24 10000 2.6 80 17:57 30.09.2019
1021 Clear 22 1020 24 10000 2.6 80 17:57 30.09.2019
1022 Clear 22 1020 24 10000 3.1 70 17:39 30.09.2019
1023 Clear 22 1020 24 10000 3.1 70 17:19 30.09.2019
1024 Clear 23 1021 23 10000 3.1 90 16:54 30.09.2019
1025 Clear 24 1021 22 10000 3.6 100 16:36 30.09.2019
1026 Clear 24 1021 22 10000 3.6 100 16:18 30.09.2019
1027 Clear 25 1021 20 10000 4.1 80 15:39 30.09.2019
1028 Clear 25 1021 20 10000 4.1 80 15:39 30.09.2019
1029 Clouds 25 1021 20 10000 4.1 80 15:20 30.09.2019
1030 Clouds 27 1020 19 10000 4.6 80 14:58 30.09.2019
1031 Clouds 27 1020 19 10000 4.1 80 14:38 30.09.2019
1032 Clouds 27 1020 19 10000 4.1 80 14:19 30.09.2019
1033 Clouds 27 1020 19 10000 4.1 90 13:59 30.09.2019
1034 Clouds 27 1020 19 10000 4.1 100 13:41 30.09.2019
1035 Clouds 28 1019 15 10000 3.6 90 13:22 30.09.2019
1036 Clouds 28 1019 15 10000 3.6 90 12:55 30.09.2019
1037 Clouds 28 1019 15 10000 3.6 90 12:55 30.09.2019
1038 Clouds 28 1019 15 10000 3.6 90 12:55 30.09.2019
1039 Clouds 28 1019 15 10000 3.6 80 12:36 30.09.2019
1040 Clouds 30 1019 12 10000 3.6 90 12:18 30.09.2019
1041 Clouds 31 1018 12 10000 4.1 100 11:43 30.09.2019
1042 Clouds 31 1018 12 10000 4.1 100 11:21 30.09.2019
1043 Clouds 33 1018 10 10000 5.7 100 10:57 30.09.2019
1044 Clouds 34 1017 10 10000 5.1 110 10:37 30.09.2019
1045 Clouds 34 1017 10 10000 5.1 110 10:18 30.09.2019
1046 Clouds 34 1017 10 10000 5.1 110 10:18 30.09.2019
1047 Clouds 34 1017 19 10000 5.7 110 09:55 30.09.2019
1048 Clouds 34 1017 19 10000 4.6 110 09:36 30.09.2019
1049 Clear 34 1017 9 10000 3.1 40 09:18 30.09.2019
1050 Clear 35 1017 10 10000 3.6 130 08:45 30.09.2019
1051 Clear 35 1017 10 10000 3.6 130 08:27 30.09.2019
1052 Clear 34 1018 10 10000 4.1 60 07:40 30.09.2019
1053 Clear 34 1018 12 10000 3.6 10 07:19 30.09.2019
1054 Clear 34 1019 12 10000 5.7 90 06:47 30.09.2019
1055 Clear 34 1019 12 10000 5.7 90 06:27 30.09.2019
1056 Clear 33 1020 11 10000 4.6 10 05:41 30.09.2019
1057 Clear 30 1022 13 10000 7.2 60 02:54 30.09.2019
1058 Clear 29 1022 18 10000 6.7 70 02:36 30.09.2019
1059 Clear 26 1022 16 10000 3.1 90 01:31 30.09.2019
1060 Clear 20 1021 17 10000 2.6 120 00:38 30.09.2019
1061 Clear 20 1021 21 10000 2.6 120 00:19 30.09.2019
1062 Clear 18 1020 27 10000 2.6 80 23:42 29.09.2019
1063 Clear 18 1020 27 10000 2.6 80 23:21 29.09.2019
1064 Clear 17 1020 29 10000 3.6 90 22:55 29.09.2019
1065 Clear 17 1020 29 10000 3.6 90 22:36 29.09.2019
1066 Clear 17 1020 29 10000 3.6 90 22:36 29.09.2019
1067 Clear 17 1020 29 10000 3.6 90 22:18 29.09.2019
1068 Clear 18 1019 21 10000 3.1 110 21:55 29.09.2019
1069 Clear 17 1019 36 10000 2.6 140 21:36 29.09.2019
1070 Clear 18 1019 31 10000 5.15 51.156 21:18 29.09.2019
1071 Clear 17 1019 33 10000 5.15 51.156 20:43 29.09.2019
1072 Clear 17 1019 33 10000 5.12 50.528 20:19 29.09.2019
1073 Clear 17 1019 33 10000 5.12 50.528 20:19 29.09.2019
1074 Clear 18 1019 19 10000 1.5 230 19:57 29.09.2019
1075 Clear 17 1019 33 10000 2.6 160 19:37 29.09.2019
1076 Clear 20 1019 28 10000 2.1 100 19:18 29.09.2019
1077 Clear 20 1019 28 10000 2.1 100 18:55 29.09.2019
1078 Clear 20 1019 24 10000 0.5 60 18:37 29.09.2019
1079 Clear 22 1019 18 10000 2.1 60 18:18 29.09.2019
1080 Clear 22 1019 18 10000 2.1 60 17:55 29.09.2019
1081 Clear 22 1019 18 10000 2.1 60 17:55 29.09.2019
1082 Clear 21 1020 22 10000 2.6 60 17:37 29.09.2019
1083 Clear 21 1020 22 10000 2.6 60 17:19 29.09.2019
1084 Clear 20 1020 19 10000 2.1 70 16:55 29.09.2019
1085 Clear 24 1020 14 10000 3.1 100 16:37 29.09.2019
1086 Clear 24 1020 14 10000 3.1 100 16:18 29.09.2019
1087 Clear 23 1020 18 10000 3.6 60 15:41 29.09.2019
1088 Clear 23 1020 18 10000 3.6 60 15:19 29.09.2019
1089 Clear 23 1020 18 10000 3.1 70 14:59 29.09.2019
1090 Clear 25 1020 15 10000 4.6 80 14:39 29.09.2019
1091 Clear 25 1020 15 10000 4.6 80 14:20 29.09.2019
1092 Clear 25 1020 16 10000 4.6 80 13:57 29.09.2019
1093 Clear 26 1019 15 10000 4.1 80 13:38 29.09.2019
1094 Clear 26 1019 15 10000 4.1 80 13:18 29.09.2019
1095 Clear 27 1019 14 10000 4.1 90 12:57 29.09.2019
1096 Clear 28 1018 14 10000 3.6 90 12:38 29.09.2019
1097 Clear 29 1018 13 10000 4.1 90 12:20 29.09.2019
1098 Clear 31 1018 11 10000 3.1 100 11:41 29.09.2019
1099 Clear 31 1018 11 10000 3.1 100 11:41 29.09.2019
1100 Clear 31 1018 11 10000 3.1 100 11:20 29.09.2019
1101 Clear 32 1018 11 10000 3.6 120 10:59 29.09.2019
1102 Clear 33 1017 9 10000 3.1 120 10:41 29.09.2019
1103 Clear 33 1017 9 10000 3.1 120 10:21 29.09.2019
1104 Clear 33 1017 9 10000 3.1 180 09:59 29.09.2019
1105 Clear 34 1017 9 10000 2.6 100 09:41 29.09.2019
1106 Clouds 34 1017 9 10000 2.6 100 09:20 29.09.2019
1107 Clouds 34 1017 9 10000 3.1 170 08:43 29.09.2019
1108 Clouds 34 1017 9 10000 3.1 170 08:22 29.09.2019
1109 Clouds 34 1017 9 10000 4.1 100 07:46 29.09.2019
1110 Clouds 34 1018 9 10000 4.6 130 07:27 29.09.2019
1111 Clouds 33 1018 9 10000 3.1 120 06:57 29.09.2019
1112 Clouds 33 1018 9 10000 3.1 90 06:34 29.09.2019
1113 Clouds 32 1020 10 10000 6.2 60 04:54 29.09.2019
1114 Clouds 32 1020 10 10000 6.7 40 04:24 29.09.2019
1115 Clouds 30 1021 9 10000 5.7 40 03:42 29.09.2019
1116 Clouds 28 1020 11 10000 6.7 60 02:25 29.09.2019
1117 Clouds 27 1021 11 10000 7.7 60 01:46 29.09.2019
1118 Clouds 27 1021 12 10000 6.2 50 01:23 29.09.2019
1119 Clouds 18 1020 42 10000 2.1 60 00:41 29.09.2019
1120 Clouds 18 1020 42 10000 2.1 60 00:19 29.09.2019
1121 Clouds 15 1020 51 10000 2.1 130 23:39 28.09.2019
1122 Clouds 15 1020 51 10000 2.1 130 23:39 28.09.2019
1123 Clouds 15 1020 51 10000 2.1 130 23:21 28.09.2019
1124 Clouds 16 1019 38 10000 2.1 60 22:41 28.09.2019
1125 Clouds 16 1019 38 10000 2.1 60 22:23 28.09.2019
1126 Clouds 16 1018 44 10000 2.1 90 21:59 28.09.2019
1127 Clouds 17 1018 33 10000 2.6 110 21:40 28.09.2019
1128 Clouds 17 1018 33 10000 2.6 110 21:21 28.09.2019
1129 Clouds 18 1018 34 10000 1.5 70 20:59 28.09.2019
1130 Clouds 18 1018 27 10000 5.07 35.469 20:40 28.09.2019
1131 Clouds 18 1018 27 10000 5.07 35.469 20:20 28.09.2019
1132 Clouds 18 1018 34 10000 5.07 35.469 19:57 28.09.2019
1133 Clouds 19 1018 25 10000 5.07 35.469 19:39 28.09.2019
1134 Clouds 19 1018 25 10000 5.07 35.469 19:21 28.09.2019
1135 Clouds 21 1018 21 10000 1.5 30 18:57 28.09.2019
1136 Clouds 21 1018 22 10000 2.1 30 18:39 28.09.2019
1137 Clear 21 1018 22 10000 2.1 30 18:20 28.09.2019
1138 Clear 20 1019 24 10000 2.1 20 17:56 28.09.2019
1139 Clear 21 1019 22 10000 3.6 60 17:38 28.09.2019
1140 Clear 21 1019 22 10000 3.6 60 17:19 28.09.2019
1141 Clear 24 1020 19 10000 5.1 80 16:44 28.09.2019
1142 Clear 24 1020 19 10000 5.1 80 16:25 28.09.2019
1143 Clear 23 1020 23 10000 4.1 70 15:42 28.09.2019
1144 Clear 23 1020 23 10000 4.1 70 15:42 28.09.2019
1145 Clear 23 1020 23 10000 4.1 70 15:42 28.09.2019
1146 Clear 23 1020 23 10000 4.1 70 15:23 28.09.2019
1147 Clear 22 1020 26 10000 3.6 70 14:58 28.09.2019
1148 Clear 23 1020 25 10000 3.1 80 14:40 28.09.2019
1149 Clear 23 1020 25 10000 3.1 80 14:21 28.09.2019
1150 Clear 24 1020 22 10000 3.1 90 13:57 28.09.2019
1151 Clear 25 1020 22 10000 3.6 80 13:38 28.09.2019
1152 Clear 25 1020 22 10000 3.6 80 13:20 28.09.2019
1153 Clear 25 1020 22 10000 3.6 80 13:20 28.09.2019
1154 Clear 27 1019 15 10000 3.6 110 12:45 28.09.2019
1155 Clear 27 1019 15 10000 3.6 110 12:20 28.09.2019
1156 Clear 28 1018 15 10000 3.1 110 11:56 28.09.2019
1157 Clear 29 1018 14 10000 4.1 100 11:37 28.09.2019
1158 Clear 29 1018 14 10000 4.1 100 11:18 28.09.2019
1159 Clear 31 1018 11 10000 2.6 40 10:43 28.09.2019
1160 Clear 31 1018 11 10000 2.6 40 10:20 28.09.2019
1161 Clear 31 1018 18 10000 3.6 90 09:57 28.09.2019
1162 Clear 31 1018 11 10000 2.1 180 09:39 28.09.2019
1163 Clear 31 1018 11 10000 2.1 180 09:18 28.09.2019
1164 Clear 31 1018 15 10000 3.1 190 08:46 28.09.2019
1165 Clear 31 1018 15 10000 3.1 190 08:28 28.09.2019
1166 Clear 32 1018 15 10000 2.6 30 07:45 28.09.2019
1167 Clear 32 1018 15 10000 4.1 250 07:45 28.09.2019
1168 Clear 32 1018 15 10000 2.6 30 07:23 28.09.2019
1169 Clear 31 1018 15 10000 3.1 160 06:55 28.09.2019
1170 Clear 31 1019 12 10000 4.6 110 06:32 28.09.2019
1171 Clear 31 1019 18 10000 4.6 120 05:55 28.09.2019
1172 Clear 31 1020 12 10000 4.1 60 05:21 28.09.2019
1173 Clear 30 1021 13 10000 5.1 80 04:40 28.09.2019
1174 Clear 29 1021 14 10000 6.2 90 03:59 28.09.2019
1175 Clouds 28 1021 17 10000 6.7 110 03:24 28.09.2019
1176 Clouds 28 1022 17 10000 5.1 70 02:57 28.09.2019
1177 Clouds 27 1022 21 10000 5.7 80 02:34 28.09.2019
1178 Clouds 26 1022 22 10000 5.1 50 01:50 28.09.2019
1179 Clouds 24 1022 29 10000 2.6 70 01:27 28.09.2019
1180 Clouds 22 1021 35 10000 2.6 70 00:58 28.09.2019
1181 Clouds 20 1021 42 10000 1.5 80 00:38 28.09.2019
1182 Clouds 17 1021 59 10000 2.6 130 00:18 28.09.2019
1183 Clouds 15 1020 67 10000 4.1 160 23:37 27.09.2019
1184 Clouds 15 1020 67 10000 4.1 160 23:19 27.09.2019
1185 Clouds 16 1020 67 10000 1.5 80 22:47 27.09.2019
1186 Clouds 16 1020 67 10000 1.5 80 22:19 27.09.2019
1187 Clouds 17 1019 51 10000 2.95 55.734 21:57 27.09.2019
1188 Clouds 15 1019 72 10000 2.6 10 21:37 27.09.2019
1189 Clear 15 1019 72 10000 2.6 10 21:19 27.09.2019
1190 Clear 16 1019 67 10000 1.5 360 20:56 27.09.2019
1191 Clear 16 1019 67 10000 5.04 64.217 20:38 27.09.2019
1192 Clear 16 1019 67 10000 5.04 64.217 20:19 27.09.2019
1193 Clear 16 1019 67 10000 5.04 64.217 19:56 27.09.2019
1194 Clear 17 1020 63 10000 5.04 64.217 19:37 27.09.2019
1195 Clear 17 1020 67 10000 2.6 120 19:18 27.09.2019
1196 Clear 18 1020 59 10000 2.1 110 18:40 27.09.2019
1197 Clear 18 1020 59 10000 2.1 110 18:22 27.09.2019
1198 Clear 19 1020 52 10000 2.1 90 17:55 27.09.2019
1199 Clear 19 1020 52 10000 2.6 110 17:37 27.09.2019
1200 Clear 19 1020 52 10000 2.6 110 17:18 27.09.2019
1201 -273 0 0 0 0 0 16:55 27.09.2019
1202 Clear 21 1021 40 10000 2.6 100 16:36 27.09.2019
1203 Clear 21 1021 40 10000 2.6 100 16:18 27.09.2019
1204 Clear 21 1021 43 10000 1 350 15:43 27.09.2019
1205 Clear 21 1021 43 10000 1 350 15:20 27.09.2019
1206 Clear 22 1021 40 10000 1.5 10 14:56 27.09.2019
1207 Clear 21 1021 46 10000 0.5 110 14:38 27.09.2019
1208 Clear 21 1021 46 10000 0.5 110 14:20 27.09.2019
1209 Clear 23 1021 40 10000 2.6 110 13:57 27.09.2019
1210 Clear 24 1020 33 10000 2.6 140 13:38 27.09.2019
1211 Clear 24 1020 33 10000 2.6 140 13:19 27.09.2019
1212 Clear 26 1020 29 10000 3.1 130 12:44 27.09.2019
1213 Clear 27 1019 26 10000 3.1 150 12:22 27.09.2019
1214 Clear 27 1019 26 10000 3.1 150 11:55 27.09.2019
1215 Clear 28 1019 21 10000 0.5 180 11:37 27.09.2019
1216 Clear 28 1019 21 10000 0.5 180 11:19 27.09.2019
1217 Clear 29 1019 17 10000 2.6 210 10:41 27.09.2019
1218 Clear 30 1018 17 10000 3.6 190 10:21 27.09.2019
1219 Clear 30 1018 17 10000 3.1 200 09:44 27.09.2019
1220 Clear 30 1018 17 10000 3.1 200 09:23 27.09.2019
1221 Clear 30 1018 16 10000 3.6 230 08:59 27.09.2019
1222 Clear 30 1018 16 10000 2.1 280 08:40 27.09.2019
1223 Clear 30 1018 16 10000 2.1 280 08:20 27.09.2019
1224 Clear 30 1018 17 10000 2.6 170 07:49 27.09.2019
1225 Clear 30 1019 17 10000 2.6 160 07:24 27.09.2019
1226 Clear 29 1020 20 10000 4.6 210 06:43 27.09.2019
1227 Clear 29 1020 20 10000 4.6 210 06:25 27.09.2019
1228 Clear 29 1020 20 10000 3.1 160 05:52 27.09.2019
1229 Clear 29 1020 20 10000 3.1 160 05:33 27.09.2019
1230 Clear 27 1022 26 10000 2.6 160 03:57 27.09.2019
1231 Clear 27 1022 26 10000 2.1 110 03:37 27.09.2019
1232 Clear 22 1022 43 10000 2.1 80 01:53 27.09.2019
1233 Clear 22 1022 43 10000 2.1 80 01:28 27.09.2019
1234 Clouds 16 1022 77 10000 2.1 300 00:30 27.09.2019
1235 Clouds 14 1021 87 10000 2.1 270 23:56 26.09.2019
1236 Clouds 13 1021 87 10000 1.48 6.619 23:38 26.09.2019
1237 Clouds 13 1021 87 10000 1.48 6.619 23:19 26.09.2019
1238 Clouds 13 1021 87 10000 2.1 230 22:57 26.09.2019
1239 Clouds 13 1020 87 10000 1 350 22:39 26.09.2019
1240 Clouds 14 1020 82 10000 2.1 350 22:18 26.09.2019
1241 Clouds 14 1020 82 10000 2.1 350 21:56 26.09.2019
1242 Clouds 14 1020 87 10000 0.5 360 21:37 26.09.2019
1243 Clouds 14 1020 87 10000 0.5 360 21:18 26.09.2019
1244 Clouds 14 1020 82 10000 2.1 350 20:58 26.09.2019
1245 Clouds 15 1020 77 10000 3.12 33.481 20:39 26.09.2019
1246 Clouds 15 1020 77 10000 3.12 33.481 20:21 26.09.2019
1247 Clouds 16 1020 77 10000 2.6 150 19:41 26.09.2019
1248 Clouds 17 1020 67 10000 2.6 80 19:20 26.09.2019
1249 Clouds 17 1020 67 10000 2.6 80 18:59 26.09.2019
1250 Clouds 18 1020 63 10000 2.1 30 18:40 26.09.2019
1251 Clouds 18 1020 63 10000 2.1 30 18:22 26.09.2019
1252 Clouds 17 1020 72 10000 4.6 30 17:57 26.09.2019
1253 Clouds 17 1021 72 10000 1.5 10 17:37 26.09.2019
1254 Clouds 17 1021 72 10000 1.5 10 17:18 26.09.2019
1255 Clouds 18 1021 72 10000 3.7 48.256 16:40 26.09.2019
1256 Clouds 18 1021 72 10000 3.7 48.256 16:21 26.09.2019
1257 Clouds 18 1021 72 10000 3.7 48.256 16:00 26.09.2019
1258 Clouds 18 1021 72 10000 3.7 48.256 15:39 26.09.2019
1259 Clouds 18 1021 72 10000 3.36 45.145 15:20 26.09.2019
1260 Clouds 20 1021 56 10000 1.5 90 14:57 26.09.2019
1261 Clouds 21 1021 49 10000 2.6 130 14:38 26.09.2019
1262 Clouds 21 1021 49 10000 2.6 130 14:20 26.09.2019
1263 Clouds 21 1021 52 10000 3.1 130 13:55 26.09.2019
1264 Clouds 21 1020 52 10000 2.6 100 13:36 26.09.2019
1265 Clouds 22 1020 43 10000 2.1 100 13:18 26.09.2019
1266 Clouds 23 1020 38 10000 2.6 90 12:41 26.09.2019
1267 Clouds 23 1020 38 10000 2.6 90 12:21 26.09.2019
1268 -273 0 0 0 0 0 11:55 26.09.2019
1269 Clouds 24 1019 36 10000 2.6 120 11:55 26.09.2019
1270 Clouds 25 1019 33 10000 2.6 140 11:36 26.09.2019
1271 Clouds 26 1019 27 10000 2.6 180 11:18 26.09.2019
1272 Clouds 27 1018 28 10000 2.6 140 10:41 26.09.2019
1273 Clouds 27 1018 28 10000 2.6 140 10:23 26.09.2019
1274 Clouds 27 1018 26 10000 2.6 210 09:45 26.09.2019
1275 Clouds 27 1018 26 10000 2.6 210 09:27 26.09.2019
1276 Clouds 27 1019 26 10000 2.6 170 08:59 26.09.2019
1277 Clouds 27 1019 26 10000 3.1 230 08:41 26.09.2019
1278 Clouds 27 1019 26 10000 3.1 230 08:23 26.09.2019
1279 Clear 27 1019 28 10000 3.1 180 07:44 26.09.2019
1280 Clear 27 1019 28 10000 3.1 180 07:22 26.09.2019
1281 Clear 26 1020 27 10000 2.6 10 06:50 26.09.2019
1282 Clear 26 1020 29 10000 2.6 300 06:27 26.09.2019
1283 Clouds 25 1021 31 10000 1.5 140 05:51 26.09.2019
1284 Clouds 25 1021 29 10000 2.6 110 05:25 26.09.2019
1285 Clear 22 1023 43 10000 3.6 90 03:18 26.09.2019
1286 Clear 17 1024 72 10000 0.5 120 01:55 26.09.2019
1287 Clear 17 1024 72 10000 0.5 120 01:55 26.09.2019
1288 Clear 16 1024 77 10000 2.82 73.16 01:32 26.09.2019
1289 Clear 15 1024 82 10000 1 310 00:58 26.09.2019
1290 Clear 13 1023 93 10000 1.5 310 00:38 26.09.2019
1291 Clear 13 1023 93 10000 1.5 310 00:20 26.09.2019
1292 Clear 11 1023 93 10000 2.1 330 23:42 25.09.2019
1293 Clear 11 1023 93 10000 2.1 330 23:19 25.09.2019
1294 Clear 11 1022 93 10000 2.55 69.299 22:43 25.09.2019
1295 Clear 11 1022 93 10000 2.55 69.299 22:21 25.09.2019
1296 Clear 11 1022 93 10000 2.55 69.299 21:58 25.09.2019
1297 Clear 11 1022 93 10000 2.55 69.299 21:40 25.09.2019
1298 Clear 11 1022 93 10000 3.51 75.587 21:19 25.09.2019
1299 Clear 11 1022 100 10000 3.51 75.587 20:59 25.09.2019
1300 Clear 11 1022 100 10000 2.1 150 20:40 25.09.2019
1301 Clear 11 1022 100 10000 2.1 150 20:22 25.09.2019
1302 Clear 12 1022 93 10000 2.1 160 19:59 25.09.2019
1303 Clear 12 1022 93 10000 2.1 150 19:38 25.09.2019
1304 Clear 12 1022 93 10000 2.6 160 19:19 25.09.2019
1305 Clear 12 1022 93 10000 2.6 160 18:56 25.09.2019
1306 Clear 14 1022 82 10000 2.6 90 18:37 25.09.2019
1307 Clear 14 1022 82 10000 2.6 90 18:37 25.09.2019
1308 Clear 14 1023 82 10000 3.1 80 18:18 25.09.2019
1309 Clear 14 1023 82 10000 3.6 80 17:39 25.09.2019
1310 Clear 14 1023 82 10000 3.6 80 17:20 25.09.2019
1311 Clear 14 1023 82 10000 3.1 60 16:56 25.09.2019
1312 Clear 14 1023 82 10000 3.1 70 16:36 25.09.2019
1313 Clear 14 1023 82 10000 3.1 70 16:18 25.09.2019
1314 Clear 16 1024 77 10000 2.1 30 15:42 25.09.2019
1315 Clear 16 1024 77 10000 2.1 30 15:23 25.09.2019
1316 Clear 16 1024 77 10000 2.1 80 14:57 25.09.2019
1317 Clear 16 1024 77 10000 2.6 150 14:39 25.09.2019
1318 Clear 16 1024 77 10000 2.6 150 14:21 25.09.2019
1319 Clear 17 1023 72 10000 2.6 140 13:56 25.09.2019
1320 Clear 17 1023 72 10000 2.6 140 13:56 25.09.2019
1321 Clear 18 1023 68 10000 3.1 130 13:37 25.09.2019
1322 Clear 18 1023 68 10000 3.6 130 13:19 25.09.2019
1323 Clear 18 1022 68 10000 3.6 100 12:41 25.09.2019
1324 Clear 18 1022 68 10000 3.6 100 12:23 25.09.2019
1325 Clear 19 1022 59 10000 4.1 90 11:57 25.09.2019
1326 Clear 20 1022 56 10000 4.6 90 11:38 25.09.2019
1327 Clear 21 1021 52 10000 5.1 100 11:19 25.09.2019
1328 Clear 21 1021 56 10000 5.1 90 10:43 25.09.2019
1329 Clear 21 1021 56 10000 5.1 90 10:25 25.09.2019
1330 Clear 22 1021 53 10000 4.6 140 09:58 25.09.2019
1331 Clear 21 1021 56 10000 4.6 110 09:37 25.09.2019
1332 Clear 21 1021 56 10000 4.6 110 09:19 25.09.2019
1333 Clear 21 1021 56 10000 3.6 110 08:44 25.09.2019
1334 Clear 21 1021 56 10000 3.6 110 08:21 25.09.2019
1335 Clear 21 1021 60 10000 3.6 130 07:57 25.09.2019
1336 Clear 20 1022 64 10000 3.1 120 07:38 25.09.2019
1337 Clear 19 1022 63 10000 4.1 100 07:20 25.09.2019
1338 Clear 19 1023 68 10000 3.6 130 06:43 25.09.2019
1339 Clear 18 1024 68 10000 3.6 130 06:22 25.09.2019
1340 Clear 17 1024 72 10000 4.1 110 05:31 25.09.2019
1341 Clear 17 1025 72 10000 3.6 110 04:55 25.09.2019
1342 Clear 13 1027 76 10000 5.7 90 02:19 25.09.2019
1343 Clouds 9 1027 100 10000 2.1 110 00:46 25.09.2019
1344 Clouds 9 1027 100 10000 2.1 110 00:26 25.09.2019
1345 Clouds 8 1026 100 1400 2.6 110 23:58 24.09.2019
1346 Clouds 8 1026 100 400 3.1 110 23:39 24.09.2019
1347 Clouds 8 1026 100 400 3.1 110 23:20 24.09.2019
1348 Clouds 7 1025 100 4100 1.5 130 22:39 24.09.2019
1349 Clouds 7 1025 100 4100 1.5 130 22:21 24.09.2019
1350 Clouds 7 1025 100 2100 2.1 160 21:58 24.09.2019
1351 Clouds 7 1025 100 2100 2.1 160 21:58 24.09.2019
1352 Clouds 7 1025 100 2100 2.1 160 21:58 24.09.2019
1353 Clear 8 1025 100 10000 2.1 130 21:37 24.09.2019
1354 Clouds 8 1025 100 10000 2.1 130 21:19 24.09.2019
1355 Clouds 8 1025 100 10000 2.1 130 21:19 24.09.2019
1356 Clouds 8 1025 100 10000 2.1 120 20:58 24.09.2019
1357 Clouds 8 1025 100 10000 3.1 90 20:39 24.09.2019
1358 Clouds 8 1025 100 10000 3.1 90 20:21 24.09.2019
1359 Clouds 9 1025 93 10000 3.6 100 19:55 24.09.2019
1360 Clouds 9 1025 100 10000 2.6 70 19:36 24.09.2019
1361 Clouds 9 1025 100 10000 2.67 86.774 19:18 24.09.2019
1362 Clouds 8 1026 100 10000 1.5 120 18:42 24.09.2019
1363 Clouds 8 1026 100 10000 2.1 130 18:22 24.09.2019
1364 Clouds 8 1026 100 10000 1.5 120 18:22 24.09.2019
1365 Clouds 8 1026 100 10000 2.1 130 17:58 24.09.2019
1366 Clouds 8 1026 100 10000 0.5 150 17:39 24.09.2019
1367 Clouds 8 1026 100 10000 0.5 150 17:20 24.09.2019
1368 Clouds 8 1027 100 10000 4.03 94.293 16:59 24.09.2019
1369 Clouds 8 1027 100 10000 4.03 94.293 16:40 24.09.2019
1370 Clouds 8 1027 100 10000 4.03 94.293 16:19 24.09.2019
1371 Clouds 9 1027 100 10000 0.5 100 15:42 24.09.2019
1372 Clouds 9 1027 100 10000 0.5 100 15:23 24.09.2019
1373 Clouds 9 1027 100 10000 2.6 90 14:45 24.09.2019
1374 Clouds 9 1027 100 10000 2.6 90 14:21 24.09.2019
1375 Clouds 10 1027 93 10000 2.6 100 13:59 24.09.2019
1376 Clouds 10 1028 93 10000 4.1 90 13:40 24.09.2019
1377 Clouds 10 1028 93 10000 4.1 90 13:21 24.09.2019
1378 Clouds 11 1027 93 10000 4.1 110 12:40 24.09.2019
1379 Clouds 11 1027 93 10000 3.6 110 12:21 24.09.2019
1380 Clouds 11 1027 93 10000 3.6 110 11:57 24.09.2019
1381 Clouds 11 1027 93 10000 4.1 110 11:39 24.09.2019
1382 Clouds 11 1026 93 10000 3.6 90 11:18 24.09.2019
1383 Clouds 11 1026 93 10000 3.6 110 10:39 24.09.2019
1384 Rain 11 1025 100 10000 7.7 110 10:21 24.09.2019
1385 Rain 11 1025 100 10000 7.7 110 09:55 24.09.2019
1386 Rain 11 1026 93 10000 7.2 110 09:37 24.09.2019
1387 Rain 11 1026 93 10000 7.2 110 09:18 24.09.2019
1388 Rain 11 1027 93 10000 2.6 120 08:41 24.09.2019
1389 Rain 11 1027 93 10000 2.6 120 08:23 24.09.2019
1390 Rain 11 1028 93 10000 2.6 150 07:58 24.09.2019
1391 Rain 11 1028 93 10000 2.1 160 07:40 24.09.2019
1392 Rain 11 1028 87 10000 2.18 92.049 07:22 24.09.2019
1393 Rain 11 1028 87 10000 1 160 06:38 24.09.2019
1394 Rain 11 1028 87 10000 2.1 140 06:19 24.09.2019
1395 Rain 11 1029 87 10000 1 200 05:22 24.09.2019
1396 Rain 12 1029 81 10000 2.6 210 03:46 24.09.2019
1397 Rain 13 1029 76 10000 1.5 180 03:25 24.09.2019
1398 Clouds 13 1029 62 10000 4.6 110 02:44 24.09.2019
1399 Clouds 13 1028 66 10000 4.1 110 01:41 24.09.2019
1400 Clouds 12 1028 81 10000 2.1 190 00:42 24.09.2019
1401 Clouds 12 1028 81 10000 2.1 190 00:22 24.09.2019
1402 Rain 11 1027 87 10000 3.6 180 23:42 23.09.2019
1403 Rain 11 1027 87 10000 3.6 180 23:23 23.09.2019
1404 Rain 12 1028 71 10000 2.6 30 22:41 23.09.2019
1405 Rain 12 1028 71 10000 2.6 30 22:22 23.09.2019
1406 Rain 12 1028 71 10000 2.1 160 21:59 23.09.2019
1407 Clouds 14 1027 41 10000 2.1 10 21:41 23.09.2019
1408 Clouds 14 1027 41 10000 2.1 10 21:41 23.09.2019
1409 Clouds 14 1027 41 10000 2.1 10 21:41 23.09.2019
1410 Clouds 14 1027 41 10000 2.1 10 21:20 23.09.2019
1411 Clouds 13 1025 47 10000 2.6 50 20:59 23.09.2019
1412 Clouds 13 1025 47 10000 2.6 50 20:59 23.09.2019
1413 Clouds 13 1025 50 10000 3.1 80 20:39 23.09.2019
1414 Clouds 13 1025 50 10000 3.1 80 20:19 23.09.2019
1415 Clouds 13 1024 54 10000 3.6 70 19:40 23.09.2019
1416 Clouds 13 1024 54 10000 3.6 70 19:22 23.09.2019
1417 Clouds 13 1025 58 10000 1 90 18:59 23.09.2019
1418 Clouds 13 1026 58 10000 3.57 164.946 18:41 23.09.2019
1419 Clouds 13 1027 58 10000 6.04 194.933 18:19 23.09.2019
1420 Clouds 13 1027 58 10000 6.04 194.933 17:57 23.09.2019
1421 Clouds 13 1027 58 10000 6.04 194.933 17:39 23.09.2019
1422 Clouds 13 1027 58 10000 6.04 194.933 17:20 23.09.2019
1423 Clouds 13 1028 58 10000 0.5 230 16:57 23.09.2019
1424 Clouds 14 1028 54 10000 2.6 260 16:36 23.09.2019
1425 Clouds 14 1028 54 10000 2.6 260 16:36 23.09.2019
1426 Clouds 14 1028 54 10000 2.6 250 16:18 23.09.2019
1427 Clouds 14 1028 54 10000 2.6 250 15:56 23.09.2019
1428 Clouds 14 1028 54 10000 2.6 250 15:56 23.09.2019
1429 Clouds 14 1029 54 10000 3.6 270 15:38 23.09.2019
1430 Clouds 14 1028 50 10000 3.1 270 15:18 23.09.2019
1431 Rain 14 1028 54 10000 3.1 260 14:40 23.09.2019
1432 Rain 14 1028 54 10000 3.1 260 14:20 23.09.2019
1433 Clouds 14 1029 47 10000 3.5 79.123 13:58 23.09.2019
1434 Clouds 14 1028 47 10000 3.5 79.123 13:38 23.09.2019
1435 Clouds 14 1028 47 10000 1.5 140 13:18 23.09.2019
1436 Clouds 14 1028 47 10000 2.6 150 12:44 23.09.2019
1437 Clouds 14 1028 47 10000 2.6 150 12:23 23.09.2019
1438 Clouds 15 1028 44 10000 3.6 160 11:58 23.09.2019
1439 Clouds 15 1027 44 10000 4.1 150 11:40 23.09.2019
1440 Clouds 15 1027 44 10000 4.1 150 11:21 23.09.2019
1441 Clouds 15 1027 44 10000 4.6 160 10:49 23.09.2019
1442 Clouds 15 1026 44 10000 4.6 160 10:22 23.09.2019
1443 Clouds 15 1026 44 10000 1.21 89.573 09:58 23.09.2019
1444 Clouds 15 1026 47 10000 1.21 89.573 09:37 23.09.2019
1445 Rain 15 1026 47 10000 4.88 54.83 09:19 23.09.2019
1446 Clouds 15 1027 51 10000 5.1 150 08:44 23.09.2019
1447 Clouds 15 1027 51 10000 5.1 150 08:25 23.09.2019
1448 Clouds 15 1027 51 10000 5.1 140 07:47 23.09.2019
1449 Clouds 15 1027 51 10000 5.1 140 07:27 23.09.2019
1450 Clear 14 1028 54 10000 6.7 140 06:31 23.09.2019
1451 Rain 13 1028 76 10000 5.1 160 05:48 23.09.2019
1452 Rain 13 1028 76 10000 5.1 160 05:20 23.09.2019
1453 Clouds 13 1029 66 10000 5.7 140 04:54 23.09.2019
1454 Clear 17 1030 27 10000 4.6 100 02:36 23.09.2019
1455 Clouds 15 1028 26 10000 3.6 80 00:43 23.09.2019
1456 Clouds 15 1028 26 10000 3.6 80 00:22 23.09.2019
1457 Clouds 15 1027 26 10000 4.1 90 23:50 22.09.2019
1458 Clouds 15 1027 26 10000 4.1 90 23:32 22.09.2019
1459 Clouds 15 1027 26 10000 4.6 90 22:57 22.09.2019
1460 Clouds 14 1026 26 10000 4.6 90 22:38 22.09.2019
1461 Clouds 14 1026 26 10000 4.6 90 22:20 22.09.2019
1462 Clouds 14 1026 26 10000 3.1 130 21:43 22.09.2019
1463 Clouds 14 1026 26 10000 3.1 130 21:22 22.09.2019
1464 Clouds 15 1026 24 10000 5.7 110 20:55 22.09.2019
1465 Clouds 16 1026 23 10000 4.6 110 20:36 22.09.2019
1466 Clouds 16 1026 23 10000 4.6 110 20:18 22.09.2019
1467 Clouds 17 1027 21 10000 5.7 120 19:41 22.09.2019
1468 Clouds 17 1027 21 10000 5.7 120 19:22 22.09.2019
1469 Clouds 17 1028 21 10000 5.1 120 18:59 22.09.2019
1470 Clouds 17 1028 21 10000 4.1 130 18:39 22.09.2019
1471 Clouds 17 1028 21 10000 4.1 130 18:39 22.09.2019
1472 Rain 17 1028 21 10000 3.6 130 18:19 22.09.2019
1473 Rain 17 1028 21 10000 3.6 130 17:57 22.09.2019
1474 Clouds 18 1028 20 10000 3.6 110 17:39 22.09.2019
1475 Clouds 18 1028 20 10000 3.6 110 17:18 22.09.2019
1476 Clouds 18 1028 18 10000 4.6 110 16:44 22.09.2019
1477 Clouds 18 1028 18 10000 4.6 110 16:25 22.09.2019
1478 Clouds 18 1028 18 10000 4.6 110 15:47 22.09.2019
1479 Clouds 19 1028 17 10000 5.1 110 15:29 22.09.2019
1480 Clouds 19 1028 17 10000 5.7 110 14:59 22.09.2019
1481 Clouds 19 1028 17 10000 5.7 110 14:59 22.09.2019
1482 -273 0 0 0 0 0 14:41 22.09.2019
1483 Clouds 19 1027 17 10000 5.1 110 14:22 22.09.2019
1484 Clouds 19 1027 17 10000 5.1 120 13:55 22.09.2019
1485 Clouds 19 1026 17 10000 5.7 120 13:36 22.09.2019
1486 Clouds 20 1026 16 10000 4.6 120 13:18 22.09.2019
1487 Clouds 20 1026 16 10000 4.6 110 12:42 22.09.2019
1488 Clouds 20 1026 16 10000 4.1 120 12:22 22.09.2019
1489 Clouds 20 1026 16 10000 4.1 120 11:56 22.09.2019
1490 Clouds 20 1025 16 10000 5.1 110 11:38 22.09.2019
1491 Clouds 20 1025 16 10000 5.1 110 11:19 22.09.2019
1492 Clear 22 1025 15 10000 6.7 110 10:43 22.09.2019
1493 Clear 22 1025 15 10000 6.7 110 10:20 22.09.2019
1494 Clear 22 1024 15 10000 5.7 130 09:57 22.09.2019
1495 Clear 22 1024 14 10000 6.2 110 09:37 22.09.2019
1496 Clouds 22 1024 14 10000 6.2 110 09:19 22.09.2019
1497 Clouds 23 1024 13 10000 6.2 110 08:43 22.09.2019
1498 Clouds 23 1024 13 10000 6.2 110 08:23 22.09.2019
1499 Clouds 22 1024 14 10000 6.7 120 07:52 22.09.2019
1500 Clouds 22 1024 14 10000 6.7 120 07:52 22.09.2019
1501 Clouds 22 1024 14 10000 6.2 130 07:33 22.09.2019
1502 Clouds 21 1026 15 10000 7.2 110 06:59 22.09.2019
1503 Clouds 21 1026 15 10000 7.2 110 06:38 22.09.2019
1504 Clouds 21 1026 16 10000 6.7 110 05:22 22.09.2019
1505 Clouds 17 1027 23 10000 7.2 110 02:46 22.09.2019
1506 Clouds 17 1027 23 10000 7.2 110 02:26 22.09.2019
1507 Clouds 16 1027 25 10000 7.7 90 01:53 22.09.2019
1508 Clouds 13 1027 26 10000 3.1 110 00:55 22.09.2019
1509 Clouds 11 1026 29 10000 2.6 100 00:32 22.09.2019
1510 Clear 8 1026 33 10000 3.85 101.336 23:56 21.09.2019
1511 Clear 7 1026 39 10000 3.85 101.336 23:38 21.09.2019
1512 Clouds 7 1025 36 10000 1.5 110 22:57 21.09.2019
1513 Clear 7 1025 33 10000 2.6 150 22:38 21.09.2019
1514 Clouds 8 1024 33 10000 3.1 160 22:20 21.09.2019
1515 Clouds 8 1024 33 10000 3.1 170 21:41 21.09.2019
1516 Clouds 8 1024 33 10000 3.1 170 21:19 21.09.2019
1517 Clouds 8 1024 31 10000 2.1 170 20:58 21.09.2019
1518 Clouds 9 1024 29 10000 2.1 120 20:38 21.09.2019
1519 Clouds 9 1024 29 10000 2.1 120 20:18 21.09.2019
1520 Clouds 9 1024 31 10000 1.5 110 19:46 21.09.2019
1521 Clouds 9 1024 31 10000 1.5 110 19:21 21.09.2019
1522 Clouds 11 1024 29 10000 2.1 120 18:41 21.09.2019
1523 Clouds 11 1024 29 10000 2.6 130 18:22 21.09.2019
1524 Clear 10 1024 29 10000 3.1 150 17:43 21.09.2019
1525 Clear 10 1024 29 10000 3.1 150 17:24 21.09.2019
1526 Clouds 12 1024 27 10000 2.6 90 16:58 21.09.2019
1527 Clouds 13 1024 26 10000 2.6 100 16:39 21.09.2019
1528 Clouds 13 1024 26 10000 2.6 100 16:20 21.09.2019
1529 Clouds 14 1024 24 10000 3.1 110 15:45 21.09.2019
1530 Clouds 14 1024 24 10000 3.1 110 15:23 21.09.2019
1531 Clouds 13 1024 26 10000 3.1 140 14:49 21.09.2019
1532 Clouds 14 1024 24 10000 2.6 120 14:31 21.09.2019
1533 -273 0 0 0 0 0 13:54 21.09.2019
1534 Clouds 15 1023 22 10000 3.6 80 13:36 21.09.2019
1535 Clouds 16 1023 19 10000 3.1 80 13:18 21.09.2019
1536 Clouds 16 1022 21 10000 4.1 70 12:41 21.09.2019
1537 Clouds 17 1022 20 10000 5.1 60 12:22 21.09.2019
1538 Clouds 17 1022 20 10000 5.1 60 11:59 21.09.2019
1539 Clouds 18 1022 18 10000 5.7 90 11:41 21.09.2019
1540 Clouds 18 1022 18 10000 5.7 90 11:21 21.09.2019
1541 Clouds 19 1021 17 10000 6.2 100 10:41 21.09.2019
1542 Clouds 19 1021 17 10000 6.2 100 10:23 21.09.2019
1543 Clouds 20 1021 18 10000 4.6 120 09:57 21.09.2019
1544 Clouds 20 1021 19 10000 5.1 120 09:38 21.09.2019
1545 Clouds 20 1021 19 10000 5.1 120 09:20 21.09.2019
1546 Clouds 19 1020 20 10000 4.6 100 08:51 21.09.2019
1547 Clouds 19 1021 20 10000 5.7 130 08:26 21.09.2019
1548 Clear 18 1021 23 10000 4.6 100 07:41 21.09.2019
1549 Clear 19 1022 24 10000 5.7 150 07:22 21.09.2019
1550 Clear 19 1022 24 10000 5.7 90 06:47 21.09.2019
1551 Clear 19 1022 24 10000 5.7 90 06:26 21.09.2019
1552 Clear 17 1024 29 10000 6.7 130 04:49 21.09.2019
1553 Clear 17 1024 29 10000 6.7 130 04:49 21.09.2019
1554 Clear 16 1024 24 10000 7.2 100 04:31 21.09.2019
1555 Clouds 13 1025 43 10000 6.2 130 02:27 21.09.2019
1556 Clouds 12 1024 46 10000 4.6 130 01:52 21.09.2019
1557 Clouds 12 1024 46 10000 4.6 130 01:33 21.09.2019
1558 Clouds 10 1023 57 10000 3.1 130 00:38 21.09.2019
1559 Clouds 10 1023 57 10000 3.1 130 00:18 21.09.2019
1560 Clouds 10 1023 57 10000 3.1 130 00:18 21.09.2019
1561 Clouds 8 1023 61 10000 2.6 140 23:41 20.09.2019
1562 Clouds 8 1023 61 10000 2.6 140 23:21 20.09.2019
1563 Clouds 10 1022 57 10000 2.6 140 22:41 20.09.2019
1564 Clouds 10 1022 57 10000 2.6 140 22:22 20.09.2019
1565 Clouds 10 1021 57 10000 3.1 130 21:56 20.09.2019
1566 Clouds 11 1021 53 10000 2.6 130 21:37 20.09.2019
1567 Clouds 11 1021 53 10000 2.6 130 21:18 20.09.2019
1568 Clouds 11 1020 53 10000 3.6 150 20:41 20.09.2019
1569 Clouds 11 1020 53 10000 3.6 150 20:21 20.09.2019
1570 Clouds 11 1020 53 10000 3.6 150 20:21 20.09.2019
1571 Clouds 11 1020 53 10000 3.6 140 19:59 20.09.2019
1572 Clouds 12 1020 50 10000 3.6 140 19:40 20.09.2019
1573 Clouds 12 1020 54 10000 5.7 140 19:20 20.09.2019
1574 Clouds 12 1020 54 10000 4.6 150 18:40 20.09.2019
1575 Clouds 12 1020 54 10000 6.7 160 18:20 20.09.2019
1576 Clouds 12 1020 54 10000 6.7 160 17:59 20.09.2019
1577 Clouds 13 1020 58 10000 5.7 150 17:41 20.09.2019
1578 Clouds 13 1020 58 10000 5.7 150 17:22 20.09.2019
1579 Clouds 14 1020 58 10000 4.1 150 16:41 20.09.2019
1580 Clouds 14 1020 54 10000 3.1 150 16:19 20.09.2019
1581 Clouds 14 1020 54 10000 3.1 150 15:43 20.09.2019
1582 Clouds 14 1020 54 10000 3.1 150 15:24 20.09.2019
1583 Clouds 14 1020 54 10000 3.1 150 15:24 20.09.2019
1584 Clouds 15 1020 51 10000 4.6 170 14:59 20.09.2019
1585 Clouds 15 1020 51 10000 4.6 170 14:41 20.09.2019
1586 Clouds 11 1021 66 0 6.46 181.206 14:19 20.09.2019
1587 Clouds 16 1019 48 10000 6.7 190 13:47 20.09.2019
1588 Clouds 16 1019 48 10000 6.7 190 13:28 20.09.2019
1589 Clouds 16 1019 48 10000 6.7 190 12:57 20.09.2019
1590 Clouds 16 1019 51 10000 7.2 180 12:37 20.09.2019
1591 Clouds 16 1018 51 10000 8.2 180 12:18 20.09.2019
1592 Clouds 17 1017 48 10000 8.2 180 11:48 20.09.2019
1593 Clouds 17 1017 48 10000 8.2 180 11:21 20.09.2019
1594 Clouds 19 1016 48 10000 9.3 190 10:43 20.09.2019
1595 Clouds 19 1016 48 10000 9.3 190 10:24 20.09.2019
1596 Clouds 21 1014 43 10000 10.3 190 09:55 20.09.2019
1597 Clouds 21 1014 40 10000 8.2 180 09:36 20.09.2019
1598 Clouds 21 1014 40 10000 8.2 180 09:18 20.09.2019
1599 Dust 23 1013 33 5000 9.8 190 08:41 20.09.2019
1600 Dust 23 1013 33 5000 9.8 190 08:22 20.09.2019
1601 Dust 24 1012 31 1000 11.3 200 07:45 20.09.2019
1602 Dust 24 1012 31 1000 11.3 200 07:26 20.09.2019
1603 Clouds 26 1011 27 100 12.3 210 06:44 20.09.2019
1604 Clouds 26 1011 27 100 12.3 210 06:21 20.09.2019
1605 Dust 32 1010 11 5000 11.3 310 05:43 20.09.2019
1606 Dust 32 1011 9 10000 11.8 330 03:36 20.09.2019
1607 Dust 32 1011 9 10000 11.8 330 03:18 20.09.2019
1608 Clear 27 1012 10 10000 10.3 350 01:44 20.09.2019
1609 Clear 27 1012 10 10000 10.3 350 01:44 20.09.2019
1610 Clouds 25 1011 10 10000 9.8 350 00:48 20.09.2019
1611 Clouds 25 1011 10 10000 9.8 350 00:21 20.09.2019
1612 Clouds 25 1011 9 10000 8.7 350 23:42 19.09.2019
1613 Clouds 24 1011 10 10000 7.2 350 23:19 19.09.2019
1614 Clouds 24 1011 10 10000 7.2 350 22:55 19.09.2019
1615 Clouds 24 1011 9 10000 8.7 350 22:36 19.09.2019
1616 Clouds 24 1011 10 10000 8.2 340 22:18 19.09.2019
1617 Clouds 24 1011 10 10000 8.2 340 21:55 19.09.2019
1618 Clouds 25 1010 9 10000 6.7 340 21:36 19.09.2019
1619 Clear 24 1010 9 10000 7.2 350 21:18 19.09.2019
1620 Clear 24 1010 9 10000 7.2 350 21:18 19.09.2019
1621 Clear 24 1010 10 10000 7.2 350 20:43 19.09.2019
1622 Clear 24 1010 10 10000 7.2 350 20:20 19.09.2019
1623 Clear 24 1011 9 10000 8.7 350 19:55 19.09.2019
1624 Clear 24 1011 10 10000 6.2 350 19:37 19.09.2019
1625 Clear 24 1011 10 10000 6.2 350 19:19 19.09.2019
1626 Clear 23 1013 11 10000 4.6 340 18:42 19.09.2019
1627 Clear 23 1013 11 10000 4.6 340 18:42 19.09.2019
1628 Clear 23 1013 11 10000 5.7 330 18:23 19.09.2019
1629 Clear 24 1013 11 10000 4.1 350 17:44 19.09.2019
1630 Clear 24 1013 11 10000 4.1 350 17:25 19.09.2019
1631 Clear 24 1014 10 10000 3.6 340 16:59 19.09.2019
1632 Clear 25 1014 9 10000 3.6 350 16:40 19.09.2019
1633 Clear 25 1014 9 10000 3.6 350 16:20 19.09.2019
1634 Clear 26 1014 9 10000 3.6 350 15:41 19.09.2019
1635 Clear 26 1014 9 10000 3.6 350 15:22 19.09.2019
1636 Clear 26 1014 9 10000 4.1 350 14:58 19.09.2019
1637 Clear 27 1014 9 10000 4.6 360 14:39 19.09.2019
1638 Clear 27 1014 9 10000 4.6 360 14:21 19.09.2019
1639 Clear 26 1014 9 10000 4.1 10 13:57 19.09.2019
1640 Clear 27 1014 8 10000 3.6 360 13:37 19.09.2019
1641 Clear 29 1013 7 10000 4.6 350 13:18 19.09.2019
1642 Clear 29 1013 7 10000 4.6 350 13:18 19.09.2019
1643 Clear 30 1013 7 10000 4.1 350 12:37 19.09.2019
1644 Clear 31 1013 6 10000 5.1 350 12:18 19.09.2019
1645 Clear 31 1012 6 10000 5.1 360 11:41 19.09.2019
1646 Clear 31 1012 6 10000 5.1 360 11:22 19.09.2019
1647 Clear 32 1012 7 10000 5.1 360 10:58 19.09.2019
1648 Clear 33 1012 6 10000 7.7 350 10:39 19.09.2019
1649 Clear 33 1012 6 10000 7.7 350 10:21 19.09.2019
1650 Clear 33 1012 7 10000 6.2 310 09:56 19.09.2019
1651 Clear 33 1012 6 10000 7.7 350 09:38 19.09.2019
1652 Clear 33 1012 6 10000 7.7 350 09:19 19.09.2019
1653 Dust 33 1013 7 10000 7.7 340 08:49 19.09.2019
1654 Dust 33 1013 7 10000 7.7 340 08:23 19.09.2019
1655 Dust 33 1014 7 10000 9.8 350 07:44 19.09.2019
1656 Dust 34 1014 6 10000 5.1 340 07:22 19.09.2019
1657 Dust 34 1014 6 10000 5.1 340 06:54 19.09.2019
1658 Dust 33 1015 6 10000 6.7 350 06:32 19.09.2019
1659 Clear 33 1016 7 10000 7.2 340 05:53 19.09.2019
1660 Clear 33 1016 7 10000 7.2 340 05:34 19.09.2019
1661 Clear 33 1016 7 10000 7.2 340 05:34 19.09.2019
1662 Clear 31 1018 9 10000 8.2 340 03:55 19.09.2019
1663 Clear 31 1018 8 10000 7.7 340 03:19 19.09.2019
1664 Clear 26 1019 11 10000 5.7 360 01:35 19.09.2019
1665 Clear 24 1019 12 10000 5.1 10 00:53 19.09.2019
1666 Clear 23 1019 12 10000 4.6 30 00:26 19.09.2019
1667 Clear 23 1019 12 10000 4.6 30 00:26 19.09.2019
1668 Clear 20 1018 18 10000 5.1 20 23:44 18.09.2019
1669 Clear 20 1018 18 10000 5.1 20 23:44 18.09.2019
1670 Clear 20 1018 18 10000 5.1 20 23:23 18.09.2019
1671 Clear 20 1018 18 10000 4.6 20 22:57 18.09.2019
1672 Clear 20 1018 19 10000 5.1 20 22:37 18.09.2019
1673 Clear 20 1018 19 10000 5.1 20 22:18 18.09.2019
1674 Clear 20 1018 19 10000 5.7 20 21:56 18.09.2019
1675 Clear 21 1018 18 10000 4.6 20 21:37 18.09.2019
1676 Clear 21 1018 18 10000 4.6 20 21:18 18.09.2019
1677 Clear 22 1018 17 10000 4.1 10 20:56 18.09.2019
1678 Clear 22 1018 17 10000 4.6 10 20:37 18.09.2019
1679 Clear 21 1018 18 10000 2.6 290 20:19 18.09.2019
1680 Clear 21 1018 18 10000 2.6 290 19:54 18.09.2019
1681 Clear 20 1018 19 10000 2.6 280 19:36 18.09.2019
1682 Clear 16 1018 19 10000 5.93 347.102 19:18 18.09.2019
1683 Clear 18 1018 18 10000 2.1 120 18:54 18.09.2019
1684 Clear 18 1018 18 10000 2.1 120 18:36 18.09.2019
1685 Clear 18 1018 18 10000 2.1 120 18:18 18.09.2019
1686 Clear 21 1019 15 10000 0.5 40 17:40 18.09.2019
1687 Clear 21 1019 15 10000 0.5 40 17:19 18.09.2019
1688 Clear 21 1019 15 10000 1 80 16:57 18.09.2019
1689 Clear 21 1019 15 10000 3.1 70 16:38 18.09.2019
1690 Clear 21 1019 15 10000 3.1 70 16:20 18.09.2019
1691 Clear 22 1019 14 10000 3.6 70 15:56 18.09.2019
1692 Clear 22 1019 14 10000 3.6 70 15:56 18.09.2019
1693 Clear 23 1019 13 10000 3.6 60 15:38 18.09.2019
1694 Clear 23 1019 13 10000 3.6 60 15:19 18.09.2019
1695 Clear 23 1019 13 10000 4.1 80 14:57 18.09.2019
1696 Clear 24 1019 13 10000 3.6 80 14:39 18.09.2019
1697 Clear 24 1019 13 10000 3.6 80 14:21 18.09.2019
1698 Clear 26 1019 11 10000 4.6 80 13:54 18.09.2019
1699 Clouds 26 1019 12 10000 4.6 80 13:36 18.09.2019
1700 Clouds 27 1018 10 10000 5.1 70 13:18 18.09.2019
1701 Clouds 27 1018 10 10000 4.1 50 12:37 18.09.2019
1702 Clouds 28 1018 11 10000 3.6 70 12:19 18.09.2019
1703 Clouds 30 1017 9 10000 4.1 90 11:40 18.09.2019
1704 Clouds 30 1017 9 10000 4.1 90 11:20 18.09.2019
1705 Clouds 32 1017 8 10000 5.1 70 10:55 18.09.2019
1706 Clouds 32 1017 8 10000 4.6 110 10:37 18.09.2019
1707 Clouds 32 1017 8 10000 4.6 110 10:18 18.09.2019
1708 Clouds 33 1017 7 10000 4.6 140 09:41 18.09.2019
1709 Clear 33 1017 7 10000 4.6 140 09:22 18.09.2019
1710 Clear 33 1017 7 10000 2.6 160 08:56 18.09.2019
1711 Dust 33 1017 8 10000 3.6 160 08:38 18.09.2019
1712 Clear 33 1017 8 10000 5.1 80 08:19 18.09.2019
1713 Clear 33 1018 7 10000 4.1 90 07:43 18.09.2019
1714 Clear 33 1018 7 10000 4.1 90 07:23 18.09.2019
1715 Clear 33 1019 9 10000 4.1 80 06:45 18.09.2019
1716 Clear 33 1019 9 10000 4.1 80 06:21 18.09.2019
1717 Clear 33 1019 9 10000 4.1 80 06:21 18.09.2019
1718 Clear 31 1020 12 10000 3.6 90 05:27 18.09.2019
1719 Clear 26 1022 21 10000 3.1 90 03:40 18.09.2019
1720 Clear 22 1022 26 9000 3.6 80 02:40 18.09.2019
1721 Clear 20 1022 30 9000 3.6 50 01:41 18.09.2019
1722 Clear 18 1022 34 9000 3.1 70 00:55 18.09.2019
1723 Clear 16 1022 38 10000 3.6 70 00:31 18.09.2019
1724 Clear 12 1022 50 9000 2.6 60 23:47 17.09.2019
1725 Clear 12 1022 50 9000 2.6 60 23:47 17.09.2019
1726 Clear 12 1022 50 9000 2.6 60 23:24 17.09.2019
1727 Clear 13 1022 47 10000 3.6 70 22:55 17.09.2019
1728 Clear 14 1021 44 10000 3.6 80 22:36 17.09.2019
1729 Clear 16 1021 38 10000 3.6 110 22:18 17.09.2019
1730 Clear 16 1021 38 10000 3.6 110 21:54 17.09.2019
1731 Clear 15 1021 41 7000 3.6 100 21:36 17.09.2019
1732 Clear 15 1021 41 7000 3.6 100 21:18 17.09.2019
1733 Clear 15 1021 38 6000 3.1 90 20:54 17.09.2019
1734 Clear 16 1021 38 6000 3.6 90 20:36 17.09.2019
1735 Clear 17 1021 36 5000 2.6 100 20:18 17.09.2019
1736 Clear 17 1021 36 5000 2.6 100 20:18 17.09.2019
1737 Clear 18 1021 34 5000 3.1 100 19:39 17.09.2019
1738 Clear 18 1021 34 5000 3.1 100 19:39 17.09.2019
1739 Clear 18 1021 34 5000 3.1 100 19:20 17.09.2019
1740 Clear 18 1021 34 5000 3.1 100 18:59 17.09.2019
1741 Clear 18 1021 34 5000 3.1 100 18:59 17.09.2019
1742 Clouds 18 1021 34 6000 2.6 70 18:41 17.09.2019
1743 Clouds 18 1021 34 6000 2.6 70 18:21 17.09.2019
1744 Clouds 18 1021 34 10000 2.6 110 17:47 17.09.2019
1745 Clouds 18 1021 34 10000 2.6 110 17:21 17.09.2019
1746 Clouds 18 1022 31 10000 2.6 130 16:59 17.09.2019
1747 Clear 19 1022 32 10000 2.6 70 16:41 17.09.2019
1748 Clear 19 1022 32 10000 2.6 70 16:22 17.09.2019
1749 Clear 19 1022 32 10000 2.1 50 15:54 17.09.2019
1750 Clear 20 1022 30 10000 2.1 20 15:36 17.09.2019
1751 Clear 21 1022 28 10000 3.1 60 15:18 17.09.2019
1752 Clear 21 1022 28 10000 3.1 60 14:54 17.09.2019
1753 Clear 23 1022 25 10000 5.7 100 14:36 17.09.2019
1754 Clear 23 1022 25 10000 5.7 100 14:18 17.09.2019
1755 Clear 24 1021 25 10000 4.6 100 13:40 17.09.2019
1756 Clear 24 1021 25 10000 5.1 110 13:22 17.09.2019
1757 Clear 25 1021 22 10000 5.1 110 12:43 17.09.2019
1758 Clear 26 1020 21 10000 5.1 110 12:20 17.09.2019
1759 Clear 26 1020 21 10000 5.1 110 11:58 17.09.2019
1760 Clear 27 1020 19 10000 5.7 110 11:40 17.09.2019
1761 Clear 27 1020 19 10000 5.7 110 11:18 17.09.2019
1762 Clear 29 1019 16 10000 4.1 110 10:42 17.09.2019
1763 Clear 29 1019 16 10000 4.1 110 10:22 17.09.2019
1764 Clear 30 1019 19 10000 4.6 80 09:58 17.09.2019
1765 Clear 30 1019 19 10000 4.1 90 09:39 17.09.2019
1766 Clear 30 1019 14 10000 4.1 90 09:19 17.09.2019
1767 Clear 30 1019 14 10000 4.1 90 09:19 17.09.2019
1768 Clear 29 1019 16 10000 3.6 90 08:44 17.09.2019
1769 Clear 29 1019 16 10000 3.6 90 08:25 17.09.2019
1770 Clear 29 1019 16 10000 3.1 50 07:46 17.09.2019
1771 Clear 29 1019 16 10000 3.1 50 07:28 17.09.2019
1772 Clear 29 1020 17 10000 3.6 120 06:59 17.09.2019
1773 Clear 28 1020 20 10000 4.1 120 06:40 17.09.2019
1774 Clear 28 1020 20 10000 5.7 70 05:56 17.09.2019
1775 Clear 27 1021 21 10000 5.1 60 05:33 17.09.2019
1776 Clear 23 1023 33 10000 4.6 110 03:49 17.09.2019
1777 Clear 22 1023 35 10000 5.7 100 02:40 17.09.2019
1778 Clear 20 1023 40 10000 5.7 110 01:52 17.09.2019
1779 Clear 19 1023 42 10000 5.7 110 00:56 17.09.2019
1780 Clouds 16 1021 48 10000 3.6 120 23:42 16.09.2019
1781 Clouds 16 1021 48 10000 3.6 120 23:20 16.09.2019
1782 Clouds 17 1021 45 10000 4.6 120 22:59 16.09.2019
1783 Clouds 16 1021 44 10000 4.1 140 22:40 16.09.2019
1784 Clouds 16 1021 44 10000 4.1 140 22:22 16.09.2019
1785 Clouds 18 1020 42 10000 4.1 120 21:57 16.09.2019
1786 Clouds 19 1020 39 10000 4.1 120 21:38 16.09.2019
1787 Clouds 19 1020 39 10000 4.1 120 21:38 16.09.2019
1788 Clouds 19 1020 39 10000 4.1 120 21:20 16.09.2019
1789 Clouds 19 1020 39 10000 4.1 120 21:20 16.09.2019
1790 Clouds 17 1019 33 10000 3.6 130 20:42 16.09.2019
1791 Clouds 17 1019 33 10000 3.6 130 20:23 16.09.2019
1792 Clouds 19 1019 32 10000 2.6 90 19:58 16.09.2019
1793 Clouds 20 1019 30 10000 3.6 90 19:40 16.09.2019
1794 Clouds 20 1019 43 10000 2.6 40 19:20 16.09.2019
1795 Clouds 20 1019 43 10000 2.6 40 18:56 16.09.2019
1796 Clouds 21 1019 43 10000 4.1 120 18:37 16.09.2019
1797 Clouds 22 1019 19 10000 5.1 130 18:18 16.09.2019
1798 Clouds 23 1019 11 10000 6.2 150 17:43 16.09.2019
1799 Clouds 23 1019 11 10000 6.2 150 17:24 16.09.2019
1800 Clouds 22 1019 12 10000 7.7 160 16:58 16.09.2019
1801 Clouds 21 1018 13 10000 3.1 20 16:38 16.09.2019
1802 Clouds 20 1018 13 10000 2.1 350 16:20 16.09.2019
1803 Clouds 20 1018 13 10000 2.1 350 15:56 16.09.2019
1804 Clouds 20 1018 12 10000 1.5 40 15:37 16.09.2019
1805 Clouds 22 1018 11 10000 2.6 60 15:18 16.09.2019
1806 Clouds 23 1019 11 10000 2.6 70 14:44 16.09.2019
1807 Clouds 23 1019 11 10000 2.6 70 14:23 16.09.2019
1808 Clouds 23 1018 11 10000 3.1 100 13:59 16.09.2019
1809 Clouds 25 1018 10 10000 3.1 110 13:39 16.09.2019
1810 Clouds 25 1018 10 10000 3.1 110 13:20 16.09.2019
1811 Clouds 25 1018 9 10000 3.1 110 13:20 16.09.2019
1812 Clouds 27 1017 8 10000 2.6 110 12:43 16.09.2019
1813 -273 0 0 0 0 0 12:25 16.09.2019
1814 -273 0 0 0 0 0 12:25 16.09.2019
1815 -273 0 0 0 0 0 12:25 16.09.2019
1816 Clouds 28 1017 8 10000 3.6 120 11:55 16.09.2019
1817 Clouds 30 1017 7 10000 3.6 120 11:37 16.09.2019
1818 Clouds 30 1017 7 10000 3.6 120 11:19 16.09.2019
1819 Clouds 33 1016 6 10000 4.6 110 10:38 16.09.2019
1820 Clouds 33 1016 6 10000 4.6 110 10:19 16.09.2019
1821 Clouds 33 1016 7 10000 4.6 130 09:58 16.09.2019
1822 Clouds 34 1016 6 10000 4.6 110 09:38 16.09.2019
1823 Clouds 34 1016 6 10000 4.6 110 09:19 16.09.2019
1824 Dust 33 1016 7 10000 3.1 50 08:44 16.09.2019
1825 Dust 33 1016 7 10000 3.1 50 08:25 16.09.2019
1826 Dust 33 1017 7 10000 3.6 80 07:56 16.09.2019
1827 Dust 33 1017 7 10000 5.7 110 07:37 16.09.2019
1828 Dust 34 1017 6 10000 5.1 90 07:18 16.09.2019
1829 Clear 33 1018 7 10000 2.6 330 06:43 16.09.2019
1830 Clear 33 1018 7 10000 2.6 330 06:25 16.09.2019
1831 Clear 32 1019 7 10000 3.1 120 05:44 16.09.2019
1832 Clear 32 1019 7 10000 3.1 120 05:25 16.09.2019
1833 Clear 31 1020 8 10000 4.1 360 03:52 16.09.2019
1834 Clear 31 1020 8 10000 4.1 360 03:52 16.09.2019
1835 Clear 27 1020 10 10000 3.6 350 01:57 16.09.2019
1836 Clouds 20 1020 15 10000 1 310 00:40 16.09.2019
1837 Clouds 20 1020 15 10000 1 310 00:22 16.09.2019
1838 Clouds 11 1019 21 10000 2.6 280 23:39 15.09.2019
1839 Clouds 11 1019 21 10000 2.6 280 23:20 15.09.2019
1840 Clouds 12 1019 20 10000 2.1 270 22:42 15.09.2019
1841 Clouds 12 1019 20 10000 2.1 270 22:21 15.09.2019
1842 Clouds 12 1019 20 10000 2.1 270 21:58 15.09.2019
1843 Clouds 12 1019 18 10000 2.6 270 21:40 15.09.2019
1844 Clouds 12 1019 18 10000 2.6 270 21:40 15.09.2019
1845 Clouds 12 1019 18 10000 2.6 270 21:21 15.09.2019
1846 Clouds 12 1019 18 10000 2.6 260 20:57 15.09.2019
1847 Clouds 12 1019 18 10000 2.6 260 20:57 15.09.2019
1848 Clouds 12 1019 18 10000 2.1 260 20:39 15.09.2019
1849 Clouds 12 1019 20 10000 2.1 300 20:21 15.09.2019
1850 Clouds 13 1019 19 10000 2.1 330 19:44 15.09.2019
1851 Clouds 15 1019 18 10000 2.6 330 19:23 15.09.2019
1852 Clouds 14 1019 17 10000 2.6 330 18:55 15.09.2019
1853 Clouds 14 1019 17 10000 2.6 330 18:36 15.09.2019
1854 Clouds 14 1020 17 10000 2.1 290 18:18 15.09.2019
1855 Clouds 14 1020 16 10000 3.56 43.111 17:40 15.09.2019
1856 Clouds 14 1020 16 10000 3.56 43.111 17:20 15.09.2019
1857 Clouds 16 1020 15 10000 3.56 43.111 16:44 15.09.2019
1858 Clouds 16 1020 15 10000 3.56 43.111 16:26 15.09.2019
1859 Clouds 18 1020 15 10000 1.5 20 15:59 15.09.2019
1860 Clouds 18 1020 13 10000 1.5 350 15:41 15.09.2019
1861 Clouds 18 1020 13 10000 1.5 350 15:20 15.09.2019
1862 Clouds 18 1020 12 10000 1.5 30 14:58 15.09.2019
1863 Clouds 20 1020 12 10000 2.6 80 14:39 15.09.2019
1864 Clouds 20 1020 12 10000 2.6 80 14:20 15.09.2019
1865 Clouds 22 1020 10 10000 2.6 120 13:46 15.09.2019
1866 Clouds 22 1020 10 10000 2.6 120 13:46 15.09.2019
1867 Clear 22 1020 10 10000 2.6 120 13:24 15.09.2019
1868 Clear 23 1019 10 10000 3.1 140 12:55 15.09.2019
1869 Clear 24 1019 10 10000 3.6 130 12:36 15.09.2019
1870 Clear 25 1019 9 10000 3.6 140 12:18 15.09.2019
1871 Clear 28 1019 8 10000 3.1 140 11:42 15.09.2019
1872 Clear 28 1019 8 10000 3.1 140 11:22 15.09.2019
1873 Clear 30 1018 7 10000 3.1 110 10:56 15.09.2019
1874 Clear 31 1018 6 10000 4.1 130 10:38 15.09.2019
1875 Clear 31 1018 6 10000 4.1 130 10:19 15.09.2019
1876 Clear 31 1018 6 10000 3.6 80 09:40 15.09.2019
1877 Clear 32 1018 7 10000 3.6 130 09:20 15.09.2019
1878 Clear 32 1018 7 10000 3.6 130 08:47 15.09.2019
1879 Clear 32 1018 7 10000 3.6 130 08:47 15.09.2019
1880 Clear 32 1018 7 10000 3.6 80 08:28 15.09.2019
1881 Clear 32 1018 7 10000 3.6 80 08:28 15.09.2019
1882 Clear 31 1018 6 10000 4.1 90 07:51 15.09.2019
1883 Clear 31 1019 6 10000 2.6 140 07:32 15.09.2019
1884 Clear 31 1020 6 10000 3.6 30 06:43 15.09.2019
1885 Clear 29 1023 9 10000 3.6 60 03:32 15.09.2019
1886 Clear 26 1023 10 10000 3.1 60 02:42 15.09.2019
1887 Clear 19 1024 15 10000 4.86 47.102 01:41 15.09.2019
1888 Clear 19 1024 15 10000 4.82 45.572 01:21 15.09.2019
1889 Clear 14 1023 19 10000 1 300 00:46 15.09.2019
1890 Clear 14 1023 19 10000 1 300 00:24 15.09.2019
1891 Clear 11 1023 23 10000 2.6 310 23:58 14.09.2019
1892 Clear 10 1022 27 10000 2.1 310 23:40 14.09.2019
1893 Clear 10 1022 27 10000 2.1 310 23:21 14.09.2019
1894 Clear 10 1022 25 10000 2.1 310 22:59 14.09.2019
1895 Clear 11 1022 23 10000 2.1 300 22:40 14.09.2019
1896 Clear 11 1022 23 10000 2.1 300 22:21 14.09.2019
1897 Clear 10 1021 23 10000 2.6 310 21:56 14.09.2019
1898 Clear 11 1021 23 10000 2.6 300 21:38 14.09.2019
1899 Clear 11 1021 23 10000 2.6 300 21:19 14.09.2019
1900 Clear 12 1021 22 10000 2.6 310 20:40 14.09.2019
1901 Clear 12 1021 22 10000 2.6 310 20:40 14.09.2019
1902 Clear 12 1021 22 10000 2.6 310 20:22 14.09.2019
1903 Clear 12 1021 22 10000 2.1 290 19:59 14.09.2019
1904 Clear 12 1021 22 10000 2.1 290 19:59 14.09.2019
1905 Clear 12 1021 22 10000 2.6 290 19:40 14.09.2019
1906 Clear 13 1022 20 10000 2.6 290 19:19 14.09.2019
1907 Clear 12 1022 20 10000 2.6 290 18:41 14.09.2019
1908 Clear 12 1022 20 10000 2.6 290 18:21 14.09.2019
1909 Clear 14 1022 20 10000 2.6 290 17:58 14.09.2019
1910 Clear 14 1022 19 10000 2.6 280 17:39 14.09.2019
1911 Clear 15 1022 18 10000 2.6 270 17:21 14.09.2019
1912 Clear 15 1023 15 10000 3.46 46.43 16:44 14.09.2019
1913 Clear 15 1023 15 10000 3.46 46.43 16:22 14.09.2019
1914 Clear 16 1022 17 10000 2.1 180 15:56 14.09.2019
1915 Clear 16 1022 17 10000 3.46 46.43 15:36 14.09.2019
1916 Clear 17 1022 13 10000 4.02 86.065 15:18 14.09.2019
1917 Clear 19 1022 14 10000 2.1 80 14:42 14.09.2019
1918 Clear 22 1022 11 10000 3.1 100 14:19 14.09.2019
1919 Clear 23 1022 11 10000 2.6 80 13:47 14.09.2019
1920 Clear 23 1022 11 10000 2.6 70 13:22 14.09.2019
1921 Clear 24 1022 11 10000 2.6 90 12:48 14.09.2019
1922 Clear 24 1022 11 10000 2.6 90 12:26 14.09.2019
1923 Clear 27 1021 9 10000 3.6 70 11:43 14.09.2019
1924 Clear 27 1021 9 10000 3.6 70 11:21 14.09.2019
1925 Clear 29 1021 9 10000 4.1 70 10:58 14.09.2019
1926 Clear 30 1021 7 10000 4.6 90 10:36 14.09.2019
1927 Clear 30 1021 7 10000 4.6 90 10:18 14.09.2019
1928 Clear 30 1021 7 10000 3.6 60 09:56 14.09.2019
1929 Clear 31 1021 8 10000 5.1 70 09:37 14.09.2019
1930 Clear 31 1021 8 10000 5.1 70 09:18 14.09.2019
1931 Clear 31 1021 8 10000 4.6 100 08:41 14.09.2019
1932 Clear 31 1021 8 10000 4.6 100 08:23 14.09.2019
1933 Clear 31 1022 8 10000 5.7 120 07:44 14.09.2019
1934 Clear 31 1022 8 10000 5.7 120 07:44 14.09.2019
1935 Clear 31 1022 8 10000 5.7 120 07:26 14.09.2019
1936 Clear 30 1023 7 10000 5.7 80 06:38 14.09.2019
1937 Clear 29 1024 9 10000 6.7 100 05:57 14.09.2019
1938 Clear 29 1025 9 10000 6.7 90 04:44 14.09.2019
1939 Clear 27 1026 8 10000 5.7 70 03:33 14.09.2019
1940 Clear 27 1026 8 10000 6.2 60 02:51 14.09.2019
1941 Clear 19 1026 13 10000 0.5 300 01:46 14.09.2019
1942 Clear 16 1026 15 10000 1.5 300 01:21 14.09.2019
1943 Clear 13 1026 20 10000 1.5 320 00:55 14.09.2019
1944 Clear 13 1026 20 10000 1.5 320 00:36 14.09.2019
1945 Clear 10 1025 23 10000 2.6 300 00:18 14.09.2019
1946 Clear 9 1025 24 10000 2.6 300 23:37 13.09.2019
1947 Clear 9 1025 24 10000 2.6 300 23:18 13.09.2019
1948 Clear 10 1025 23 10000 3.1 290 22:55 13.09.2019
1949 Clear 10 1025 23 10000 3.1 290 22:55 13.09.2019
1950 Clear 10 1024 23 10000 2.6 290 22:37 13.09.2019
1951 Clear 10 1024 23 10000 2.6 290 22:37 13.09.2019
1952 Clear 10 1024 23 10000 2.6 290 22:19 13.09.2019
1953 Clear 10 1024 23 10000 3.1 290 21:40 13.09.2019
1954 Clear 10 1024 23 10000 3.1 290 21:19 13.09.2019
1955 Clear 10 1024 23 10000 3.1 290 21:19 13.09.2019
1956 Clear 10 1024 23 10000 2.6 280 20:58 13.09.2019
1957 Clear 11 1024 21 10000 2.6 290 20:38 13.09.2019
1958 Clear 11 1024 21 10000 2.6 290 20:19 13.09.2019
1959 Clear 11 1024 21 10000 2.1 290 19:54 13.09.2019
1960 Clear 11 1024 21 10000 2.1 290 19:54 13.09.2019
1961 Clear 12 1024 20 10000 2.1 290 19:36 13.09.2019
1962 Clear 13 1024 20 10000 2.6 290 19:18 13.09.2019
1963 Clear 12 1024 20 10000 2.6 270 18:38 13.09.2019
1964 Clear 12 1025 18 10000 2.1 250 18:19 13.09.2019
1965 Clear 12 1025 18 10000 2.1 250 18:19 13.09.2019
1966 Clear 12 1025 18 10000 2.1 250 17:55 13.09.2019
1967 Clear 13 1025 19 10000 2.1 300 17:36 13.09.2019
1968 Clear 13 1025 19 10000 2.1 300 17:18 13.09.2019
1969 Clear 14 1025 15 10000 2.21 51.676 16:40 13.09.2019
1970 Clear 14 1025 15 10000 2.21 51.676 16:20 13.09.2019
1971 Clear 17 1025 17 10000 0.5 50 15:43 13.09.2019
1972 Clear 17 1025 17 10000 0.5 50 15:24 13.09.2019
1973 Clear 17 1025 16 10000 2.6 100 14:56 13.09.2019
1974 Clear 18 1025 13 10000 2.1 110 14:37 13.09.2019
1975 Clear 18 1025 13 10000 2.1 110 14:37 13.09.2019
1976 Clear 19 1025 13 10000 3.1 160 14:19 13.09.2019
1977 Clear 20 1024 13 10000 2.1 70 13:44 13.09.2019
1978 Clear 23 1024 11 10000 2.1 50 13:22 13.09.2019
1979 Clear 24 1024 11 10000 2.1 90 12:46 13.09.2019
1980 Clear 24 1024 11 10000 2.1 90 12:25 13.09.2019
1981 Clear 26 1023 9 10000 3.6 100 11:57 13.09.2019
1982 Clear 28 1023 8 10000 4.6 90 11:20 13.09.2019
1983 Clear 29 1023 9 10000 6.2 90 10:57 13.09.2019
1984 Clear 30 1023 8 10000 7.7 100 10:37 13.09.2019
1985 Clear 30 1023 7 10000 7.2 110 10:18 13.09.2019
1986 Clear 31 1022 8 10000 7.2 110 09:43 13.09.2019
1987 Clear 31 1022 8 10000 7.2 110 09:43 13.09.2019
1988 Clear 30 1023 7 10000 6.2 90 09:20 13.09.2019
1989 Clear 30 1023 7 10000 6.2 90 08:55 13.09.2019
1990 Clear 31 1023 6 10000 6.7 90 08:37 13.09.2019
1991 Clear 30 1023 6 10000 6.2 70 08:19 13.09.2019
1992 Clear 30 1023 5 10000 4.6 80 07:41 13.09.2019
1993 Clear 29 1024 6 10000 5.7 110 07:21 13.09.2019
1994 Clear 28 1024 5 10000 6.2 70 06:38 13.09.2019
1995 Clear 28 1025 5 10000 5.7 60 05:34 13.09.2019
1996 Clear 25 1026 7 10000 6.7 100 03:52 13.09.2019
1997 Clear 24 1027 8 10000 4.6 60 03:25 13.09.2019
1998 Clear 21 1027 9 10000 2.1 90 02:20 13.09.2019
1999 Clear 16 1027 11 10000 0.5 260 01:36 13.09.2019
2000 Clear 13 1027 12 10000 2.1 250 00:59 13.09.2019
2001 Clear 10 1027 14 10000 2.1 300 00:34 13.09.2019
2002 Clear 6 1026 18 10000 2.6 280 23:48 12.09.2019
2003 Clear 6 1026 18 10000 2.6 280 23:25 12.09.2019
2004 Clear 6 1026 17 10000 2.6 280 22:57 12.09.2019
2005 Clear 7 1025 17 10000 2.6 300 22:39 12.09.2019
2006 Clear 7 1025 17 10000 2.6 300 22:21 12.09.2019
2007 Clear 7 1025 16 10000 2.6 280 21:55 12.09.2019
2008 Clear 7 1025 16 10000 2.6 300 21:36 12.09.2019
2009 Clear 7 1025 16 10000 2.6 300 21:18 12.09.2019
2010 Clear 8 1025 15 10000 2.1 320 20:44 12.09.2019
2011 Clear 9 1025 14 10000 2.6 290 20:22 12.09.2019
2012 Clear 9 1025 14 10000 2.6 290 19:57 12.09.2019
2013 Clear 9 1025 14 10000 2.6 310 19:38 12.09.2019
2014 Clear 9 1025 14 10000 2.6 310 19:38 12.09.2019
2015 Clear 9 1025 14 10000 2.6 270 19:19 12.09.2019
2016 Clear 9 1025 14 10000 2.6 270 19:19 12.09.2019
2017 Clear 9 1025 14 10000 2.6 270 19:19 12.09.2019
2018 Clear 8 1025 12 10000 2.6 290 18:41 12.09.2019
2019 Clear 8 1025 12 10000 2.6 290 18:23 12.09.2019
2020 Clear 9 1025 12 10000 1.5 290 18:00 12.09.2019
2021 Clear 9 1025 12 10000 3.18 76.353 17:40 12.09.2019
2022 Clear 9 1025 12 10000 3.18 76.353 17:40 12.09.2019
2023 Clear 9 1025 12 10000 3.18 76.353 17:20 12.09.2019
2024 Clear 11 1025 13 10000 3.18 76.353 16:55 12.09.2019
2025 Clear 11 1025 11 10000 3.18 76.353 16:36 12.09.2019
2026 Clear 13 1025 11 10000 3.18 76.353 16:18 12.09.2019
2027 Clear 13 1025 10 10000 3.18 76.353 15:40 12.09.2019
2028 Clear 13 1025 10 10000 4.32 94.551 15:21 12.09.2019
2029 Clear 17 1025 9 10000 1.5 70 14:45 12.09.2019
2030 Clear 17 1025 9 10000 1.5 70 14:45 12.09.2019
2031 Clear 17 1025 9 10000 1.5 70 14:21 12.09.2019
2032 Clear 17 1025 9 10000 2.6 130 13:55 12.09.2019
2033 Clear 17 1025 9 10000 3.6 140 13:37 12.09.2019
2034 Clear 19 1024 8 10000 3.1 140 13:18 12.09.2019
2035 Clear 19 1024 8 10000 3.1 130 12:43 12.09.2019
2036 Clear 22 1024 7 10000 3.6 120 12:19 12.09.2019
2037 Clear 22 1024 7 10000 3.6 120 11:55 12.09.2019
2038 Clear 24 1024 5 10000 4.1 130 11:36 12.09.2019
2039 Clear 24 1024 5 10000 4.1 130 11:18 12.09.2019
2040 Clear 27 1023 4 10000 5.7 120 10:43 12.09.2019
2041 Clear 27 1023 4 10000 5.7 120 10:24 12.09.2019
2042 Clear 27 1023 5 10000 3.1 90 09:44 12.09.2019
2043 Clear 27 1023 5 10000 3.1 90 09:44 12.09.2019
2044 Clear 27 1023 4 10000 3.1 140 09:21 12.09.2019
2045 Clear 27 1023 4 10000 3.1 140 08:58 12.09.2019
2046 Clear 28 1023 5 10000 5.1 100 08:39 12.09.2019
2047 Clear 28 1023 5 10000 5.1 100 08:21 12.09.2019
2048 Clear 27 1024 5 10000 4.6 120 07:39 12.09.2019
2049 Clear 27 1024 5 10000 3.6 10 07:19 12.09.2019
2050 Clear 27 1024 6 10000 3.6 110 06:50 12.09.2019
2051 Clear 25 1025 7 10000 3.1 40 06:19 12.09.2019
2052 Clear 24 1026 8 10000 4.6 90 05:48 12.09.2019
2053 Clear 24 1026 8 10000 4.6 90 05:27 12.09.2019
2054 Clear 23 1027 8 10000 5.1 80 04:34 12.09.2019
2055 Clear 17 1028 12 10000 1.5 120 01:48 12.09.2019
2056 Clear 14 1028 14 10000 5.67 71.501 01:30 12.09.2019
2057 Clear 8 1027 19 10000 2.1 300 00:51 12.09.2019
2058 Clear 8 1027 19 10000 2.1 300 00:31 12.09.2019
2059 Clear 5 1027 23 10000 2.1 280 23:55 11.09.2019
2060 Clear 4 1027 23 10000 2.6 270 23:36 11.09.2019
2061 Clear 4 1026 23 10000 2.6 280 23:18 11.09.2019
2062 Clear 4 1026 23 10000 2.6 280 22:55 11.09.2019
2063 Clear 4 1026 23 10000 2.6 320 22:36 11.09.2019
2064 Clear 5 1026 21 10000 2.6 300 22:18 11.09.2019
2065 Clear 5 1026 23 10000 2.6 310 21:41 11.09.2019
2066 Clear 5 1026 23 10000 2.6 310 21:22 11.09.2019
2067 Clear 5 1026 21 10000 2.6 290 20:56 11.09.2019
2068 Clear 5 1026 21 10000 2.6 290 20:38 11.09.2019
2069 Clear 5 1026 21 10000 2.6 290 20:19 11.09.2019
2070 Clear 7 1026 20 10000 2.6 270 19:56 11.09.2019
2071 Clear 7 1026 20 10000 2.6 270 19:56 11.09.2019
2072 Clear 7 1026 20 10000 2.6 290 19:37 11.09.2019
2073 Clear 6 1026 18 10000 2.1 270 19:19 11.09.2019
2074 Clear 9 1026 19 10000 1.5 270 18:42 11.09.2019
2075 Clear 7 1026 17 10000 2.6 200 18:23 11.09.2019
2076 Clear 7 1026 17 10000 2.6 200 17:58 11.09.2019
2077 Clear 9 1026 16 10000 1.5 290 17:40 11.09.2019
2078 Clear 9 1026 16 10000 3.26 81.805 17:21 11.09.2019
2079 -273 0 0 0 0 0 16:56 11.09.2019
2080 Clear 9 1027 15 10000 2.1 100 16:36 11.09.2019
2081 Clear 9 1027 15 10000 2.1 100 16:18 11.09.2019
2082 Clear 11 1027 15 10000 2.6 70 15:46 11.09.2019
2083 Clouds 11 1027 15 10000 2.6 70 15:23 11.09.2019
2084 Clouds 13 1027 13 10000 2.1 60 14:57 11.09.2019
2085 Clouds 14 1027 12 10000 2.6 80 14:38 11.09.2019
2086 Clouds 16 1027 11 10000 2.6 110 14:19 11.09.2019
2087 Clouds 17 1026 10 10000 3.1 120 13:55 11.09.2019
2088 Clouds 17 1026 10 10000 3.1 120 13:36 11.09.2019
2089 Clouds 18 1026 10 10000 3.1 120 13:18 11.09.2019
2090 Clouds 18 1026 10 10000 3.6 130 12:40 11.09.2019
2091 Clouds 18 1026 10 10000 3.6 130 12:21 11.09.2019
2092 Clouds 22 1025 7 10000 4.1 140 11:55 11.09.2019
2093 Clouds 19 1026 9 10000 3.6 130 11:55 11.09.2019
2094 Clouds 22 1025 7 10000 4.1 140 11:36 11.09.2019
2095 Clouds 22 1025 7 10000 4.1 140 11:36 11.09.2019
2096 Clouds 24 1025 7 10000 4.6 140 11:18 11.09.2019
2097 Clouds 24 1025 6 10000 5.1 90 10:40 11.09.2019
2098 Clouds 24 1025 6 10000 5.1 90 10:21 11.09.2019
2099 Clouds 25 1025 6 10000 3.1 70 09:40 11.09.2019
2100 Clouds 25 1025 6 10000 3.1 70 09:20 11.09.2019
2101 Clear 25 1025 7 10000 4.1 80 09:20 11.09.2019
2102 Clear 25 1025 7 10000 4.1 80 08:59 11.09.2019
2103 Clear 25 1025 6 10000 3.1 130 08:39 11.09.2019
2104 Clear 24 1025 6 10000 6.2 80 08:20 11.09.2019
2105 Dust 25 1026 6 10000 5.7 80 07:43 11.09.2019
2106 Clear 24 1026 5 10000 4.6 100 07:23 11.09.2019
2107 Clear 23 1027 8 10000 5.7 90 06:52 11.09.2019
2108 Clear 23 1027 8 10000 5.7 90 06:33 11.09.2019
2109 Clear 23 1028 9 10000 6.2 90 05:46 11.09.2019
2110 Clear 23 1028 9 10000 6.2 90 05:28 11.09.2019
2111 Clear 22 1029 10 10000 6.2 60 04:42 11.09.2019
2112 Clear 20 1029 13 10000 6.7 80 03:33 11.09.2019
2113 Clear 17 1030 17 10000 6.2 80 02:46 11.09.2019
2114 Clear 17 1030 17 10000 6.2 80 02:18 11.09.2019
2115 Clear 7 1029 28 10000 2.1 320 00:52 11.09.2019
2116 Clear 7 1029 28 10000 2.1 320 00:23 11.09.2019
2117 Clear 4 1028 32 10000 2.1 300 23:55 10.09.2019
2118 Clear 3 1028 37 10000 2.1 310 23:37 10.09.2019
2119 Clear 3 1028 37 10000 2.1 310 23:18 10.09.2019
2120 Clear 4 1027 29 10000 2.6 280 22:41 10.09.2019
2121 Clear 4 1027 29 10000 2.6 280 22:19 10.09.2019
2122 Clear 4 1027 29 10000 2.6 280 22:19 10.09.2019
2123 Clear 4 1027 32 10000 2.6 290 21:55 10.09.2019
2124 Clear 4 1027 29 10000 2.1 290 21:37 10.09.2019
2125 Clear 4 1027 29 10000 2.1 290 21:37 10.09.2019
2126 Clear 4 1027 29 10000 2.1 290 21:37 10.09.2019
2127 Clear 4 1027 29 10000 2.1 290 21:37 10.09.2019
2128 Clear 5 1027 30 10000 2.6 290 21:18 10.09.2019
2129 Clear 5 1027 27 10000 2.6 280 20:57 10.09.2019
2130 Clear 5 1027 27 10000 2.6 280 20:38 10.09.2019
2131 Clear 5 1027 27 10000 2.6 280 20:19 10.09.2019
2132 Clear 5 1027 27 10000 2.6 280 20:19 10.09.2019
2133 Clear 5 1027 27 10000 3.96 65.618 19:56 10.09.2019
2134 Clear 5 1027 27 10000 3.96 65.618 19:37 10.09.2019
2135 Clear 6 1027 26 10000 3.96 65.618 19:18 10.09.2019
2136 Clear 7 1027 28 10000 1 350 18:46 10.09.2019
2137 Clear 7 1027 28 10000 1 350 18:46 10.09.2019
2138 Clear 7 1027 28 10000 1 350 18:23 10.09.2019
2139 Clear 10 1027 25 10000 2.6 320 17:59 10.09.2019
2140 Clear 10 1027 25 10000 2.6 320 17:59 10.09.2019
2141 Clear 10 1027 25 10000 2.6 320 17:59 10.09.2019
2142 Clear 9 1027 24 10000 2.1 290 17:41 10.09.2019
2143 Clear 9 1027 24 10000 2.1 290 17:21 10.09.2019
2144 Clear 9 1027 24 10000 3.49 77.136 16:57 10.09.2019
2145 Clear 10 1027 23 10000 3.49 77.136 16:38 10.09.2019
2146 Clear 10 1027 23 10000 3.49 77.136 16:20 10.09.2019
2147 Clear 11 1027 21 10000 3.49 77.136 15:44 10.09.2019
2148 Clear 11 1027 21 10000 3.49 77.136 15:44 10.09.2019
2149 Clear 11 1027 21 10000 4.61 86.269 15:23 10.09.2019
2150 Clear 13 1027 20 10000 1.5 50 14:59 10.09.2019
2151 Clear 13 1027 20 10000 1.5 50 14:59 10.09.2019
2152 -273 0 0 0 0 0 14:40 10.09.2019
2153 Clear 14 1027 19 10000 2.1 120 14:21 10.09.2019
2154 Clear 15 1027 18 10000 3.1 130 13:48 10.09.2019
2155 Clear 16 1027 14 10000 3.1 120 13:24 10.09.2019
2156 Clear 18 1027 13 10000 3.6 110 12:56 10.09.2019
2157 Clear 19 1026 13 10000 4.1 110 12:37 10.09.2019
2158 Clear 20 1026 12 10000 4.1 110 12:19 10.09.2019
2159 Clear 21 1026 12 10000 4.6 120 11:42 10.09.2019
2160 Clear 21 1026 12 10000 4.6 120 11:22 10.09.2019
2161 Clear 22 1025 10 10000 5.7 120 10:59 10.09.2019
2162 Clear 23 1025 10 10000 6.2 110 10:37 10.09.2019
2163 Clear 24 1025 9 10000 6.7 110 10:18 10.09.2019
2164 Clear 24 1025 10 10000 6.2 100 09:44 10.09.2019
2165 Clear 24 1025 10 10000 5.7 90 09:20 10.09.2019
2166 Clear 24 1025 10 10000 5.7 90 08:56 10.09.2019
2167 Clear 24 1025 10 10000 6.2 100 08:38 10.09.2019
2168 Clear 24 1025 10 10000 5.7 90 08:19 10.09.2019
2169 Clear 24 1025 12 10000 5.7 100 07:43 10.09.2019
2170 Clear 24 1025 12 10000 5.7 100 07:25 10.09.2019
2171 Clear 23 1026 11 10000 6.7 70 06:46 10.09.2019
2172 Clear 23 1026 11 10000 6.7 70 06:28 10.09.2019
2173 Clear 20 1028 16 10000 7.7 60 04:25 10.09.2019
2174 Clear 17 1029 29 10000 8.2 90 02:41 10.09.2019
2175 Clear 16 1029 29 10000 4.6 80 02:21 10.09.2019
2176 Clear 16 1029 29 10000 4.6 80 02:21 10.09.2019
2177 Clear 16 1029 29 10000 4.6 80 02:21 10.09.2019
2178 Clear 16 1029 29 10000 4.6 80 02:21 10.09.2019
2179 Clear 13 1028 30 10000 1.5 120 01:50 10.09.2019
2180 Clear 10 1028 31 10000 1.5 270 01:23 10.09.2019
2181 Clear 7 1027 36 10000 7.49 92.118 00:42 10.09.2019
2182 Clear 4 1027 38 10000 2.6 270 00:22 10.09.2019
2183 Clear 4 1027 41 10000 2.1 290 23:40 09.09.2019
2184 Clear 4 1026 41 10000 2.1 320 23:19 09.09.2019
2185 Clear 4 1026 41 10000 2.1 320 22:55 09.09.2019
2186 Clear 4 1026 44 10000 1.5 270 22:37 09.09.2019
2187 Clear 5 1026 35 10000 1.5 270 22:19 09.09.2019
2188 Clear 5 1026 35 10000 1.5 270 21:55 09.09.2019
2189 Clear 6 1025 35 10000 2.1 270 21:37 09.09.2019
2190 Clear 6 1025 35 10000 2.1 270 21:37 09.09.2019
2191 Clear 6 1025 35 10000 2.1 270 21:18 09.09.2019
2192 Clear 6 1025 35 10000 2.1 270 21:18 09.09.2019
2193 Clear 6 1025 33 10000 2.6 280 20:55 09.09.2019
2194 Clear 6 1025 33 10000 2.6 280 20:36 09.09.2019
2195 Clear 6 1025 30 10000 2.1 300 20:18 09.09.2019
2196 Clear 6 1025 30 10000 2.1 300 19:55 09.09.2019
2197 Clear 8 1025 33 10000 2.6 290 19:37 09.09.2019
2198 Clear 8 1025 33 10000 2.6 290 19:18 09.09.2019
2199 Clear 8 1026 31 10000 1 280 18:54 09.09.2019
2200 Clear 8 1026 31 10000 1 280 18:36 09.09.2019
2201 Clear 9 1026 29 10000 3.86 98.099 18:18 09.09.2019
2202 Clear 10 1026 29 10000 3.86 98.099 17:55 09.09.2019
2203 Clear 10 1026 29 10000 3.86 98.099 17:37 09.09.2019
2204 Clear 10 1026 27 10000 3.86 98.099 17:19 09.09.2019
2205 Clear 11 1026 27 10000 1.5 200 16:40 09.09.2019
2206 Clear 10 1026 27 10000 2.1 170 16:21 09.09.2019
2207 Clear 10 1026 27 10000 2.1 170 15:56 09.09.2019
2208 Clear 12 1026 25 10000 2.6 150 15:38 09.09.2019
2209 Clear 12 1026 25 10000 2.6 140 15:19 09.09.2019
2210 Clear 12 1026 25 10000 2.6 140 14:57 09.09.2019
2211 Clear 13 1026 22 10000 3.1 130 14:38 09.09.2019
2212 Clear 14 1026 22 10000 3.1 130 14:20 09.09.2019
2213 Clear 15 1026 19 10000 3.1 110 13:45 09.09.2019
2214 Clear 16 1026 18 10000 3.1 120 13:21 09.09.2019
2215 Clear 18 1026 16 10000 3.6 120 12:58 09.09.2019
2216 Clear 16 1026 18 10000 3.1 120 12:58 09.09.2019
2217 Clear 18 1026 16 10000 3.6 120 12:40 09.09.2019
2218 Clear 18 1026 16 10000 3.6 120 12:40 09.09.2019
2219 Clear 19 1025 14 10000 3.6 130 12:20 09.09.2019
2220 Clear 20 1025 13 10000 4.6 120 11:48 09.09.2019
2221 Clear 20 1025 13 10000 4.6 120 11:24 09.09.2019
2222 Clear 22 1025 11 10000 6.7 110 10:59 09.09.2019
2223 Clear 22 1025 10 10000 6.7 120 10:41 09.09.2019
2224 Clear 23 1025 11 10000 6.7 130 10:21 09.09.2019
2225 Clear 23 1025 11 10000 6.7 130 09:57 09.09.2019
2226 Clear 23 1025 11 10000 6.7 110 09:38 09.09.2019
2227 Clear 23 1024 11 10000 7.2 90 09:19 09.09.2019
2228 Clear 23 1025 11 10000 6.7 90 08:39 09.09.2019
2229 Clear 23 1025 11 10000 6.7 90 08:39 09.09.2019
2230 Clear 23 1025 11 10000 6.7 130 08:20 09.09.2019
2231 Clear 23 1025 11 10000 6.7 130 08:20 09.09.2019
2232 Clear 22 1025 13 10000 6.7 110 07:46 09.09.2019
2233 Clear 23 1025 12 10000 6.7 110 07:23 09.09.2019
2234 Clear 23 1025 12 10000 6.7 110 06:57 09.09.2019
2235 Clear 23 1025 12 10000 6.7 110 06:57 09.09.2019
2236 Clear 23 1026 12 10000 6.7 120 06:35 09.09.2019
2237 Clear 21 1027 15 10000 6.2 120 04:55 09.09.2019
2238 Clear 18 1028 18 10000 5.7 90 02:54 09.09.2019
2239 Clear 18 1028 18 10000 5.7 90 02:34 09.09.2019
2240 Clouds 8 1027 28 10000 2.1 260 00:41 09.09.2019
2241 Clouds 4 1026 32 10000 2.1 310 00:21 09.09.2019
2242 Clouds 4 1026 32 10000 2.1 290 23:44 08.09.2019
2243 Clouds 4 1026 32 10000 2.6 290 23:23 08.09.2019
2244 Clouds 4 1026 32 10000 2.6 290 22:56 08.09.2019
2245 Clouds 6 1026 30 10000 2.6 300 22:37 08.09.2019
2246 Clouds 6 1025 33 10000 2.1 310 22:19 08.09.2019
2247 Clouds 6 1025 30 10000 1.5 260 21:42 08.09.2019
2248 Clouds 6 1025 30 10000 1.5 260 21:42 08.09.2019
2249 Clear 7 1025 28 10000 2.6 270 21:22 08.09.2019
2250 Clear 7 1025 28 10000 2.6 270 20:57 08.09.2019
2251 Clear 6 1025 28 10000 2.1 330 20:38 08.09.2019
2252 Clear 7 1025 28 10000 2.1 320 20:20 08.09.2019
2253 Clear 7 1025 28 10000 2.1 320 19:57 08.09.2019
2254 Clear 8 1025 26 10000 2.1 310 19:37 08.09.2019
2255 Clear 9 1025 26 10000 2.1 290 19:19 08.09.2019
2256 Clear 9 1025 26 10000 2.1 290 18:56 08.09.2019
2257 Clear 9 1025 26 10000 2.98 110.457 18:37 08.09.2019
2258 Clear 10 1026 25 10000 3.62 99.803 18:18 08.09.2019
2259 Clear 10 1026 25 10000 1 170 17:38 08.09.2019
2260 Clear 11 1026 23 10000 3.62 99.803 17:19 08.09.2019
2261 Clear 11 1026 23 10000 3.62 99.803 16:59 08.09.2019
2262 Clear 12 1026 18 10000 0.5 200 16:41 08.09.2019
2263 Clear 12 1026 20 10000 2.6 180 16:21 08.09.2019
2264 Clear 12 1026 20 10000 2.6 180 15:57 08.09.2019
2265 Clear 13 1026 20 10000 2.1 160 15:39 08.09.2019
2266 Clear 14 1026 19 10000 2.1 150 15:20 08.09.2019
2267 Clear 15 1026 16 10000 3.6 150 14:41 08.09.2019
2268 Clear 15 1026 16 10000 3.6 150 14:22 08.09.2019
2269 Clear 15 1026 16 10000 3.6 130 13:58 08.09.2019
2270 Clear 17 1025 14 10000 3.6 130 13:40 08.09.2019
2271 Clear 18 1025 13 10000 3.6 130 13:22 08.09.2019
2272 Clear 18 1025 13 10000 3.6 130 12:58 08.09.2019
2273 Clear 19 1024 13 10000 3.6 130 12:40 08.09.2019
2274 Clear 20 1024 12 10000 3.6 130 12:22 08.09.2019
2275 Clear 20 1024 12 10000 3.6 130 11:57 08.09.2019
2276 Clear 21 1024 11 10000 4.6 130 11:37 08.09.2019
2277 Clear 23 1023 11 10000 6.2 120 11:19 08.09.2019
2278 Clear 23 1023 10 10000 6.2 110 10:43 08.09.2019
2279 Clear 23 1023 10 10000 6.2 110 10:23 08.09.2019
2280 Clear 24 1023 9 10000 5.7 120 09:56 08.09.2019
2281 Clear 24 1023 10 10000 6.2 110 09:37 08.09.2019
2282 Clear 25 1023 9 10000 5.1 130 09:19 08.09.2019
2283 Clear 24 1023 11 10000 5.7 90 08:40 08.09.2019
2284 Clear 24 1023 11 10000 5.7 90 08:40 08.09.2019
2285 Clear 24 1023 11 10000 5.7 110 08:19 08.09.2019
2286 Clear 24 1023 11 10000 5.7 110 08:19 08.09.2019
2287 Clear 24 1023 11 10000 5.7 110 07:58 08.09.2019
2288 Clear 24 1023 11 10000 7.2 110 07:37 08.09.2019
2289 Clear 23 1024 11 10000 5.1 130 07:19 08.09.2019
2290 Clear 23 1024 11 10000 6.2 150 06:41 08.09.2019
2291 Clear 23 1025 13 10000 5.7 150 05:40 08.09.2019
2292 Clear 22 1025 15 10000 5.7 90 05:21 08.09.2019
2293 Clear 18 1026 22 10000 6.2 80 03:24 08.09.2019
2294 Clear 17 1026 23 10000 6.7 80 02:48 08.09.2019
2295 Clear 15 1026 26 10000 5.1 90 01:54 08.09.2019
2296 Clear 15 1026 26 10000 5.1 90 01:29 08.09.2019
2297 Clear 8 1026 36 10000 5.84 76.98 00:49 08.09.2019
2298 Clear 8 1026 36 10000 5.84 76.98 00:30 08.09.2019
2299 Clear 7 1025 39 10000 3.42 65.347 23:57 07.09.2019
2300 Clear 7 1025 39 10000 0.5 280 23:37 07.09.2019
2301 Clear 6 1025 38 10000 1 220 23:18 07.09.2019
2302 Clear 7 1024 42 10000 3.42 65.347 22:43 07.09.2019
2303 Clear 8 1024 36 10000 1.5 310 22:23 07.09.2019
2304 Clear 8 1024 36 10000 1.5 310 21:56 07.09.2019
2305 Clear 9 1024 36 10000 2.1 310 21:38 07.09.2019
2306 Clear 8 1023 36 10000 2.1 260 21:19 07.09.2019
2307 Clear 8 1024 33 10000 2.1 210 20:39 07.09.2019
2308 Clear 9 1024 31 10000 2.6 190 20:21 07.09.2019
2309 Clear 9 1024 31 10000 3.67 68.885 19:56 07.09.2019
2310 Clear 9 1024 31 10000 3.67 68.885 19:38 07.09.2019
2311 Clear 10 1024 29 10000 3.67 68.885 19:19 07.09.2019
2312 Clear 10 1024 29 10000 3.67 68.885 18:58 07.09.2019
2313 Clear 11 1024 32 10000 3.67 68.885 18:38 07.09.2019
2314 Clear 11 1024 29 10000 3.77 68.278 18:20 07.09.2019
2315 Clear 11 1024 29 10000 3.77 68.278 18:20 07.09.2019
2316 Clear 12 1024 30 10000 2.1 340 17:58 07.09.2019
2317 Clear 12 1024 30 10000 2.1 340 17:39 07.09.2019
2318 Clear 13 1024 28 10000 1.5 110 17:18 07.09.2019
2319 Clear 13 1024 28 10000 1.5 110 16:55 07.09.2019
2320 Clear 13 1024 28 10000 2.6 110 16:36 07.09.2019
2321 Clear 14 1024 26 10000 3.1 130 16:18 07.09.2019
2322 Clear 16 1024 23 10000 2.6 110 15:43 07.09.2019
2323 Clear 16 1024 23 10000 2.6 110 15:24 07.09.2019
2324 Clear 17 1024 23 10000 3.6 110 14:56 07.09.2019
2325 Clear 18 1024 22 10000 3.6 110 14:36 07.09.2019
2326 Clear 18 1024 22 10000 3.6 120 14:18 07.09.2019
2327 Clear 18 1024 22 10000 3.6 120 13:44 07.09.2019
2328 Clear 19 1023 20 10000 3.6 130 13:25 07.09.2019
2329 Clear 19 1023 20 10000 3.6 130 12:54 07.09.2019
2330 Clear 20 1023 19 10000 3.6 130 12:36 07.09.2019
2331 Clear 20 1023 19 10000 3.6 130 12:36 07.09.2019
2332 Clear 21 1022 18 10000 4.1 130 12:18 07.09.2019
2333 Clear 22 1022 17 10000 4.6 130 11:40 07.09.2019
2334 Clear 23 1021 15 10000 5.1 130 11:21 07.09.2019
2335 Clear 24 1021 14 10000 5.7 90 10:41 07.09.2019
2336 Clear 24 1021 14 10000 5.7 90 10:23 07.09.2019
2337 Clear 24 1021 14 10000 3.6 90 09:59 07.09.2019
2338 Clear 24 1021 13 10000 4.1 110 09:40 07.09.2019
2339 Clear 24 1021 13 10000 4.1 110 09:40 07.09.2019
2340 Clear 24 1021 14 10000 3.6 100 09:21 07.09.2019
2341 Clear 25 1020 12 10000 4.1 110 08:49 07.09.2019
2342 Clear 25 1020 12 10000 4.1 110 08:30 07.09.2019
2343 Clear 24 1021 14 10000 5.1 90 07:49 07.09.2019
2344 Clear 24 1021 14 10000 5.1 90 07:29 07.09.2019
2345 Clear 23 1021 13 10000 3.6 130 06:57 07.09.2019
2346 Clear 23 1022 13 10000 3.6 90 06:39 07.09.2019
2347 Clouds 22 1023 15 10000 3.6 110 05:38 07.09.2019
2348 Clouds 21 1024 18 10000 6.2 100 04:26 07.09.2019
2349 Clouds 19 1024 19 10000 5.7 90 03:27 07.09.2019
2350 Clear 16 1024 21 10000 3.6 70 02:21 07.09.2019
2351 Clouds 13 1024 26 10000 2.1 90 01:27 07.09.2019
2352 Clouds 9 1023 34 10000 1.5 240 00:48 07.09.2019
2353 Clouds 8 1023 33 10000 2.1 250 00:21 07.09.2019
2354 Clouds 8 1023 33 10000 2.1 250 23:57 06.09.2019
2355 Clouds 7 1023 36 10000 2.6 300 23:37 06.09.2019
2356 Clouds 8 1023 36 10000 2.6 330 23:18 06.09.2019
2357 Clouds 8 1022 36 10000 2.1 320 22:55 06.09.2019
2358 Clouds 8 1022 36 10000 2.1 320 22:36 06.09.2019
2359 Clouds 8 1022 33 10000 0.5 170 22:18 06.09.2019
2360 Clouds 7 1022 33 10000 3.96 90.652 21:41 06.09.2019
2361 Clouds 7 1022 33 10000 3.96 90.652 21:41 06.09.2019
2362 Clouds 7 1022 33 10000 3.76 83.688 21:23 06.09.2019
2363 Clear 8 1022 33 10000 3.76 83.688 20:59 06.09.2019
2364 Clouds 8 1022 33 10000 4.23 96.466 20:40 06.09.2019
2365 Clear 9 1022 31 10000 4.23 96.466 20:21 06.09.2019
2366 Clear 9 1022 31 10000 4.23 96.466 19:58 06.09.2019
2367 Clear 9 1022 31 10000 4.23 96.466 19:40 06.09.2019
2368 Clear 10 1023 29 10000 1.5 50 19:20 06.09.2019
2369 Clear 11 1023 27 10000 2.1 70 18:47 06.09.2019
2370 Clear 11 1023 27 10000 2.1 70 18:29 06.09.2019
2371 Clear 13 1023 26 10000 3.1 110 17:59 06.09.2019
2372 Clear 13 1023 26 10000 3.1 110 17:59 06.09.2019
2373 Clear 13 1023 26 10000 3.1 110 17:38 06.09.2019
2374 Clear 13 1022 26 10000 3.6 120 17:20 06.09.2019
2375 Clear 14 1022 24 10000 3.6 120 16:42 06.09.2019
2376 Clear 14 1023 24 10000 4.1 120 16:19 06.09.2019
2377 Clear 14 1023 24 10000 4.1 120 15:59 06.09.2019
2378 Clear 14 1023 26 10000 3.6 120 15:39 06.09.2019
2379 Clear 15 1023 24 10000 3.6 120 15:21 06.09.2019
2380 Clear 15 1023 24 10000 3.1 120 14:40 06.09.2019
2381 Clear 16 1023 25 10000 3.1 120 14:18 06.09.2019
2382 Clear 16 1022 25 10000 3.1 120 13:43 06.09.2019
2383 Clear 17 1022 23 10000 3.1 130 13:22 06.09.2019
2384 Clouds 18 1021 23 10000 3.6 130 12:41 06.09.2019
2385 Clouds 19 1021 22 10000 3.6 130 12:23 06.09.2019
2386 Clouds 19 1021 22 10000 3.6 130 11:58 06.09.2019
2387 Clouds 19 1021 22 10000 3.6 130 11:58 06.09.2019
2388 Clouds 19 1021 24 10000 4.6 120 11:40 06.09.2019
2389 Clouds 20 1020 22 10000 5.1 120 11:21 06.09.2019
2390 Clouds 21 1020 22 10000 4.6 120 10:54 06.09.2019
2391 Clouds 21 1020 22 10000 4.6 120 10:36 06.09.2019
2392 Clouds 21 1020 22 10000 4.6 110 10:18 06.09.2019
2393 Clouds 21 1019 22 10000 6.2 120 09:37 06.09.2019
2394 Clear 22 1019 22 10000 6.2 110 09:19 06.09.2019
2395 Clear 21 1019 22 10000 5.1 130 08:45 06.09.2019
2396 Clear 21 1019 22 10000 5.1 130 08:45 06.09.2019
2397 Clear 21 1019 22 10000 5.1 130 08:26 06.09.2019
2398 Dust 20 1020 28 10000 5.1 130 07:51 06.09.2019
2399 Dust 20 1020 28 10000 5.1 130 07:28 06.09.2019
2400 Clear 20 1021 30 10000 5.7 110 06:59 06.09.2019
2401 Clear 20 1021 30 10000 5.7 110 06:41 06.09.2019
2402 Clear 19 1022 32 10000 6.2 110 05:47 06.09.2019
2403 Clear 19 1022 32 10000 6.2 120 04:55 06.09.2019
2404 Dust 18 1022 31 10000 6.2 150 04:25 06.09.2019
2405 Clear 17 1022 36 10000 7.2 160 02:46 06.09.2019
2406 Clear 16 1022 41 10000 7.2 150 00:58 06.09.2019
2407 Clear 15 1020 47 10000 4.1 170 00:22 06.09.2019
2408 Clear 15 1020 44 10000 4.1 170 23:42 05.09.2019
2409 Clear 15 1020 44 10000 4.1 170 23:22 05.09.2019
2410 Clear 16 1019 41 10000 3.6 160 22:46 05.09.2019
2411 Clear 16 1019 41 10000 3.6 160 22:46 05.09.2019
2412 Clear 16 1019 41 10000 3.6 160 22:26 05.09.2019
2413 Clear 15 1018 41 10000 3.1 180 21:57 05.09.2019
2414 Clear 17 1018 33 10000 3.6 180 21:39 05.09.2019
2415 Clear 17 1018 33 10000 3.6 180 21:39 05.09.2019
2416 Clouds 18 1017 31 10000 4.1 170 21:20 05.09.2019
2417 Clouds 18 1017 31 10000 4.1 170 20:58 05.09.2019
2418 Clouds 19 1017 32 10000 3.6 170 20:39 05.09.2019
2419 Clouds 19 1017 29 10000 4.1 160 20:20 05.09.2019
2420 Clouds 19 1017 29 10000 4.1 160 19:57 05.09.2019
2421 Clouds 20 1016 28 10000 4.1 180 19:39 05.09.2019
2422 Clouds 20 1016 24 10000 3.6 190 19:20 05.09.2019
2423 Clouds 21 1015 22 10000 4.6 160 18:43 05.09.2019
2424 Clouds 23 1015 20 10000 6.7 170 18:25 05.09.2019
2425 Clouds 24 1014 14 10000 6.2 170 17:59 05.09.2019
2426 Clouds 24 1014 14 10000 6.2 170 17:39 05.09.2019
2427 Clouds 24 1014 14 10000 6.2 170 17:39 05.09.2019
2428 Clouds 25 1013 12 10000 4.6 210 17:20 05.09.2019
2429 Clouds 25 1013 12 10000 4.6 210 16:57 05.09.2019
2430 Clouds 25 1013 12 10000 4.1 330 16:39 05.09.2019
2431 Clouds 24 1013 13 10000 4.1 320 16:18 05.09.2019
2432 -273 0 0 0 0 0 15:40 05.09.2019
2433 Clouds 25 1013 11 10000 4.1 310 15:40 05.09.2019
2434 Clear 24 1013 13 10000 4.1 310 15:19 05.09.2019
2435 Clear 24 1013 13 10000 4.1 310 14:56 05.09.2019
2436 Clear 24 1013 12 10000 4.1 310 14:38 05.09.2019
2437 Clear 24 1013 12 10000 4.1 310 14:38 05.09.2019
2438 Clear 24 1013 12 10000 2.6 330 14:18 05.09.2019
2439 Clear 24 1013 12 10000 1 270 13:43 05.09.2019
2440 Clear 26 1013 10 10000 2.1 260 13:20 05.09.2019
2441 Clear 28 1012 9 10000 3.1 340 12:44 05.09.2019
2442 Clear 28 1012 9 10000 3.1 340 12:26 05.09.2019
2443 Clear 28 1012 10 10000 1 330 11:57 05.09.2019
2444 Clear 30 1012 7 10000 2.1 290 11:38 05.09.2019
2445 Clear 32 1012 8 10000 6.2 290 11:18 05.09.2019
2446 Clear 33 1011 7 10000 5.7 260 10:41 05.09.2019
2447 Clear 34 1011 6 10000 5.7 280 10:22 05.09.2019
2448 Clear 34 1011 6 10000 5.7 280 10:22 05.09.2019
2449 Clear 34 1011 5 10000 7.2 270 09:57 05.09.2019
2450 Clear 34 1011 5 10000 7.2 270 09:38 05.09.2019
2451 Clear 34 1012 5 10000 7.2 300 09:18 05.09.2019
2452 Clear 34 1012 5 10000 7.2 300 09:18 05.09.2019
2453 Clear 34 1012 5 10000 6.2 280 08:43 05.09.2019
2454 Clear 34 1012 5 10000 6.2 280 08:25 05.09.2019
2455 Clear 34 1012 6 10000 6.2 310 07:44 05.09.2019
2456 Clear 34 1012 6 10000 6.2 310 07:26 05.09.2019
2457 Clear 33 1013 6 10000 7.7 330 06:52 05.09.2019
2458 Clear 33 1013 6 10000 7.7 330 06:29 05.09.2019
2459 Clear 32 1014 8 10000 7.2 340 05:49 05.09.2019
2460 Clear 32 1014 8 10000 7.2 340 05:30 05.09.2019
2461 Clear 32 1015 7 10000 8.2 310 04:47 05.09.2019
2462 Clear 31 1015 8 10000 8.7 320 04:19 05.09.2019
2463 Clear 31 1015 9 10000 8.2 320 03:27 05.09.2019
2464 Clear 29 1016 9 10000 7.2 330 02:42 05.09.2019
2465 Clear 28 1016 9 10000 6.2 330 02:18 05.09.2019
2466 Clear 22 1015 11 10000 3.1 330 01:25 05.09.2019
2467 Clear 21 1015 12 10000 2.6 340 00:42 05.09.2019
2468 Clear 12 1015 13 10000 4 326.612 00:20 05.09.2019
2469 Clear 13 1015 13 10000 1.5 350 23:46 04.09.2019
2470 Clear 13 1015 13 10000 1.5 350 23:23 04.09.2019
2471 Clear 13 1015 13 10000 4 326.612 22:57 04.09.2019
2472 Clear 15 1014 14 10000 0.5 50 22:38 04.09.2019
2473 Clear 14 1014 12 10000 1.5 350 22:18 04.09.2019
2474 Clear 15 1014 12 10000 2.6 330 21:39 04.09.2019
2475 Clear 14 1014 11 10000 2.6 310 21:20 04.09.2019
2476 Clear 14 1014 11 10000 2.6 310 20:56 04.09.2019
2477 Clear 16 1014 10 10000 2.6 330 20:37 04.09.2019
2478 Clear 16 1014 9 10000 2.6 320 20:18 04.09.2019
2479 Clear 14 1014 11 10000 3.6 300 19:44 04.09.2019
2480 Clear 14 1014 11 10000 3.6 300 19:24 04.09.2019
2481 Clear 15 1015 11 10000 2.6 300 18:58 04.09.2019
2482 Clear 15 1015 11 10000 2.6 300 18:37 04.09.2019
2483 Clear 15 1015 11 10000 2.6 300 18:19 04.09.2019
2484 Clear 17 1015 10 10000 3.6 350 17:41 04.09.2019
2485 Clear 16 1015 10 10000 4.1 340 17:23 04.09.2019
2486 Clear 16 1015 10 10000 4.1 340 16:57 04.09.2019
2487 Clear 17 1015 9 10000 2.6 310 16:38 04.09.2019
2488 Clear 17 1016 9 10000 2.6 290 16:19 04.09.2019
2489 Clear 20 1016 8 10000 2.6 310 15:41 04.09.2019
2490 Clear 20 1016 8 10000 2.1 320 15:22 04.09.2019
2491 Clear 20 1016 8 10000 2.1 320 14:58 04.09.2019
2492 Clear 18 1016 9 10000 2.1 330 14:39 04.09.2019
2493 Clear 18 1016 9 10000 2.1 330 14:39 04.09.2019
2494 Clear 19 1016 9 10000 2.1 310 14:21 04.09.2019
2495 Clear 19 1016 9 10000 2.1 310 13:58 04.09.2019
2496 Clear 19 1016 9 10000 2.1 310 13:58 04.09.2019
2497 Clear 22 1016 7 10000 2.1 320 13:39 04.09.2019
2498 Clouds 23 1015 6 10000 2.1 290 13:21 04.09.2019
2499 Clouds 24 1015 5 10000 3.6 240 12:44 04.09.2019
2500 Clouds 25 1015 6 10000 3.1 250 12:26 04.09.2019
2501 Clouds 28 1014 5 10000 3.6 250 11:58 04.09.2019
2502 Clouds 28 1014 5 10000 3.6 250 11:38 04.09.2019
2503 Clouds 31 1014 3 10000 3.6 290 11:20 04.09.2019
2504 Clouds 31 1014 3 10000 3.6 290 10:56 04.09.2019
2505 Clouds 31 1014 3 10000 3.6 290 10:56 04.09.2019
2506 Clouds 32 1014 4 10000 5.1 280 10:36 04.09.2019
2507 Clouds 32 1014 4 10000 5.7 270 10:18 04.09.2019
2508 Clear 32 1014 4 10000 5.1 310 09:44 04.09.2019
2509 Clear 32 1014 4 10000 5.1 310 09:44 04.09.2019
2510 Clear 33 1014 3 10000 6.7 290 09:20 04.09.2019
2511 Clear 32 1014 4 10000 6.2 300 08:42 04.09.2019
2512 Clear 32 1014 4 10000 6.2 300 08:24 04.09.2019
2513 Clear 32 1014 5 10000 6.7 280 07:58 04.09.2019
2514 Dust 31 1015 5 10000 4.6 320 07:35 04.09.2019
2515 Clear 32 1016 5 10000 6.2 330 06:53 04.09.2019
2516 Clear 32 1016 5 10000 6.2 330 06:32 04.09.2019
2517 Clear 31 1017 5 10000 8.2 310 04:54 04.09.2019
2518 Clear 30 1018 7 10000 8.2 330 04:22 04.09.2019
2519 Clear 28 1019 7 10000 7.7 350 02:36 04.09.2019
2520 Clear 28 1019 7 10000 7.7 350 02:36 04.09.2019
2521 Clouds 20 1018 13 10000 2.1 350 00:56 04.09.2019
2522 Clouds 20 1018 13 10000 2.1 350 00:38 04.09.2019
2523 Clouds 14 1018 14 10000 2.1 350 00:18 04.09.2019
2524 Clouds 8 1018 15 10000 2.1 240 23:47 03.09.2019
2525 Clouds 8 1018 15 10000 2.1 240 23:23 03.09.2019
2526 Clouds 8 1017 13 10000 2.1 190 22:40 03.09.2019
2527 Clouds 9 1017 15 10000 4.78 344.04 22:22 03.09.2019
2528 Clouds 10 1016 13 10000 1.5 360 21:56 03.09.2019
2529 -273 0 0 0 0 0 21:38 03.09.2019
2530 Clouds 14 1016 14 10000 2.1 350 21:20 03.09.2019
2531 Clouds 11 1016 13 10000 2.6 350 20:44 03.09.2019
2532 Clouds 11 1016 13 10000 2.6 350 20:25 03.09.2019
2533 Clouds 11 1016 13 10000 2.6 350 19:57 03.09.2019
2534 Clouds 11 1017 13 10000 2.6 300 19:39 03.09.2019
2535 Clouds 11 1017 13 10000 2.6 300 19:19 03.09.2019
2536 Clouds 12 1017 12 10000 2.6 300 18:56 03.09.2019
2537 Clouds 12 1017 12 10000 2.6 300 18:38 03.09.2019
2538 Clouds 12 1017 12 10000 2.6 300 18:18 03.09.2019
2539 Clouds 13 1018 11 10000 2.6 270 17:43 03.09.2019
2540 Clouds 12 1018 12 10000 2.6 260 17:21 03.09.2019
2541 Clouds 12 1018 12 10000 2.6 260 16:59 03.09.2019
2542 Clouds 14 1018 10 10000 1.78 32.528 16:39 03.09.2019
2543 Clouds 13 1018 9 10000 1.78 32.528 16:21 03.09.2019
2544 Clouds 17 1018 9 10000 1.5 30 15:41 03.09.2019
2545 Clouds 16 1018 9 10000 2.6 30 15:22 03.09.2019
2546 Clouds 16 1018 9 10000 2.6 30 14:58 03.09.2019
2547 Clouds 18 1018 9 10000 2.1 10 14:40 03.09.2019
2548 Clouds 18 1018 9 10000 2.54 70.269 14:20 03.09.2019
2549 Clouds 20 1018 8 10000 2.54 70.269 13:57 03.09.2019
2550 Clouds 18 1018 9 10000 2.54 70.269 13:57 03.09.2019
2551 Clouds 20 1018 8 10000 2.54 70.269 13:37 03.09.2019
2552 Clouds 21 1018 7 10000 2.1 110 13:19 03.09.2019
2553 Clouds 21 1018 7 10000 2.1 110 13:19 03.09.2019
2554 Clouds 24 1017 5 10000 3.1 110 12:56 03.09.2019
2555 Clouds 24 1017 5 10000 3.1 110 12:56 03.09.2019
2556 Clouds 24 1017 5 10000 3.1 110 12:38 03.09.2019
2557 Clouds 25 1017 6 10000 2.6 120 12:19 03.09.2019
2558 Clouds 25 1017 6 10000 2.6 120 12:19 03.09.2019
2559 Clouds 26 1016 6 10000 3.1 140 11:41 03.09.2019
2560 Clouds 29 1016 4 10000 3.6 160 11:22 03.09.2019
2561 Clouds 29 1016 4 10000 3.6 160 10:56 03.09.2019
2562 Clouds 30 1016 4 10000 2.6 170 10:38 03.09.2019
2563 Clouds 30 1016 4 10000 2.1 270 10:19 03.09.2019
2564 Clouds 30 1016 4 10000 2.6 350 09:44 03.09.2019
2565 Clear 30 1016 4 10000 2.6 350 09:25 03.09.2019
2566 Clear 31 1016 5 10000 1 330 08:54 03.09.2019
2567 Clear 30 1016 5 10000 2.6 220 08:36 03.09.2019
2568 Clear 30 1016 4 10000 3.1 140 08:18 03.09.2019
2569 Clear 30 1017 4 10000 4.1 110 07:40 03.09.2019
2570 Clear 30 1017 5 10000 3.1 30 07:21 03.09.2019
2571 Clear 30 1018 4 10000 4.1 90 06:44 03.09.2019
2572 Clear 30 1018 5 10000 5.1 80 05:52 03.09.2019
2573 Clear 27 1020 6 10000 3.6 30 03:35 03.09.2019
2574 Clear 24 1021 8 10000 6.29 27.787 02:43 03.09.2019
2575 Clear 21 1021 10 10000 6.29 27.787 02:23 03.09.2019
2576 Clear 18 1021 12 10000 6.29 27.787 01:48 03.09.2019
2577 Clear 18 1021 12 10000 6.26 22.893 01:28 03.09.2019
2578 Clear 11 1020 18 10000 2.1 300 00:40 03.09.2019
2579 Clouds 8 1020 20 10000 2.1 270 00:18 03.09.2019
2580 Clouds 8 1020 20 10000 1.5 210 23:40 02.09.2019
2581 Clouds 8 1020 20 10000 1.5 210 23:20 02.09.2019
2582 Clouds 8 1020 20 10000 1.5 210 23:20 02.09.2019
2583 Clouds 8 1020 20 10000 1.5 210 22:56 02.09.2019
2584 Clouds 8 1020 20 10000 1.5 210 22:56 02.09.2019
2585 Clouds 8 1019 20 10000 2.1 280 22:37 02.09.2019
2586 Clouds 9 1019 21 10000 1.5 300 22:19 02.09.2019
2587 Clouds 9 1019 21 10000 1.5 300 21:56 02.09.2019
2588 Clouds 9 1019 19 10000 2.1 290 21:37 02.09.2019
2589 Clear 9 1019 19 10000 2.1 290 21:19 02.09.2019
2590 Clear 10 1019 18 10000 2.1 300 20:42 02.09.2019
2591 Clear 10 1020 18 10000 1 230 20:23 02.09.2019
2592 Clear 10 1020 16 10000 3.92 28.348 19:59 02.09.2019
2593 Clear 10 1020 16 10000 3.92 28.348 19:41 02.09.2019
2594 Clear 10 1020 16 10000 3.92 28.348 19:41 02.09.2019
2595 Clear 10 1020 16 10000 3.92 28.348 19:23 02.09.2019
2596 Clear 11 1020 17 10000 3.92 28.348 18:57 02.09.2019
2597 Clear 11 1020 17 10000 3.92 28.348 18:37 02.09.2019
2598 Clear 11 1020 15 10000 1 180 18:19 02.09.2019
2599 Clear 12 1020 14 10000 1.5 120 17:55 02.09.2019
2600 Clear 12 1020 14 10000 1.5 120 17:37 02.09.2019
2601 Clear 13 1020 13 10000 3.67 43.231 17:18 02.09.2019
2602 Clear 15 1020 14 10000 1 360 16:40 02.09.2019
2603 Clear 16 1020 14 10000 1.5 10 16:20 02.09.2019
2604 Clear 17 1020 12 10000 2.6 40 15:52 02.09.2019
2605 Clear 17 1020 12 10000 2.6 40 15:31 02.09.2019
2606 Clear 19 1020 11 10000 3.6 80 14:59 02.09.2019
2607 Clear 20 1020 10 10000 3.6 70 14:40 02.09.2019
2608 Clear 21 1020 9 10000 3.1 70 14:22 02.09.2019
2609 Clear 21 1020 9 10000 3.1 70 13:59 02.09.2019
2610 Clear 21 1020 9 10000 3.6 70 13:40 02.09.2019
2611 Clear 22 1020 9 10000 4.1 80 13:22 02.09.2019
2612 Clear 24 1019 8 10000 4.1 90 12:45 02.09.2019
2613 Clear 24 1019 8 10000 4.1 90 12:45 02.09.2019
2614 Clear 24 1019 8 10000 3.1 100 12:26 02.09.2019
2615 Clear 24 1019 8 10000 3.1 100 11:59 02.09.2019
2616 Clear 24 1019 8 10000 3.1 100 11:59 02.09.2019
2617 Clear 26 1019 7 10000 3.6 110 11:39 02.09.2019
2618 Clear 28 1018 7 10000 4.6 100 11:21 02.09.2019
2619 Clear 28 1018 7 10000 4.6 100 10:57 02.09.2019
2620 Clear 29 1018 6 10000 4.6 140 10:38 02.09.2019
2621 Clear 29 1018 7 10000 5.1 120 10:20 02.09.2019
2622 Clear 29 1018 7 10000 5.1 90 09:55 02.09.2019
2623 Clear 29 1018 7 10000 5.1 90 09:37 02.09.2019
2624 Clear 29 1018 7 10000 3.6 60 09:18 02.09.2019
2625 Clear 30 1018 6 10000 5.1 80 08:39 02.09.2019
2626 Clear 30 1018 6 10000 5.1 80 08:39 02.09.2019
2627 Clear 30 1018 6 10000 5.1 80 08:39 02.09.2019
2628 Clear 30 1018 6 10000 4.6 120 08:18 02.09.2019
2629 Clear 30 1019 7 10000 5.7 80 07:41 02.09.2019
2630 Clear 30 1019 7 10000 6.7 70 07:21 02.09.2019
2631 Clear 30 1020 7 10000 7.2 80 06:45 02.09.2019
2632 Clear 30 1020 7 10000 7.2 80 06:25 02.09.2019
2633 Clear 28 1020 8 10000 5.7 90 05:48 02.09.2019
2634 Clear 28 1021 8 10000 7.7 90 05:19 02.09.2019
2635 Clear 28 1022 7 10000 5.7 50 04:20 02.09.2019
2636 Clear 16 1022 13 10000 5.57 31.326 01:46 02.09.2019
2637 Clear 10 1022 19 10000 2.1 300 00:49 02.09.2019
2638 Clear 10 1022 19 10000 2.1 300 00:30 02.09.2019
2639 Clear 7 1021 22 10000 2.6 250 23:45 01.09.2019
2640 Clear 7 1021 22 10000 2.6 250 23:23 01.09.2019
2641 Clear 7 1021 22 10000 2.6 250 23:23 01.09.2019
2642 Clear 8 1021 22 10000 2.6 260 22:59 01.09.2019
2643 Clear 8 1021 22 10000 2.6 260 22:59 01.09.2019
2644 Clear 9 1021 21 10000 2.1 270 22:40 01.09.2019
2645 Clear 8 1020 22 10000 2.6 260 22:19 01.09.2019
2646 Clear 8 1020 22 10000 2.6 260 21:57 01.09.2019
2647 Clear 9 1020 21 10000 2.7 28.291 21:38 01.09.2019
2648 Clear 9 1020 19 10000 3.72 32.126 21:20 01.09.2019
2649 Clear 9 1020 19 10000 3.72 32.126 20:56 01.09.2019
2650 Clear 9 1020 21 10000 3.72 32.126 20:38 01.09.2019
2651 Clear 10 1020 19 10000 3.72 32.126 20:18 01.09.2019
2652 Clear 10 1020 18 10000 3.72 32.126 19:56 01.09.2019
2653 Clear 10 1020 18 10000 3.72 32.126 19:37 01.09.2019
2654 Clear 10 1020 18 10000 3.72 32.126 19:18 01.09.2019
2655 Clear 12 1021 17 10000 1.5 60 18:43 01.09.2019
2656 Clear 13 1021 16 10000 2.6 80 18:25 01.09.2019
2657 Clear 13 1021 15 10000 2.6 90 17:55 01.09.2019
2658 Clear 13 1021 15 10000 2.6 90 17:37 01.09.2019
2659 Clear 14 1021 15 10000 2.6 100 17:18 01.09.2019
2660 Clear 14 1021 15 10000 2.6 100 17:18 01.09.2019
2661 Clear 15 1021 14 10000 1.5 60 16:39 01.09.2019
2662 Clear 16 1021 12 10000 2.6 90 16:19 01.09.2019
2663 Clear 18 1021 11 10000 3.1 80 15:47 01.09.2019
2664 Clear 18 1021 11 10000 3.1 80 15:29 01.09.2019
2665 Clear 18 1021 11 10000 3.1 80 15:29 01.09.2019
2666 Clear 20 1021 10 10000 2.6 60 14:56 01.09.2019
2667 Clear 19 1021 13 10000 3.1 60 14:37 01.09.2019
2668 Clear 20 1021 11 10000 3.6 70 14:19 01.09.2019
2669 Clear 21 1020 11 10000 4.1 90 13:42 01.09.2019
2670 Clear 22 1020 10 10000 3.6 90 13:24 01.09.2019
2671 Clear 24 1019 10 10000 3.6 90 12:56 01.09.2019
2672 Clear 24 1019 10 10000 3.6 90 12:37 01.09.2019
2673 Clear 25 1019 9 10000 3.6 110 12:19 01.09.2019
2674 Clear 27 1019 8 10000 4.6 100 11:40 01.09.2019
2675 Clear 28 1018 8 10000 5.7 100 11:20 01.09.2019
2676 Clear 28 1018 8 10000 5.7 100 10:57 01.09.2019
2677 Clear 28 1018 8 10000 5.7 100 10:57 01.09.2019
2678 Clear 29 1018 7 10000 5.1 110 10:38 01.09.2019
2679 Clear 29 1018 7 10000 5.1 110 10:38 01.09.2019
2680 Clear 30 1018 7 10000 5.7 110 10:20 01.09.2019
2681 Clear 30 1018 7 10000 6.7 110 09:42 01.09.2019
2682 Clear 30 1018 7 10000 6.7 110 09:23 01.09.2019
2683 Clear 30 1018 7 10000 5.7 80 08:43 01.09.2019
2684 Clear 30 1018 7 10000 5.1 140 08:22 01.09.2019
2685 Clear 30 1018 7 10000 6.2 130 07:48 01.09.2019
2686 Clear 29 1018 8 10000 5.1 100 07:23 01.09.2019
2687 Clear 30 1019 7 10000 5.1 90 06:41 01.09.2019
2688 Clear 30 1019 7 10000 5.7 140 06:18 01.09.2019
2689 Clear 29 1020 7 10000 4.1 90 05:38 01.09.2019
2690 Clear 27 1020 8 10000 2.1 110 04:22 01.09.2019
2691 Clear 26 1021 8 10000 1.5 330 03:39 01.09.2019
2692 Clear 22 1021 10 10000 1.5 290 02:52 01.09.2019
2693 Clear 19 1021 12 10000 2.36 337.165 02:25 01.09.2019
2694 Clear 19 1021 12 10000 2.36 337.165 02:25 01.09.2019
2695 Clear 17 1021 13 10000 2.36 337.165 01:40 01.09.2019
2696 Clear 13 1020 17 10000 2.11 333.167 01:21 01.09.2019
2697 Clear 10 1020 19 10000 2.11 333.167 00:42 01.09.2019
2698 Clear 7 1020 22 10000 2.9 342.022 00:21 01.09.2019
2699 Clear 9 1019 21 10000 2.1 250 23:47 31.08.2019
2700 Clear 8 1019 20 10000 2.6 310 23:21 31.08.2019
2701 Clear 8 1019 20 10000 2.6 310 23:21 31.08.2019
2702 Clear 8 1019 20 10000 3.1 310 22:56 31.08.2019
2703 Clear 8 1019 20 10000 3.1 310 22:37 31.08.2019
2704 Clear 8 1019 20 10000 2.1 330 22:19 31.08.2019
2705 Clear 7 1019 22 10000 2.1 300 21:45 31.08.2019
2706 Clear 7 1018 24 10000 2.1 320 21:23 31.08.2019
2707 Clear 7 1018 24 10000 2.1 320 20:59 31.08.2019
2708 Clear 9 1019 19 10000 2.6 300 20:41 31.08.2019
2709 Clear 9 1019 19 10000 2.6 300 20:41 31.08.2019
2710 Clear 8 1019 20 10000 2.6 310 20:23 31.08.2019
2711 Clear 8 1019 20 10000 2.6 310 20:23 31.08.2019
2712 Clear 8 1019 20 10000 2.6 330 19:43 31.08.2019
2713 Clear 8 1019 20 10000 2.6 330 19:22 31.08.2019
2714 Clear 9 1019 19 10000 2.1 280 18:56 31.08.2019
2715 Clear 9 1019 19 10000 2.1 280 18:37 31.08.2019
2716 Clear 9 1019 19 10000 2.1 280 18:37 31.08.2019
2717 Clear 10 1019 18 10000 1.5 310 18:19 31.08.2019
2718 Clear 10 1019 18 10000 1.5 260 17:55 31.08.2019
2719 Clear 10 1019 18 10000 1.5 260 17:36 31.08.2019
2720 Clear 10 1019 14 10000 0.5 220 17:18 31.08.2019
2721 Clear 10 1019 14 10000 0.5 220 16:54 31.08.2019
2722 Clear 11 1019 15 10000 3.9 48.912 16:36 31.08.2019
2723 Clear 11 1019 15 10000 3.9 48.912 16:18 31.08.2019
2724 Clear 13 1019 15 10000 2.1 140 15:41 31.08.2019
2725 Clear 13 1019 13 10000 4.1 74.101 15:18 31.08.2019
2726 Clear 15 1018 13 10000 3.1 80 14:42 31.08.2019
2727 Clear 17 1018 11 10000 3.1 100 14:24 31.08.2019
2728 Clear 17 1018 11 10000 3.1 100 13:59 31.08.2019
2729 Clear 18 1018 10 10000 2.6 100 13:38 31.08.2019
2730 Clear 19 1017 9 10000 3.6 130 13:19 31.08.2019
2731 Clear 21 1017 9 10000 3.1 70 12:42 31.08.2019
2732 Clear 21 1017 9 10000 2.6 80 12:21 31.08.2019
2733 Clear 21 1017 9 10000 2.6 80 11:59 31.08.2019
2734 Clear 23 1016 8 10000 3.1 70 11:41 31.08.2019
2735 Clear 23 1016 8 10000 3.1 70 11:41 31.08.2019
2736 Clear 23 1016 8 10000 3.1 70 11:23 31.08.2019
2737 Clear 26 1016 7 10000 2.1 190 10:55 31.08.2019
2738 Clear 26 1016 7 10000 2.1 190 10:36 31.08.2019
2739 Clear 26 1016 7 10000 1.5 130 10:18 31.08.2019
2740 Clear 27 1016 6 10000 2.1 60 09:40 31.08.2019
2741 Clear 27 1016 6 10000 1 170 09:21 31.08.2019
2742 Clear 26 1016 7 10000 2.1 210 08:45 31.08.2019
2743 Clear 26 1016 7 10000 2.1 210 08:45 31.08.2019
2744 Clear 26 1016 7 10000 3.6 200 08:27 31.08.2019
2745 Clear 26 1016 7 10000 3.6 200 07:58 31.08.2019
2746 Clear 26 1017 6 10000 3.6 110 07:37 31.08.2019
2747 Clear 26 1017 7 10000 2.1 100 07:18 31.08.2019
2748 Clear 25 1018 9 10000 2.1 230 06:26 31.08.2019
2749 Clear 25 1018 9 10000 2.1 230 06:26 31.08.2019
2750 Clear 25 1019 9 10000 3.1 300 05:50 31.08.2019
2751 Clear 25 1019 9 10000 3.1 300 05:27 31.08.2019
2752 Clear 23 1020 11 10000 1.5 230 04:28 31.08.2019
2753 Clear 21 1020 14 10000 2.6 340 03:42 31.08.2019
2754 Clear 15 1021 22 10000 3.72 10.095 02:22 31.08.2019
2755 Clear 13 1021 24 10000 3.72 10.095 01:47 31.08.2019
2756 Clear 8 1021 28 10000 3.75 10.05 01:28 31.08.2019
2757 Clear 5 1020 35 10000 3.75 10.05 00:45 31.08.2019
2758 Clear 5 1020 35 10000 2.22 29.065 00:26 31.08.2019
2759 Clear 2 1020 40 10000 2.22 29.065 23:48 30.08.2019
2760 Clear 3 1020 37 10000 2.22 29.065 23:19 30.08.2019
2761 Clear 3 1020 37 10000 2.22 29.065 22:57 30.08.2019
2762 Clear 3 1020 40 10000 2.22 29.065 22:37 30.08.2019
2763 Clear 3 1020 34 10000 2.22 29.065 22:19 30.08.2019
2764 Clear 3 1020 34 10000 2.1 320 21:56 30.08.2019
2765 Clear 3 1020 34 10000 2.1 320 21:36 30.08.2019
2766 Clear 3 1020 34 10000 2.1 320 21:36 30.08.2019
2767 Clear 5 1020 35 10000 2.1 290 21:18 30.08.2019
2768 Clear 5 1020 35 10000 2.1 290 21:18 30.08.2019
2769 Clear 5 1020 32 10000 2.1 280 20:43 30.08.2019
2770 Clear 5 1020 35 10000 2.6 270 20:22 30.08.2019
2771 Clear 5 1020 35 10000 2.6 270 20:22 30.08.2019
2772 Clear 5 1020 35 10000 2.6 270 19:59 30.08.2019
2773 Clear 5 1020 32 10000 2.1 270 19:41 30.08.2019
2774 Clear 5 1020 32 10000 2.1 270 19:21 30.08.2019
2775 Clear 6 1020 28 10000 2.1 280 18:58 30.08.2019
2776 Clear 6 1020 28 10000 2.1 280 18:40 30.08.2019
2777 Clear 7 1020 30 10000 1.5 300 18:20 30.08.2019
2778 Clear 7 1020 30 10000 3.21 41.577 17:56 30.08.2019
2779 Clear 7 1020 30 10000 3.21 41.577 17:56 30.08.2019
2780 Clear 7 1020 30 10000 3.21 41.577 17:37 30.08.2019
2781 Clear 7 1020 30 10000 3.21 41.577 17:37 30.08.2019
2782 Clear 7 1020 30 10000 3.21 41.577 17:37 30.08.2019
2783 Clear 8 1020 31 10000 3.21 41.577 17:18 30.08.2019
2784 Clear 8 1020 28 10000 3.21 41.577 16:43 30.08.2019
2785 Clear 8 1020 28 10000 3.21 41.577 16:25 30.08.2019
2786 Clear 12 1020 25 10000 2.6 80 15:46 30.08.2019
2787 Clear 12 1020 25 10000 2.6 80 15:25 30.08.2019
2788 Clear 12 1020 25 10000 2.6 90 14:59 30.08.2019
2789 Clear 13 1020 24 10000 3.1 100 14:41 30.08.2019
2790 Clear 13 1020 24 10000 3.1 100 14:23 30.08.2019
2791 Clear 14 1020 20 10000 3.6 100 13:45 30.08.2019
2792 Clear 15 1019 21 10000 3.1 70 13:23 30.08.2019
2793 Clear 15 1019 21 10000 3.1 70 12:58 30.08.2019
2794 Clear 16 1019 18 10000 3.1 70 12:40 30.08.2019
2795 Clear 18 1019 16 10000 3.1 70 12:22 30.08.2019
2796 Clear 19 1018 15 10000 3.1 70 11:42 30.08.2019
2797 Clear 19 1018 15 10000 3.1 70 11:24 30.08.2019
2798 Clear 22 1018 12 10000 4.6 90 10:42 30.08.2019
2799 Clear 22 1018 12 10000 4.6 90 10:23 30.08.2019
2800 Clear 22 1018 12 10000 4.1 90 09:58 30.08.2019
2801 Clear 22 1018 12 10000 3.1 110 09:40 30.08.2019
2802 Clear 22 1018 11 10000 4.6 100 09:19 30.08.2019
2803 Clear 22 1018 11 10000 4.6 100 08:54 30.08.2019
2804 Clear 22 1018 11 10000 4.6 100 08:54 30.08.2019
2805 Clear 22 1018 11 10000 4.6 110 08:36 30.08.2019
2806 Clear 22 1018 11 10000 4.6 110 08:36 30.08.2019
2807 Clear 22 1019 13 10000 4.1 110 08:18 30.08.2019
2808 Clear 22 1019 12 10000 5.1 110 07:39 30.08.2019
2809 Clear 22 1020 13 10000 5.1 90 07:21 30.08.2019
2810 Clear 21 1021 13 10000 5.1 90 06:45 30.08.2019
2811 Clear 20 1021 14 10000 4.1 80 06:27 30.08.2019
2812 Clear 20 1022 14 10000 4.6 80 05:43 30.08.2019
2813 Clear 17 1023 21 10000 5.7 60 03:58 30.08.2019
2814 Clear 17 1023 21 10000 5.7 60 03:38 30.08.2019
2815 Clear 16 1023 25 10000 5.7 80 02:55 30.08.2019
2816 Clear 15 1023 24 10000 5.7 80 02:24 30.08.2019
2817 Clear 9 1023 29 10000 5.94 69.647 01:28 30.08.2019
2818 Clear 2 1022 37 10000 2.1 280 00:27 30.08.2019
2819 Clear 2 1022 40 10000 2.1 280 23:57 29.08.2019
2820 Clear 2 1022 40 10000 2.1 280 23:38 29.08.2019
2821 Clear 2 1022 37 10000 2.1 290 23:20 29.08.2019
2822 Clear 2 1022 37 10000 2.1 290 23:20 29.08.2019
2823 Clear 2 1022 37 10000 2.6 290 22:43 29.08.2019
2824 Clear 3 1022 34 10000 2.6 280 22:24 29.08.2019
2825 Clear 3 1022 34 10000 2.6 290 21:55 29.08.2019
2826 Clear 3 1022 34 10000 2.6 280 21:55 29.08.2019
2827 Clear 3 1022 34 10000 2.6 290 21:36 29.08.2019
2828 Clear 4 1022 35 10000 2.6 320 21:18 29.08.2019
2829 Clear 4 1022 35 10000 2.6 320 20:42 29.08.2019
2830 Clear 3 1022 34 10000 2.1 320 20:20 29.08.2019
2831 Clear 4 1022 29 10000 2.1 270 19:58 29.08.2019
2832 Clear 4 1022 29 10000 2.1 270 19:58 29.08.2019
2833 Clear 3 1023 32 10000 2.1 300 19:39 29.08.2019
2834 Clear 3 1023 32 10000 2.1 300 19:21 29.08.2019
2835 Clear 4 1023 32 10000 1.5 220 18:43 29.08.2019
2836 Clear 4 1023 32 10000 1.5 220 18:21 29.08.2019
2837 Clear 5 1023 30 10000 1 250 17:56 29.08.2019
2838 Clear 6 1024 28 10000 3.45 79.86 17:38 29.08.2019
2839 Clear 6 1024 28 10000 3.45 79.86 17:19 29.08.2019
2840 Clear 7 1024 28 10000 3.45 79.86 16:55 29.08.2019
2841 Clear 8 1024 26 10000 2.1 60 16:36 29.08.2019
2842 Clear 8 1024 26 10000 2.1 60 16:18 29.08.2019
2843 Clear 8 1024 26 10000 3.45 79.86 15:38 29.08.2019
2844 Clear 10 1024 25 10000 4.3 106.555 15:20 29.08.2019
2845 Clear 11 1024 23 10000 2.6 130 14:50 29.08.2019
2846 Clear 11 1024 21 10000 2.1 130 14:23 29.08.2019
2847 Clear 11 1024 21 10000 2.1 130 13:58 29.08.2019
2848 Clear 12 1024 20 10000 2.6 130 13:39 29.08.2019
2849 Clear 13 1024 20 10000 3.1 150 13:20 29.08.2019
2850 Clear 14 1023 19 10000 3.6 140 12:58 29.08.2019
2851 Clear 14 1023 19 10000 3.6 140 12:39 29.08.2019
2852 Clear 16 1023 17 10000 3.6 150 12:21 29.08.2019
2853 Clear 16 1023 17 10000 3.6 150 11:58 29.08.2019
2854 Clear 18 1022 15 10000 3.6 130 11:37 29.08.2019
2855 Clear 19 1022 14 10000 4.1 130 11:18 29.08.2019
2856 Clear 20 1022 12 10000 5.1 120 10:43 29.08.2019
2857 Clear 20 1022 12 10000 5.1 120 10:24 29.08.2019
2858 Clear 20 1022 12 10000 5.1 130 09:42 29.08.2019
2859 Clear 21 1022 11 10000 5.1 120 09:21 29.08.2019
2860 Clear 21 1022 11 10000 5.1 120 08:59 29.08.2019
2861 Clear 20 1022 13 10000 4.6 130 08:40 29.08.2019
2862 Clear 20 1022 13 10000 6.7 120 08:21 29.08.2019
2863 Clear 21 1023 11 10000 6.2 110 07:48 29.08.2019
2864 Clear 21 1023 11 10000 6.2 110 07:26 29.08.2019
2865 Clear 20 1023 14 10000 5.7 110 06:47 29.08.2019
2866 Clear 19 1024 14 10000 6.2 120 06:28 29.08.2019
2867 Clear 19 1024 15 10000 7.2 100 05:42 29.08.2019
2868 Clear 18 1025 20 10000 6.7 90 04:51 29.08.2019
2869 Clear 18 1025 20 10000 6.7 90 04:29 29.08.2019
2870 Clear 15 1026 24 10000 6.2 70 03:20 29.08.2019
2871 Clear 9 1026 31 10000 0.5 220 01:49 29.08.2019
2872 Clear 7 1026 33 10000 1 280 01:30 29.08.2019
2873 Clear 4 1026 38 10000 2.1 280 00:40 29.08.2019
2874 Clear 2 1026 40 10000 2.1 290 00:20 29.08.2019
2875 Clear 2 1025 43 10000 2.1 280 23:43 28.08.2019
2876 Clear 2 1025 43 10000 2.1 280 23:24 28.08.2019
2877 Clear 2 1025 43 10000 2.1 270 22:59 28.08.2019
2878 Clear 2 1025 40 10000 2.1 320 22:39 28.08.2019
2879 Clear 3 1025 37 10000 2.1 300 22:18 28.08.2019
2880 Clear 3 1025 37 10000 2.1 300 21:57 28.08.2019
2881 Clear 3 1025 37 10000 2.1 300 21:57 28.08.2019
2882 Clear 3 1025 37 10000 2.6 300 21:38 28.08.2019
2883 Clear 3 1025 37 10000 2.6 270 21:20 28.08.2019
2884 Clear 3 1025 34 10000 2.1 290 20:41 28.08.2019
2885 Clear 4 1025 32 10000 2.6 290 20:22 28.08.2019
2886 Clear 4 1025 32 10000 2.1 290 19:55 28.08.2019
2887 Clear 4 1025 32 10000 2.1 290 19:37 28.08.2019
2888 Clear 4 1025 32 10000 2.1 290 19:18 28.08.2019
2889 Clear 5 1025 32 10000 2.1 290 18:42 28.08.2019
2890 Clear 5 1025 32 10000 2.1 290 18:21 28.08.2019
2891 Clear 6 1026 28 10000 2.1 280 17:40 28.08.2019
2892 Clear 6 1026 30 10000 2.85 87.283 17:21 28.08.2019
2893 Clear 6 1026 30 10000 2.85 87.283 16:59 28.08.2019
2894 Clear 7 1026 30 10000 2.85 87.283 16:41 28.08.2019
2895 Clear 8 1026 28 10000 2.85 87.283 16:18 28.08.2019
2896 Clear 9 1026 26 10000 1 140 15:39 28.08.2019
2897 Clear 10 1026 25 10000 1.5 120 15:20 28.08.2019
2898 Clear 10 1026 25 10000 1.5 120 14:59 28.08.2019
2899 Clear 11 1026 23 10000 2.6 110 14:40 28.08.2019
2900 Clear 11 1026 25 10000 3.1 120 14:21 28.08.2019
2901 Clear 11 1026 25 10000 3.1 120 13:59 28.08.2019
2902 Clear 12 1026 22 10000 3.6 140 13:39 28.08.2019
2903 Clear 13 1025 19 10000 3.1 130 13:20 28.08.2019
2904 Clear 14 1025 19 10000 3.6 120 12:44 28.08.2019
2905 Clear 14 1025 19 10000 3.6 120 12:26 28.08.2019
2906 Clear 15 1024 18 10000 3.6 130 11:59 28.08.2019
2907 Clear 17 1024 16 10000 3.6 120 11:40 28.08.2019
2908 Clear 18 1024 16 10000 3.6 130 11:21 28.08.2019
2909 Clear 18 1024 16 10000 3.6 130 10:56 28.08.2019
2910 Clear 19 1024 15 10000 5.7 140 10:38 28.08.2019
2911 Clear 19 1024 15 10000 5.1 110 10:19 28.08.2019
2912 Clear 19 1024 15 10000 5.7 110 09:42 28.08.2019
2913 Clear 20 1024 13 10000 5.7 130 09:21 28.08.2019
2914 Clear 20 1024 13 10000 5.7 130 08:56 28.08.2019
2915 Clear 19 1024 14 10000 5.7 120 08:37 28.08.2019
2916 Clear 19 1024 15 10000 5.1 130 08:18 28.08.2019
2917 Clear 20 1024 14 10000 5.1 140 07:38 28.08.2019
2918 Clear 19 1025 15 10000 4.6 160 07:19 28.08.2019
2919 Clear 19 1025 16 10000 3.1 150 06:49 28.08.2019
2920 Clear 18 1026 17 10000 5.7 90 05:59 28.08.2019
2921 Clear 17 1027 21 10000 6.2 110 04:41 28.08.2019
2922 Clear 12 1028 30 10000 3.6 100 01:58 28.08.2019
2923 Clear 11 1028 32 10000 1.5 30 01:30 28.08.2019
2924 Clear 5 1028 48 10000 2.6 290 00:50 28.08.2019
2925 Clear 5 1028 48 10000 2.6 290 00:32 28.08.2019
2926 Clear 3 1027 47 10000 3.1 250 23:45 27.08.2019
2927 Clear 4 1026 48 10000 2.6 260 23:22 27.08.2019
2928 Clear 4 1026 48 10000 2.6 260 22:59 27.08.2019
2929 Clear 5 1026 48 10000 2.1 280 22:41 27.08.2019
2930 Clear 5 1025 48 10000 2.1 300 22:21 27.08.2019
2931 Clear 5 1025 48 10000 2.1 300 21:56 27.08.2019
2932 Clear 4 1025 48 10000 2.77 90.29 21:38 27.08.2019
2933 Clear 5 1025 44 10000 0.5 260 21:19 27.08.2019
2934 Clear 5 1025 44 10000 3.54 105.661 20:56 27.08.2019
2935 Clear 5 1025 44 10000 3.54 105.661 20:56 27.08.2019
2936 Clear 5 1025 44 10000 3.54 105.661 20:37 27.08.2019
2937 Clear 5 1025 41 10000 2.1 200 20:19 27.08.2019
2938 Clear 6 1025 41 10000 0.5 310 19:43 27.08.2019
2939 Clear 6 1025 41 10000 0.5 310 19:24 27.08.2019
2940 Clear 7 1026 42 10000 1 350 18:55 27.08.2019
2941 Clear 7 1026 42 10000 1 350 18:36 27.08.2019
2942 Clear 7 1026 42 10000 1 350 18:18 27.08.2019
2943 Clouds 9 1026 36 10000 2.6 140 17:43 27.08.2019
2944 Clouds 9 1026 36 10000 2.6 140 17:23 27.08.2019
2945 Clear 11 1026 32 10000 3.6 130 16:48 27.08.2019
2946 Clear 11 1026 32 10000 3.6 130 16:28 27.08.2019
2947 Clear 9 1025 34 10000 3.1 140 15:58 27.08.2019
2948 Clear 11 1025 32 10000 3.1 120 15:40 27.08.2019
2949 Clear 11 1025 32 10000 2.6 120 15:21 27.08.2019
2950 Clear 12 1025 30 10000 2.6 120 14:58 27.08.2019
2951 Clear 12 1025 30 10000 2.6 120 14:40 27.08.2019
2952 Clear 13 1025 30 10000 3.1 120 14:20 27.08.2019
2953 Clear 13 1025 30 10000 3.1 130 13:42 27.08.2019
2954 Clear 13 1025 30 10000 3.1 130 13:42 27.08.2019
2955 Clear 14 1025 28 10000 3.1 130 13:23 27.08.2019
2956 Clear 16 1024 25 10000 3.1 130 12:55 27.08.2019
2957 Clear 16 1024 25 10000 3.1 130 12:37 27.08.2019
2958 Clear 16 1024 25 10000 3.6 130 12:18 27.08.2019
2959 Clear 17 1023 25 10000 4.6 130 11:43 27.08.2019
2960 Clear 17 1023 25 10000 4.6 130 11:23 27.08.2019
2961 Clear 19 1023 20 10000 5.7 120 10:42 27.08.2019
2962 Clear 20 1022 20 10000 5.7 130 10:20 27.08.2019
2963 Clear 20 1022 20 10000 5.7 130 09:58 27.08.2019
2964 Clear 20 1022 20 10000 5.1 130 09:38 27.08.2019
2965 Clear 20 1022 20 10000 4.1 130 09:20 27.08.2019
2966 Clear 20 1022 20 10000 4.6 120 08:46 27.08.2019
2967 Clear 20 1022 20 10000 4.6 120 08:27 27.08.2019
2968 Clear 20 1022 19 10000 4.1 100 07:59 27.08.2019
2969 Clear 20 1022 20 10000 5.1 150 07:37 27.08.2019
2970 Clear 20 1023 20 10000 4.6 110 07:19 27.08.2019
2971 Clear 19 1023 22 10000 4.1 110 06:50 27.08.2019
2972 Clear 19 1024 24 10000 4.6 110 06:20 27.08.2019
2973 Clear 19 1024 22 10000 4.1 110 05:29 27.08.2019
2974 Clear 16 1026 25 10000 4.6 120 04:20 27.08.2019
2975 Clear 16 1026 26 10000 5.7 90 03:31 27.08.2019
2976 Clear 12 1025 34 10000 6.2 70 01:55 27.08.2019
2977 Clear 12 1025 34 10000 6.2 70 01:30 27.08.2019
2978 Clear 6 1025 52 10000 2.1 120 00:50 27.08.2019
2979 Clear 6 1025 52 10000 2.1 120 00:29 27.08.2019
2980 Clear 4 1024 55 10000 3.41 93.309 23:46 26.08.2019
2981 Clear 4 1024 55 10000 3.41 93.309 23:26 26.08.2019
2982 Clear 5 1024 56 10000 3.41 93.309 22:59 26.08.2019
2983 Clear 5 1024 60 10000 1.5 360 22:37 26.08.2019
2984 Clear 5 1024 60 10000 1.5 360 22:19 26.08.2019
2985 Clear 6 1024 45 10000 2.1 180 21:40 26.08.2019
2986 Clear 6 1024 45 10000 2.1 180 21:22 26.08.2019
2987 Clear 6 1024 48 10000 1 310 20:59 26.08.2019
2988 Clear 6 1024 48 10000 1.5 320 20:41 26.08.2019
2989 Clear 6 1024 48 10000 1.5 320 20:21 26.08.2019
2990 Clear 6 1024 48 10000 2.1 290 19:58 26.08.2019
2991 Clear 6 1024 48 10000 2.1 290 19:58 26.08.2019
2992 Clear 7 1024 45 10000 2.1 210 19:40 26.08.2019
2993 Clear 7 1024 42 10000 1.5 200 19:19 26.08.2019
2994 Clear 7 1024 42 10000 1.5 200 18:55 26.08.2019
2995 Clear 8 1024 42 10000 3.69 112.301 18:37 26.08.2019
2996 Clear 8 1024 42 10000 3.89 107.131 18:18 26.08.2019
2997 Clear 9 1024 42 10000 3.89 107.131 17:43 26.08.2019
2998 Clear 9 1024 42 10000 3.89 107.131 17:19 26.08.2019
2999 Clear 10 1024 39 10000 3.89 107.131 16:57 26.08.2019
3000 Clear 10 1024 37 10000 1.5 150 16:38 26.08.2019
3001 Clear 12 1024 34 10000 2.6 150 16:18 26.08.2019
3002 Clear 12 1024 34 10000 2.6 150 15:42 26.08.2019
3003 Clear 12 1024 34 10000 2.6 150 15:22 26.08.2019
3004 Clear 13 1024 32 10000 2.6 120 14:57 26.08.2019
3005 Clear 15 1024 28 10000 2.6 90 14:37 26.08.2019
3006 Clear 15 1024 28 10000 2.6 90 14:19 26.08.2019
3007 Clear 16 1023 29 10000 3.6 130 13:42 26.08.2019
3008 Clear 16 1023 29 10000 3.6 130 13:21 26.08.2019
3009 Clear 17 1022 27 10000 4.1 130 12:46 26.08.2019
3010 Clear 17 1022 27 10000 4.1 130 12:28 26.08.2019
3011 Clear 18 1021 25 10000 3.6 140 11:59 26.08.2019
3012 Clear 19 1021 24 10000 3.6 130 11:38 26.08.2019
3013 Clear 19 1021 24 10000 3.6 130 11:19 26.08.2019
3014 Clear 20 1021 22 10000 3.6 130 10:55 26.08.2019
3015 Clear 20 1021 22 10000 3.6 130 10:55 26.08.2019
3016 Clear 21 1021 22 10000 4.6 130 10:36 26.08.2019
3017 Clear 21 1021 21 10000 3.1 120 10:18 26.08.2019
3018 Clear 21 1021 21 10000 3.1 70 09:41 26.08.2019
3019 Clear 21 1021 21 10000 3.1 70 09:23 26.08.2019
3020 Clear 22 1021 21 10000 3.6 90 08:56 26.08.2019
3021 Clear 21 1021 22 10000 3.1 70 08:37 26.08.2019
3022 Clear 21 1021 22 10000 3.1 50 08:19 26.08.2019
3023 Clear 21 1021 22 10000 4.1 90 07:42 26.08.2019
3024 Clear 21 1021 22 10000 4.1 90 07:23 26.08.2019
3025 Clear 19 1022 24 10000 2.6 110 06:49 26.08.2019
3026 Clear 19 1022 24 10000 2.6 110 06:25 26.08.2019
3027 Clear 19 1022 25 10000 3.1 70 05:51 26.08.2019
3028 Clear 18 1024 23 10000 4.6 100 04:35 26.08.2019
3029 Clear 15 1025 28 10000 4.6 90 03:30 26.08.2019
3030 Clear 12 1025 34 10000 4.6 100 01:40 26.08.2019
3031 Clear 12 1025 34 10000 4.6 100 01:21 26.08.2019
3032 Clear 8 1024 42 10000 2.1 120 00:42 26.08.2019
3033 Clear 8 1024 42 10000 2.1 120 00:23 26.08.2019
3034 Clear 8 1023 45 10000 3.6 120 23:43 25.08.2019
3035 Clear 9 1023 39 10000 3.6 120 23:19 25.08.2019
3036 Clear 9 1023 39 10000 3.6 120 22:57 25.08.2019
3037 Clear 9 1023 39 10000 3.6 120 22:57 25.08.2019
3038 Clear 10 1023 39 10000 4.1 120 22:39 25.08.2019
3039 Clear 10 1022 46 10000 4.1 120 22:20 25.08.2019
3040 Clear 10 1022 46 10000 4.1 120 21:57 25.08.2019
3041 Clear 11 1022 43 10000 3.6 110 21:37 25.08.2019
3042 Clear 11 1022 43 10000 3.6 110 21:18 25.08.2019
3043 Clear 12 1022 53 10000 5.1 110 20:40 25.08.2019
3044 Clear 12 1022 53 10000 5.1 110 20:20 25.08.2019
3045 Clear 11 1022 53 10000 4.1 110 19:58 25.08.2019
3046 Clear 8 1022 61 10000 0.5 60 19:39 25.08.2019
3047 Clear 8 1022 61 10000 0.5 60 19:19 25.08.2019
3048 Clear 8 1022 52 10000 4.69 106.62 18:57 25.08.2019
3049 Clear 8 1022 52 10000 4.69 106.62 18:39 25.08.2019
3050 Clear 9 1022 57 10000 5.46 124.205 18:21 25.08.2019
3051 Clear 9 1022 55 10000 5.46 124.205 17:43 25.08.2019
3052 Clear 9 1022 55 10000 5.46 124.205 17:25 25.08.2019
3053 Clear 10 1022 55 10000 0.5 130 16:56 25.08.2019
3054 Clear 11 1022 50 10000 2.1 130 16:36 25.08.2019
3055 Clear 12 1022 50 10000 2.1 150 16:18 25.08.2019
3056 Clear 12 1022 50 10000 2.6 130 15:42 25.08.2019
3057 Clear 12 1022 50 10000 2.6 130 15:24 25.08.2019
3058 Clear 14 1023 47 10000 2.6 130 14:43 25.08.2019
3059 Clear 14 1023 47 10000 2.6 130 14:24 25.08.2019
3060 Clear 14 1022 44 10000 3.6 130 13:56 25.08.2019
3061 Clear 15 1022 41 10000 2.6 130 13:37 25.08.2019
3062 Clear 15 1022 41 10000 2.6 130 13:18 25.08.2019
3063 Clear 17 1021 36 10000 3.6 130 12:44 25.08.2019
3064 Clear 17 1021 36 10000 3.6 130 12:25 25.08.2019
3065 Clear 18 1021 34 10000 3.6 130 11:59 25.08.2019
3066 Clear 20 1021 30 10000 3.6 130 11:38 25.08.2019
3067 Clear 20 1021 30 10000 3.6 130 11:20 25.08.2019
3068 Clear 21 1020 28 10000 4.1 140 10:57 25.08.2019
3069 Clear 21 1020 28 10000 4.6 120 10:38 25.08.2019
3070 Clear 21 1020 28 10000 4.6 120 10:19 25.08.2019
3071 Clear 22 1020 26 10000 4.1 130 09:44 25.08.2019
3072 Clear 22 1020 26 10000 4.1 130 09:24 25.08.2019
3073 Clear 22 1020 26 10000 3.1 170 08:48 25.08.2019
3074 Clear 22 1020 26 10000 3.6 130 08:29 25.08.2019
3075 Clear 21 1020 28 10000 3.6 130 07:55 25.08.2019
3076 Clear 21 1020 30 10000 4.1 160 07:33 25.08.2019
3077 Clear 21 1021 32 10000 4.1 140 06:39 25.08.2019
3078 Clear 19 1022 37 10000 4.1 140 05:27 25.08.2019
3079 Clear 18 1024 39 10000 4.6 140 03:48 25.08.2019
3080 Clear 16 1024 41 10000 5.1 120 02:44 25.08.2019
3081 Clear 16 1024 41 10000 5.1 120 02:20 25.08.2019
3082 Clear 12 1023 37 10000 3.1 250 00:56 25.08.2019
3083 Clear 8 1022 39 10000 2.6 310 00:24 25.08.2019
3084 Clear 8 1022 39 10000 2.6 310 23:58 24.08.2019
3085 Clear 8 1022 33 10000 2.6 260 23:40 24.08.2019
3086 Clear 8 1022 33 10000 2.6 260 23:22 24.08.2019
3087 Clear 8 1020 28 10000 2.1 280 22:54 24.08.2019
3088 Clear 8 1020 28 10000 2.1 280 22:36 24.08.2019
3089 Clear 8 1020 26 10000 2.1 300 22:18 24.08.2019
3090 Clear 9 1020 21 10000 1.5 340 21:42 24.08.2019
3091 Clear 9 1020 21 10000 1.5 340 21:23 24.08.2019
3092 Clear 9 1019 18 10000 1.5 260 20:58 24.08.2019
3093 Clear 9 1019 18 10000 1.5 260 20:58 24.08.2019
3094 Clear 8 1019 17 10000 3.1 280 20:39 24.08.2019
3095 Clear 8 1019 17 10000 3.6 200 20:19 24.08.2019
3096 Clear 8 1019 17 10000 3.6 200 19:57 24.08.2019
3097 Clear 9 1019 18 10000 2.6 280 19:38 24.08.2019
3098 Clear 9 1019 18 10000 2.6 280 19:20 24.08.2019
3099 Clear 10 1019 18 10000 2.1 310 18:46 24.08.2019
3100 Clear 10 1019 18 10000 2.1 310 18:24 24.08.2019
3101 Clear 9 1019 19 10000 2.6 290 17:46 24.08.2019
3102 Clear 9 1019 19 10000 2.6 290 17:46 24.08.2019
3103 Clear 9 1019 19 10000 2.6 290 17:28 24.08.2019
3104 Clear 9 1019 21 10000 2.1 320 16:57 24.08.2019
3105 Clear 12 1020 18 10000 2.1 330 16:38 24.08.2019
3106 Clear 12 1020 18 10000 2.1 330 16:19 24.08.2019
3107 Clear 14 1020 15 10000 2.6 350 15:44 24.08.2019
3108 Clear 14 1020 15 10000 2.6 350 15:26 24.08.2019
3109 Clear 14 1020 15 10000 2.72 136.759 14:57 24.08.2019
3110 Clear 15 1020 14 10000 2.72 136.759 14:39 24.08.2019
3111 Clear 15 1020 14 10000 0.5 190 14:18 24.08.2019
3112 Clear 14 1019 12 10000 1.5 170 13:43 24.08.2019
3113 Clear 14 1019 12 10000 1.5 170 13:23 24.08.2019
3114 Clear 18 1019 11 10000 2.1 140 12:59 24.08.2019
3115 Clear 19 1019 11 10000 3.1 130 12:40 24.08.2019
3116 Clear 20 1018 11 10000 3.1 130 12:22 24.08.2019
3117 Clear 19 1019 11 10000 3.1 130 12:22 24.08.2019
3118 Clear 22 1018 10 10000 3.1 150 11:49 24.08.2019
3119 Clear 22 1018 10 10000 3.1 150 11:31 24.08.2019
3120 Clear 24 1018 8 10000 3.1 160 10:59 24.08.2019
3121 Clear 25 1018 8 10000 3.1 160 10:38 24.08.2019
3122 Clear 25 1018 8 10000 3.1 160 10:20 24.08.2019
3123 Clear 26 1017 7 10000 3.6 220 09:42 24.08.2019
3124 Clear 26 1017 7 10000 3.6 220 09:19 24.08.2019
3125 Clear 26 1017 8 10000 3.1 230 08:43 24.08.2019
3126 Clear 26 1017 8 10000 3.1 230 08:24 24.08.2019
3127 Clear 25 1018 9 10000 3.1 230 07:52 24.08.2019
3128 Clear 25 1018 9 10000 3.1 230 07:30 24.08.2019
3129 Clear 25 1019 9 10000 2.6 160 06:39 24.08.2019
3130 Clear 25 1019 9 10000 4.1 210 06:21 24.08.2019
3131 Clear 24 1020 11 10000 2.6 270 05:35 24.08.2019
3132 Clear 22 1021 17 10000 2.6 330 03:41 24.08.2019
3133 Clear 19 1021 24 10000 2.07 344.207 02:50 24.08.2019
3134 Clear 16 1022 26 10000 1 270 01:54 24.08.2019
3135 Clear 14 1021 30 10000 2.6 340 01:24 24.08.2019
3136 Clear 6 1021 41 10000 2.1 280 00:46 24.08.2019
3137 Clear 4 1021 44 10000 3.1 220 00:22 24.08.2019
3138 Clear 5 1021 44 10000 2.6 340 23:45 23.08.2019
3139 Clear 5 1021 44 10000 2.6 340 23:20 23.08.2019
3140 Clear 5 1020 41 10000 3.1 260 22:44 23.08.2019
3141 Clear 5 1020 41 10000 3.1 260 22:24 23.08.2019
3142 Clear 5 1020 41 10000 3.6 260 21:55 23.08.2019
3143 Clear 5 1020 41 10000 2.1 230 21:37 23.08.2019
3144 Clear 5 1020 41 10000 2.1 230 21:18 23.08.2019
3145 Clear 6 1020 41 10000 2.1 260 20:50 23.08.2019
3146 Clear 6 1020 48 10000 1.63 30.102 20:32 23.08.2019
3147 Clear 6 1020 38 10000 1.63 30.102 19:46 23.08.2019
3148 Clear 6 1020 38 10000 1.63 30.102 19:46 23.08.2019
3149 Clear 7 1020 33 10000 2.6 350 19:19 23.08.2019
3150 Clear 7 1020 33 10000 2.6 350 18:55 23.08.2019
3151 Clear 8 1020 36 10000 2.6 330 18:36 23.08.2019
3152 Clear 9 1020 34 10000 2.6 270 18:18 23.08.2019
3153 Clear 9 1021 34 10000 2.6 270 17:41 23.08.2019
3154 Clear 9 1021 34 10000 2.6 270 17:23 23.08.2019
3155 Clear 10 1021 31 10000 2.1 260 16:49 23.08.2019
3156 Clear 10 1021 31 10000 2.1 270 16:30 23.08.2019
3157 Clear 11 1021 29 10000 3.26 64.953 15:59 23.08.2019
3158 Clear 11 1021 29 10000 1.5 300 15:39 23.08.2019
3159 Clear 12 1021 30 10000 1 30 15:21 23.08.2019
3160 Clear 14 1021 26 10000 3.1 70 14:44 23.08.2019
3161 Clear 14 1021 26 10000 3.1 70 14:21 23.08.2019
3162 Clear 14 1021 28 10000 1 120 13:59 23.08.2019
3163 Clear 15 1020 22 10000 2.1 180 13:41 23.08.2019
3164 Clear 15 1020 22 10000 2.1 180 13:23 23.08.2019
3165 Clear 17 1020 21 10000 1.5 150 12:58 23.08.2019
3166 Clear 17 1020 23 10000 2.6 120 12:40 23.08.2019
3167 Clear 17 1020 23 10000 2.6 120 12:21 23.08.2019
3168 Clear 19 1019 20 10000 3.1 120 11:57 23.08.2019
3169 Clear 20 1019 19 10000 3.1 130 11:39 23.08.2019
3170 Clear 22 1019 17 10000 3.6 120 11:19 23.08.2019
3171 Clear 22 1019 17 10000 3.6 120 10:54 23.08.2019
3172 Clear 23 1019 16 10000 4.6 100 10:36 23.08.2019
3173 Clear 23 1019 15 10000 2.1 200 10:18 23.08.2019
3174 Clear 23 1018 15 10000 3.1 200 09:43 23.08.2019
3175 Clear 23 1018 15 10000 3.1 200 09:43 23.08.2019
3176 Clear 23 1018 15 10000 3.1 200 09:20 23.08.2019
3177 Clear 24 1019 15 10000 4.1 150 08:45 23.08.2019
3178 Clear 23 1019 15 10000 2.1 300 08:21 23.08.2019
3179 Clear 23 1019 15 10000 2.1 300 07:56 23.08.2019
3180 Clear 24 1020 15 10000 2.6 350 07:38 23.08.2019
3181 Clear 23 1020 16 10000 3.6 60 07:20 23.08.2019
3182 Clear 22 1021 17 10000 2.1 330 06:41 23.08.2019
3183 Clear 22 1021 17 10000 2.1 330 06:21 23.08.2019
3184 Clear 21 1022 19 10000 2.6 40 05:44 23.08.2019
3185 Clear 21 1022 19 10000 2.6 40 05:23 23.08.2019
3186 Clear 18 1024 27 10000 6.7 70 03:37 23.08.2019
3187 Clear 15 1025 27 10000 4.6 70 02:37 23.08.2019
3188 Clear 15 1025 27 10000 4.6 70 02:18 23.08.2019
3189 Clear 3 1024 51 10000 1.5 300 00:46 23.08.2019
3190 Clear 3 1024 51 10000 1.5 300 00:23 23.08.2019
3191 Clear 2 1024 55 10000 1.5 310 23:53 22.08.2019
3192 Clear 3 1024 51 10000 2.1 310 23:33 22.08.2019
3193 Clear 3 1024 51 10000 2.6 300 22:59 22.08.2019
3194 Clear 3 1024 51 10000 2.6 300 22:59 22.08.2019
3195 Clear 3 1023 51 10000 2.6 300 22:41 22.08.2019
3196 Clear 3 1023 51 10000 2.6 300 22:22 22.08.2019
3197 Clear 4 1023 48 10000 2.1 320 21:57 22.08.2019
3198 Clear 4 1023 48 10000 2.1 290 21:39 22.08.2019
3199 Clear 4 1023 48 10000 2.6 290 21:20 22.08.2019
3200 Clear 4 1023 48 10000 2.6 290 20:57 22.08.2019
3201 Clear 4 1023 51 10000 2.1 310 20:39 22.08.2019
3202 Clear 5 1024 48 10000 3.7 64.182 20:19 22.08.2019
3203 Clear 5 1024 48 10000 3.7 64.182 19:56 22.08.2019
3204 Clear 5 1024 48 10000 3.7 64.182 19:55 22.08.2019
3205 Clear 5 1024 44 10000 2.6 310 19:37 22.08.2019
3206 Clear 6 1024 45 10000 2.1 270 19:19 22.08.2019
3207 Clear 6 1024 45 10000 2.1 270 18:56 22.08.2019
3208 Clear 6 1024 41 10000 1 290 18:37 22.08.2019
3209 Clear 6 1024 38 10000 3.65 79.779 18:18 22.08.2019
3210 Clear 6 1024 38 10000 3.65 79.779 17:42 22.08.2019
3211 Clear 9 1025 36 10000 1.5 340 17:21 22.08.2019
3212 Clear 9 1025 39 10000 2.1 340 16:58 22.08.2019
3213 Clear 9 1025 39 10000 2.1 340 16:39 22.08.2019
3214 Clear 9 1025 36 10000 2.1 10 16:20 22.08.2019
3215 Clear 9 1025 36 10000 2.1 10 15:57 22.08.2019
3216 Clear 9 1025 36 10000 2.1 10 15:57 22.08.2019
3217 Clear 9 1025 36 10000 2.1 10 15:57 22.08.2019
3218 Clear 9 1025 36 10000 2.1 10 15:57 22.08.2019
3219 Clear 10 1025 31 10000 0.5 40 15:38 22.08.2019
3220 Clear 10 1025 31 10000 0.5 40 15:38 22.08.2019
3221 Clear 10 1025 31 10000 0.5 40 15:19 22.08.2019
3222 Clear 10 1025 31 10000 0.5 40 15:19 22.08.2019
3223 Clear 11 1025 32 10000 4.72 96.356 14:56 22.08.2019
3224 Clear 11 1025 32 10000 2.1 120 14:38 22.08.2019
3225 Clear 12 1025 30 10000 2.1 120 14:18 22.08.2019
3226 Clear 13 1025 28 10000 2.6 130 13:41 22.08.2019
3227 Clear 14 1025 26 10000 3.1 130 13:22 22.08.2019
3228 Clear 14 1025 26 10000 3.1 130 12:59 22.08.2019
3229 Clear 15 1024 24 10000 3.1 130 12:39 22.08.2019
3230 Clear 15 1024 24 10000 3.1 130 12:20 22.08.2019
3231 Clear 15 1024 24 10000 3.1 130 12:20 22.08.2019
3232 Clear 18 1024 22 10000 3.1 130 11:43 22.08.2019
3233 Clear 18 1024 22 10000 3.1 130 11:22 22.08.2019
3234 Clear 20 1024 19 10000 4.6 120 10:59 22.08.2019
3235 Clear 20 1024 19 10000 4.6 120 10:59 22.08.2019
3236 Clear 21 1023 16 10000 4.6 100 10:41 22.08.2019
3237 Clear 21 1023 16 10000 4.6 100 10:22 22.08.2019
3238 Clear 21 1023 18 10000 4.6 100 09:58 22.08.2019
3239 Clear 21 1023 16 10000 2.6 150 09:39 22.08.2019
3240 Clear 21 1023 16 10000 2.6 150 09:21 22.08.2019
3241 Clear 21 1023 16 10000 2.6 150 09:21 22.08.2019
3242 Clear 21 1023 16 10000 4.6 110 08:56 22.08.2019
3243 Clear 21 1023 16 10000 4.1 110 08:38 22.08.2019
3244 Clear 20 1024 16 10000 4.6 70 08:20 22.08.2019
3245 Clear 20 1024 16 10000 4.6 70 07:40 22.08.2019
3246 Clear 20 1024 16 10000 6.7 60 07:20 22.08.2019
3247 Clear 20 1024 16 10000 6.7 60 06:52 22.08.2019
3248 Clear 20 1026 18 10000 6.2 90 06:24 22.08.2019
3249 Clear 19 1026 19 10000 5.7 100 05:45 22.08.2019
3250 Clear 18 1027 23 10000 7.2 90 04:29 22.08.2019
3251 Clear 13 1028 39 10000 6.7 90 02:50 22.08.2019
3252 Clear 13 1028 39 10000 6.7 90 02:50 22.08.2019
3253 Clear 13 1028 39 10000 6.7 90 02:32 22.08.2019
3254 Clear 6 1028 41 10000 8.16 104.738 01:23 22.08.2019
3255 Clear 3 1028 51 10000 2.1 270 00:45 22.08.2019
3256 Clear 1 1027 55 10000 2.6 290 00:26 22.08.2019
3257 Clear 1 1027 55 10000 2.6 290 23:54 21.08.2019
3258 Clear 1 1027 64 10000 3.34 106.094 23:36 21.08.2019
3259 Clear 1 1027 55 10000 3.34 106.094 23:18 21.08.2019
3260 Clear 2 1027 51 10000 1.5 310 22:41 21.08.2019
3261 Clear 2 1027 51 10000 1.5 310 22:22 21.08.2019
3262 Clear 2 1027 51 10000 1.5 310 22:22 21.08.2019
3263 Clear 2 1026 55 10000 0.5 50 21:58 21.08.2019
3264 Clear 3 1026 51 10000 3.67 105.913 21:39 21.08.2019
3265 Clouds 3 1026 51 10000 4.5 102.903 21:20 21.08.2019
3266 Clouds 3 1026 51 10000 4.5 102.903 20:59 21.08.2019
3267 Clouds 4 1027 51 10000 2.1 340 20:41 21.08.2019
3268 Clouds 4 1027 51 10000 2.1 340 20:23 21.08.2019
3269 Clouds 4 1027 48 10000 4.5 102.903 19:56 21.08.2019
3270 Clouds 4 1027 44 10000 1.5 230 19:37 21.08.2019
3271 Clouds 5 1027 44 10000 2.1 240 19:19 21.08.2019
3272 Clouds 4 1027 44 10000 4.5 102.903 18:43 21.08.2019
3273 Clouds 5 1027 41 10000 0.5 210 18:23 21.08.2019
3274 Clouds 5 1027 41 10000 0.5 210 18:23 21.08.2019
3275 Clouds 5 1027 41 10000 0.5 210 17:54 21.08.2019
3276 Clouds 5 1027 44 10000 2.1 190 17:36 21.08.2019
3277 Clouds 6 1027 38 10000 2.1 180 17:18 21.08.2019
3278 Clouds 7 1028 39 10000 2.6 170 16:42 21.08.2019
3279 Clouds 7 1028 39 10000 2.6 170 16:23 21.08.2019
3280 Clouds 7 1028 39 10000 2.6 170 15:59 21.08.2019
3281 Clouds 8 1028 33 10000 2.6 160 15:40 21.08.2019
3282 Clouds 8 1028 33 10000 2.6 160 15:21 21.08.2019
3283 Clouds 9 1028 34 10000 2.6 160 14:57 21.08.2019
3284 Clouds 10 1028 31 10000 3.1 150 14:39 21.08.2019
3285 Clouds 10 1027 31 10000 3.1 130 14:20 21.08.2019
3286 Clouds 10 1028 31 10000 3.1 150 14:20 21.08.2019
3287 Clouds 10 1028 31 10000 3.1 150 14:20 21.08.2019
3288 Clouds 11 1027 29 10000 3.1 130 13:45 21.08.2019
3289 Clear 11 1027 29 10000 3.1 130 13:22 21.08.2019
3290 Clear 12 1027 27 10000 3.1 130 12:59 21.08.2019
3291 Clear 14 1027 26 10000 3.6 130 12:40 21.08.2019
3292 Clear 15 1026 24 10000 3.6 130 12:21 21.08.2019
3293 Clear 15 1026 24 10000 3.6 130 11:58 21.08.2019
3294 Clear 16 1026 23 10000 4.1 130 11:39 21.08.2019
3295 Clear 16 1026 23 10000 4.1 130 11:21 21.08.2019
3296 Clear 17 1026 21 10000 6.2 120 10:56 21.08.2019
3297 Clear 18 1026 18 10000 5.7 120 10:37 21.08.2019
3298 Clear 18 1026 18 10000 5.7 120 10:19 21.08.2019
3299 Clear 19 1026 17 10000 7.7 110 09:42 21.08.2019
3300 Clear 19 1026 17 10000 7.7 110 09:23 21.08.2019
3301 Clear 19 1026 19 10000 6.7 110 08:58 21.08.2019
3302 Clear 19 1026 19 10000 7.7 120 08:39 21.08.2019
3303 Clear 19 1026 19 10000 7.7 120 08:20 21.08.2019
3304 Clear 19 1027 20 10000 6.7 110 07:40 21.08.2019
3305 Clear 19 1027 20 10000 6.7 110 07:20 21.08.2019
3306 Clear 18 1028 23 10000 7.2 120 06:48 21.08.2019
3307 Clear 18 1028 23 10000 7.2 120 06:21 21.08.2019
3308 Clear 17 1029 27 10000 6.7 120 05:41 21.08.2019
3309 Clear 17 1029 27 10000 6.7 120 05:19 21.08.2019
3310 Clear 14 1031 35 10000 8.2 100 03:28 21.08.2019
3311 Clear 7 1031 48 10000 0.5 160 01:42 21.08.2019
3312 Clear 2 1030 59 10000 1.5 310 00:45 21.08.2019
3313 Clear 2 1030 59 10000 1.5 310 00:24 21.08.2019
3314 Clear 1 1030 64 10000 2.1 290 23:57 20.08.2019
3315 Clear 2 1030 59 10000 2.1 290 23:38 20.08.2019
3316 Clear 1 1030 59 10000 2.1 240 23:18 20.08.2019
3317 Clear 1 1030 59 10000 2.1 240 23:18 20.08.2019
3318 Clear 1 1030 59 10000 2.1 240 22:55 20.08.2019
3319 Clear 1 1029 59 10000 2.1 290 22:36 20.08.2019
3320 Clear 2 1029 59 10000 1.5 290 22:18 20.08.2019
3321 Clear 2 1029 59 10000 1.5 290 21:56 20.08.2019
3322 Clear 2 1029 51 10000 4.74 120.117 21:37 20.08.2019
3323 Clear 3 1029 51 10000 2.6 160 21:18 20.08.2019
3324 Clear 3 1029 51 10000 2.6 170 20:42 20.08.2019
3325 Clear 3 1029 51 10000 2.6 170 20:42 20.08.2019
3326 Clear 3 1029 51 10000 2.6 170 20:42 20.08.2019
3327 Clear 3 1029 51 10000 2.6 170 20:24 20.08.2019
3328 Clear 4 1029 44 10000 3.1 140 19:54 20.08.2019
3329 Clear 5 1029 44 10000 1 170 19:36 20.08.2019
3330 Clear 4 1029 44 10000 2.1 160 19:18 20.08.2019
3331 Clear 4 1029 44 10000 2.1 160 18:55 20.08.2019
3332 Clear 4 1030 41 10000 3.1 160 18:36 20.08.2019
3333 Clear 4 1030 41 10000 3.1 160 18:18 20.08.2019
3334 Clear 5 1030 41 10000 2.6 170 17:39 20.08.2019
3335 Clear 6 1030 38 10000 2.6 170 17:20 20.08.2019
3336 Clear 5 1030 38 10000 2.6 160 16:48 20.08.2019
3337 Clear 5 1030 38 10000 2.6 160 16:28 20.08.2019
3338 Clear 6 1030 38 10000 3.1 160 15:59 20.08.2019
3339 Clear 7 1030 33 10000 3.6 150 15:41 20.08.2019
3340 Clear 7 1030 36 10000 3.1 150 15:18 20.08.2019
3341 Clear 7 1030 36 10000 3.1 150 15:18 20.08.2019
3342 Clear 8 1030 33 10000 3.1 140 14:44 20.08.2019
3343 Clear 8 1030 33 10000 3.1 140 14:22 20.08.2019
3344 Clear 9 1030 31 10000 3.1 140 13:59 20.08.2019
3345 Clear 9 1030 31 10000 3.1 140 13:40 20.08.2019
3346 Clear 11 1030 27 10000 3.1 130 13:21 20.08.2019
3347 Clear 11 1030 27 10000 3.1 130 12:55 20.08.2019
3348 Clear 12 1030 25 10000 3.6 130 12:36 20.08.2019
3349 Clear 12 1030 25 10000 3.6 130 12:36 20.08.2019
3350 Clear 13 1029 24 10000 4.1 130 12:18 20.08.2019
3351 Clear 14 1029 22 10000 5.7 130 11:42 20.08.2019
3352 Clear 15 1029 21 10000 6.7 120 11:22 20.08.2019
3353 Clear 15 1029 21 10000 6.7 120 10:57 20.08.2019
3354 Clear 16 1029 21 10000 7.2 130 10:39 20.08.2019
3355 Clear 16 1029 21 10000 7.2 130 10:39 20.08.2019
3356 Clear 16 1029 21 10000 7.2 130 10:39 20.08.2019
3357 Clear 16 1028 19 10000 7.7 130 10:20 20.08.2019
3358 Clear 16 1028 19 10000 7.7 130 09:56 20.08.2019
3359 Clear 16 1028 21 10000 7.7 140 09:38 20.08.2019
3360 Clear 16 1028 21 10000 7.7 140 09:38 20.08.2019
3361 Clear 17 1029 20 10000 8.2 120 09:20 20.08.2019
3362 Clear 17 1029 21 10000 7.7 140 08:41 20.08.2019
3363 Clear 17 1029 21 10000 7.7 140 08:23 20.08.2019
3364 Clear 16 1029 21 10000 7.2 130 07:57 20.08.2019
3365 Clear 15 1029 22 10000 6.7 110 07:38 20.08.2019
3366 Clear 16 1030 23 10000 6.7 120 07:20 20.08.2019
3367 Clear 15 1030 24 10000 7.7 130 06:43 20.08.2019
3368 Clear 15 1031 24 10000 7.2 120 06:19 20.08.2019
3369 Clear 14 1032 26 10000 7.2 120 05:41 20.08.2019
3370 Clear 13 1033 30 10000 8.2 110 04:23 20.08.2019
3371 Clear 11 1033 34 10000 7.2 110 02:48 20.08.2019
3372 Clear 8 1033 42 10000 3.6 140 01:50 20.08.2019
3373 Clear 5 1033 52 10000 3.1 170 01:20 20.08.2019
3374 Clear 2 1032 59 10000 2.6 190 00:43 20.08.2019
3375 Clear 2 1032 59 10000 2.6 180 00:21 20.08.2019
3376 Clear 2 1032 59 10000 2.6 180 23:42 19.08.2019
3377 Clear 2 1031 59 10000 2.1 180 23:19 19.08.2019
3378 Clear 2 1031 59 10000 2.1 180 22:58 19.08.2019
3379 Clear 2 1031 59 10000 3.1 160 22:39 19.08.2019
3380 Clear 2 1031 59 10000 2.6 160 22:19 19.08.2019
3381 Clear 2 1031 59 10000 2.6 160 22:19 19.08.2019
3382 Clear 2 1031 59 10000 2.6 160 21:56 19.08.2019
3383 Clear 2 1031 59 10000 3.1 170 21:38 19.08.2019
3384 Clear 2 1031 59 10000 3.1 180 21:19 19.08.2019
3385 Clear 3 1031 55 10000 3.1 180 20:40 19.08.2019
3386 Clear 3 1031 55 10000 3.1 190 20:21 19.08.2019
3387 Clear 3 1031 55 10000 3.1 190 19:59 19.08.2019
3388 Clear 4 1031 51 10000 2.6 200 19:40 19.08.2019
3389 Clear 4 1031 51 10000 2.6 200 19:19 19.08.2019
3390 Clear 4 1031 51 10000 3.1 190 18:58 19.08.2019
3391 Clear 4 1031 51 10000 3.1 190 18:39 19.08.2019
3392 Clear 4 1031 51 10000 3.1 180 18:20 19.08.2019
3393 Clear 4 1031 48 10000 3.1 180 17:54 19.08.2019
3394 Clear 4 1031 48 10000 3.1 180 17:36 19.08.2019
3395 Clear 5 1031 48 10000 3.1 180 17:18 19.08.2019
3396 Clear 6 1032 45 10000 3.1 160 16:38 19.08.2019
3397 Clear 6 1032 45 10000 3.1 160 16:20 19.08.2019
3398 Clear 6 1032 45 10000 3.1 150 15:56 19.08.2019
3399 Clear 6 1032 45 10000 3.1 160 15:37 19.08.2019
3400 Clear 6 1032 45 10000 3.1 160 15:18 19.08.2019
3401 Clear 7 1031 39 10000 3.6 150 14:43 19.08.2019
3402 Clear 7 1031 39 10000 3.6 150 14:23 19.08.2019
3403 Clear 8 1031 39 10000 3.1 150 13:57 19.08.2019
3404 Clear 10 1031 34 10000 3.1 140 13:38 19.08.2019
3405 Clear 11 1030 32 10000 4.1 130 13:19 19.08.2019
3406 Clear 10 1031 34 10000 3.1 140 13:19 19.08.2019
3407 Clear 12 1030 32 10000 4.6 140 12:45 19.08.2019
3408 Clear 12 1030 32 10000 4.6 140 12:25 19.08.2019
3409 Clear 12 1029 30 10000 4.6 140 11:59 19.08.2019
3410 Clear 13 1029 28 10000 6.2 140 11:39 19.08.2019
3411 Clear 13 1028 28 10000 6.7 130 11:20 19.08.2019
3412 Clear 13 1028 28 10000 6.7 130 10:55 19.08.2019
3413 Clear 14 1028 26 10000 7.7 150 10:37 19.08.2019
3414 Clear 14 1028 26 10000 7.7 150 10:18 19.08.2019
3415 Clear 15 1028 24 10000 6.7 130 09:43 19.08.2019
3416 Clear 16 1027 25 10000 7.7 110 09:22 19.08.2019
3417 Clear 16 1027 25 10000 7.7 110 08:56 19.08.2019
3418 Clear 15 1027 26 10000 7.2 140 08:38 19.08.2019
3419 Clear 15 1028 26 10000 6.7 120 08:18 19.08.2019
3420 Clear 14 1028 28 10000 7.2 150 07:44 19.08.2019
3421 Clear 14 1028 28 10000 7.2 150 07:26 19.08.2019
3422 Clear 14 1029 33 10000 7.2 120 06:45 19.08.2019
3423 Clear 14 1029 33 10000 7.2 120 06:24 19.08.2019
3424 Clear 13 1030 37 10000 7.2 140 04:54 19.08.2019
3425 Clear 11 1031 43 10000 7.2 130 04:23 19.08.2019
3426 Clear 11 1031 43 10000 8.7 120 03:20 19.08.2019
3427 Clear 10 1031 43 10000 8.2 120 01:48 19.08.2019
3428 Clear 9 1030 45 10000 6.2 130 01:21 19.08.2019
3429 Clear 7 1029 52 10000 3.6 140 00:43 19.08.2019
3430 Clear 7 1029 52 10000 3.6 140 00:20 19.08.2019
3431 Clear 5 1029 52 10000 3.6 150 23:41 18.08.2019
3432 Clear 5 1029 52 10000 3.6 150 23:21 18.08.2019
3433 Clear 5 1028 48 10000 3.1 170 22:40 18.08.2019
3434 Clear 5 1028 48 10000 3.1 170 22:22 18.08.2019
3435 Clear 5 1027 48 10000 3.1 160 21:58 18.08.2019
3436 Clear 7 1027 42 10000 3.1 160 21:40 18.08.2019
3437 Clear 7 1027 42 10000 3.1 160 21:21 18.08.2019
3438 Clear 8 1027 39 10000 3.6 150 20:59 18.08.2019
3439 Clear 9 1027 36 10000 4.1 160 20:41 18.08.2019
3440 Clear 9 1027 36 10000 4.1 160 20:23 18.08.2019
3441 Clear 10 1027 29 10000 5.1 150 19:42 18.08.2019
3442 Clear 10 1027 29 10000 5.1 150 19:24 18.08.2019
3443 Clear 9 1026 29 10000 4.6 160 18:59 18.08.2019
3444 Clear 7 1026 30 10000 3.1 170 18:40 18.08.2019
3445 Clear 7 1026 30 10000 2.6 170 18:21 18.08.2019
3446 Clear 7 1026 30 10000 2.6 170 17:55 18.08.2019
3447 Clear 7 1026 30 10000 2.1 170 17:37 18.08.2019
3448 Clear 7 1026 30 10000 2.1 170 17:18 18.08.2019
3449 Clear 8 1026 31 10000 3.6 170 16:55 18.08.2019
3450 Clear 8 1026 31 10000 3.6 170 16:55 18.08.2019
3451 Clear 8 1026 33 10000 3.1 170 16:36 18.08.2019
3452 Clear 8 1026 33 10000 3.1 170 16:18 18.08.2019
3453 Clear 10 1026 31 10000 3.1 180 15:40 18.08.2019
3454 Clear 11 1025 32 10000 2.6 180 15:20 18.08.2019
3455 Clear 11 1025 32 10000 2.6 180 14:58 18.08.2019
3456 Clear 11 1025 32 10000 2.6 170 14:38 18.08.2019
3457 Clear 11 1025 32 10000 2.6 170 14:19 18.08.2019
3458 Clear 12 1025 30 10000 3.1 180 13:56 18.08.2019
3459 Clear 13 1024 30 10000 2.6 180 13:38 18.08.2019
3460 Clear 13 1024 30 10000 2.6 170 13:19 18.08.2019
3461 Clear 15 1024 26 10000 3.1 160 12:44 18.08.2019
3462 Clear 16 1023 26 10000 3.6 160 12:22 18.08.2019
3463 Clear 16 1023 26 10000 3.6 160 11:55 18.08.2019
3464 Clear 17 1023 23 10000 4.1 180 11:37 18.08.2019
3465 Clear 19 1022 20 10000 4.6 160 11:18 18.08.2019
3466 Clear 19 1022 20 10000 6.2 180 10:41 18.08.2019
3467 Clear 20 1022 20 10000 5.7 190 10:22 18.08.2019
3468 Clear 20 1022 20 10000 5.7 190 09:51 18.08.2019
3469 Clear 20 1022 20 10000 5.7 160 09:24 18.08.2019
3470 Clear 20 1021 20 10000 5.7 190 08:58 18.08.2019
3471 Clear 20 1021 22 10000 6.2 150 08:40 18.08.2019
3472 Clear 20 1021 22 10000 6.2 150 08:21 18.08.2019
3473 Clear 20 1022 22 10000 6.2 170 07:48 18.08.2019
3474 Clear 20 1022 22 10000 6.2 170 07:29 18.08.2019
3475 Clear 18 1023 25 10000 7.2 150 05:48 18.08.2019
3476 Clear 18 1023 25 10000 6.7 170 04:53 18.08.2019
3477 Clear 18 1024 27 10000 7.7 150 03:41 18.08.2019
3478 Clear 17 1024 37 10000 7.2 180 02:46 18.08.2019
3479 Clear 17 1024 37 10000 7.2 180 02:23 18.08.2019
3480 Clear 16 1023 31 10000 5.7 180 01:34 18.08.2019
3481 Clear 13 1023 37 10000 2.6 200 00:59 18.08.2019
3482 Clear 10 1022 43 10000 2.6 210 00:38 18.08.2019
3483 Clear 10 1021 46 10000 2.1 200 00:18 18.08.2019
3484 Clear 10 1021 46 10000 2.1 200 23:56 17.08.2019
3485 Clear 11 1021 43 10000 2.6 210 23:37 17.08.2019
3486 Clear 10 1020 43 10000 3.1 220 23:18 17.08.2019
3487 Clear 12 1020 40 10000 2.1 230 22:42 17.08.2019
3488 Clear 12 1020 40 10000 2.1 230 22:23 17.08.2019
3489 Clear 13 1020 37 10000 3.6 250 21:59 17.08.2019
3490 Clear 14 1019 35 10000 3.6 250 21:40 17.08.2019
3491 Clear 14 1019 35 10000 3.6 250 21:22 17.08.2019
3492 Clear 14 1019 35 10000 3.6 270 20:40 17.08.2019
3493 Clear 14 1019 35 10000 3.6 270 20:21 17.08.2019
3494 Clear 13 1019 32 10000 4.1 270 19:58 17.08.2019
3495 Clear 13 1019 28 10000 3.6 270 19:39 17.08.2019
3496 Clear 13 1019 28 10000 3.6 270 19:20 17.08.2019
3497 Clear 16 1018 23 10000 2.6 300 18:41 17.08.2019
3498 Clear 15 1018 22 10000 2.6 320 18:19 17.08.2019
3499 Clear 15 1018 22 10000 2.6 320 17:58 17.08.2019
3500 Clear 15 1018 21 10000 2.6 270 17:40 17.08.2019
3501 Clear 15 1018 21 10000 2.6 270 17:21 17.08.2019
3502 Clear 15 1018 21 10000 2.6 270 17:21 17.08.2019
3503 Clear 16 1017 17 10000 3.6 270 16:45 17.08.2019
3504 Clear 16 1017 17 10000 3.6 270 16:26 17.08.2019
3505 Clear 16 1017 18 10000 2.6 280 15:59 17.08.2019
3506 Clear 16 1017 17 10000 3.6 270 15:40 17.08.2019
3507 Clear 16 1017 17 10000 3.6 270 15:21 17.08.2019
3508 Clear 18 1017 13 10000 2.6 270 14:43 17.08.2019
3509 Clear 18 1017 13 10000 2.6 270 14:24 17.08.2019
3510 Clear 18 1017 13 10000 2.1 280 13:56 17.08.2019
3511 Clear 19 1016 13 10000 2.1 300 13:37 17.08.2019
3512 Clear 22 1016 11 10000 2.1 300 13:18 17.08.2019
3513 Clear 22 1016 10 10000 2.6 300 12:42 17.08.2019
3514 Clear 24 1015 10 10000 3.6 320 12:19 17.08.2019
3515 Clear 24 1015 10 10000 3.6 320 11:57 17.08.2019
3516 Clear 25 1015 9 10000 4.1 310 11:36 17.08.2019
3517 Clear 25 1015 9 10000 4.1 310 11:18 17.08.2019
3518 Clear 28 1015 8 10000 5.7 300 10:39 17.08.2019
3519 Clear 28 1015 8 10000 5.7 300 10:19 17.08.2019
3520 Clear 29 1014 7 10000 5.7 330 09:50 17.08.2019
3521 Clear 29 1014 7 10000 5.7 330 09:31 17.08.2019
3522 Clear 29 1014 7 10000 5.7 290 08:54 17.08.2019
3523 Clear 30 1014 7 10000 6.7 270 08:26 17.08.2019
3524 Clear 29 1014 9 10000 4.1 310 07:53 17.08.2019
3525 Clear 29 1015 9 10000 7.7 300 07:22 17.08.2019
3526 Clear 29 1015 9 10000 7.7 300 07:22 17.08.2019
3527 Clear 29 1015 9 10000 9.8 300 06:55 17.08.2019
3528 Clear 29 1016 7 10000 6.2 310 05:55 17.08.2019
3529 Clear 28 1017 8 10000 7.7 330 04:30 17.08.2019
3530 Clear 25 1018 11 10000 3.1 360 03:35 17.08.2019
3531 Clear 17 1018 17 10000 0.5 40 01:48 17.08.2019
3532 Clear 17 1018 17 10000 0.5 40 01:28 17.08.2019
3533 Clear 14 1018 19 10000 1 20 00:55 17.08.2019
3534 Clear 8 1017 22 10000 1.5 360 00:31 17.08.2019
3535 Clear 7 1017 26 10000 1.5 360 23:52 16.08.2019
3536 Clear 5 1017 25 10000 2.43 329.566 23:27 16.08.2019
3537 Clear 6 1017 24 10000 2.1 290 22:57 16.08.2019
3538 Clear 7 1016 24 10000 1.5 340 22:39 16.08.2019
3539 Clear 7 1016 24 10000 2.1 310 22:19 16.08.2019
3540 Clear 7 1016 24 10000 2.74 329.584 21:40 16.08.2019
3541 Clear 9 1016 21 10000 2.31 327.758 21:20 16.08.2019
3542 Clear 9 1016 21 10000 2.31 327.758 20:56 16.08.2019
3543 Clear 7 1017 22 10000 2.31 327.758 20:37 16.08.2019
3544 Clear 10 1017 19 10000 2.6 320 20:18 16.08.2019
3545 Clear 9 1017 21 10000 2.6 330 19:42 16.08.2019
3546 Clear 8 1018 22 10000 2.31 327.758 19:22 16.08.2019
3547 Clear 9 1018 19 10000 2.31 327.758 18:44 16.08.2019
3548 Clear 9 1018 19 10000 2.31 327.758 18:26 16.08.2019
3549 Clear 9 1018 19 10000 2.31 327.758 18:26 16.08.2019
3550 Clear 10 1018 18 10000 3.6 280 17:58 16.08.2019
3551 Clear 10 1018 18 10000 3.1 270 17:39 16.08.2019
3552 Clear 10 1018 19 10000 0.67 12.214 17:20 16.08.2019
3553 Clear 10 1018 19 10000 0.67 12.214 17:20 16.08.2019
3554 Clear 10 1018 21 10000 2.1 350 16:42 16.08.2019
3555 Clear 10 1018 21 10000 2.1 350 16:22 16.08.2019
3556 Clear 12 1018 18 10000 2.1 360 15:59 16.08.2019
3557 Clear 12 1018 17 10000 2.1 330 15:40 16.08.2019
3558 Clear 12 1018 17 10000 2.1 330 15:21 16.08.2019
3559 Clear 13 1018 16 10000 2.1 330 14:57 16.08.2019
3560 Clear 15 1018 14 10000 2.1 300 14:38 16.08.2019
3561 Clear 15 1018 14 10000 2.1 300 14:19 16.08.2019
3562 Clear 17 1018 13 10000 0.82 14.429 13:41 16.08.2019
3563 Clear 17 1018 13 10000 1.76 358.37 13:23 16.08.2019
3564 Clear 17 1018 12 10000 1.76 358.37 12:56 16.08.2019
3565 Clear 19 1018 11 10000 1.76 358.37 12:37 16.08.2019
3566 Clear 21 1017 9 10000 2.1 280 12:19 16.08.2019
3567 Clear 23 1017 8 10000 3.1 280 11:42 16.08.2019
3568 Clear 23 1017 8 10000 3.1 280 11:41 16.08.2019
3569 Clear 23 1017 8 10000 3.1 280 11:23 16.08.2019
3570 Clear 27 1017 8 10000 4.1 290 10:43 16.08.2019
3571 Clear 27 1017 8 10000 4.1 290 10:25 16.08.2019
3572 Clear 27 1017 8 10000 3.1 310 09:56 16.08.2019
3573 Clear 27 1017 8 10000 4.1 290 09:37 16.08.2019
3574 Clear 27 1017 8 10000 4.1 290 09:37 16.08.2019
3575 Clear 27 1017 8 10000 5.1 290 09:18 16.08.2019
3576 Clear 28 1017 7 10000 4.1 270 08:41 16.08.2019
3577 Clear 28 1017 7 10000 4.1 270 08:21 16.08.2019
3578 Clear 27 1017 8 10000 3.6 260 07:53 16.08.2019
3579 Clear 27 1018 8 10000 3.1 250 07:32 16.08.2019
3580 Clear 26 1018 7 10000 5.1 350 06:57 16.08.2019
3581 Clear 25 1019 8 10000 4.6 300 06:21 16.08.2019
3582 Clear 25 1019 8 10000 4.6 300 05:40 16.08.2019
3583 Clear 25 1020 9 10000 5.7 310 04:27 16.08.2019
3584 Clear 18 1021 11 10000 1.5 250 02:28 16.08.2019
3585 Clear 13 1021 15 10000 4.67 336.265 01:30 16.08.2019
3586 Clear 9 1021 21 10000 1.5 290 00:57 16.08.2019
3587 Clear 4 1020 25 10000 2.1 270 00:39 16.08.2019
3588 Clear 3 1020 25 10000 2.1 270 00:20 16.08.2019
3589 Clear 4 1020 21 10000 2.1 270 23:42 15.08.2019
3590 Clear 4 1020 21 10000 2.1 270 23:21 15.08.2019
3591 Clear 5 1020 21 10000 2.6 270 22:57 15.08.2019
3592 Clear 5 1020 21 10000 2.6 270 22:39 15.08.2019
3593 Clear 5 1020 21 10000 2.6 270 22:20 15.08.2019
3594 Clear 5 1019 21 10000 3.1 280 21:40 15.08.2019
3595 Clear 5 1019 21 10000 3.1 280 21:20 15.08.2019
3596 Clear 5 1019 21 10000 2.6 290 20:59 15.08.2019
3597 Clear 5 1019 23 10000 1.74 42.178 20:41 15.08.2019
3598 Clear 5 1019 23 10000 1.74 42.178 20:21 15.08.2019
3599 Clear 5 1019 23 10000 1.74 42.178 19:56 15.08.2019
3600 Clear 5 1020 23 10000 1.74 42.178 19:38 15.08.2019
3601 Clear 5 1020 21 10000 1.74 42.178 19:19 15.08.2019
3602 Clear 7 1020 20 10000 2.1 330 18:46 15.08.2019
3603 Clear 7 1020 20 10000 2.1 330 18:22 15.08.2019
3604 Clear 6 1020 22 10000 1.5 320 17:56 15.08.2019
3605 Clear 8 1020 19 10000 2.1 330 17:37 15.08.2019
3606 Clear 9 1020 18 10000 2.1 270 17:19 15.08.2019
3607 Clear 9 1020 18 10000 1 270 16:48 15.08.2019
3608 Clear 9 1020 18 10000 1 270 16:27 15.08.2019
3609 Clear 11 1021 15 10000 2.1 260 15:57 15.08.2019
3610 Clear 10 1021 18 10000 2.6 290 15:38 15.08.2019
3611 Clear 10 1021 18 10000 2.6 290 15:19 15.08.2019
3612 Clear 11 1020 17 10000 2.27 318.107 14:42 15.08.2019
3613 Clear 11 1020 17 10000 2.27 318.107 14:23 15.08.2019
3614 Clear 11 1020 15 10000 2.27 318.107 13:57 15.08.2019
3615 Clear 14 1020 15 10000 0.5 10 13:39 15.08.2019
3616 Clear 17 1020 12 10000 2.51 307.528 13:20 15.08.2019
3617 Clear 17 1020 12 10000 2.51 307.528 12:57 15.08.2019
3618 Clear 17 1020 12 10000 2.51 307.528 12:57 15.08.2019
3619 Clear 16 1020 12 10000 2.51 307.528 12:38 15.08.2019
3620 Clear 18 1019 10 10000 2.39 322.837 12:18 15.08.2019
3621 Clear 18 1019 10 10000 2.39 322.837 11:57 15.08.2019
3622 Clear 21 1019 9 10000 2.39 322.837 11:36 15.08.2019
3623 Clear 24 1019 8 10000 2.39 322.837 11:18 15.08.2019
3624 Clear 23 1019 8 10000 2.6 250 10:39 15.08.2019
3625 Clear 23 1019 8 10000 2.6 250 10:20 15.08.2019
3626 Clear 24 1019 8 10000 3.1 250 09:55 15.08.2019
3627 Clear 25 1019 7 10000 2.6 200 09:37 15.08.2019
3628 Clear 24 1019 7 10000 2.1 270 09:18 15.08.2019
3629 Clear 24 1019 7 10000 1 180 08:37 15.08.2019
3630 Clear 24 1019 7 10000 1 180 08:19 15.08.2019
3631 Clear 24 1020 8 10000 3.1 330 07:45 15.08.2019
3632 Clear 24 1020 8 10000 3.1 330 07:27 15.08.2019
3633 Clear 23 1020 9 10000 2.6 290 06:55 15.08.2019
3634 Clear 23 1021 9 10000 2.6 360 06:33 15.08.2019
3635 Clear 23 1021 8 10000 3.1 10 05:51 15.08.2019
3636 Clear 23 1022 8 10000 3.6 290 05:29 15.08.2019
3637 Clear 22 1023 10 10000 3.6 270 04:35 15.08.2019
3638 Clear 20 1024 11 10000 3.1 330 03:45 15.08.2019
3639 Clear 18 1024 13 10000 0.5 190 02:45 15.08.2019
3640 Clear 14 1024 19 10000 0.5 170 01:52 15.08.2019
3641 Clear 11 1024 23 10000 5.91 353.92 01:31 15.08.2019
3642 Clear 3 1023 29 10000 2.1 170 00:41 15.08.2019
3643 Clear 3 1023 29 10000 2.1 170 00:21 15.08.2019
3644 Clear 2 1023 34 10000 4.09 12.82 23:57 14.08.2019
3645 Clear 2 1023 31 10000 4.09 12.82 23:38 14.08.2019
3646 Clear 2 1023 31 10000 4.09 12.82 23:19 14.08.2019
3647 Clear 2 1022 31 10000 0.5 260 22:57 14.08.2019
3648 Clear 3 1022 29 10000 1 340 22:38 14.08.2019
3649 Clear 3 1022 29 10000 1 340 22:19 14.08.2019
3650 Clear 3 1022 32 10000 1.5 310 21:55 14.08.2019
3651 -273 0 0 0 0 0 21:55 14.08.2019
3652 Clear 4 1022 29 10000 2.1 270 21:37 14.08.2019
3653 Clear 4 1022 29 10000 2.1 270 21:37 14.08.2019
3654 Clear 3 1022 29 10000 2.1 240 21:18 14.08.2019
3655 Clear 4 1022 27 10000 2.6 260 20:41 14.08.2019
3656 Clear 4 1022 27 10000 2.6 260 20:21 14.08.2019
3657 Clear 4 1022 27 10000 2.6 290 19:56 14.08.2019
3658 Clear 4 1022 27 10000 2.6 290 19:37 14.08.2019
3659 Clear 4 1022 29 10000 4.27 21.933 19:19 14.08.2019
3660 Clear 4 1022 29 10000 4.27 21.933 18:56 14.08.2019
3661 Clear 6 1022 26 10000 4.27 21.933 18:38 14.08.2019
3662 Clear 6 1022 26 10000 4.3 55.232 18:19 14.08.2019
3663 Clear 6 1022 26 10000 4.3 55.232 17:56 14.08.2019
3664 Clear 6 1022 26 10000 4.3 55.232 17:56 14.08.2019
3665 Clear 7 1022 24 10000 4.3 55.232 17:36 14.08.2019
3666 Clear 7 1023 22 10000 4.3 55.232 17:18 14.08.2019
3667 Clear 7 1023 20 10000 4.3 55.232 16:41 14.08.2019
3668 Clear 7 1023 20 10000 4.3 55.232 16:20 14.08.2019
3669 Clear 9 1022 19 10000 4.3 55.232 15:44 14.08.2019
3670 Clear 9 1022 19 10000 5.17 59.881 15:22 14.08.2019
3671 Clear 11 1022 18 10000 2.1 70 14:59 14.08.2019
3672 Clear 12 1022 17 10000 2.6 80 14:39 14.08.2019
3673 Clear 12 1022 17 10000 2.6 80 14:19 14.08.2019
3674 Clear 13 1022 16 10000 2.6 90 14:19 14.08.2019
3675 Clear 13 1022 16 10000 3.1 100 13:55 14.08.2019
3676 Clear 13 1022 16 10000 3.1 100 13:37 14.08.2019
3677 Clear 15 1022 13 10000 2.6 80 13:18 14.08.2019
3678 Clear 15 1022 13 10000 2.6 80 12:55 14.08.2019
3679 Clear 16 1022 13 10000 3.1 90 12:36 14.08.2019
3680 Clear 17 1021 12 10000 3.1 100 12:18 14.08.2019
3681 Clear 18 1021 11 10000 3.6 120 11:45 14.08.2019
3682 Clear 18 1021 11 10000 3.6 120 11:23 14.08.2019
3683 Clear 20 1021 10 10000 3.6 120 10:54 14.08.2019
3684 Clear 21 1021 10 10000 3.1 110 10:36 14.08.2019
3685 Clear 21 1021 10 10000 3.1 120 10:18 14.08.2019
3686 Clear 21 1021 11 10000 3.1 90 09:41 14.08.2019
3687 Clear 21 1021 11 10000 3.1 90 09:41 14.08.2019
3688 Clear 21 1021 11 10000 3.1 90 09:20 14.08.2019
3689 Clear 21 1021 12 10000 3.1 40 08:42 14.08.2019
3690 Clear 21 1021 12 10000 3.1 40 08:24 14.08.2019
3691 Clear 21 1021 12 10000 3.1 130 07:55 14.08.2019
3692 Clear 21 1021 13 10000 2.6 70 07:35 14.08.2019
3693 Clear 20 1022 14 10000 2.6 80 06:50 14.08.2019
3694 Clear 20 1022 14 10000 3.6 140 06:23 14.08.2019
3695 Clear 19 1024 17 10000 2.6 120 05:28 14.08.2019
3696 Clear 16 1026 29 10000 3.6 40 03:41 14.08.2019
3697 Clear 14 1026 30 10000 3.6 50 02:37 14.08.2019
3698 Clear 11 1026 43 10000 0.5 140 01:57 14.08.2019
3699 Clear 8 1026 49 10000 4.38 43.298 01:23 14.08.2019
3700 Clear 2 1025 64 10000 2.1 300 00:23 14.08.2019
3701 Clear 2 1025 64 10000 2.1 260 23:40 13.08.2019
3702 Clear 2 1025 64 10000 2.1 260 23:19 13.08.2019
3703 Clear 1 1025 64 10000 1.5 330 22:43 13.08.2019
3704 Clear 1 1025 64 10000 1.5 330 22:24 13.08.2019
3705 Clear 2 1024 64 10000 1.5 310 21:59 13.08.2019
3706 Clear 3 1024 59 10000 2.1 300 21:39 13.08.2019
3707 Clear 3 1024 59 10000 2.1 300 21:20 13.08.2019
3708 Clear 3 1024 64 10000 2.6 280 20:58 13.08.2019
3709 Clear 4 1024 60 10000 2.1 300 20:40 13.08.2019
3710 Clear 4 1024 60 10000 2.1 300 20:19 13.08.2019
3711 Clear 3 1024 64 10000 2.6 290 19:55 13.08.2019
3712 Clear 4 1025 55 10000 3.31 60.36 19:37 13.08.2019
3713 Clear 4 1025 60 10000 3.31 60.36 19:18 13.08.2019
3714 Clear 5 1025 60 10000 3.31 60.36 18:41 13.08.2019
3715 Clear 5 1025 56 10000 0.5 170 18:22 13.08.2019
3716 Clear 6 1025 52 10000 4.21 62.875 17:43 13.08.2019
3717 Clear 6 1025 52 10000 4.21 62.875 17:23 13.08.2019
3718 Clear 7 1025 48 10000 2.1 150 16:59 13.08.2019
3719 Clear 7 1025 48 10000 2.1 150 16:59 13.08.2019
3720 Clear 7 1025 48 10000 2.1 150 16:40 13.08.2019
3721 Clear 7 1025 48 10000 2.1 150 16:21 13.08.2019
3722 Clear 8 1025 49 10000 2.6 100 15:59 13.08.2019
3723 Clear 9 1025 45 10000 2.1 40 15:38 13.08.2019
3724 Clear 9 1025 45 10000 2.1 40 15:19 13.08.2019
3725 Clear 11 1025 43 10000 2.6 80 14:43 13.08.2019
3726 Clear 12 1025 40 10000 2.6 110 14:20 13.08.2019
3727 Clear 12 1025 40 10000 2.6 110 13:58 13.08.2019
3728 Clear 12 1025 40 10000 2.6 110 13:58 13.08.2019
3729 Clear 12 1025 37 10000 3.1 120 13:39 13.08.2019
3730 Clear 14 1024 33 10000 3.1 120 13:18 13.08.2019
3731 Clear 14 1024 33 10000 3.1 120 12:56 13.08.2019
3732 Clear 15 1024 30 10000 3.1 110 12:38 13.08.2019
3733 Clear 15 1024 30 10000 3.6 110 12:18 13.08.2019
3734 Clear 16 1023 29 10000 3.1 80 11:42 13.08.2019
3735 Clear 16 1023 29 10000 3.1 80 11:22 13.08.2019
3736 Clear 18 1023 27 10000 4.6 90 10:57 13.08.2019
3737 Clear 18 1023 33 10000 4.1 90 10:38 13.08.2019
3738 Clear 19 1022 25 10000 3.1 110 10:19 13.08.2019
3739 Clear 19 1022 25 10000 4.1 120 09:45 13.08.2019
3740 Clear 19 1022 25 10000 4.1 120 09:24 13.08.2019
3741 Clear 19 1022 25 10000 4.1 120 09:24 13.08.2019
3742 Clear 19 1022 25 10000 4.1 120 09:24 13.08.2019
3743 Clear 19 1022 23 10000 5.1 60 08:57 13.08.2019
3744 Clear 19 1022 29 10000 2.6 190 08:39 13.08.2019
3745 Clear 19 1023 23 10000 2.6 130 08:20 13.08.2019
3746 Clear 18 1023 23 10000 3.6 120 07:45 13.08.2019
3747 Clear 18 1023 23 10000 3.6 120 07:23 13.08.2019
3748 Clear 18 1024 34 10000 3.1 60 06:44 13.08.2019
3749 Clear 17 1024 39 10000 3.6 120 05:53 13.08.2019
3750 Clear 15 1026 44 10000 3.6 100 04:36 13.08.2019
3751 Clear 12 1027 54 10000 2.6 60 02:22 13.08.2019
3752 Clear 8 1027 61 10000 2.1 280 01:29 13.08.2019
3753 Clear 2 1026 69 10000 2.1 290 00:48 13.08.2019
3754 Clear 2 1026 69 10000 2.1 290 00:22 13.08.2019
3755 Clear 2 1025 69 10000 2.6 270 23:43 12.08.2019
3756 Clear 2 1025 69 10000 2.6 270 23:21 12.08.2019
3757 Clear 2 1025 69 10000 1.5 310 22:41 12.08.2019
3758 Clear 2 1025 69 10000 1.5 310 22:20 12.08.2019
3759 Clear 3 1024 69 10000 2.76 62.302 21:57 12.08.2019
3760 Clear 2 1024 69 10000 1 320 21:38 12.08.2019
3761 Clear 2 1024 69 10000 1 320 21:20 12.08.2019
3762 Clear 3 1024 69 10000 2.57 125.68 20:59 12.08.2019
3763 Clear 4 1024 64 10000 1.5 40 20:41 12.08.2019
3764 Clear 4 1024 64 10000 1.5 10 20:20 12.08.2019
3765 Clear 4 1024 64 10000 1.5 10 19:57 12.08.2019
3766 Clear 5 1025 65 10000 2.1 360 19:39 12.08.2019
3767 Clear 4 1025 60 10000 2.57 125.68 19:20 12.08.2019
3768 Clear 4 1025 60 10000 2.57 125.68 18:56 12.08.2019
3769 Clear 5 1025 60 10000 2.57 125.68 18:38 12.08.2019
3770 Clear 5 1025 65 10000 3.01 86.269 18:19 12.08.2019
3771 Clear 6 1026 56 10000 1 150 17:48 12.08.2019
3772 Clear 6 1026 56 10000 1 150 17:29 12.08.2019
3773 Clear 6 1026 60 10000 3.01 86.269 16:58 12.08.2019
3774 Clear 6 1026 56 10000 3.01 86.269 16:39 12.08.2019
3775 -273 0 0 0 0 0 16:20 12.08.2019
3776 Clear 7 1026 52 10000 1 180 15:59 12.08.2019
3777 Clear 8 1026 52 10000 3.01 86.269 15:41 12.08.2019
3778 Clear 8 1026 52 10000 3.95 109.935 15:21 12.08.2019
3779 Clear 9 1026 52 10000 0.5 150 14:58 12.08.2019
3780 Clear 10 1026 52 10000 2.6 140 14:39 12.08.2019
3781 Clear 10 1026 52 10000 2.6 140 14:39 12.08.2019
3782 Clear 10 1026 52 10000 2.6 140 14:20 12.08.2019
3783 Clear 10 1026 52 10000 2.6 140 14:20 12.08.2019
3784 Clear 11 1025 52 10000 2.6 130 13:47 12.08.2019
3785 Clear 11 1025 55 10000 2.6 130 13:25 12.08.2019
3786 Clear 12 1025 55 10000 3.1 130 12:59 12.08.2019
3787 Clear 13 1024 37 10000 3.1 140 12:41 12.08.2019
3788 Clear 14 1024 42 10000 3.1 130 12:19 12.08.2019
3789 Clear 15 1024 42 10000 3.6 130 11:43 12.08.2019
3790 -273 0 0 0 0 0 11:43 12.08.2019
3791 Clear 15 1024 42 10000 3.6 130 11:25 12.08.2019
3792 Clear 17 1023 42 10000 5.1 140 10:43 12.08.2019
3793 Clear 17 1023 42 10000 5.1 140 10:24 12.08.2019
3794 Clear 17 1023 42 10000 4.6 130 09:57 12.08.2019
3795 Clear 18 1023 42 10000 5.1 140 09:38 12.08.2019
3796 Clear 18 1023 31 10000 4.6 140 09:20 12.08.2019
3797 Clear 18 1023 31 10000 4.6 140 08:58 12.08.2019
3798 Clear 18 1023 31 10000 4.6 150 08:39 12.08.2019
3799 Clear 18 1023 31 10000 4.6 150 08:20 12.08.2019
3800 Clear 18 1023 31 10000 4.6 150 08:20 12.08.2019
3801 Clear 17 1023 33 10000 3.6 110 07:52 12.08.2019
3802 Clear 18 1023 34 10000 5.1 140 07:28 12.08.2019
3803 Clear 16 1024 36 10000 3.6 200 06:52 12.08.2019
3804 Clear 17 1025 39 10000 6.2 160 05:40 12.08.2019
3805 Clear 13 1027 54 10000 6.2 110 02:44 12.08.2019
3806 Clear 12 1027 54 10000 4.1 110 01:55 12.08.2019
3807 Clear 6 1026 59 10000 1 300 01:21 12.08.2019
3808 Clear 6 1026 59 10000 1 300 00:58 12.08.2019
3809 Clear 3 1026 69 10000 2.1 310 00:39 12.08.2019
3810 Clear 3 1026 69 10000 2.1 310 00:20 12.08.2019
3811 Clear 3 1025 69 10000 2.1 310 23:55 11.08.2019
3812 Clear 3 1025 64 10000 2.1 310 23:37 11.08.2019
3813 Clear 3 1024 64 10000 1.5 310 23:18 11.08.2019
3814 Clear 3 1024 64 10000 1.5 310 23:18 11.08.2019
3815 Clear 3 1024 69 10000 2.6 290 22:40 11.08.2019
3816 Clear 3 1024 69 10000 2.6 290 22:19 11.08.2019
3817 Clear 4 1024 64 10000 2.6 310 21:59 11.08.2019
3818 Clear 3 1024 64 10000 2.1 300 21:40 11.08.2019
3819 Clear 4 1023 55 10000 2.6 270 21:21 11.08.2019
3820 Clear 4 1023 55 10000 2.6 270 20:57 11.08.2019
3821 Clear 4 1023 55 10000 2.6 270 20:57 11.08.2019
3822 Clear 4 1023 60 10000 2.1 300 20:38 11.08.2019
3823 Clear 4 1023 60 10000 2.1 300 20:20 11.08.2019
3824 Clear 4 1023 55 10000 1.35 142.222 19:43 11.08.2019
3825 Clear 4 1024 55 10000 1.35 142.222 19:19 11.08.2019
3826 Clear 5 1024 56 10000 1.35 142.222 18:41 11.08.2019
3827 Clear 5 1024 56 10000 2.3 140.798 18:22 11.08.2019
3828 Clear 7 1024 56 10000 2.3 140.798 17:58 11.08.2019
3829 Clear 7 1024 56 10000 2.3 140.798 17:58 11.08.2019
3830 Clear 6 1024 56 10000 1.5 60 17:40 11.08.2019
3831 Clear 6 1024 56 10000 1.5 60 17:20 11.08.2019
3832 Clear 7 1024 48 10000 1.5 50 16:56 11.08.2019
3833 Clear 7 1024 48 10000 2.1 50 16:38 11.08.2019
3834 Clear 8 1025 52 10000 2.3 140.798 16:18 11.08.2019
3835 Clear 8 1025 49 10000 1.5 170 15:43 11.08.2019
3836 Clear 8 1025 49 10000 1.5 170 15:24 11.08.2019
3837 Clear 9 1025 45 10000 3.1 170 14:59 11.08.2019
3838 Clear 10 1024 46 10000 2.6 170 14:39 11.08.2019
3839 Clear 10 1024 46 10000 2.6 170 14:19 11.08.2019
3840 Clear 12 1024 37 10000 2.6 140 13:44 11.08.2019
3841 Clear 12 1024 37 10000 2.6 140 13:25 11.08.2019
3842 Clear 13 1023 37 10000 2.6 120 12:49 11.08.2019
3843 Clear 13 1023 37 10000 2.6 120 12:25 11.08.2019
3844 Clear 15 1023 33 10000 3.6 130 11:57 11.08.2019
3845 Clear 16 1022 31 10000 3.6 130 11:39 11.08.2019
3846 Clear 16 1022 31 10000 3.6 130 11:20 11.08.2019
3847 Clear 17 1022 29 10000 4.1 130 10:55 11.08.2019
3848 Clear 18 1022 27 10000 4.1 130 10:36 11.08.2019
3849 Clear 18 1021 27 10000 5.1 130 10:18 11.08.2019
3850 Clear 18 1021 27 10000 5.1 130 10:18 11.08.2019
3851 Clear 19 1021 40 10000 5.1 110 09:40 11.08.2019
3852 Clear 19 1021 27 10000 5.1 110 09:22 11.08.2019
3853 Clear 18 1022 28 10000 4.6 120 08:48 11.08.2019
3854 Clear 18 1022 28 10000 4.6 120 08:28 11.08.2019
3855 Clear 18 1022 28 10000 4.6 130 07:56 11.08.2019
3856 Clear 18 1023 28 10000 4.6 140 07:26 11.08.2019
3857 Clear 17 1024 33 10000 3.6 160 06:45 11.08.2019
3858 Clear 16 1025 36 10000 4.1 130 05:58 11.08.2019
3859 Clear 14 1026 47 10000 5.1 150 03:56 11.08.2019
3860 Clouds 13 1027 50 10000 4.6 110 02:49 11.08.2019
3861 Clouds 8 1026 65 10000 0.5 290 01:43 11.08.2019
3862 Clouds 8 1026 65 10000 0.5 290 01:20 11.08.2019
3863 Clouds 3 1025 74 10000 2.1 290 00:48 11.08.2019
3864 Clouds 3 1025 74 10000 2.1 290 00:28 11.08.2019
3865 Clouds 3 1025 74 10000 2.1 250 23:47 10.08.2019
3866 Clouds 3 1025 74 10000 2.1 250 23:28 10.08.2019
3867 Clouds 3 1024 84 10000 1 210 22:44 10.08.2019
3868 Clouds 3 1024 84 10000 1 210 22:44 10.08.2019
3869 Clouds 3 1024 84 10000 1 210 22:26 10.08.2019
3870 Clouds 3 1024 74 10000 1.5 260 21:58 10.08.2019
3871 Clouds 4 1024 69 10000 2.1 270 21:39 10.08.2019
3872 Clouds 4 1024 69 10000 2.1 270 21:20 10.08.2019
3873 Clouds 4 1024 69 10000 2.1 340 20:56 10.08.2019
3874 Clouds 5 1024 81 10000 3.27 127.606 20:37 10.08.2019
3875 Clouds 6 1024 70 10000 2.1 330 20:18 10.08.2019
3876 Clouds 4 1024 69 10000 2.1 330 19:40 10.08.2019
3877 Clouds 4 1024 69 10000 2.1 330 19:21 10.08.2019
3878 Clouds 6 1024 81 10000 3.6 160 18:42 10.08.2019
3879 Clouds 6 1024 74 10000 3.6 160 18:23 10.08.2019
3880 Clouds 7 1025 56 10000 1 150 17:55 10.08.2019
3881 Clouds 7 1025 65 10000 1.5 110 17:36 10.08.2019
3882 Clouds 8 1025 65 10000 1.5 110 17:18 10.08.2019
3883 Clouds 7 1025 65 10000 1.5 80 16:42 10.08.2019
3884 Clouds 7 1025 65 10000 1.5 80 16:20 10.08.2019
3885 Clouds 9 1025 57 10000 2.6 170 15:43 10.08.2019
3886 Clouds 9 1025 57 10000 2.6 170 15:21 10.08.2019
3887 Clouds 10 1025 53 10000 3.1 160 14:43 10.08.2019
3888 Clouds 10 1025 53 10000 3.1 160 14:19 10.08.2019
3889 Clouds 10 1025 53 10000 3.1 160 14:19 10.08.2019
3890 Clouds 11 1024 62 10000 3.1 150 13:40 10.08.2019
3891 Clouds 12 1024 46 10000 3.1 150 13:19 10.08.2019
3892 Clouds 13 1023 43 10000 3.1 150 12:44 10.08.2019
3893 Clouds 13 1023 43 10000 3.1 150 12:23 10.08.2019
3894 Clouds 14 1023 41 10000 3.1 130 11:58 10.08.2019
3895 Clouds 16 1023 36 10000 3.1 150 11:39 10.08.2019
3896 Clouds 16 1023 36 10000 3.1 150 11:21 10.08.2019
3897 Clouds 17 1022 33 10000 4.6 160 10:55 10.08.2019
3898 Clouds 18 1022 55 10000 4.6 160 10:36 10.08.2019
3899 Clouds 18 1022 31 10000 4.1 150 10:18 10.08.2019
3900 Clouds 18 1022 31 10000 4.1 150 10:18 10.08.2019
3901 Clouds 18 1022 55 10000 4.6 130 09:40 10.08.2019
3902 Clouds 18 1022 31 10000 5.1 170 09:21 10.08.2019
3903 Clouds 17 1022 33 10000 4.6 170 08:39 10.08.2019
3904 Clouds 18 1022 31 10000 3.6 190 08:20 10.08.2019
3905 Clouds 18 1022 31 10000 3.6 190 07:54 10.08.2019
3906 Clouds 18 1022 34 10000 5.1 160 07:28 10.08.2019
3907 Clouds 17 1023 33 10000 4.6 190 06:49 10.08.2019
3908 Clouds 17 1023 33 10000 4.6 190 06:25 10.08.2019
3909 Clouds 17 1024 39 10000 4.1 160 05:24 10.08.2019
3910 Clouds 16 1025 41 10000 5.1 160 04:26 10.08.2019
3911 Clear 14 1026 47 10000 6.2 150 02:54 10.08.2019
3912 Clear 13 1025 50 10000 3.6 110 02:23 10.08.2019
3913 Clear 10 1024 53 10000 0.5 210 01:41 10.08.2019
3914 Clear 10 1024 53 10000 0.5 210 01:21 10.08.2019
3915 Clear 5 1024 60 10000 2.6 270 00:46 10.08.2019
3916 Clear 5 1024 60 10000 2.6 270 00:22 10.08.2019
3917 Clear 5 1023 60 10000 2.6 260 23:44 09.08.2019
3918 Clear 5 1023 60 10000 2.6 260 23:24 09.08.2019
3919 Clear 6 1023 52 10000 3.1 280 22:58 09.08.2019
3920 Clear 5 1022 52 10000 2.6 290 22:38 09.08.2019
3921 Clear 5 1022 56 10000 2.6 300 22:20 09.08.2019
3922 Clear 7 1022 48 10000 1.5 290 21:43 09.08.2019
3923 Clear 7 1022 48 10000 1.5 290 21:24 09.08.2019
3924 Clear 7 1022 48 10000 1.5 290 21:24 09.08.2019
3925 Clear 7 1022 48 10000 1.5 290 21:24 09.08.2019
3926 Clear 7 1022 45 10000 1 320 20:59 09.08.2019
3927 Clear 7 1022 42 10000 0.5 210 20:41 09.08.2019
3928 Clear 7 1022 42 10000 0.5 210 20:22 09.08.2019
3929 Clear 7 1022 39 10000 2.6 190 19:59 09.08.2019
3930 Clear 7 1022 39 10000 2.6 260 19:41 09.08.2019
3931 Clear 7 1022 36 10000 3.1 300 19:19 09.08.2019
3932 Clear 7 1022 36 10000 3.1 300 19:19 09.08.2019
3933 Clear 6 1022 35 10000 2.1 240 18:41 09.08.2019
3934 Clear 6 1022 35 10000 2.1 240 18:22 09.08.2019
3935 Clear 7 1022 36 10000 3.1 310 17:58 09.08.2019
3936 Clear 7 1022 36 10000 3.1 300 17:39 09.08.2019
3937 Clear 7 1022 36 10000 3.1 300 17:21 09.08.2019
3938 -273 0 0 0 0 0 16:42 09.08.2019
3939 Clear 10 1022 31 10000 2.6 290 16:23 09.08.2019
3940 Clear 9 1022 31 10000 2.6 290 15:57 09.08.2019
3941 Clear 8 1022 31 10000 3.1 270 15:39 09.08.2019
3942 Clear 8 1022 31 10000 3.1 270 15:20 09.08.2019
3943 Clear 8 1022 31 10000 3.1 270 15:20 09.08.2019
3944 Clear 9 1022 31 10000 1.5 310 14:55 09.08.2019
3945 Clear 9 1022 31 10000 1.5 310 14:55 09.08.2019
3946 Clear 10 1022 31 10000 2.1 320 14:36 09.08.2019
3947 Clear 11 1022 29 10000 0.5 270 14:18 09.08.2019
3948 Clear 12 1021 25 10000 4.27 195.155 13:42 09.08.2019
3949 Clear 12 1021 25 10000 3.94 194.675 13:20 09.08.2019
3950 Clear 14 1021 24 10000 2.6 190 12:46 09.08.2019
3951 Clear 14 1021 24 10000 2.6 190 12:46 09.08.2019
3952 Clear 15 1020 21 10000 2.6 190 12:24 09.08.2019
3953 Clear 15 1020 21 10000 2.6 190 11:58 09.08.2019
3954 Clear 16 1020 19 10000 3.1 200 11:37 09.08.2019
3955 Clear 18 1019 18 10000 3.1 190 11:18 09.08.2019
3956 Clear 19 1019 17 10000 3.1 200 10:40 09.08.2019
3957 Clear 20 1019 16 10000 3.6 160 10:21 09.08.2019
3958 Clear 20 1019 15 10000 3.6 210 09:46 09.08.2019
3959 Clouds 20 1019 16 10000 5.7 190 09:20 09.08.2019
3960 Clouds 20 1019 16 10000 5.7 190 08:57 09.08.2019
3961 Clear 19 1019 17 10000 3.6 220 08:39 09.08.2019
3962 Clear 19 1019 17 10000 3.6 220 08:19 09.08.2019
3963 Clear 19 1020 17 10000 4.6 200 07:43 09.08.2019
3964 Clear 19 1020 17 10000 4.6 200 07:43 09.08.2019
3965 Clear 19 1020 17 10000 4.6 200 07:23 09.08.2019
3966 Clear 19 1020 17 10000 4.1 230 06:56 09.08.2019
3967 Clear 18 1020 20 10000 3.6 160 06:29 09.08.2019
3968 Clouds 18 1021 20 10000 4.1 180 05:55 09.08.2019
3969 Clear 15 1024 28 10000 5.1 160 03:19 09.08.2019
3970 Clouds 10 1023 43 10000 2.1 230 01:45 09.08.2019
3971 Clear 4 1023 55 10000 2.6 290 00:45 09.08.2019
3972 Clear 4 1023 55 10000 2.6 290 00:26 09.08.2019
3973 Clear 3 1022 59 10000 2.6 320 23:59 08.08.2019
3974 Clear 3 1022 59 10000 2.6 320 23:59 08.08.2019
3975 Clear 3 1022 59 10000 2.6 320 23:59 08.08.2019
3976 Clear 3 1022 55 10000 3.6 290 23:38 08.08.2019
3977 Clear 3 1022 55 10000 3.6 290 23:19 08.08.2019
3978 Clear 4 1022 60 10000 3.1 260 22:57 08.08.2019
3979 Clear 3 1021 59 10000 1.5 320 22:37 08.08.2019
3980 Clear 3 1021 59 10000 1.5 320 22:37 08.08.2019
3981 Clear 3 1021 55 10000 1.5 260 22:18 08.08.2019
3982 Clear 3 1021 55 10000 1.5 260 21:55 08.08.2019
3983 Clear 5 1021 56 10000 2.6 350 21:37 08.08.2019
3984 Clear 4 1021 60 10000 1.5 330 21:18 08.08.2019
3985 Clear 5 1021 56 10000 2.6 280 20:42 08.08.2019
3986 Clear 5 1021 56 10000 2.6 280 20:22 08.08.2019
3987 Clear 6 1021 48 10000 2.6 320 19:57 08.08.2019
3988 Clear 5 1021 48 10000 2.6 350 19:38 08.08.2019
3989 Clear 5 1021 52 10000 2.6 290 19:19 08.08.2019
3990 Clear 6 1021 48 10000 2.6 280 18:41 08.08.2019
3991 Clear 7 1021 48 10000 2.6 290 18:21 08.08.2019
3992 Clear 7 1021 48 10000 2.6 290 17:55 08.08.2019
3993 Clear 8 1021 45 10000 2.6 310 17:36 08.08.2019
3994 Clear 7 1021 45 10000 2.6 310 17:18 08.08.2019
3995 Clear 8 1021 45 10000 2.6 290 16:41 08.08.2019
3996 Clear 8 1021 45 10000 2.6 290 16:41 08.08.2019
3997 Clear 8 1021 45 10000 2.6 290 16:23 08.08.2019
3998 Clear 7 1022 45 10000 2.1 330 15:57 08.08.2019
3999 Clear 9 1022 45 10000 3.28 178.882 15:38 08.08.2019
4000 Clear 9 1022 45 10000 2.91 178.406 15:20 08.08.2019
4001 Clear 10 1022 39 10000 1.5 20 14:40 08.08.2019
4002 Clear 10 1022 39 10000 1.5 20 14:21 08.08.2019
4003 Clear 11 1021 37 10000 2.1 110 13:56 08.08.2019
4004 Clear 12 1021 34 10000 2.6 170 13:36 08.08.2019
4005 Clear 13 1021 32 10000 3.6 190 13:18 08.08.2019
4006 Clear 13 1020 32 10000 3.1 170 12:38 08.08.2019
4007 Clear 15 1020 30 10000 3.6 190 12:19 08.08.2019
4008 Clear 16 1020 29 10000 3.1 180 11:43 08.08.2019
4009 Clear 16 1020 29 10000 3.1 180 11:25 08.08.2019
4010 Clear 17 1019 29 10000 2.6 190 10:56 08.08.2019
4011 Clear 18 1019 27 10000 3.1 160 10:37 08.08.2019
4012 Clear 18 1019 27 10000 3.1 160 10:19 08.08.2019
4013 Clear 18 1019 35 10000 2.6 180 09:40 08.08.2019
4014 Clear 18 1019 24 10000 2.6 180 09:20 08.08.2019
4015 Clear 19 1019 29 10000 3.1 160 08:42 08.08.2019
4016 Clear 19 1019 29 10000 3.1 160 08:22 08.08.2019
4017 Clear 19 1019 29 10000 4.1 180 07:56 08.08.2019
4018 Clear 18 1019 34 10000 3.6 160 07:37 08.08.2019
4019 Clear 17 1020 36 10000 4.1 170 07:18 08.08.2019
4020 Clear 17 1020 36 10000 4.1 120 06:41 08.08.2019
4021 Clear 17 1020 36 10000 3.6 130 05:57 08.08.2019
4022 Clear 16 1021 38 10000 3.6 130 05:39 08.08.2019
4023 Clouds 15 1022 51 10000 5.7 150 03:59 08.08.2019
4024 Clouds 14 1022 50 10000 5.1 120 03:39 08.08.2019
4025 Clear 12 1022 62 10000 3.6 160 01:42 08.08.2019
4026 Clear 11 1022 62 10000 3.1 170 00:57 08.08.2019
4027 Clear 8 1021 70 10000 1.5 190 00:21 08.08.2019
4028 Clear 9 1021 66 10000 3.1 170 23:23 07.08.2019
4029 Clear 10 1020 61 10000 3.6 170 23:00 07.08.2019
4030 Clear 10 1020 57 10000 3.1 190 22:41 07.08.2019
4031 Clear 10 1020 57 10000 3.1 190 22:21 07.08.2019
4032 Clear 10 1020 57 10000 3.1 190 21:57 07.08.2019
4033 Clear 11 1019 50 10000 3.1 200 21:39 07.08.2019
4034 Clear 11 1019 50 10000 3.1 200 21:39 07.08.2019
4035 Clear 11 1019 50 10000 3.1 200 21:20 07.08.2019
4036 Clear 11 1019 50 10000 3.1 190 20:57 07.08.2019
4037 Clear 12 1018 46 10000 3.1 190 20:38 07.08.2019
4038 Clear 12 1018 46 10000 3.1 190 20:20 07.08.2019
4039 Clear 12 1018 46 10000 3.1 190 20:20 07.08.2019
4040 Clear 12 1018 46 10000 3.1 190 20:20 07.08.2019
4041 Clear 13 1018 43 10000 3.6 200 19:55 07.08.2019
4042 Clouds 14 1018 70 10000 4.6 200 19:36 07.08.2019
4043 Clouds 13 1018 32 10000 4.1 210 19:18 07.08.2019
4044 Clouds 15 1018 28 10000 3.6 220 18:40 07.08.2019
4045 Clouds 13 1017 30 10000 3.6 270 18:19 07.08.2019
4046 Clouds 13 1017 30 10000 3.6 270 17:55 07.08.2019
4047 Clouds 13 1017 30 10000 3.1 240 17:37 07.08.2019
4048 Clouds 13 1017 30 10000 3.1 240 17:18 07.08.2019
4049 Clouds 15 1017 24 10000 2.1 220 16:56 07.08.2019
4050 Clouds 15 1017 24 10000 2.1 220 16:56 07.08.2019
4051 Clouds 16 1016 25 10000 2.6 240 16:37 07.08.2019
4052 Clouds 16 1016 25 10000 2.6 240 16:37 07.08.2019
4053 Clouds 16 1016 25 10000 2.6 240 16:19 07.08.2019
4054 Clouds 15 1016 24 10000 2.6 250 15:43 07.08.2019
4055 Clouds 17 1015 21 10000 2.6 270 15:20 07.08.2019
4056 Clouds 17 1015 21 10000 2.6 270 14:50 07.08.2019
4057 Clear 18 1015 20 10000 2.6 260 14:30 07.08.2019
4058 Clear 18 1015 20 10000 2.6 260 13:59 07.08.2019
4059 Clear 19 1014 19 10000 2.6 250 13:39 07.08.2019
4060 Clear 20 1014 18 10000 3.1 230 13:19 07.08.2019
4061 Clear 20 1014 18 10000 3.1 230 12:57 07.08.2019
4062 Clear 20 1014 18 10000 3.6 220 12:38 07.08.2019
4063 Clear 23 1013 15 10000 5.7 240 12:19 07.08.2019
4064 Clear 23 1013 15 10000 5.7 240 11:55 07.08.2019
4065 Clouds 24 1012 14 10000 5.1 230 11:37 07.08.2019
4066 Clouds 24 1012 14 10000 5.1 230 11:18 07.08.2019
4067 Clouds 26 1011 13 10000 6.2 240 10:40 07.08.2019
4068 Clouds 26 1011 13 10000 6.2 240 10:20 07.08.2019
4069 Clouds 27 1011 13 10000 7.7 290 09:48 07.08.2019
4070 Clouds 27 1011 13 10000 7.7 290 09:24 07.08.2019
4071 Clouds 28 1011 13 10000 6.7 250 09:00 07.08.2019
4072 Clouds 27 1011 12 10000 8.2 290 08:41 07.08.2019
4073 Clouds 27 1011 12 10000 8.2 290 08:23 07.08.2019
4074 Clouds 27 1011 13 10000 8.2 290 07:50 07.08.2019
4075 Clouds 27 1012 12 10000 7.7 300 07:29 07.08.2019
4076 Clouds 27 1012 12 10000 7.7 290 06:43 07.08.2019
4077 -273 0 0 0 0 0 06:21 07.08.2019
4078 Clouds 27 1014 13 10000 8.7 290 05:41 07.08.2019
4079 Clear 26 1014 16 10000 6.2 300 04:29 07.08.2019
4080 Clear 23 1015 23 10000 4.6 340 02:54 07.08.2019
4081 Clear 21 1015 26 10000 4.6 330 02:36 07.08.2019
4082 Clear 20 1015 28 10000 5.7 330 01:49 07.08.2019
4083 Clouds 17 1015 33 10000 2.1 300 00:53 07.08.2019
4084 Clouds 11 1015 37 10000 3.93 326.225 00:23 07.08.2019
4085 Clouds 11 1014 40 10000 2.1 210 23:48 06.08.2019
4086 Clouds 11 1014 40 10000 2.1 210 23:23 06.08.2019
4087 Clouds 11 1014 40 10000 2.1 360 22:59 06.08.2019
4088 Clouds 12 1014 37 10000 2.1 350 22:40 06.08.2019
4089 Clouds 12 1014 37 10000 2.1 350 22:21 06.08.2019
4090 Clouds 13 1014 37 10000 0.5 360 21:56 06.08.2019
4091 Clouds 13 1014 37 10000 1.5 320 21:38 06.08.2019
4092 Clouds 13 1014 35 10000 2.1 220 21:18 06.08.2019
4093 Clouds 15 1014 33 10000 2.6 350 20:42 06.08.2019
4094 Clouds 15 1014 33 10000 2.6 350 20:23 06.08.2019
4095 Clouds 13 1014 35 10000 2.1 270 19:48 06.08.2019
4096 Clouds 13 1014 35 10000 2.1 270 19:29 06.08.2019
4097 Clouds 13 1014 32 10000 2.6 320 18:57 06.08.2019
4098 Clouds 13 1015 32 10000 2.6 320 18:38 06.08.2019
4099 Clouds 14 1015 33 10000 1.5 310 18:19 06.08.2019
4100 Clouds 14 1015 33 10000 1.5 310 18:19 06.08.2019
4101 Clouds 14 1015 33 10000 1.5 310 17:56 06.08.2019
4102 Clouds 15 1015 33 10000 3.1 350 17:37 06.08.2019
4103 Clouds 16 1015 43 10000 3.1 350 17:18 06.08.2019
4104 Clouds 13 1015 35 10000 2.1 310 16:42 06.08.2019
4105 Clouds 13 1015 35 10000 2.1 310 16:24 06.08.2019
4106 Clouds 11 1015 34 10000 0.5 20 15:58 06.08.2019
4107 Clear 12 1016 32 10000 0.5 260 15:39 06.08.2019
4108 Clear 14 1016 33 10000 2.1 310 15:20 06.08.2019
4109 Clear 17 1016 27 10000 1.5 310 14:45 06.08.2019
4110 Clear 17 1016 27 10000 1.5 310 14:27 06.08.2019
4111 Clear 17 1016 29 10000 2.6 270 13:58 06.08.2019
4112 Clear 17 1016 29 10000 2.6 350 13:40 06.08.2019
4113 Clear 17 1016 29 10000 2.6 350 13:22 06.08.2019
4114 Clear 17 1015 27 10000 3.06 311.803 12:58 06.08.2019
4115 Clear 20 1015 24 10000 3.06 311.803 12:39 06.08.2019
4116 Clear 21 1015 21 10000 2.1 290 12:21 06.08.2019
4117 Clear 22 1014 19 10000 2.1 240 11:43 06.08.2019
4118 Clear 22 1014 19 10000 2.1 240 11:19 06.08.2019
4119 Clear 24 1014 17 10000 2.6 260 10:56 06.08.2019
4120 Clear 25 1014 16 10000 4.1 270 10:37 06.08.2019
4121 Clear 25 1014 16 10000 5.1 270 10:19 06.08.2019
4122 Clear 25 1014 16 10000 4.6 270 09:40 06.08.2019
4123 Clear 25 1014 16 10000 4.6 270 09:20 06.08.2019
4124 Clear 25 1014 16 10000 4.1 280 08:48 06.08.2019
4125 Clear 25 1014 16 10000 3.6 230 08:26 06.08.2019
4126 Clear 24 1015 19 10000 4.1 310 07:47 06.08.2019
4127 Clear 24 1015 19 10000 4.1 310 07:23 06.08.2019
4128 Clear 25 1016 17 10000 3.6 270 06:43 06.08.2019
4129 Clear 25 1017 17 10000 3.1 360 05:55 06.08.2019
4130 Clear 23 1019 20 10000 1.5 340 04:35 06.08.2019
4131 Clear 15 1020 30 10000 5.2 27.663 01:59 06.08.2019
4132 Clear 10 1020 39 10000 0.5 320 01:24 06.08.2019
4133 Clear 5 1020 48 10000 2.1 250 00:37 06.08.2019
4134 Clear 4 1020 51 10000 1.5 290 23:51 05.08.2019
4135 Clear 6 1019 48 10000 2.1 270 23:19 05.08.2019
4136 Clear 6 1019 48 10000 2.1 250 22:42 05.08.2019
4137 Clear 6 1019 48 10000 2.1 250 22:23 05.08.2019
4138 Clear 5 1019 48 10000 3.1 260 21:56 05.08.2019
4139 Clear 6 1019 48 10000 1.5 200 21:37 05.08.2019
4140 Clear 6 1019 48 10000 1.5 200 21:19 05.08.2019
4141 Clear 7 1019 45 10000 1.5 300 20:55 05.08.2019
4142 Clear 6 1019 45 10000 2.1 210 20:37 05.08.2019
4143 Clear 7 1019 45 10000 2.1 220 20:18 05.08.2019
4144 Clear 7 1020 42 10000 3.94 44.64 19:43 05.08.2019
4145 Clear 7 1020 42 10000 3.94 44.64 19:23 05.08.2019
4146 Clear 8 1020 42 10000 3.94 44.64 18:57 05.08.2019
4147 Clear 8 1020 39 10000 2.1 290 18:39 05.08.2019
4148 Clear 11 1020 37 10000 2.6 50 18:18 05.08.2019
4149 Clear 11 1021 40 10000 4.36 54.626 17:41 05.08.2019
4150 Clear 11 1021 40 10000 4.36 54.626 17:22 05.08.2019
4151 -273 0 0 0 0 0 16:46 05.08.2019
4152 Clear 11 1021 37 10000 1 70 16:46 05.08.2019
4153 Clear 11 1021 37 10000 1 70 16:25 05.08.2019
4154 Clear 14 1021 33 10000 3.1 60 15:45 05.08.2019
4155 Clouds 14 1021 33 10000 3.1 60 15:22 05.08.2019
4156 Clouds 14 1021 30 10000 4.1 70 14:59 05.08.2019
4157 Clouds 14 1021 30 10000 4.1 70 14:38 05.08.2019
4158 Clouds 14 1021 30 10000 3.6 70 14:19 05.08.2019
4159 Clouds 14 1021 30 10000 3.6 70 14:19 05.08.2019
4160 Clouds 15 1021 28 10000 2.1 40 13:41 05.08.2019
4161 Clouds 15 1021 28 10000 2.1 40 13:21 05.08.2019
4162 Clouds 17 1020 25 10000 3.1 90 12:45 05.08.2019
4163 Clouds 19 1020 24 10000 4.1 100 12:20 05.08.2019
4164 Clouds 19 1020 24 10000 3.6 120 11:46 05.08.2019
4165 Clouds 19 1020 24 10000 3.6 120 11:27 05.08.2019
4166 Clouds 21 1020 19 10000 3.6 100 10:51 05.08.2019
4167 Clouds 22 1020 19 10000 3.6 100 10:33 05.08.2019
4168 Clouds 23 1020 18 10000 3.6 150 09:59 05.08.2019
4169 Clouds 23 1019 18 10000 2.6 120 09:40 05.08.2019
4170 Clouds 23 1019 18 10000 2.6 120 09:21 05.08.2019
4171 Clouds 23 1020 18 10000 2.6 70 08:47 05.08.2019
4172 Clouds 23 1020 18 10000 2.6 70 08:25 05.08.2019
4173 Clouds 23 1020 18 10000 3.6 40 07:53 05.08.2019
4174 Clouds 23 1020 20 10000 3.1 40 07:31 05.08.2019
4175 Clouds 22 1020 19 10000 4.1 50 06:58 05.08.2019
4176 Clouds 22 1021 19 10000 3.6 100 06:27 05.08.2019
4177 Clouds 21 1022 22 10000 3.1 120 05:41 05.08.2019
4178 Clouds 21 1023 22 10000 5.1 80 04:55 05.08.2019
4179 Clouds 19 1024 22 10000 6.2 60 03:53 05.08.2019
4180 Clear 19 1024 24 10000 6.7 70 03:20 05.08.2019
4181 Clear 17 1025 27 10000 5.7 80 02:21 05.08.2019
4182 Clear 9 1024 42 10000 7.95 59.651 01:31 05.08.2019
4183 Clear 4 1024 55 10000 7.95 59.651 00:41 05.08.2019
4184 Clear 3 1024 59 10000 1 200 00:20 05.08.2019
4185 Clear 3 1024 59 10000 0.5 190 23:43 04.08.2019
4186 Clear 3 1024 59 10000 0.5 190 23:23 04.08.2019
4187 Clear 4 1023 55 10000 1.5 190 22:57 04.08.2019
4188 Clear 4 1023 55 10000 4.83 60.604 22:38 04.08.2019
4189 Clear 4 1023 55 10000 4.83 60.604 22:20 04.08.2019
4190 Clear 4 1023 55 10000 4.83 60.604 21:56 04.08.2019
4191 Clear 5 1023 60 10000 4.83 60.604 21:37 04.08.2019
4192 Clear 5 1023 60 10000 5.06 68.072 21:19 04.08.2019
4193 Clear 5 1024 52 10000 4.23 73.489 20:41 04.08.2019
4194 Clear 5 1024 52 10000 4.23 73.489 20:19 04.08.2019
4195 Clear 6 1024 52 10000 0.5 290 19:49 04.08.2019
4196 Clear 6 1024 56 10000 0.5 330 19:28 04.08.2019
4197 Clear 7 1024 52 10000 4.23 73.489 18:58 04.08.2019
4198 Clear 7 1024 52 10000 1.5 320 18:40 04.08.2019
4199 Clear 8 1024 45 10000 2.1 310 18:20 04.08.2019
4200 Clear 8 1024 49 10000 2.1 210 17:43 04.08.2019
4201 Clear 8 1024 49 10000 2.1 210 17:24 04.08.2019
4202 Clear 9 1024 42 10000 0.5 170 16:46 04.08.2019
4203 Clear 9 1024 42 10000 0.5 170 16:27 04.08.2019
4204 Clear 10 1024 43 10000 2.1 300 15:56 04.08.2019
4205 Clear 10 1024 43 10000 4.08 70.047 15:37 04.08.2019
4206 Clear 10 1024 43 10000 4.08 70.047 15:37 04.08.2019
4207 Clear 10 1024 43 10000 4.08 70.047 15:37 04.08.2019
4208 Clear 10 1024 43 10000 4.84 106.134 15:18 04.08.2019
4209 Clear 11 1024 37 10000 1 130 14:42 04.08.2019
4210 Clear 11 1024 37 10000 1 130 14:21 04.08.2019
4211 Clear 14 1024 33 10000 2.6 130 13:43 04.08.2019
4212 Clear 14 1024 33 10000 2.6 130 13:24 04.08.2019
4213 Clear 14 1024 33 10000 3.1 130 12:55 04.08.2019
4214 Clear 16 1023 29 10000 3.1 120 12:37 04.08.2019
4215 Clear 18 1023 27 10000 2.6 100 12:18 04.08.2019
4216 Clear 19 1023 25 10000 3.1 110 11:41 04.08.2019
4217 Clear 19 1023 25 10000 3.1 110 11:22 04.08.2019
4218 Clear 21 1022 22 10000 5.1 100 10:43 04.08.2019
4219 Clear 21 1022 22 10000 5.1 100 10:43 04.08.2019
4220 Clear 21 1022 22 10000 5.1 100 10:21 04.08.2019
4221 Clear 21 1022 22 10000 4.1 80 09:46 04.08.2019
4222 Clear 21 1022 22 10000 4.1 80 09:25 04.08.2019
4223 Clear 22 1022 21 10000 4.6 120 08:57 04.08.2019
4224 Clear 21 1022 26 10000 6.2 80 08:32 04.08.2019
4225 Clear 21 1023 26 10000 4.1 30 07:54 04.08.2019
4226 Clear 21 1023 26 10000 5.7 100 07:22 04.08.2019
4227 Clear 20 1024 26 10000 4.1 70 06:28 04.08.2019
4228 Clear 20 1025 28 10000 6.7 80 05:42 04.08.2019
4229 Clear 14 1028 44 10000 6.2 80 02:47 04.08.2019
4230 Clear 12 1028 50 10000 2.6 70 01:51 04.08.2019
4231 Clear 9 1028 57 10000 0.5 310 01:27 04.08.2019
4232 Clear 4 1028 60 10000 1 340 00:41 04.08.2019
4233 Clear 4 1028 60 10000 1 340 00:21 04.08.2019
4234 Clear 5 1027 60 10000 2.1 330 23:41 03.08.2019
4235 Clear 4 1027 64 10000 3.1 310 23:19 03.08.2019
4236 Clear 4 1027 64 10000 3.1 310 22:55 03.08.2019
4237 Clear 4 1027 55 10000 2.6 250 22:37 03.08.2019
4238 Clear 6 1027 56 10000 2.1 290 22:18 03.08.2019
4239 Clear 6 1027 56 10000 2.1 290 22:18 03.08.2019
4240 Clear 4 1027 55 10000 2.6 310 21:37 03.08.2019
4241 Clouds 6 1027 56 10000 2.6 300 21:19 03.08.2019
4242 Clouds 6 1027 52 10000 2.6 290 20:42 03.08.2019
4243 Clouds 6 1027 52 10000 2.6 290 20:22 03.08.2019
4244 Clouds 6 1027 52 10000 2.1 260 19:43 03.08.2019
4245 Clouds 6 1027 52 10000 2.1 260 19:24 03.08.2019
4246 Clouds 6 1028 48 10000 2.1 280 18:56 03.08.2019
4247 Clouds 6 1028 52 10000 1.5 330 18:27 03.08.2019
4248 Clouds 7 1028 48 10000 2.6 260 17:50 03.08.2019
4249 Clouds 7 1028 48 10000 2.6 260 17:22 03.08.2019
4250 Clouds 7 1028 45 10000 2.6 270 16:56 03.08.2019
4251 Clouds 8 1028 45 10000 3.38 108.72 16:37 03.08.2019
4252 Clouds 9 1028 45 10000 3.38 108.72 16:19 03.08.2019
4253 Clouds 9 1027 42 10000 3.38 108.72 15:43 03.08.2019
4254 Clear 10 1027 39 10000 2.1 90 15:23 03.08.2019
4255 Clear 10 1027 39 10000 1.5 80 14:41 03.08.2019
4256 Clear 10 1027 39 10000 1.5 80 14:21 03.08.2019
4257 Clear 11 1026 37 10000 3.1 130 13:52 03.08.2019
4258 Clear 11 1026 37 10000 3.1 130 13:25 03.08.2019
4259 Clear 12 1026 32 10000 3.1 130 12:58 03.08.2019
4260 Clear 13 1026 32 10000 2.6 120 12:39 03.08.2019
4261 Clear 13 1026 32 10000 2.6 120 12:21 03.08.2019
4262 Clear 16 1025 26 10000 4.1 100 11:48 03.08.2019
4263 Clear 16 1025 26 10000 4.1 100 11:26 03.08.2019
4264 Clear 18 1025 25 10000 5.7 110 10:41 03.08.2019
4265 Clear 18 1025 25 10000 5.7 110 10:22 03.08.2019
4266 Clear 20 1025 24 10000 6.2 120 09:42 03.08.2019
4267 Clear 20 1025 24 10000 6.2 120 09:21 03.08.2019
4268 Clear 19 1025 25 10000 6.7 120 08:51 03.08.2019
4269 Clear 20 1026 22 10000 5.1 90 07:52 03.08.2019
4270 Clear 19 1026 25 10000 5.1 110 07:31 03.08.2019
4271 Clear 18 1028 31 10000 6.7 110 06:23 03.08.2019
4272 Clear 15 1030 41 10000 6.7 110 03:58 03.08.2019
4273 Clear 11 1030 53 10000 4.1 120 02:36 03.08.2019
4274 Clear 7 1031 56 10000 6.34 98.562 01:36 03.08.2019
4275 Clear 3 1030 64 10000 2.6 280 00:38 03.08.2019
4276 Clear 2 1030 69 10000 2.6 280 23:57 02.08.2019
4277 Clear 2 1030 64 10000 2.6 250 23:38 02.08.2019
4278 Clear 3 1030 59 10000 3.6 230 23:18 02.08.2019
4279 Clear 3 1030 59 10000 3.6 230 22:55 02.08.2019
4280 Clear 3 1029 59 10000 3.1 260 22:36 02.08.2019
4281 Clear 2 1029 64 10000 3.6 260 22:18 02.08.2019
4282 Clear 3 1029 59 10000 3.1 260 21:41 02.08.2019
4283 Clear 3 1029 59 10000 3.1 260 21:22 02.08.2019
4284 Clear 3 1029 55 10000 2.6 260 20:45 02.08.2019
4285 Clear 3 1029 55 10000 2.6 260 20:27 02.08.2019
4286 Clear 3 1028 55 10000 3.16 121.459 19:56 02.08.2019
4287 Clear 4 1029 55 10000 1.5 360 19:34 02.08.2019
4288 Clear 5 1029 52 10000 1.5 320 18:57 02.08.2019
4289 Clear 5 1029 52 10000 1 310 18:39 02.08.2019
4290 Clear 6 1028 48 10000 0.5 160 18:20 02.08.2019
4291 Clear 5 1029 52 10000 1 310 18:20 02.08.2019
4292 Clear 6 1029 48 10000 3.1 180 17:42 02.08.2019
4293 Clear 6 1029 48 10000 3.1 180 17:22 02.08.2019
4294 Clear 6 1029 45 10000 3.6 180 16:40 02.08.2019
4295 Clear 6 1029 45 10000 3.6 180 16:40 02.08.2019
4296 Clear 6 1029 45 10000 3.6 180 16:21 02.08.2019
4297 Clear 7 1029 42 10000 3.1 180 15:58 02.08.2019
4298 Clear 7 1029 42 10000 2.6 180 15:38 02.08.2019
4299 Clear 7 1029 42 10000 2.6 180 15:18 02.08.2019
4300 Clear 8 1029 42 10000 3.1 170 14:45 02.08.2019
4301 Clear 8 1029 42 10000 3.1 170 14:18 02.08.2019
4302 Clear 9 1028 36 10000 3.1 150 13:47 02.08.2019
4303 Clear 9 1028 36 10000 3.1 150 13:23 02.08.2019
4304 Clear 11 1028 32 10000 3.1 130 12:44 02.08.2019
4305 Clear 12 1028 32 10000 3.6 130 12:21 02.08.2019
4306 Clear 13 1027 30 10000 3.6 130 11:46 02.08.2019
4307 Clear 13 1027 30 10000 3.6 130 11:26 02.08.2019
4308 Clear 14 1027 28 10000 5.7 130 10:55 02.08.2019
4309 Clear 15 1026 24 10000 5.7 130 10:37 02.08.2019
4310 Clear 15 1026 24 10000 5.7 130 10:18 02.08.2019
4311 Clear 16 1026 25 10000 5.7 140 09:44 02.08.2019
4312 Clear 16 1026 25 10000 5.7 140 09:24 02.08.2019
4313 Clear 16 1026 26 10000 6.2 100 08:44 02.08.2019
4314 Clear 16 1026 26 10000 6.2 100 08:21 02.08.2019
4315 Clear 16 1027 25 10000 5.1 130 07:48 02.08.2019
4316 Clear 16 1027 25 10000 5.1 130 07:28 02.08.2019
4317 Clear 14 1028 28 10000 4.6 140 06:42 02.08.2019
4318 Clear 13 1029 30 10000 5.7 150 05:50 02.08.2019
4319 Clear 12 1030 40 10000 6.2 120 03:55 02.08.2019
4320 Clear 11 1031 43 10000 7.7 110 03:25 02.08.2019
4321 Clear 7 1030 56 10000 2.6 140 01:44 02.08.2019
4322 Clear 1 1030 69 10000 3.1 180 00:35 02.08.2019
4323 Clear 2 1030 69 10000 2.6 170 23:46 01.08.2019
4324 Clear 2 1030 69 10000 2.6 170 23:27 01.08.2019
4325 Clear 3 1029 64 10000 3.6 160 22:46 01.08.2019
4326 Clear 3 1029 64 10000 3.6 160 22:26 01.08.2019
4327 Clear 3 1029 64 10000 2.6 170 22:00 01.08.2019
4328 Clear 3 1029 64 10000 3.1 170 21:41 01.08.2019
4329 Clear 3 1029 64 10000 3.1 170 21:23 01.08.2019
4330 Clear 3 1029 64 10000 4.1 160 20:47 01.08.2019
4331 Clear 3 1029 64 10000 4.1 160 20:23 01.08.2019
4332 Clear 4 1029 60 10000 3.6 170 19:59 01.08.2019
4333 Clear 5 1030 56 10000 3.1 180 19:38 01.08.2019
4334 Clear 5 1030 56 10000 3.1 180 19:18 01.08.2019
4335 Clear 6 1030 56 10000 2.6 190 18:43 01.08.2019
4336 Clear 6 1030 52 10000 3.1 180 18:24 01.08.2019
4337 Clear 6 1030 52 10000 3.1 180 17:50 01.08.2019
4338 Clear 6 1030 52 10000 3.6 170 17:31 01.08.2019
4339 Clear 7 1030 52 10000 2.6 160 16:45 01.08.2019
4340 Clear 7 1030 52 10000 2.6 160 16:23 01.08.2019
4341 Clear 7 1030 48 10000 3.1 150 15:56 01.08.2019
4342 Clear 8 1030 49 10000 3.1 140 15:38 01.08.2019
4343 Clear 8 1030 49 10000 3.1 150 15:18 01.08.2019
4344 Clear 9 1030 45 10000 3.1 160 14:42 01.08.2019
4345 Clear 9 1030 45 10000 3.1 160 14:19 01.08.2019
4346 Clear 9 1029 45 10000 2.6 160 13:57 01.08.2019
4347 Clear 11 1029 43 10000 3.6 140 13:39 01.08.2019
4348 Clear 12 1029 40 10000 3.1 130 13:20 01.08.2019
4349 Clear 13 1029 37 10000 4.1 120 12:43 01.08.2019
4350 Clear 13 1029 37 10000 4.1 120 12:25 01.08.2019
4351 Clear 15 1028 33 10000 5.1 130 11:43 01.08.2019
4352 Clear 15 1028 33 10000 5.1 130 11:24 01.08.2019
4353 Clear 17 1027 33 10000 7.2 140 10:46 01.08.2019
4354 Clear 17 1027 33 10000 7.2 140 10:28 01.08.2019
4355 Clear 17 1027 36 10000 6.7 120 09:59 01.08.2019
4356 Clear 17 1027 36 10000 6.7 120 09:41 01.08.2019
4357 Clear 18 1027 31 10000 6.2 130 09:23 01.08.2019
4358 Clear 18 1027 31 10000 6.7 120 08:45 01.08.2019
4359 Clear 18 1027 31 10000 6.7 120 08:20 01.08.2019
4360 Clear 18 1028 31 10000 6.7 110 07:50 01.08.2019
4361 Clear 17 1028 26 10000 6.2 120 07:25 01.08.2019
4362 Clear 18 1029 31 10000 6.2 110 06:49 01.08.2019
4363 Clear 17 1029 33 10000 7.2 130 05:51 01.08.2019
4364 Clear 16 1030 38 10000 7.7 110 04:24 01.08.2019
4365 Clear 13 1031 50 10000 5.7 90 02:33 01.08.2019
4366 Clear 6 1030 75 10000 0.5 130 00:43 01.08.2019
4367 Clear 6 1030 75 10000 4.5 100.638 00:24 01.08.2019
4368 Clear 6 1029 70 10000 0.5 20 23:43 31.07.2019
4369 Clear 8 1029 65 10000 2.6 80 23:21 31.07.2019
4370 Clear 8 1029 65 10000 2.6 80 22:56 31.07.2019
4371 Clear 8 1029 65 10000 3.1 120 22:38 31.07.2019
4372 Clear 8 1028 65 10000 3.1 130 22:19 31.07.2019
4373 Clear 8 1028 65 10000 3.1 130 21:38 31.07.2019
4374 Clear 9 1028 61 10000 3.1 130 21:18 31.07.2019
4375 Clear 9 1028 61 10000 3.1 130 21:18 31.07.2019
4376 Clear 11 1028 57 10000 3.6 110 20:41 31.07.2019
4377 Clear 11 1028 57 10000 3.6 110 20:21 31.07.2019
4378 Clear 12 1028 54 10000 3.6 100 19:41 31.07.2019
4379 Clear 12 1028 54 10000 3.6 100 19:23 31.07.2019
4380 Clear 12 1028 54 10000 3.6 110 18:53 31.07.2019
4381 Clear 13 1028 50 10000 4.6 120 18:26 31.07.2019
4382 Clear 13 1028 50 10000 4.1 120 17:57 31.07.2019
4383 Clear 12 1028 50 10000 4.1 130 17:39 31.07.2019
4384 Clear 12 1028 50 10000 4.1 130 17:19 31.07.2019
4385 Clear 12 1028 50 10000 3.6 130 16:43 31.07.2019
4386 Clear 12 1028 50 10000 2.6 130 16:20 31.07.2019
4387 Clouds 13 1028 47 10000 3.6 130 15:44 31.07.2019
4388 Clouds 13 1028 47 10000 3.6 130 15:24 31.07.2019
4389 Clouds 15 1028 38 10000 3.6 130 14:43 31.07.2019
4390 Clouds 15 1028 38 10000 3.6 130 14:21 31.07.2019
4391 Clouds 16 1028 36 10000 4.1 120 13:57 31.07.2019
4392 Clouds 16 1028 36 10000 4.1 120 13:57 31.07.2019
4393 Clouds 17 1028 33 10000 4.6 120 13:38 31.07.2019
4394 Clouds 17 1028 33 10000 4.6 120 13:19 31.07.2019
4395 Clouds 18 1027 31 10000 4.6 120 12:45 31.07.2019
4396 Clouds 18 1027 31 10000 4.6 120 12:45 31.07.2019
4397 Clouds 18 1027 31 10000 4.6 120 12:26 31.07.2019
4398 Clouds 19 1026 32 10000 4.6 120 11:55 31.07.2019
4399 Clouds 19 1026 29 10000 4.6 120 11:36 31.07.2019
4400 Clouds 20 1025 28 10000 5.7 120 11:18 31.07.2019
4401 Clouds 20 1025 28 10000 5.7 120 10:40 31.07.2019
4402 Clouds 21 1025 28 10000 6.7 120 10:20 31.07.2019
4403 Clouds 21 1024 28 10000 6.7 120 09:43 31.07.2019
4404 Clouds 21 1024 28 10000 6.7 120 09:24 31.07.2019
4405 Clouds 22 1024 26 10000 7.2 100 08:44 31.07.2019
4406 Clouds 22 1024 26 10000 7.2 100 08:25 31.07.2019
4407 Clouds 22 1024 24 10000 7.2 120 07:56 31.07.2019
4408 Clouds 22 1025 24 10000 6.7 100 07:33 31.07.2019
4409 Clouds 21 1025 26 10000 6.7 120 05:54 31.07.2019
4410 Clear 20 1026 32 10000 9.3 90 04:41 31.07.2019
4411 Clouds 10 1026 46 10000 2.6 140 00:57 31.07.2019
4412 Clouds 9 1025 75 10000 2.1 300 23:51 30.07.2019
4413 Clouds 9 1025 75 10000 2.1 300 23:30 30.07.2019
4414 Clouds 8 1025 52 10000 1 330 22:59 30.07.2019
4415 Clouds 8 1024 52 10000 1.5 310 22:41 30.07.2019
4416 Clouds 8 1024 52 10000 1.5 310 22:21 30.07.2019
4417 Clouds 9 1024 45 10000 4.53 101.025 21:38 30.07.2019
4418 Clouds 9 1024 45 10000 4.5 112.203 21:19 30.07.2019
4419 Clouds 9 1024 49 10000 4.83 114.744 20:57 30.07.2019
4420 Clouds 10 1024 46 10000 1.5 60 20:38 30.07.2019
4421 Clouds 12 1024 64 10000 2.6 110 20:19 30.07.2019
4422 Clouds 12 1024 64 10000 2.1 120 19:47 30.07.2019
4423 Clouds 12 1024 64 10000 2.1 120 19:29 30.07.2019
4424 Clouds 14 1024 64 10000 2.6 110 18:48 30.07.2019
4425 Clouds 14 1024 41 10000 2.6 110 18:26 30.07.2019
4426 Clouds 13 1024 41 10000 2.6 110 17:58 30.07.2019
4427 Clouds 13 1024 37 10000 2.6 120 17:40 30.07.2019
4428 Clouds 15 1024 33 10000 3.1 120 17:18 30.07.2019
4429 Clouds 15 1024 30 10000 3.6 110 16:46 30.07.2019
4430 Clouds 15 1024 30 10000 3.6 110 16:46 30.07.2019
4431 Clouds 15 1024 30 10000 3.6 110 16:19 30.07.2019
4432 Clouds 15 1024 28 10000 1.5 60 15:41 30.07.2019
4433 Clouds 15 1024 28 10000 1.5 60 15:22 30.07.2019
4434 Clouds 16 1024 29 10000 1.5 100 14:46 30.07.2019
4435 Clouds 16 1024 29 10000 1.5 100 14:26 30.07.2019
4436 Clouds 16 1023 29 10000 2.1 110 13:56 30.07.2019
4437 Clouds 16 1023 29 10000 2.6 120 13:37 30.07.2019
4438 Clouds 16 1023 31 10000 3.1 130 13:19 30.07.2019
4439 Clouds 16 1022 29 10000 3.1 130 12:46 30.07.2019
4440 Clouds 16 1022 29 10000 3.1 130 12:27 30.07.2019
4441 Clouds 20 1021 22 10000 4.6 90 11:48 30.07.2019
4442 Clouds 20 1021 22 10000 4.6 90 11:30 30.07.2019
4443 Clouds 21 1021 21 10000 4.6 80 10:59 30.07.2019
4444 Clouds 22 1021 21 10000 5.7 90 10:39 30.07.2019
4445 Clouds 22 1021 21 10000 5.7 90 10:20 30.07.2019
4446 Clouds 22 1021 19 10000 5.7 70 09:48 30.07.2019
4447 Clouds 22 1021 19 10000 5.7 70 09:28 30.07.2019
4448 Clouds 23 1021 19 10000 7.2 80 08:42 30.07.2019
4449 Clouds 23 1021 19 10000 7.2 80 08:19 30.07.2019
4450 Clouds 22 1021 19 10000 7.2 80 07:43 30.07.2019
4451 Clouds 22 1021 19 10000 7.2 80 07:23 30.07.2019
4452 Clouds 21 1022 28 10000 4.1 90 06:44 30.07.2019
4453 Clouds 20 1023 32 10000 5.1 60 05:36 30.07.2019
4454 Clouds 18 1024 45 10000 4.1 120 04:42 30.07.2019
4455 Clouds 13 1025 66 10000 2.1 180 01:23 30.07.2019
4456 Clouds 10 1024 71 10000 2.1 270 00:28 30.07.2019
4457 Clouds 10 1024 71 10000 2.1 270 00:28 30.07.2019
4458 Clouds 9 1024 66 10000 2.6 260 23:59 29.07.2019
4459 Clouds 9 1023 61 10000 2.1 260 23:40 29.07.2019
4460 Clouds 9 1023 57 10000 2.6 250 23:21 29.07.2019
4461 Clouds 9 1023 57 10000 2.6 250 22:55 29.07.2019
4462 Clouds 9 1023 57 10000 2.6 250 22:55 29.07.2019
4463 Clouds 9 1023 57 10000 3.6 250 22:37 29.07.2019
4464 Clouds 9 1022 45 10000 3.1 280 22:18 29.07.2019
4465 Clouds 10 1022 43 10000 1.5 260 21:41 29.07.2019
4466 Clouds 10 1022 43 10000 1.5 260 21:23 29.07.2019
4467 Clouds 10 1022 39 10000 4.1 150.776 20:57 29.07.2019
4468 Clouds 10 1022 39 10000 4.1 150.776 20:57 29.07.2019
4469 Clouds 9 1022 39 10000 2.1 310 20:38 29.07.2019
4470 Clouds 10 1022 37 10000 2.6 180 20:19 29.07.2019
4471 Clouds 10 1021 37 10000 2.1 200 19:45 29.07.2019
4472 Clouds 10 1021 37 10000 2.1 200 19:23 29.07.2019
4473 Clouds 10 1021 34 10000 2.1 200 18:57 29.07.2019
4474 Clouds 10 1021 34 10000 2.6 210 18:38 29.07.2019
4475 Clear 10 1021 34 10000 2.6 250 18:19 29.07.2019
4476 Clear 12 1021 30 10000 4.52 143.853 17:47 29.07.2019
4477 Clear 12 1021 30 10000 4.52 143.853 17:27 29.07.2019
4478 Clear 12 1021 32 10000 1 330 16:47 29.07.2019
4479 Clear 12 1021 32 10000 1 330 16:29 29.07.2019
4480 Clear 14 1021 26 10000 1 60 15:54 29.07.2019
4481 Clear 15 1021 26 10000 4.52 143.853 15:36 29.07.2019
4482 Clouds 15 1021 28 10000 4.9 123.214 14:59 29.07.2019
4483 Clouds 16 1020 25 10000 2.1 70 14:40 29.07.2019
4484 Clouds 17 1020 23 10000 2.1 120 14:21 29.07.2019
4485 Clouds 18 1020 22 10000 2.6 140 13:45 29.07.2019
4486 Clouds 18 1020 22 10000 2.6 140 13:24 29.07.2019
4487 Clouds 19 1020 20 10000 3.6 140 12:45 29.07.2019
4488 -273 0 0 0 0 0 12:26 29.07.2019
4489 Clouds 21 1019 18 10000 3.6 120 11:59 29.07.2019
4490 Clouds 23 1018 16 10000 3.6 120 11:39 29.07.2019
4491 Clouds 25 1018 14 10000 4.1 120 11:18 29.07.2019
4492 Clouds 26 1018 13 10000 4.1 130 10:42 29.07.2019
4493 Clouds 26 1018 13 10000 4.1 130 10:21 29.07.2019
4494 Clouds 27 1017 13 10000 2.1 120 09:43 29.07.2019
4495 Clear 27 1017 13 10000 2.1 120 09:21 29.07.2019
4496 Clear 27 1017 13 10000 2.1 120 09:21 29.07.2019
4497 Clear 28 1017 13 10000 1.5 40 08:43 29.07.2019
4498 Clear 28 1017 13 10000 1.5 40 08:24 29.07.2019
4499 Clear 28 1018 13 10000 3.1 350 07:46 29.07.2019
4500 Clear 28 1018 13 10000 3.1 350 07:26 29.07.2019
4501 Clear 27 1019 13 10000 3.1 40 05:57 29.07.2019
4502 Clear 26 1019 14 10000 3.1 350 05:31 29.07.2019
4503 Clear 19 1021 24 10000 2.1 100 02:43 29.07.2019
4504 Clear 14 1021 28 10000 1 190 01:47 29.07.2019
4505 Clear 14 1021 28 10000 1 190 01:26 29.07.2019
4506 Clear 10 1021 31 10000 2.1 220 00:52 29.07.2019
4507 Clear 7 1020 39 10000 4.28 21.707 00:23 29.07.2019
4508 Clear 7 1020 36 10000 1.5 270 23:41 28.07.2019
4509 Clear 8 1020 33 10000 1.5 220 23:19 28.07.2019
4510 Clear 8 1019 33 10000 2.6 250 22:42 28.07.2019
4511 Clear 8 1019 33 10000 2.6 250 22:42 28.07.2019
4512 Clear 8 1019 33 10000 2.6 250 22:23 28.07.2019
4513 Clear 7 1019 33 10000 2.6 250 21:50 28.07.2019
4514 Clear 7 1019 33 10000 2.1 240 21:20 28.07.2019
4515 Clear 9 1020 31 10000 4.56 24.474 20:49 28.07.2019
4516 Clear 9 1020 31 10000 4.56 24.474 20:30 28.07.2019
4517 Clear 9 1020 29 10000 4.56 24.474 19:57 28.07.2019
4518 Clear 9 1020 29 10000 4.56 24.474 19:38 28.07.2019
4519 Clear 9 1020 31 10000 4.56 24.474 19:20 28.07.2019
4520 Clear 10 1020 29 10000 4.56 24.474 18:44 28.07.2019
4521 Clear 10 1020 29 10000 3.71 43.777 18:25 28.07.2019
4522 Clear 10 1020 29 10000 1.5 10 17:43 28.07.2019
4523 Clear 10 1020 29 10000 1.5 10 17:22 28.07.2019
4524 Clear 12 1021 27 10000 2.1 350 16:59 28.07.2019
4525 Clear 11 1021 29 10000 1.5 330 16:40 28.07.2019
4526 Clear 11 1021 29 10000 1.5 330 16:22 28.07.2019
4527 Clear 12 1021 25 10000 0.5 120 15:43 28.07.2019
4528 Clear 12 1021 25 10000 0.5 120 15:24 28.07.2019
4529 Clear 13 1021 26 10000 5 60.235 14:38 28.07.2019
4530 Clear 14 1021 22 10000 5 60.235 14:20 28.07.2019
4531 Clear 14 1021 22 10000 5 60.235 13:56 28.07.2019
4532 Clear 14 1021 22 10000 5 60.235 13:56 28.07.2019
4533 Clear 15 1021 19 10000 1.5 20 13:37 28.07.2019
4534 Clear 15 1021 19 10000 1.5 20 13:19 28.07.2019
4535 Clear 19 1020 17 10000 2.6 110 12:41 28.07.2019
4536 Clear 19 1020 17 10000 2.6 110 12:23 28.07.2019
4537 Clear 19 1020 17 10000 2.6 110 12:23 28.07.2019
4538 Clear 22 1019 13 10000 2.6 90 11:48 28.07.2019
4539 Clear 22 1019 13 10000 2.6 90 11:27 28.07.2019
4540 Clear 25 1019 12 10000 3.6 90 10:42 28.07.2019
4541 Clear 25 1019 12 10000 3.6 90 10:23 28.07.2019
4542 Clear 25 1019 12 10000 3.6 90 10:23 28.07.2019
4543 Clear 25 1019 12 10000 3.6 90 10:23 28.07.2019
4544 Clear 26 1019 11 10000 1.5 340 09:57 28.07.2019
4545 Clear 26 1019 11 10000 2.6 210 09:38 28.07.2019
4546 Clear 26 1019 11 10000 2.6 210 09:19 28.07.2019
4547 Clear 26 1019 11 10000 2.6 210 09:19 28.07.2019
4548 Clear 27 1019 11 10000 2.1 190 08:41 28.07.2019
4549 Clear 27 1019 11 10000 2.1 190 08:21 28.07.2019
4550 Clear 26 1019 12 10000 2.1 230 07:39 28.07.2019
4551 Clear 26 1019 12 10000 2.6 360 06:56 28.07.2019
4552 Clear 25 1020 14 10000 3.1 40 06:28 28.07.2019
4553 Clear 24 1022 17 10000 3.1 50 05:18 28.07.2019
4554 Clear 15 1023 26 10000 4.87 29.5 02:24 28.07.2019
4555 Clear 10 1023 31 10000 5.05 30.818 01:25 28.07.2019
4556 Clear 5 1022 38 10000 1.5 290 00:49 28.07.2019
4557 Clear 5 1022 38 10000 1.5 290 00:24 28.07.2019
4558 Clear 5 1022 38 10000 1 300 23:48 27.07.2019
4559 Clear 5 1022 38 10000 1 300 23:26 27.07.2019
4560 Clear 6 1021 38 10000 2.1 270 22:42 27.07.2019
4561 Clear 6 1021 38 10000 2.1 270 22:23 27.07.2019
4562 Clear 6 1021 35 10000 2.6 280 21:44 27.07.2019
4563 Clear 7 1021 33 10000 2.6 280 21:22 27.07.2019
4564 Clear 7 1021 33 10000 2.6 280 20:54 27.07.2019
4565 Clear 7 1021 33 10000 2.6 280 20:30 27.07.2019
4566 Clear 7 1021 33 10000 2.6 270 19:58 27.07.2019
4567 Clear 7 1021 30 10000 2.6 260 19:38 27.07.2019
4568 Clear 8 1021 31 10000 2.6 240 19:19 27.07.2019
4569 Clear 8 1021 31 10000 3.74 41.444 18:46 27.07.2019
4570 Clear 8 1021 31 10000 3.74 41.444 18:28 27.07.2019
4571 Clear 9 1021 29 10000 4.2 55.867 17:49 27.07.2019
4572 Clear 9 1021 29 10000 4.2 55.867 17:31 27.07.2019
4573 Clear 9 1022 29 10000 2.6 230 16:53 27.07.2019
4574 Clear 9 1022 29 10000 2.1 220 16:34 27.07.2019
4575 Clear 11 1022 27 10000 4.2 55.867 15:56 27.07.2019
4576 Clear 11 1022 27 10000 4.1 61.192 15:25 27.07.2019
4577 Clear 13 1022 22 10000 2.1 110 14:51 27.07.2019
4578 Clear 15 1022 21 10000 2.1 110 14:33 27.07.2019
4579 Clear 15 1021 21 10000 2.6 110 13:58 27.07.2019
4580 Clear 16 1021 19 10000 2.1 70 13:40 27.07.2019
4581 Clear 17 1021 18 10000 2.6 80 13:20 27.07.2019
4582 Clear 19 1020 16 10000 3.1 100 12:45 27.07.2019
4583 Clear 19 1020 16 10000 3.1 100 12:25 27.07.2019
4584 Clear 20 1019 15 10000 3.1 130 11:46 27.07.2019
4585 Clear 20 1019 15 10000 3.1 130 11:25 27.07.2019
4586 Clear 20 1019 15 10000 3.1 130 11:25 27.07.2019
4587 Clear 23 1019 12 10000 3.1 110 10:56 27.07.2019
4588 Clear 24 1019 12 10000 3.1 110 10:38 27.07.2019
4589 Clear 25 1019 12 10000 3.6 110 10:18 27.07.2019
4590 Clear 25 1018 12 10000 2.6 220 09:39 27.07.2019
4591 Clear 25 1018 12 10000 2.6 220 09:39 27.07.2019
4592 Clear 26 1018 10 10000 3.1 150 09:20 27.07.2019
4593 Clear 26 1019 10 10000 2.6 240 08:42 27.07.2019
4594 Clear 26 1019 10 10000 2.6 240 08:24 27.07.2019
4595 Clear 26 1019 11 10000 2.6 270 07:42 27.07.2019
4596 Clear 26 1019 11 10000 2.6 270 07:22 27.07.2019
4597 Clear 25 1020 12 10000 2.6 340 06:52 27.07.2019
4598 Clear 25 1020 12 10000 3.1 160 06:25 27.07.2019
4599 Clear 24 1021 14 10000 2.1 50 05:37 27.07.2019
4600 Clear 23 1022 17 10000 2.6 30 04:51 27.07.2019
4601 Clear 20 1023 22 10000 3.6 60 03:50 27.07.2019
4602 Clear 15 1024 24 10000 3.6 44.2 02:43 27.07.2019
4603 Clear 12 1024 30 10000 3.6 44.2 01:59 27.07.2019
4604 Clear 9 1023 31 10000 3.39 51.686 01:36 27.07.2019
4605 Clear 3 1023 44 10000 2.6 290 00:41 27.07.2019
4606 Clear 3 1023 44 10000 2.6 290 00:22 27.07.2019
4607 Clear 4 1022 41 10000 2.6 290 23:44 26.07.2019
4608 Clear 4 1022 41 10000 2.6 290 23:44 26.07.2019
4609 Clear 4 1022 41 10000 2.6 290 23:44 26.07.2019
4610 Clear 4 1022 41 10000 2.6 290 23:26 26.07.2019
4611 Clear 5 1021 41 10000 1.5 270 22:43 26.07.2019
4612 Clear 5 1021 41 10000 1.5 270 22:25 26.07.2019
4613 Clear 5 1021 38 10000 2.1 300 21:52 26.07.2019
4614 Clouds 5 1021 38 10000 2.1 270 21:21 26.07.2019
4615 Clouds 6 1021 38 10000 2.6 310 20:52 26.07.2019
4616 Clouds 7 1021 33 10000 2.6 310 20:33 26.07.2019
4617 Clouds 7 1021 36 10000 2.6 300 19:57 26.07.2019
4618 Clouds 7 1021 33 10000 2.1 290 19:38 26.07.2019
4619 Clouds 7 1021 33 10000 2.1 290 19:20 26.07.2019
4620 Clouds 8 1021 31 10000 1.5 300 19:20 26.07.2019
4621 Clouds 9 1021 31 10000 2.1 310 18:41 26.07.2019
4622 Clouds 8 1021 31 10000 2.6 180 18:21 26.07.2019
4623 Clouds 8 1021 31 10000 2.6 180 17:56 26.07.2019
4624 Clouds 8 1021 31 10000 2.1 190 17:37 26.07.2019
4625 Clouds 8 1021 31 10000 1 120 17:18 26.07.2019
4626 Clouds 8 1021 31 10000 1 120 16:54 26.07.2019
4627 Clouds 9 1021 29 10000 3.73 57.44 16:36 26.07.2019
4628 Clouds 10 1021 25 10000 3.73 57.44 16:18 26.07.2019
4629 Clouds 11 1021 25 10000 3.73 57.44 15:43 26.07.2019
4630 Clouds 11 1021 25 10000 4.54 87.892 15:21 26.07.2019
4631 Clouds 14 1021 20 10000 2.6 80 14:44 26.07.2019
4632 Clouds 14 1021 20 10000 2.6 80 14:25 26.07.2019
4633 Clouds 16 1021 18 10000 3.1 100 13:47 26.07.2019
4634 Clouds 16 1021 18 10000 3.1 100 13:28 26.07.2019
4635 Clouds 19 1020 15 10000 3.6 110 12:49 26.07.2019
4636 Clear 19 1020 15 10000 3.6 110 12:23 26.07.2019
4637 Clear 19 1020 16 10000 3.1 110 11:56 26.07.2019
4638 Clear 20 1020 15 10000 3.6 120 11:37 26.07.2019
4639 Clear 20 1020 15 10000 3.6 120 11:18 26.07.2019
4640 Clear 24 1019 14 10000 3.6 120 10:39 26.07.2019
4641 Clear 24 1019 14 10000 3.6 120 10:20 26.07.2019
4642 Clear 24 1018 14 10000 4.6 140 09:50 26.07.2019
4643 Clear 24 1018 14 10000 4.6 140 09:28 26.07.2019
4644 Clouds 25 1018 12 10000 4.1 110 08:41 26.07.2019
4645 Clouds 25 1018 12 10000 4.1 130 08:21 26.07.2019
4646 Clouds 25 1019 14 10000 2.6 50 07:40 26.07.2019
4647 Clouds 25 1019 14 10000 2.6 50 07:22 26.07.2019
4648 Clouds 24 1019 17 10000 4.1 90 06:30 26.07.2019
4649 Clouds 22 1022 22 10000 2.1 10 04:30 26.07.2019
4650 Clear 21 1022 22 10000 2.1 10 03:53 26.07.2019
4651 Clouds 11 1023 34 10000 1.5 350 01:49 26.07.2019
4652 Clouds 8 1023 39 10000 2.6 340 01:19 26.07.2019
4653 Clouds 6 1022 45 10000 2.6 290 00:29 26.07.2019
4654 Clouds 5 1022 44 10000 2.1 280 23:46 25.07.2019
4655 Clouds 5 1022 44 10000 2.1 280 23:20 25.07.2019
4656 Clouds 5 1022 44 10000 2.1 280 23:20 25.07.2019
4657 Clouds 6 1021 41 10000 3.1 350 22:41 25.07.2019
4658 Clouds 6 1021 41 10000 3.1 350 22:41 25.07.2019
4659 Clouds 6 1021 41 10000 3.1 350 22:22 25.07.2019
4660 Clouds 6 1021 38 10000 2.1 260 21:48 25.07.2019
4661 Clouds 6 1021 38 10000 2.1 260 21:23 25.07.2019
4662 Clouds 6 1021 41 10000 2.6 290 20:58 25.07.2019
4663 Clouds 7 1020 39 10000 2.1 310 20:38 25.07.2019
4664 Clouds 7 1021 39 10000 2.1 280 20:18 25.07.2019
4665 Clouds 8 1021 39 10000 2.1 320 19:40 25.07.2019
4666 Clouds 8 1021 39 10000 2.1 320 19:22 25.07.2019
4667 Clouds 8 1022 36 10000 2.1 230 18:42 25.07.2019
4668 Clouds 8 1022 36 10000 2.1 230 18:23 25.07.2019
4669 Clouds 10 1022 31 10000 1.5 170 17:50 25.07.2019
4670 Clouds 10 1022 31 10000 1.5 170 17:32 25.07.2019
4671 Clouds 11 1022 29 10000 1.5 140 16:57 25.07.2019
4672 Clouds 11 1022 29 10000 4.2 74.272 16:38 25.07.2019
4673 Clouds 13 1022 28 10000 2.1 30 16:20 25.07.2019
4674 Clouds 13 1022 28 10000 3.1 70 15:44 25.07.2019
4675 Clouds 13 1022 28 10000 3.1 70 15:19 25.07.2019
4676 Clouds 14 1023 22 10000 2.1 140 14:43 25.07.2019
4677 Clouds 14 1023 22 10000 2.1 140 14:23 25.07.2019
4678 Clouds 15 1022 22 10000 2.6 150 13:55 25.07.2019
4679 Clouds 15 1022 26 10000 3.98 95.399 13:36 25.07.2019
4680 Clouds 15 1022 22 10000 2.1 110 13:18 25.07.2019
4681 Clouds 15 1022 22 10000 2.1 110 13:18 25.07.2019
4682 Clouds 17 1021 21 10000 2.6 110 12:30 25.07.2019
4683 Clouds 19 1021 19 10000 3.1 120 11:47 25.07.2019
4684 Clouds 19 1021 19 10000 3.1 120 11:26 25.07.2019
4685 Clouds 22 1021 15 10000 2.6 110 10:59 25.07.2019
4686 Clouds 23 1021 15 10000 2.6 70 10:40 25.07.2019
4687 Clouds 23 1021 15 10000 2.6 70 10:22 25.07.2019
4688 Clouds 24 1020 13 10000 0.5 100 09:44 25.07.2019
4689 Clouds 24 1020 13 10000 0.5 100 09:25 25.07.2019
4690 Clouds 23 1021 13 10000 2.6 350 08:44 25.07.2019
4691 Clouds 23 1021 13 10000 2.6 350 08:19 25.07.2019
4692 Clouds 23 1022 15 10000 2.6 110 07:36 25.07.2019
4693 Clouds 22 1023 18 10000 3.1 60 06:43 25.07.2019
4694 Clouds 21 1024 21 10000 3.1 80 05:48 25.07.2019
4695 Clouds 21 1024 21 10000 3.1 80 05:28 25.07.2019
4696 Clouds 18 1025 27 10000 2.6 110 04:37 25.07.2019
4697 Clouds 9 1026 45 10000 4.38 56.161 01:46 25.07.2019
4698 Clouds 6 1026 52 10000 2.1 290 01:18 25.07.2019
4699 Clear 3 1025 55 10000 3.1 270 00:20 25.07.2019
4700 Clear 4 1025 51 10000 2.6 280 23:47 24.07.2019
4701 Clear 4 1025 51 10000 2.6 280 23:29 24.07.2019
4702 -273 0 0 0 0 0 22:56 24.07.2019
4703 Clear 4 1024 51 10000 4.6 270 22:56 24.07.2019
4704 Clear 3 1024 51 10000 2.6 270 22:36 24.07.2019
4705 Clear 3 1023 47 10000 2.1 270 22:18 24.07.2019
4706 Clear 3 1023 44 10000 2.1 280 21:43 24.07.2019
4707 Clouds 3 1023 44 10000 2.1 280 21:22 24.07.2019
4708 -273 0 0 0 0 0 20:56 24.07.2019
4709 Clouds 3 1024 44 10000 1.5 320 20:37 24.07.2019
4710 Clouds 4 1024 44 10000 2.6 320 20:19 24.07.2019
4711 Clouds 5 1025 41 10000 3.1 260 19:42 24.07.2019
4712 Clouds 5 1025 41 10000 3.1 260 19:22 24.07.2019
4713 Clouds 6 1025 35 10000 2.6 260 18:58 24.07.2019
4714 Clouds 6 1025 38 10000 2.6 280 18:37 24.07.2019
4715 Clouds 6 1025 35 10000 2.1 270 18:19 24.07.2019
4716 Clouds 6 1025 35 10000 3.3 81.811 17:42 24.07.2019
4717 Clouds 6 1025 35 10000 3.3 81.811 17:19 24.07.2019
4718 Clouds 7 1025 36 10000 3.3 81.811 16:40 24.07.2019
4719 Clouds 7 1025 36 10000 3.3 81.811 16:40 24.07.2019
4720 Clouds 9 1026 31 10000 3.3 81.811 16:21 24.07.2019
4721 Clouds 9 1026 31 10000 3.3 81.811 15:39 24.07.2019
4722 Clouds 10 1026 29 10000 4.3 95.677 15:21 24.07.2019
4723 Clouds 10 1026 27 10000 4.3 95.677 14:50 24.07.2019
4724 Clouds 11 1025 27 10000 4.3 95.677 14:23 24.07.2019
4725 Clouds 11 1025 27 10000 4.3 95.677 13:58 24.07.2019
4726 Clouds 12 1025 23 10000 2.1 120 13:36 24.07.2019
4727 Clear 14 1025 22 10000 3.1 110 13:18 24.07.2019
4728 Clear 14 1024 22 10000 3.1 120 12:46 24.07.2019
4729 Clear 15 1024 19 10000 3.6 120 12:23 24.07.2019
4730 Clear 17 1024 17 10000 2.6 80 11:37 24.07.2019
4731 Clear 17 1024 17 10000 2.6 80 11:19 24.07.2019
4732 Clear 21 1024 13 10000 5.1 100 10:43 24.07.2019
4733 Clear 21 1024 13 10000 5.1 100 10:24 24.07.2019
4734 Clear 22 1024 11 10000 6.2 80 09:44 24.07.2019
4735 Clear 22 1024 11 10000 6.2 80 09:24 24.07.2019
4736 Clear 22 1024 12 10000 7.2 100 08:54 24.07.2019
4737 Clear 22 1024 12 10000 7.2 100 08:27 24.07.2019
4738 Clear 22 1024 12 10000 5.1 90 07:50 24.07.2019
4739 Clear 22 1024 12 10000 5.1 90 07:23 24.07.2019
4740 Clear 21 1025 14 10000 5.7 70 06:28 24.07.2019
4741 Clear 21 1026 14 10000 5.1 80 05:26 24.07.2019
4742 Clear 12 1027 30 10000 5.43 84.587 01:57 24.07.2019
4743 Clear 9 1026 36 10000 1.5 310 01:28 24.07.2019
4744 Clear 6 1026 45 10000 2.1 290 00:52 24.07.2019
4745 Clear 4 1026 48 10000 2.6 290 00:21 24.07.2019
4746 Clear 3 1026 51 10000 2.6 270 23:38 23.07.2019
4747 Clear 4 1025 48 10000 2.1 270 23:19 23.07.2019
4748 Clear 5 1025 48 10000 2.6 320 22:39 23.07.2019
4749 Clear 4 1024 48 10000 2.6 270 22:19 23.07.2019
4750 Clear 4 1024 48 10000 2.6 270 21:54 23.07.2019
4751 Clear 4 1024 48 10000 2.6 270 21:54 23.07.2019
4752 Clear 5 1024 48 10000 2.1 240 21:36 23.07.2019
4753 Clear 5 1024 48 10000 2.1 240 21:36 23.07.2019
4754 Clear 6 1024 45 10000 1 240 21:18 23.07.2019
4755 Clear 6 1024 41 10000 2.1 270 20:41 23.07.2019
4756 Clear 6 1024 41 10000 2.1 270 20:21 23.07.2019
4757 Clear 6 1024 41 10000 2.1 310 19:40 23.07.2019
4758 Clear 8 1024 39 10000 3.53 77.351 19:19 23.07.2019
4759 Clear 8 1024 39 10000 3.53 77.351 18:43 23.07.2019
4760 Clear 8 1024 39 10000 3.63 79.48 18:22 23.07.2019
4761 Clear 8 1024 39 10000 2.6 90 17:44 23.07.2019
4762 Clear 9 1024 34 10000 3.1 100 17:23 23.07.2019
4763 Clear 9 1024 34 10000 3.1 100 16:49 23.07.2019
4764 Clear 10 1024 31 10000 2.6 140 16:27 23.07.2019
4765 Clear 11 1024 32 10000 2.1 120 15:57 23.07.2019
4766 Clear 12 1024 27 10000 2.6 70 15:38 23.07.2019
4767 Clear 12 1024 27 10000 2.6 70 15:20 23.07.2019
4768 Clear 14 1024 28 10000 2.6 40 14:37 23.07.2019
4769 Clear 15 1024 26 10000 2.6 110 14:18 23.07.2019
4770 Clear 15 1024 26 10000 2.6 110 13:56 23.07.2019
4771 Clear 15 1023 26 10000 3.1 120 13:37 23.07.2019
4772 Clear 17 1023 23 10000 3.1 110 13:19 23.07.2019
4773 Clear 17 1023 23 10000 3.6 130 12:42 23.07.2019
4774 Clear 17 1023 23 10000 3.6 130 12:24 23.07.2019
4775 Clear 21 1022 19 10000 3.6 120 11:42 23.07.2019
4776 Clear 21 1022 19 10000 3.6 120 11:23 23.07.2019
4777 Clear 22 1022 18 10000 4.6 130 10:51 23.07.2019
4778 Clear 23 1021 17 10000 5.1 130 10:26 23.07.2019
4779 Clear 24 1021 16 10000 5.1 130 09:44 23.07.2019
4780 Clear 24 1021 16 10000 5.1 130 09:22 23.07.2019
4781 Clear 25 1021 15 10000 5.1 110 08:57 23.07.2019
4782 Clear 24 1021 17 10000 6.2 110 08:38 23.07.2019
4783 Clear 25 1021 16 10000 5.7 100 08:18 23.07.2019
4784 Clear 25 1021 17 10000 4.6 90 07:44 23.07.2019
4785 Clear 25 1021 17 10000 4.6 90 07:26 23.07.2019
4786 Clear 24 1022 19 10000 5.1 100 06:36 23.07.2019
4787 Clear 21 1023 22 10000 5.1 90 04:45 23.07.2019
4788 Clear 10 1022 46 10000 1.5 330 01:46 23.07.2019
4789 Clear 4 1022 60 10000 2.1 290 00:47 23.07.2019
4790 Clear 4 1022 60 10000 2.1 290 00:26 23.07.2019
4791 Clear 5 1021 56 10000 2.1 270 23:39 22.07.2019
4792 Clear 5 1021 60 10000 2.6 270 23:20 22.07.2019
4793 Clear 6 1020 56 10000 2.6 320 22:46 22.07.2019
4794 Clear 6 1020 56 10000 2.6 320 22:46 22.07.2019
4795 Clear 6 1020 56 10000 2.6 320 22:26 22.07.2019
4796 Clear 6 1020 56 10000 2.6 270 21:57 22.07.2019
4797 Clear 6 1020 52 10000 2.1 290 21:39 22.07.2019
4798 Clear 6 1020 52 10000 2.1 290 21:19 22.07.2019
4799 Clear 7 1020 52 10000 2.6 270 20:42 22.07.2019
4800 Clear 7 1020 52 10000 2.6 270 20:22 22.07.2019
4801 Clear 7 1020 45 10000 3.59 68.311 19:43 22.07.2019
4802 Clear 7 1020 45 10000 3.59 68.311 19:23 22.07.2019
4803 Clear 9 1020 45 10000 3.59 68.311 18:48 22.07.2019
4804 Clear 9 1020 45 10000 3.59 68.311 18:28 22.07.2019
4805 Clear 8 1020 45 10000 4.33 73.402 17:59 22.07.2019
4806 Clear 9 1020 45 10000 4.33 73.402 17:38 22.07.2019
4807 Clear 9 1020 45 10000 4.33 73.402 17:20 22.07.2019
4808 Clear 11 1019 43 10000 3.1 120 16:41 22.07.2019
4809 Clear 10 1019 39 10000 0.5 110 16:21 22.07.2019
4810 Clear 11 1019 40 10000 4.33 73.402 15:46 22.07.2019
4811 Clear 11 1019 40 10000 3.73 77.641 15:22 22.07.2019
4812 Clear 13 1019 35 10000 2.6 100 14:59 22.07.2019
4813 Clear 14 1019 35 10000 3.1 120 14:41 22.07.2019
4814 Clear 14 1019 35 10000 3.1 120 14:41 22.07.2019
4815 Clear 14 1019 33 10000 3.1 130 14:19 22.07.2019
4816 Clear 15 1018 30 10000 3.6 130 13:44 22.07.2019
4817 Clear 15 1018 30 10000 3.6 130 13:22 22.07.2019
4818 Clear 16 1018 26 10000 2.6 130 12:43 22.07.2019
4819 Clear 16 1018 26 10000 2.6 130 12:23 22.07.2019
4820 Clear 20 1017 24 10000 2.1 90 11:44 22.07.2019
4821 Clear 22 1017 21 10000 3.6 110 11:20 22.07.2019
4822 Clear 23 1016 20 10000 4.1 110 10:43 22.07.2019
4823 Clear 24 1016 19 10000 3.1 80 10:24 22.07.2019
4824 Clear 24 1016 19 10000 3.1 110 09:42 22.07.2019
4825 Clear 24 1016 19 10000 3.1 110 09:23 22.07.2019
4826 Clear 23 1016 20 10000 2.1 130 08:44 22.07.2019
4827 Clear 23 1016 20 10000 2.1 130 08:24 22.07.2019
4828 Clear 24 1016 19 10000 2.6 100 07:54 22.07.2019
4829 Clear 24 1017 22 10000 3.6 100 07:31 22.07.2019
4830 Clear 22 1017 22 10000 3.6 70 06:33 22.07.2019
4831 Clear 17 1020 27 10000 4.1 80 03:46 22.07.2019
4832 Clear 8 1019 38 10000 1 210 01:51 22.07.2019
4833 Clear 6 1019 60 10000 1.5 310 00:50 22.07.2019
4834 Clear 3 1019 69 10000 2.1 330 00:24 22.07.2019
4835 Clear 4 1018 69 10000 3.43 60.288 23:54 21.07.2019
4836 Clear 4 1018 64 10000 2.1 210 23:26 21.07.2019
4837 Clear 4 1018 69 10000 2.1 330 22:41 21.07.2019
4838 Clear 4 1018 69 10000 2.1 330 22:21 21.07.2019
4839 Clear 4 1018 64 10000 2.1 230 21:56 21.07.2019
4840 Clear 5 1018 65 10000 1.5 320 21:36 21.07.2019
4841 Clear 5 1018 65 10000 1 310 21:18 21.07.2019
4842 Clear 6 1017 60 10000 1.5 190 20:41 21.07.2019
4843 Clear 6 1017 60 10000 1.5 190 20:23 21.07.2019
4844 Clear 6 1017 56 10000 3.1 180 19:53 21.07.2019
4845 Clear 7 1017 56 10000 2.1 250 19:29 21.07.2019
4846 Clear 7 1018 56 10000 1 310 18:56 21.07.2019
4847 Clear 8 1018 59 10000 1 320 18:37 21.07.2019
4848 Clear 8 1018 59 10000 1 320 18:37 21.07.2019
4849 Clear 8 1018 60 10000 1 350 18:19 21.07.2019
4850 Clear 8 1018 52 10000 3.46 103.005 17:40 21.07.2019
4851 Clear 8 1018 52 10000 3.46 103.005 17:19 21.07.2019
4852 Clear 10 1018 53 10000 3.46 103.005 16:42 21.07.2019
4853 Clear 10 1018 53 10000 3.46 103.005 16:24 21.07.2019
4854 Clear 10 1018 53 10000 3.46 103.005 15:45 21.07.2019
4855 Clear 10 1018 53 10000 4.12 106.398 15:24 21.07.2019
4856 Clear 11 1018 54 10000 0.5 20 14:56 21.07.2019
4857 Clear 13 1018 43 10000 2.6 110 14:26 21.07.2019
4858 Clear 14 1018 44 10000 2.6 120 13:59 21.07.2019
4859 Clear 14 1018 41 10000 2.6 130 13:40 21.07.2019
4860 Clear 14 1018 41 10000 2.6 130 13:20 21.07.2019
4861 Clear 16 1018 36 10000 3.1 130 12:41 21.07.2019
4862 Clear 16 1018 36 10000 3.1 130 12:22 21.07.2019
4863 Clear 18 1017 31 10000 3.1 130 11:46 21.07.2019
4864 Clear 18 1017 31 10000 3.1 130 11:27 21.07.2019
4865 Clear 20 1016 30 10000 4.1 110 10:47 21.07.2019
4866 Clear 20 1016 30 10000 4.1 110 10:25 21.07.2019
4867 Clear 21 1016 28 10000 3.6 110 09:55 21.07.2019
4868 Clear 21 1016 28 10000 4.1 110 09:36 21.07.2019
4869 Clouds 21 1016 28 10000 4.1 120 08:50 21.07.2019
4870 Clear 21 1016 28 10000 4.6 100 08:32 21.07.2019
4871 Clear 21 1016 28 10000 4.6 120 07:58 21.07.2019
4872 Clear 21 1017 28 10000 4.6 150 07:19 21.07.2019
4873 Clear 21 1017 30 10000 4.6 110 06:34 21.07.2019
4874 Clear 18 1020 34 10000 4.6 130 04:19 21.07.2019
4875 Clouds 16 1020 36 10000 6.2 160 01:53 21.07.2019
4876 Clouds 13 1019 28 10000 4.1 260 00:47 21.07.2019
4877 Clouds 13 1019 28 10000 4.1 260 00:21 21.07.2019
4878 Clouds 14 1018 24 10000 3.6 250 23:46 20.07.2019
4879 Clouds 14 1018 24 10000 3.6 250 23:27 20.07.2019
4880 Clouds 14 1017 22 10000 4.6 240 22:55 20.07.2019
4881 Clouds 16 1016 19 10000 5.1 250 22:37 20.07.2019
4882 Clouds 15 1016 21 10000 4.1 250 22:18 20.07.2019
4883 Clouds 15 1015 21 10000 4.6 220 21:40 20.07.2019
4884 Clouds 15 1015 21 10000 4.6 220 21:22 20.07.2019
4885 Clouds 16 1014 19 10000 3.1 330 20:43 20.07.2019
4886 Clouds 18 1014 17 10000 5.39 234.774 20:22 20.07.2019
4887 Clear 16 1015 18 10000 1.5 250 19:49 20.07.2019
4888 Clear 16 1015 18 10000 1.5 250 19:26 20.07.2019
4889 Clear 18 1015 17 10000 2.1 220 18:46 20.07.2019
4890 Clear 18 1015 17 10000 2.1 220 18:24 20.07.2019
4891 Clear 19 1015 16 10000 4.6 330 17:56 20.07.2019
4892 Clear 20 1015 14 10000 4.6 330 17:26 20.07.2019
4893 Clear 19 1016 17 10000 3.1 310 16:46 20.07.2019
4894 Clear 19 1016 17 10000 3.1 310 16:46 20.07.2019
4895 Clear 19 1016 17 10000 3.1 310 16:28 20.07.2019
4896 Clear 19 1016 16 10000 4.6 340 15:58 20.07.2019
4897 Clear 19 1016 17 10000 5.1 330 15:40 20.07.2019
4898 Clear 19 1016 17 10000 5.1 330 15:20 20.07.2019
4899 Clear 18 1016 18 10000 4.6 340 14:49 20.07.2019
4900 Clear 18 1016 17 10000 4.1 340 14:29 20.07.2019
4901 Clear 18 1016 17 10000 3.6 360 13:56 20.07.2019
4902 Clear 18 1016 17 10000 3.6 350 13:37 20.07.2019
4903 Clear 18 1016 16 10000 3.6 360 13:18 20.07.2019
4904 Clear 19 1016 16 10000 3.1 350 12:40 20.07.2019
4905 Clear 20 1015 14 10000 2.6 350 12:18 20.07.2019
4906 Clear 21 1015 13 10000 2.6 350 11:41 20.07.2019
4907 Clear 21 1015 13 10000 2.6 350 11:20 20.07.2019
4908 Clear 25 1015 11 10000 4.1 310 10:37 20.07.2019
4909 Clear 25 1015 10 10000 4.6 320 10:19 20.07.2019
4910 Clear 26 1015 9 10000 5.1 320 09:46 20.07.2019
4911 Clouds 26 1015 9 10000 5.1 320 09:24 20.07.2019
4912 Clouds 26 1015 10 10000 4.6 290 08:48 20.07.2019
4913 Clouds 25 1015 11 10000 4.6 290 08:21 20.07.2019
4914 Clouds 25 1016 11 10000 4.6 300 07:28 20.07.2019
4915 Clouds 24 1017 12 10000 4.1 330 06:43 20.07.2019
4916 Clouds 23 1018 13 10000 5.1 330 05:21 20.07.2019
4917 Clouds 22 1018 14 10000 5.7 340 04:30 20.07.2019
4918 Clouds 12 1019 34 10000 0.5 340 01:23 20.07.2019
4919 Clouds 4 1019 48 10000 7.28 347.271 00:49 20.07.2019
4920 Clear 4 1019 48 10000 4.53 356.859 00:26 20.07.2019
4921 Clear 5 1019 48 10000 4.53 356.859 23:50 19.07.2019
4922 Clear 5 1019 44 10000 4.53 356.859 23:29 19.07.2019
4923 Clear 6 1019 41 10000 1.5 310 22:59 19.07.2019
4924 Clear 7 1019 39 10000 1 250 22:40 19.07.2019
4925 Clear 12 1019 32 10000 0.5 350 22:19 19.07.2019
4926 Clear 11 1018 34 10000 1.5 230 21:43 19.07.2019
4927 Clouds 11 1018 34 10000 1.5 230 21:24 19.07.2019
4928 Clouds 8 1018 39 10000 4.18 9.386 20:43 19.07.2019
4929 Clouds 8 1018 39 10000 4.18 9.386 20:25 19.07.2019
4930 Clouds 8 1019 36 10000 4.18 9.386 19:39 19.07.2019
4931 Clouds 7 1019 36 10000 4.18 9.386 19:18 19.07.2019
4932 Clouds 10 1019 37 10000 0.5 100 18:40 19.07.2019
4933 Clouds 10 1019 31 10000 2.1 60 18:19 19.07.2019
4934 Clouds 10 1019 34 10000 3.9 20.673 17:45 19.07.2019
4935 Clouds 10 1019 34 10000 3.9 20.673 17:25 19.07.2019
4936 Clouds 8 1019 36 10000 1 340 16:47 19.07.2019
4937 Clouds 8 1019 36 10000 1 340 16:25 19.07.2019
4938 Clouds 12 1019 34 10000 3.6 60 15:47 19.07.2019
4939 Clouds 12 1019 34 10000 3.6 60 15:29 19.07.2019
4940 Clouds 10 1019 37 10000 0.5 50 14:55 19.07.2019
4941 Clouds 11 1019 32 10000 1 40 14:37 19.07.2019
4942 Clouds 12 1019 30 10000 2.1 50 14:19 19.07.2019
4943 Clouds 14 1019 28 10000 2.6 60 13:43 19.07.2019
4944 Clouds 15 1019 26 10000 3.6 50 13:22 19.07.2019
4945 Clouds 16 1019 25 10000 3.1 60 12:49 19.07.2019
4946 Clouds 16 1019 25 10000 3.1 60 12:29 19.07.2019
4947 Clear 19 1018 19 10000 3.1 110 11:47 19.07.2019
4948 Clear 19 1018 19 10000 3.1 110 11:20 19.07.2019
4949 Clear 20 1018 16 10000 3.1 120 10:58 19.07.2019
4950 Clear 22 1018 15 10000 3.1 90 10:39 19.07.2019
4951 Clear 22 1018 14 10000 2.6 70 10:18 19.07.2019
4952 Clear 22 1018 15 10000 1.5 220 09:43 19.07.2019
4953 Clear 23 1018 15 10000 2.1 190 09:22 19.07.2019
4954 Clear 23 1018 16 10000 2.6 20 08:50 19.07.2019
4955 Clear 23 1018 16 10000 2.6 20 08:28 19.07.2019
4956 Clear 22 1019 15 10000 2.6 190 07:33 19.07.2019
4957 Clear 21 1019 18 10000 2.6 30 06:37 19.07.2019
4958 Clear 21 1019 18 10000 2.6 30 06:37 19.07.2019
4959 Clear 20 1021 19 10000 3.1 20 05:26 19.07.2019
4960 Clear 11 1022 43 10000 2.1 60 01:44 19.07.2019
4961 Clear 6 1022 56 10000 2.1 350 00:54 19.07.2019
4962 Clear 2 1022 64 10000 2.1 240 23:59 18.07.2019
4963 Clear 2 1021 64 10000 2.6 200 23:40 18.07.2019
4964 Clear 2 1021 64 10000 2.6 200 23:40 18.07.2019
4965 Clear 2 1021 64 10000 2.6 200 23:22 18.07.2019
4966 Clear 3 1020 59 10000 3.43 39.694 22:44 18.07.2019
4967 Clear 3 1020 59 10000 3.43 39.694 22:20 18.07.2019
4968 Clear 3 1020 59 10000 1.5 240 21:57 18.07.2019
4969 Clear 4 1021 55 10000 1.5 310 21:38 18.07.2019
4970 Clear 4 1021 55 10000 2.1 300 21:18 18.07.2019
4971 Clear 5 1021 56 10000 2.1 250 20:45 18.07.2019
4972 Clear 5 1021 56 10000 2.1 250 20:23 18.07.2019
4973 Clear 4 1021 60 10000 1.5 350 19:49 18.07.2019
4974 Clear 4 1021 60 10000 1.5 350 19:27 18.07.2019
4975 Clear 5 1021 56 10000 1 330 18:51 18.07.2019
4976 Clear 7 1022 56 10000 1.5 320 18:23 18.07.2019
4977 Clear 7 1022 52 10000 2.1 260 17:57 18.07.2019
4978 Clear 6 1022 52 10000 2.1 310 17:37 18.07.2019
4979 Clear 7 1022 52 10000 1.5 230 17:19 18.07.2019
4980 Clear 8 1022 49 10000 4.17 64.862 16:49 18.07.2019
4981 Clear 8 1022 49 10000 4.17 64.862 16:49 18.07.2019
4982 Clear 8 1022 49 10000 4.17 64.862 16:25 18.07.2019
4983 Clear 8 1022 45 10000 4.17 64.862 15:56 18.07.2019
4984 Clear 9 1022 45 10000 2.1 200 15:36 18.07.2019
4985 Clear 9 1021 42 10000 2.1 260 14:56 18.07.2019
4986 Clear 10 1021 43 10000 4.37 68.907 14:37 18.07.2019
4987 Clear 10 1021 43 10000 4.37 68.907 14:37 18.07.2019
4988 Clear 13 1021 37 10000 1.5 70 13:59 18.07.2019
4989 Clear 13 1021 37 10000 1.5 70 13:37 18.07.2019
4990 Clear 13 1021 37 10000 1.5 70 13:18 18.07.2019
4991 Clear 15 1020 33 10000 3.1 120 12:44 18.07.2019
4992 Clear 15 1020 33 10000 2.6 130 12:20 18.07.2019
4993 Clear 18 1020 27 10000 3.6 120 11:50 18.07.2019
4994 Clear 18 1020 27 10000 3.6 120 11:32 18.07.2019
4995 Clear 20 1020 28 10000 4.1 110 10:52 18.07.2019
4996 Clear 21 1020 28 10000 4.6 100 10:23 18.07.2019
4997 Clear 22 1020 24 10000 4.6 110 09:44 18.07.2019
4998 Clear 22 1020 18 10000 5.1 80 09:23 18.07.2019
4999 Clear 23 1020 20 10000 4.6 40 08:46 18.07.2019
5000 Clear 23 1020 20 10000 4.6 40 08:19 18.07.2019
5001 Clear 22 1020 19 10000 5.1 50 07:37 18.07.2019
5002 Clear 22 1020 19 10000 5.1 50 07:19 18.07.2019
5003 Clear 21 1022 18 10000 5.1 20 06:35 18.07.2019
5004 Clear 17 1024 39 10000 4.6 70 04:20 18.07.2019
5005 Clear 12 1024 54 10000 4.84 63.223 02:52 18.07.2019
5006 Clear 7 1024 65 10000 2.1 270 01:37 18.07.2019
5007 Clear 3 1023 74 10000 2.6 290 00:26 18.07.2019
5008 Clear 3 1023 74 10000 2.6 300 23:49 17.07.2019
5009 Clear 3 1023 74 10000 2.6 290 23:18 17.07.2019
5010 Clear 3 1023 74 10000 2.6 280 22:43 17.07.2019
5011 Clear 3 1023 74 10000 2.6 280 22:23 17.07.2019
5012 Clear 3 1023 74 10000 2.6 280 21:58 17.07.2019
5013 Clear 3 1023 74 10000 2.6 280 21:40 17.07.2019
5014 Clear 3 1023 74 10000 2.6 280 21:40 17.07.2019
5015 Clear 3 1023 74 10000 2.1 290 21:21 17.07.2019
5016 Clear 3 1023 74 10000 2.1 290 20:57 17.07.2019
5017 Clear 4 1023 69 10000 2.1 300 20:39 17.07.2019
5018 Clear 4 1023 69 10000 2.1 300 20:20 17.07.2019
5019 Clear 5 1023 69 10000 2.1 280 19:42 17.07.2019
5020 Clear 5 1023 69 10000 2.1 280 19:20 17.07.2019
5021 Clear 6 1023 70 10000 2.1 310 18:46 17.07.2019
5022 Clear 6 1023 70 10000 2.1 310 18:46 17.07.2019
5023 Clear 6 1023 60 10000 2.6 240 18:21 17.07.2019
5024 Clear 6 1023 60 10000 2.6 240 18:21 17.07.2019
5025 Clear 6 1023 60 10000 2.6 240 18:21 17.07.2019
5026 Clear 6 1023 60 10000 2.6 240 17:59 17.07.2019
5027 Clear 6 1023 60 10000 2.6 240 17:41 17.07.2019
5028 Clear 6 1023 60 10000 2.6 240 17:22 17.07.2019
5029 Clear 7 1024 65 10000 2.1 300 16:41 17.07.2019
5030 Clear 7 1024 65 10000 2.1 300 16:22 17.07.2019
5031 Clear 8 1024 62 10000 1 330 15:51 17.07.2019
5032 Clear 8 1024 62 10000 1 330 15:31 17.07.2019
5033 Clear 9 1024 48 10000 0.5 10 14:57 17.07.2019
5034 Clear 10 1024 53 10000 1.5 90 14:38 17.07.2019
5035 Clear 12 1024 50 10000 2.6 110 14:20 17.07.2019
5036 Clear 12 1023 50 10000 3.1 110 13:49 17.07.2019
5037 Clear 12 1023 50 10000 3.1 110 13:31 17.07.2019
5038 Clear 13 1023 43 10000 3.1 120 12:56 17.07.2019
5039 Clear 13 1023 43 10000 3.1 120 12:38 17.07.2019
5040 Clear 14 1022 41 10000 3.1 120 12:19 17.07.2019
5041 Clear 16 1022 37 10000 2.6 110 11:40 17.07.2019
5042 Clear 18 1022 31 10000 4.1 80 11:19 17.07.2019
5043 Clear 19 1022 29 10000 5.7 90 10:45 17.07.2019
5044 Clear 20 1022 37 10000 6.2 70 10:21 17.07.2019
5045 Clear 20 1022 28 10000 6.2 100 09:45 17.07.2019
5046 Clear 20 1022 28 10000 6.2 100 09:27 17.07.2019
5047 Clear 20 1022 28 10000 6.7 100 08:45 17.07.2019
5048 Clear 20 1022 28 10000 6.7 100 08:24 17.07.2019
5049 Clear 20 1022 28 10000 6.7 90 07:55 17.07.2019
5050 Clear 20 1022 28 10000 5.7 90 07:36 17.07.2019
5051 Clear 20 1022 28 10000 5.7 70 07:18 17.07.2019
5052 Clear 18 1023 34 10000 4.6 90 06:41 17.07.2019
5053 Clear 18 1024 36 10000 5.7 90 06:22 17.07.2019
5054 Clear 17 1024 42 10000 4.6 90 05:38 17.07.2019
5055 Clear 16 1025 44 10000 5.7 100 04:57 17.07.2019
5056 Clear 14 1026 54 10000 5.7 90 03:52 17.07.2019
5057 Clear 11 1027 66 10000 5.1 100 02:43 17.07.2019
5058 Clear 7 1026 75 10000 2.6 150 01:41 17.07.2019
5059 Clear 5 1026 86 10000 0.5 270 01:21 17.07.2019
5060 Clear 3 1026 93 10000 3.1 280 00:39 17.07.2019
5061 Clear 3 1026 86 10000 2.6 260 00:20 17.07.2019
5062 Clear 3 1025 86 10000 2.6 270 23:44 16.07.2019
5063 Clear 4 1025 80 10000 2.6 280 23:22 16.07.2019
5064 Clear 4 1025 93 10000 3.1 300 22:44 16.07.2019
5065 Clear 4 1025 93 10000 3.1 300 22:25 16.07.2019
5066 Clear 3 1025 86 10000 2.6 300 21:57 16.07.2019
5067 Clear 4 1025 86 10000 1.5 330 21:39 16.07.2019
5068 Clear 4 1025 80 10000 1.5 220 21:19 16.07.2019
5069 Clear 5 1025 86 10000 0.5 240 20:41 16.07.2019
5070 Clear 5 1025 86 10000 0.5 240 20:22 16.07.2019
5071 Clear 5 1025 80 10000 2.1 260 19:54 16.07.2019
5072 Clear 5 1025 75 10000 1.5 240 19:30 16.07.2019
5073 Clear 5 1025 75 10000 2.1 230 18:59 16.07.2019
5074 Clear 6 1025 75 10000 1.5 250 18:40 16.07.2019
5075 Clear 6 1025 70 10000 1.5 190 18:20 16.07.2019
5076 Clear 6 1026 70 10000 1.5 190 17:44 16.07.2019
5077 Clear 6 1026 75 10000 3.1 170 17:26 16.07.2019
5078 Clear 7 1026 70 10000 3.1 170 16:49 16.07.2019
5079 Clear 7 1026 70 10000 3.1 170 16:25 16.07.2019
5080 Clear 7 1026 70 10000 3.1 180 15:57 16.07.2019
5081 Clear 8 1026 65 10000 3.1 170 15:38 16.07.2019
5082 Clear 8 1026 65 10000 3.1 170 15:38 16.07.2019
5083 Clear 9 1026 61 10000 3.1 160 15:19 16.07.2019
5084 Clear 9 1026 61 10000 3.1 160 14:46 16.07.2019
5085 Clear 9 1026 61 10000 3.1 160 14:28 16.07.2019
5086 Clear 10 1026 57 10000 3.1 170 13:57 16.07.2019
5087 Clear 10 1026 57 10000 3.1 170 13:57 16.07.2019
5088 Clear 10 1026 57 10000 3.1 150 13:37 16.07.2019
5089 Clear 11 1026 53 10000 3.1 150 13:18 16.07.2019
5090 Clear 12 1026 54 10000 3.1 130 12:42 16.07.2019
5091 Clear 13 1025 50 10000 3.1 130 12:20 16.07.2019
5092 Clear 14 1025 47 10000 3.6 130 11:45 16.07.2019
5093 Clear 16 1025 41 10000 4.6 130 11:25 16.07.2019
5094 Clear 16 1025 41 10000 4.6 130 10:59 16.07.2019
5095 Clear 16 1025 38 10000 5.1 120 10:41 16.07.2019
5096 Clear 17 1025 33 10000 5.7 120 10:19 16.07.2019
5097 Clear 18 1024 51 10000 5.7 120 09:43 16.07.2019
5098 Clear 18 1024 28 10000 5.1 130 09:20 16.07.2019
5099 Clear 18 1024 29 10000 4.6 150 08:47 16.07.2019
5100 Clear 18 1024 29 10000 4.6 150 08:27 16.07.2019
5101 Clear 17 1025 29 10000 5.1 120 07:51 16.07.2019
5102 Clear 17 1025 29 10000 5.1 120 07:32 16.07.2019
5103 Clear 17 1025 33 10000 4.6 120 06:58 16.07.2019
5104 Clear 16 1025 36 10000 4.6 100 06:36 16.07.2019
5105 Clear 15 1026 41 10000 5.1 100 05:51 16.07.2019
5106 Clear 15 1026 41 10000 5.1 100 05:26 16.07.2019
5107 Clear 13 1028 50 10000 5.7 130 04:32 16.07.2019
5108 Clear 11 1028 57 10000 4.6 90 03:34 16.07.2019
5109 Clear 10 1029 61 10000 4.1 140 02:42 16.07.2019
5110 Clear 8 1028 70 10000 2.6 170 02:19 16.07.2019
5111 Clear 3 1028 86 10000 2.6 210 01:23 16.07.2019
5112 Clear 2 1028 93 10000 2.1 220 00:22 16.07.2019
5113 Clear 2 1028 93 10000 2.1 220 23:58 15.07.2019
5114 Clear 2 1027 93 10000 2.6 230 23:37 15.07.2019
5115 Clear 3 1027 93 10000 1.5 240 22:59 15.07.2019
5116 Clear 3 1027 93 10000 2.1 230 22:38 15.07.2019
5117 Clear 2 1027 93 10000 2.6 250 22:19 15.07.2019
5118 Clear 2 1027 76 10000 2.1 190 21:42 15.07.2019
5119 Clear 3 1027 73 10000 2.6 200 21:21 15.07.2019
5120 Clear 3 1027 73 10000 2.6 200 20:58 15.07.2019
5121 Clear 4 1027 80 10000 2.6 180 20:39 15.07.2019
5122 Clear 4 1027 73 10000 3.6 170 20:21 15.07.2019
5123 Clear 5 1028 75 10000 2.6 200 19:45 15.07.2019
5124 Clear 5 1028 75 10000 2.6 200 19:24 15.07.2019
5125 Clear 5 1028 80 10000 2.1 170 18:57 15.07.2019
5126 Clear 4 1028 73 10000 1.5 200 18:38 15.07.2019
5127 Clear 6 1028 70 10000 2.1 160 18:19 15.07.2019
5128 Clear 6 1028 70 10000 2.1 160 17:55 15.07.2019
5129 Clear 6 1028 70 10000 2.6 180 17:37 15.07.2019
5130 Clear 6 1028 77 10000 2.6 180 17:19 15.07.2019
5131 Clear 6 1028 60 10000 3.1 150 16:39 15.07.2019
5132 Clear 6 1028 60 10000 3.1 150 16:39 15.07.2019
5133 Clear 7 1028 56 10000 3.1 150 16:20 15.07.2019
5134 Clear 7 1028 56 10000 3.1 150 15:57 15.07.2019
5135 Clear 7 1028 77 10000 2.6 160 15:37 15.07.2019
5136 Clear 7 1028 77 10000 2.6 160 15:37 15.07.2019
5137 Clear 7 1028 56 10000 2.6 170 15:19 15.07.2019
5138 Clear 8 1028 52 10000 2.6 170 14:44 15.07.2019
5139 Clear 8 1028 52 10000 2.6 170 14:25 15.07.2019
5140 Clear 8 1027 52 10000 3.1 160 13:51 15.07.2019
5141 Clear 9 1027 49 10000 3.1 150 13:25 15.07.2019
5142 Clear 9 1027 49 10000 3.1 150 12:59 15.07.2019
5143 Clear 10 1027 46 10000 3.1 130 12:41 15.07.2019
5144 Clear 10 1027 46 10000 3.1 130 12:41 15.07.2019
5145 Clear 12 1027 40 10000 3.1 130 12:20 15.07.2019
5146 Clear 13 1027 37 10000 4.1 130 11:42 15.07.2019
5147 Clear 13 1027 37 10000 4.1 130 11:24 15.07.2019
5148 Clear 15 1027 33 10000 5.7 120 10:45 15.07.2019
5149 Clear 15 1027 33 10000 5.7 120 10:27 15.07.2019
5150 Clear 16 1026 31 10000 6.7 130 09:48 15.07.2019
5151 Clear 16 1026 31 10000 6.7 130 09:26 15.07.2019
5152 Clear 16 1026 29 10000 7.2 130 08:58 15.07.2019
5153 Clear 17 1026 27 10000 6.2 120 08:40 15.07.2019
5154 Clear 17 1026 27 10000 6.2 120 08:22 15.07.2019
5155 Clear 17 1027 27 10000 6.2 120 07:37 15.07.2019
5156 Clear 16 1027 29 10000 6.2 110 06:55 15.07.2019
5157 Clear 15 1028 30 10000 5.7 120 06:33 15.07.2019
5158 Clear 14 1029 35 10000 5.7 90 05:44 15.07.2019
5159 Clear 14 1029 31 10000 6.7 110 05:19 15.07.2019
5160 Clear 13 1030 31 10000 6.7 110 04:41 15.07.2019
5161 Clear 11 1030 50 10000 7.7 110 03:33 15.07.2019
5162 Clear 9 1031 57 10000 5.7 110 02:30 15.07.2019
5163 Clear 5 1030 65 10000 8.98 107.886 01:39 15.07.2019
5164 Clear 2 1030 74 10000 1.5 250 01:20 15.07.2019
5165 Clear 0 1030 50 10000 3.1 250 00:46 15.07.2019
5166 Clear 0 1029 74 10000 2.6 270 00:19 15.07.2019
5167 Clear 0 1029 74 10000 2.6 280 23:41 14.07.2019
5168 Clear 0 1029 74 10000 1 340 23:21 14.07.2019
5169 Clear 0 1029 74 10000 1 340 22:58 14.07.2019
5170 Clear 1 1029 74 10000 1.5 220 22:39 14.07.2019
5171 Clear 2 1029 74 10000 2.1 180 22:21 14.07.2019
5172 Clear 3 1029 69 10000 5.66 126.718 21:46 14.07.2019
5173 Clear 1 1029 69 10000 3.1 170 21:20 14.07.2019
5174 Clear 1 1029 69 10000 3.1 170 20:59 14.07.2019
5175 Clear 2 1029 64 10000 1.5 200 20:39 14.07.2019
5176 Clear 2 1029 69 10000 5.84 127.015 20:20 14.07.2019
5177 Clear 2 1029 69 10000 5.84 127.015 19:56 14.07.2019
5178 Clear 3 1029 64 10000 1.5 180 19:38 14.07.2019
5179 Clear 4 1029 64 10000 2.1 150 19:19 14.07.2019
5180 Clear 4 1029 60 10000 5.84 127.015 18:41 14.07.2019
5181 Clear 4 1029 55 10000 1 170 18:22 14.07.2019
5182 Clear 4 1029 55 10000 1 170 17:58 14.07.2019
5183 Clear 4 1030 60 10000 3.1 170 17:23 14.07.2019
5184 Clear 5 1030 56 10000 2.6 190 16:53 14.07.2019
5185 Clear 5 1030 52 10000 3.1 160 16:26 14.07.2019
5186 Clear 6 1030 52 10000 3.1 160 15:57 14.07.2019
5187 Clear 6 1030 52 10000 3.6 150 15:37 14.07.2019
5188 Clear 7 1030 48 10000 2.1 140 14:58 14.07.2019
5189 Clear 7 1030 45 10000 2.6 150 14:37 14.07.2019
5190 Clear 7 1030 48 10000 3.1 150 14:19 14.07.2019
5191 Clear 8 1029 45 10000 3.1 140 13:45 14.07.2019
5192 Clear 8 1029 42 10000 3.6 150 13:22 14.07.2019
5193 Clear 8 1029 42 10000 3.6 150 12:56 14.07.2019
5194 Clear 10 1029 37 10000 3.6 140 12:37 14.07.2019
5195 Clear 11 1029 34 10000 4.1 130 12:18 14.07.2019
5196 Clear 12 1028 32 10000 4.1 140 11:45 14.07.2019
5197 Clear 13 1028 30 10000 5.7 130 11:20 14.07.2019
5198 Clear 14 1028 28 10000 6.2 130 10:42 14.07.2019
5199 Clear 14 1028 28 10000 6.7 110 10:20 14.07.2019
5200 Clear 15 1027 26 10000 7.2 130 09:44 14.07.2019
5201 Clear 15 1027 26 10000 7.2 130 09:25 14.07.2019
5202 Clear 15 1028 28 10000 6.2 130 08:45 14.07.2019
5203 Clear 15 1028 28 10000 6.2 130 08:22 14.07.2019
5204 Clear 15 1028 28 10000 6.7 140 07:41 14.07.2019
5205 Clear 14 1029 30 10000 6.7 110 06:59 14.07.2019
5206 Clear 13 1030 35 10000 7.7 110 05:45 14.07.2019
5207 Clear 11 1032 43 10000 9.3 100 03:50 14.07.2019
5208 Clear 11 1032 43 10000 9.3 100 03:32 14.07.2019
5209 Clear 10 1032 45 10000 7.7 110 02:50 14.07.2019
5210 Clear 8 1031 45 10000 5.7 110 02:22 14.07.2019
5211 Clear 6 1031 44 10000 3.1 140 01:34 14.07.2019
5212 Clear 4 1031 44 10000 3.1 160 00:58 14.07.2019
5213 Clear 2 1030 80 10000 2.6 160 00:39 14.07.2019
5214 Clear 2 1030 67 10000 2.6 150 00:20 14.07.2019
5215 Clear 2 1030 80 10000 3.1 160 23:45 13.07.2019
5216 Clear 2 1030 80 10000 3.1 160 23:25 13.07.2019
5217 Clear 3 1029 67 10000 3.1 150 22:56 13.07.2019
5218 Clear 3 1029 67 10000 2.6 140 22:37 13.07.2019
5219 Clear 3 1029 67 10000 2.6 140 22:37 13.07.2019
5220 Clear 4 1029 80 10000 3.1 140 22:19 13.07.2019
5221 Clear 5 1029 75 10000 3.1 130 21:42 13.07.2019
5222 Clear 5 1029 75 10000 3.6 140 21:19 13.07.2019
5223 Clear 5 1029 75 10000 3.6 140 21:19 13.07.2019
5224 Clear 6 1029 70 10000 3.6 140 20:45 13.07.2019
5225 Clear 6 1029 70 10000 3.6 140 20:26 13.07.2019
5226 Clear 6 1029 70 10000 2.6 170 19:46 13.07.2019
5227 Clear 6 1029 70 10000 2.6 170 19:27 13.07.2019
5228 Clear 6 1029 70 10000 3.6 150 18:44 13.07.2019
5229 Clear 7 1030 70 10000 3.6 140 18:21 13.07.2019
5230 Clear 8 1030 65 10000 3.6 140 17:39 13.07.2019
5231 Clear 9 1030 61 10000 3.6 130 17:20 13.07.2019
5232 Clear 9 1030 61 10000 3.6 130 16:56 13.07.2019
5233 Clear 9 1030 66 10000 4.1 140 16:37 13.07.2019
5234 Clear 10 1030 61 10000 4.6 130 16:19 13.07.2019
5235 Clear 10 1030 61 10000 5.1 130 15:42 13.07.2019
5236 Clear 11 1030 57 10000 5.1 130 15:20 13.07.2019
5237 Clear 11 1030 57 10000 3.6 130 14:42 13.07.2019
5238 Clear 11 1029 57 10000 4.1 140 14:22 13.07.2019
5239 Clear 12 1029 54 10000 4.1 140 13:46 13.07.2019
5240 Clear 12 1029 54 10000 4.1 140 13:24 13.07.2019
5241 Clear 12 1029 54 10000 4.1 140 12:56 13.07.2019
5242 Clear 12 1028 54 10000 4.1 150 12:36 13.07.2019
5243 Clear 13 1028 47 10000 4.1 140 12:18 13.07.2019
5244 Clear 14 1028 47 10000 4.6 140 11:39 13.07.2019
5245 Clear 15 1027 44 10000 4.6 140 11:19 13.07.2019
5246 Clear 16 1027 38 10000 6.7 130 10:42 13.07.2019
5247 Clear 16 1027 38 10000 6.7 130 10:23 13.07.2019
5248 Clear 16 1027 36 10000 6.7 140 09:52 13.07.2019
5249 Clear 17 1026 33 10000 6.2 130 09:30 13.07.2019
5250 Clear 17 1026 36 10000 5.7 130 08:58 13.07.2019
5251 Clear 17 1026 36 10000 6.2 160 08:29 13.07.2019
5252 Clear 18 1026 36 10000 6.2 140 07:56 13.07.2019
5253 Clear 18 1027 36 10000 6.2 130 07:29 13.07.2019
5254 Clear 17 1028 36 10000 6.2 150 06:37 13.07.2019
5255 Clear 16 1029 48 10000 6.7 130 05:51 13.07.2019
5256 Clear 15 1030 47 10000 7.2 130 04:42 13.07.2019
5257 Clear 15 1030 47 10000 6.2 120 04:21 13.07.2019
5258 Clear 15 1030 47 10000 6.2 130 03:43 13.07.2019
5259 Clouds 15 1030 47 10000 6.2 130 03:25 13.07.2019
5260 Clouds 13 1030 54 10000 8.7 140 01:54 13.07.2019
5261 Clear 9 1030 57 10000 1 290 01:36 13.07.2019
5262 Clear 7 1029 60 10000 2.1 330 01:18 13.07.2019
5263 Clear 4 1029 64 10000 2.1 230 00:42 13.07.2019
5264 Clear 6 1028 60 10000 1.5 210 00:18 13.07.2019
5265 Clear 6 1028 63 10000 2.6 200 23:37 12.07.2019
5266 Clear 6 1027 60 10000 2.6 190 22:59 12.07.2019
5267 Clear 6 1027 60 10000 2.6 200 22:41 12.07.2019
5268 Clear 6 1027 60 10000 2.6 210 22:22 12.07.2019
5269 Clear 7 1027 56 10000 2.1 250 21:42 12.07.2019
5270 Clouds 7 1026 56 10000 2.6 260 21:21 12.07.2019
5271 Clouds 7 1026 56 10000 2.6 260 20:53 12.07.2019
5272 Clouds 7 1026 56 10000 2.6 270 20:24 12.07.2019
5273 Clouds 7 1026 48 10000 2.6 270 19:45 12.07.2019
5274 Clouds 7 1026 45 10000 2.6 230 19:26 12.07.2019
5275 Clouds 7 1026 45 10000 2.6 230 18:58 12.07.2019
5276 Clouds 7 1026 45 10000 3.1 250 18:37 12.07.2019
5277 Clouds 7 1026 48 10000 2.1 270 18:19 12.07.2019
5278 Clouds 8 1026 42 10000 2.1 270 17:46 12.07.2019
5279 Clouds 8 1026 42 10000 2.1 270 17:27 12.07.2019
5280 Clouds 9 1026 42 10000 2.1 290 16:40 12.07.2019
5281 Clouds 9 1026 39 10000 1.5 330 16:20 12.07.2019
5282 Clouds 10 1026 37 10000 1.5 330 15:41 12.07.2019
5283 Clouds 10 1026 34 10000 1.5 340 15:21 12.07.2019
5284 Clouds 10 1026 34 10000 1.5 340 14:55 12.07.2019
5285 Clouds 12 1026 34 10000 4.36 151.568 14:37 12.07.2019
5286 Clouds 12 1026 34 10000 2.6 170 14:19 12.07.2019
5287 Clouds 13 1025 30 10000 2.6 180 13:38 12.07.2019
5288 Clouds 13 1025 30 10000 2.6 170 12:57 12.07.2019
5289 Clouds 13 1025 30 10000 2.6 170 12:57 12.07.2019
5290 Clouds 15 1024 26 10000 2.6 170 12:38 12.07.2019
5291 Clouds 15 1024 26 10000 3.1 180 12:19 12.07.2019
5292 Clouds 16 1024 25 10000 3.1 160 11:44 12.07.2019
5293 Clouds 19 1023 20 10000 3.6 170 11:20 12.07.2019
5294 Clouds 20 1023 20 10000 4.6 190 10:44 12.07.2019
5295 Clouds 21 1023 19 10000 5.1 160 10:24 12.07.2019
5296 Clouds 21 1023 19 10000 5.1 160 09:54 12.07.2019
5297 Clouds 22 1023 17 10000 3.6 180 09:30 12.07.2019
5298 Clouds 22 1023 15 10000 3.6 170 08:58 12.07.2019
5299 Clouds 22 1023 17 10000 3.6 160 08:39 12.07.2019
5300 Clouds 22 1023 17 10000 3.1 180 08:18 12.07.2019
5301 Clouds 21 1023 18 10000 3.1 190 07:40 12.07.2019
5302 Clouds 22 1024 17 10000 4.1 190 07:22 12.07.2019
5303 Clouds 22 1024 19 10000 4.1 180 06:29 12.07.2019
5304 Clouds 20 1025 22 10000 3.6 170 05:46 12.07.2019
5305 Clear 18 1027 25 10000 2.02 155.411 03:22 12.07.2019
5306 Clouds 9 1027 45 10000 1.5 250 01:41 12.07.2019
5307 Clouds 7 1026 52 10000 2.1 290 00:58 12.07.2019
5308 Clouds 5 1026 56 10000 2.6 340 00:20 12.07.2019
5309 Clouds 5 1026 56 10000 2.6 340 00:20 12.07.2019
5310 Clouds 5 1026 56 10000 2.6 340 00:20 12.07.2019
5311 Clouds 6 1026 52 10000 2.6 310 23:49 11.07.2019
5312 Clouds 5 1025 56 10000 3.1 320 23:26 11.07.2019
5313 Clouds 6 1026 52 10000 2.6 310 23:26 11.07.2019
5314 Clouds 5 1025 56 10000 3.1 320 22:55 11.07.2019
5315 Clouds 5 1025 56 10000 2.6 290 22:37 11.07.2019
5316 Clouds 6 1024 52 10000 2.6 310 22:19 11.07.2019
5317 Clouds 6 1024 52 10000 2.6 320 21:40 11.07.2019
5318 Clouds 6 1024 48 10000 2.6 280 21:18 11.07.2019
5319 Clouds 5 1025 52 10000 3.1 270 20:43 11.07.2019
5320 Clouds 6 1025 52 10000 2.1 300 20:24 11.07.2019
5321 Clouds 6 1025 52 10000 2.1 300 20:24 11.07.2019
5322 Clouds 6 1025 52 10000 2.1 300 19:59 11.07.2019
5323 Clouds 7 1025 48 10000 2.1 310 19:40 11.07.2019
5324 Clouds 8 1025 49 10000 2.1 330 19:22 11.07.2019
5325 Clouds 8 1025 49 10000 2.1 310 18:43 11.07.2019
5326 Clouds 8 1025 49 10000 2.1 310 18:43 11.07.2019
5327 Clouds 8 1025 49 10000 2.1 310 18:24 11.07.2019
5328 Clouds 9 1026 42 10000 2.6 310 17:50 11.07.2019
5329 Clouds 9 1026 42 10000 2.6 310 17:31 11.07.2019
5330 Clouds 9 1026 42 10000 2.6 280 16:56 11.07.2019
5331 Clouds 9 1026 42 10000 3.6 260 16:37 11.07.2019
5332 Clouds 10 1027 43 10000 2.6 330 16:18 11.07.2019
5333 Clouds 9 1026 42 10000 1 50 15:40 11.07.2019
5334 Clouds 11 1026 37 10000 2.1 40 15:21 11.07.2019
5335 Clouds 10 1027 39 10000 2.1 220 14:45 11.07.2019
5336 Clouds 12 1026 34 10000 1 170 14:25 11.07.2019
5337 Clouds 12 1026 34 10000 1 170 13:59 11.07.2019
5338 Clouds 13 1026 35 10000 2.6 130 13:40 11.07.2019
5339 Clouds 14 1026 30 10000 2.1 140 13:22 11.07.2019
5340 Clouds 15 1025 30 10000 2.1 140 12:38 11.07.2019
5341 Clear 16 1025 29 10000 3.1 130 12:19 11.07.2019
5342 Clear 18 1025 25 10000 3.1 110 11:45 11.07.2019
5343 Clear 18 1025 25 10000 3.1 110 11:27 11.07.2019
5344 Clear 21 1024 21 10000 3.6 120 10:52 11.07.2019
5345 Clear 21 1024 19 10000 3.1 110 10:20 11.07.2019
5346 Clear 21 1024 19 10000 3.1 110 10:20 11.07.2019
5347 Clear 21 1024 19 10000 3.1 110 09:53 11.07.2019
5348 Clear 22 1024 18 10000 2.6 150 09:32 11.07.2019
5349 Clear 22 1024 18 10000 3.1 120 08:59 11.07.2019
5350 Clear 22 1024 19 10000 3.6 130 08:39 11.07.2019
5351 Clear 22 1024 19 10000 3.1 130 08:19 11.07.2019
5352 Clear 22 1024 19 10000 3.6 130 07:43 11.07.2019
5353 Clear 21 1024 19 10000 4.1 90 06:55 11.07.2019
5354 Clear 21 1026 21 10000 3.6 120 06:18 11.07.2019
5355 Clear 20 1026 20 10000 4.6 140 05:32 11.07.2019
5356 Clear 19 1026 22 10000 3.1 120 04:56 11.07.2019
5357 Clear 17 1028 27 10000 3.6 100 03:43 11.07.2019
5358 Clear 14 1027 33 10000 2.1 220 02:20 11.07.2019
5359 Clear 8 1026 45 10000 2.6 290 00:33 11.07.2019
5360 Clear 8 1025 45 10000 3.1 250 23:50 10.07.2019
5361 Clear 9 1024 42 10000 3.6 270 23:24 10.07.2019
5362 Clear 9 1024 42 10000 3.6 270 22:57 10.07.2019
5363 Clear 9 1024 42 10000 2.6 330 22:25 10.07.2019
5364 Clear 9 1024 42 10000 2.6 330 21:56 10.07.2019
5365 Clear 8 1023 45 10000 3.1 320 21:38 10.07.2019
5366 Clear 9 1023 42 10000 2.6 280 21:19 10.07.2019
5367 Clear 9 1023 42 10000 3.6 230 20:44 10.07.2019
5368 Clear 9 1023 42 10000 3.6 230 20:26 10.07.2019
5369 Clear 8 1022 42 10000 3.1 270 19:55 10.07.2019
5370 Clear 8 1022 39 10000 2.6 290 19:37 10.07.2019
5371 Clear 9 1022 39 10000 2.6 320 19:19 10.07.2019
5372 Clear 10 1023 37 10000 3.1 330 18:44 10.07.2019
5373 Clear 9 1023 39 10000 2.6 290 18:23 10.07.2019
5374 Clear 10 1023 37 10000 2.6 300 17:44 10.07.2019
5375 Clear 10 1023 37 10000 2.6 300 17:25 10.07.2019
5376 Clear 10 1023 37 10000 3.1 290 16:41 10.07.2019
5377 Clear 11 1023 32 10000 2.1 270 16:21 10.07.2019
5378 Clear 10 1023 34 10000 2.1 290 15:47 10.07.2019
5379 Clear 12 1023 32 10000 1.5 260 15:25 10.07.2019
5380 Clear 12 1023 30 10000 2.1 10 14:46 10.07.2019
5381 Clear 12 1023 30 10000 2.1 10 14:26 10.07.2019
5382 Clear 14 1023 30 10000 2.1 350 13:54 10.07.2019
5383 Clear 15 1023 30 10000 2.1 350 13:23 10.07.2019
5384 Clear 15 1022 28 10000 1.36 188.178 12:58 10.07.2019
5385 Clear 17 1022 25 10000 2.6 130 12:39 10.07.2019
5386 Clear 18 1022 23 10000 2.6 160 12:19 10.07.2019
5387 Clear 19 1022 22 10000 2.6 160 11:47 10.07.2019
5388 Clear 21 1021 18 10000 2.6 160 11:21 10.07.2019
5389 Clear 21 1021 18 10000 2.6 160 10:52 10.07.2019
5390 Clear 23 1021 16 10000 3.6 180 10:23 10.07.2019
5391 Clear 23 1021 16 10000 2.6 220 09:45 10.07.2019
5392 Clear 24 1020 15 10000 4.6 170 09:21 10.07.2019
5393 Clear 24 1020 15 10000 4.6 170 08:55 10.07.2019
5394 Clear 24 1020 15 10000 3.6 70 08:37 10.07.2019
5395 Clear 24 1021 16 10000 3.1 160 08:18 10.07.2019
5396 Clear 23 1021 16 10000 4.6 130 07:42 10.07.2019
5397 Clear 24 1021 14 10000 4.6 170 07:21 10.07.2019
5398 Clear 23 1022 15 10000 2.1 140 06:21 10.07.2019
5399 Clear 23 1022 15 10000 2.6 40 05:39 10.07.2019
5400 Clear 21 1023 16 10000 1.5 90 04:29 10.07.2019
5401 Clear 6 1022 45 10000 2.6 310 00:49 10.07.2019
5402 Clear 6 1022 45 10000 2.6 310 00:29 10.07.2019
5403 Clear 6 1022 45 10000 2.6 320 23:42 09.07.2019
5404 Clear 6 1022 45 10000 2.6 320 23:22 09.07.2019
5405 Clear 6 1021 45 10000 2.6 320 22:43 09.07.2019
5406 Clear 6 1021 45 10000 2.6 320 22:25 09.07.2019
5407 Clear 5 1021 48 10000 2.6 300 21:59 09.07.2019
5408 Clear 6 1021 45 10000 2.6 280 21:41 09.07.2019
5409 Clear 6 1021 45 10000 2.6 280 21:23 09.07.2019
5410 Clear 6 1021 41 10000 2.1 300 20:43 09.07.2019
5411 Clear 6 1021 41 10000 2.1 300 20:25 09.07.2019
5412 Clear 7 1021 42 10000 3.1 330 19:43 09.07.2019
5413 Clear 7 1021 42 10000 3.1 330 19:24 09.07.2019
5414 Clear 7 1022 39 10000 3.1 330 18:49 09.07.2019
5415 Clear 7 1022 39 10000 3.1 330 18:27 09.07.2019
5416 Clear 7 1022 39 10000 2.1 300 17:57 09.07.2019
5417 Clear 8 1022 36 10000 2.1 310 17:39 09.07.2019
5418 Clear 8 1022 36 10000 2.6 330 17:19 09.07.2019
5419 Clear 9 1023 31 10000 2.1 330 16:50 09.07.2019
5420 Clear 9 1023 31 10000 2.1 330 16:25 09.07.2019
5421 Clear 8 1023 31 10000 1.5 330 15:51 09.07.2019
5422 Clear 8 1023 31 10000 1.5 330 15:33 09.07.2019
5423 Clear 9 1023 29 10000 2.6 350 14:58 09.07.2019
5424 Clear 9 1023 29 10000 1.5 190 14:39 09.07.2019
5425 Clear 11 1023 25 10000 0.5 160 14:19 09.07.2019
5426 Clear 12 1023 25 10000 2.1 160 13:45 09.07.2019
5427 Clear 12 1023 25 10000 2.1 160 13:27 09.07.2019
5428 Clear 12 1023 25 10000 2.1 160 13:27 09.07.2019
5429 Clear 15 1022 21 10000 2.6 150 12:41 09.07.2019
5430 Clear 16 1022 18 10000 3.1 110 12:22 09.07.2019
5431 Clear 17 1021 17 10000 2.6 130 11:58 09.07.2019
5432 Clear 17 1021 17 10000 2.6 130 11:39 09.07.2019
5433 Clear 19 1021 14 10000 2.6 120 11:21 09.07.2019
5434 Clear 19 1021 14 10000 2.6 120 11:21 09.07.2019
5435 Clear 19 1021 14 10000 2.6 120 10:54 09.07.2019
5436 Clear 21 1021 12 10000 3.6 120 10:33 09.07.2019
5437 Clear 21 1020 13 10000 3.6 110 09:42 09.07.2019
5438 Clear 22 1020 11 10000 4.1 110 09:22 09.07.2019
5439 Clear 22 1020 11 10000 4.1 110 08:55 09.07.2019
5440 Clear 22 1020 14 10000 4.1 130 08:37 09.07.2019
5441 Clear 17 1024 33 10000 4.1 60 03:59 05.07.2019
5442 Clear 17 1024 33 10000 2.6 70 03:38 05.07.2019
5443 Clear 14 1024 39 10000 2.1 120 03:19 05.07.2019
5444 Clear 13 1024 39 10000 1 70 02:45 05.07.2019
5445 Clear 9 1024 39 10000 1.5 310 01:42 05.07.2019
5446 Clear 9 1024 38 10000 1.5 310 01:23 05.07.2019
5447 Clear 3 1024 69 10000 2.6 300 00:46 05.07.2019
5448 Clear 3 1024 69 10000 2.6 270 23:56 04.07.2019
5449 Clear 4 1023 64 10000 2.6 280 23:21 04.07.2019
5450 Clear 4 1023 64 10000 2.6 280 22:57 04.07.2019
5451 Clear 4 1023 64 10000 2.6 290 22:39 04.07.2019
5452 Clear 3 1023 64 10000 2.6 270 22:18 04.07.2019
5453 Clear 4 1023 60 10000 2.6 270 21:40 04.07.2019
5454 Clear 4 1023 60 10000 2.6 270 21:22 04.07.2019
5455 Clear 4 1023 60 10000 2.6 280 20:54 04.07.2019
5456 Clear 4 1023 64 10000 2.6 270 20:36 04.07.2019
5457 Clear 4 1023 64 10000 0.5 290 20:18 04.07.2019
5458 Clear 4 1023 60 10000 4.07 72.314 19:41 04.07.2019
5459 Clear 5 1024 60 10000 2.1 340 19:20 04.07.2019
5460 Clear 5 1024 60 10000 4.07 72.314 18:44 04.07.2019
5461 Clear 6 1024 56 10000 2.1 290 18:25 04.07.2019
5462 Clear 7 1024 52 10000 1.5 240 17:47 04.07.2019
5463 Clear 7 1024 52 10000 0.5 250 17:19 04.07.2019
5464 Clear 8 1024 49 10000 2.1 250 15:59 04.07.2019
5465 Clear 8 1024 52 10000 4.09 85.559 15:41 04.07.2019
5466 Clear 9 1024 49 10000 2.1 50 15:22 04.07.2019
5467 Clear 9 1024 49 10000 2.1 50 14:56 04.07.2019
5468 Clear 10 1023 43 10000 2.1 70 14:37 04.07.2019
5469 Clear 12 1023 40 10000 2.6 100 14:18 04.07.2019
5470 Clear 12 1023 40 10000 2.6 100 14:18 04.07.2019
5471 Clear 12 1023 40 10000 2.6 100 13:54 04.07.2019
5472 Clear 12 1023 40 10000 2.6 100 13:54 04.07.2019
5473 Clear 13 1023 46 10000 3.6 110 13:36 04.07.2019
5474 Clear 13 1023 37 10000 3.6 110 13:18 04.07.2019
5475 Clear 14 1023 35 10000 3.6 120 12:37 04.07.2019
5476 Clear 14 1023 35 10000 3.6 120 12:37 04.07.2019
5477 Clear 14 1022 35 10000 3.6 130 12:19 04.07.2019
5478 Clear 16 1022 39 10000 3.1 120 11:39 04.07.2019
5479 Clear 17 1022 39 10000 5.1 110 11:19 04.07.2019
5480 Clear 17 1022 39 10000 5.1 110 11:19 04.07.2019
5481 Clear 19 1021 39 10000 5.7 90 10:40 04.07.2019
5482 Clear 19 1021 39 10000 5.7 90 10:22 04.07.2019
5483 Clear 19 1021 39 10000 6.2 120 09:45 04.07.2019
5484 Clear 19 1021 24 10000 6.2 120 09:26 04.07.2019
5485 Clear 20 1021 24 10000 5.7 120 08:56 04.07.2019
5486 Clear 20 1021 24 10000 5.7 120 08:56 04.07.2019
5487 Clear 19 1021 25 10000 5.1 110 08:25 04.07.2019
5488 Clear 18 1022 27 10000 5.1 120 07:46 04.07.2019
5489 Clear 18 1022 27 10000 5.1 120 07:23 04.07.2019
5490 Clear 18 1022 27 10000 5.7 130 06:55 04.07.2019
5491 Clear 16 1024 29 10000 5.1 110 05:52 04.07.2019
5492 Clear 16 1024 29 10000 5.1 110 05:33 04.07.2019
5493 Clear 10 1026 43 10000 2.6 200 02:43 04.07.2019
5494 Clear 7 1026 48 10000 3.1 260 01:42 04.07.2019
5495 Clear 7 1026 48 10000 3.1 260 01:42 04.07.2019
5496 Clear 4 1026 51 10000 3.6 260 01:22 04.07.2019
5497 Clear 1 1025 55 10000 3.6 270 23:59 03.07.2019
5498 Clear 2 1025 55 10000 3.6 270 23:41 03.07.2019
5499 Clear 1 1025 55 10000 3.6 270 23:20 03.07.2019
5500 Clear 2 1024 55 10000 2.6 280 22:44 03.07.2019
5501 Clear 2 1024 55 10000 2.6 280 22:25 03.07.2019
5502 Clear 2 1024 51 10000 2.6 310 21:59 03.07.2019
5503 Clear 2 1024 55 10000 1.5 280 21:41 03.07.2019
5504 Clear 3 1024 47 10000 1.5 280 21:23 03.07.2019
5505 Clear 4 1025 48 10000 2.1 300 20:46 03.07.2019
5506 Clear 3 1025 47 10000 2.1 260 20:24 03.07.2019
5507 Clear 3 1025 47 10000 2.1 190 19:51 03.07.2019
5508 Clear 3 1025 47 10000 2.1 190 19:32 03.07.2019
5509 Clear 4 1025 44 10000 2.1 240 18:49 03.07.2019
5510 Clear 4 1025 44 10000 2.1 240 18:30 03.07.2019
5511 Clear 4 1025 44 10000 2.1 210 17:57 03.07.2019
5512 Clear 4 1025 44 10000 2.1 210 17:37 03.07.2019
5513 Clear 4 1025 38 10000 1.5 210 17:18 03.07.2019
5514 Clear 4 1025 41 10000 2.1 190 16:43 03.07.2019
5515 Clear 6 1025 35 10000 1.5 200 16:22 03.07.2019
5516 Clear 6 1025 38 10000 1.5 160 15:49 03.07.2019
5517 Clear 6 1025 38 10000 1.5 160 15:31 03.07.2019
5518 Clear 7 1025 33 10000 2.1 130 14:57 03.07.2019
5519 Clear 8 1025 31 10000 2.6 110 14:38 03.07.2019
5520 Clear 8 1025 31 10000 2.6 130 14:18 03.07.2019
5521 Clear 9 1024 26 10000 3.1 150 13:35 03.07.2019
5522 Clear 10 1024 25 10000 3.1 130 12:55 03.07.2019
5523 Clear 12 1023 22 10000 3.6 130 12:22 03.07.2019
5524 Clear 12 1023 22 10000 3.6 130 11:59 03.07.2019
5525 Clear 13 1023 20 10000 3.6 120 11:40 03.07.2019
5526 Clear 15 1022 16 10000 4.6 130 11:21 03.07.2019
5527 Clear 17 1022 14 10000 5.1 120 10:42 03.07.2019
5528 Clear 17 1022 14 10000 5.1 120 10:23 03.07.2019
5529 Clear 19 1021 14 10000 5.1 140 09:43 03.07.2019
5530 Clear 19 1021 16 10000 5.7 160 09:21 03.07.2019
5531 Clear 19 1021 16 10000 5.7 160 08:54 03.07.2019
5532 Clear 19 1021 17 10000 5.7 170 08:33 03.07.2019
5533 Clear 19 1021 17 10000 5.1 170 07:57 03.07.2019
5534 Clear 19 1022 17 10000 5.1 190 07:37 03.07.2019
5535 Clear 18 1022 22 10000 3.6 150 06:55 03.07.2019
5536 Clear 17 1023 23 10000 4.1 130 05:56 03.07.2019
5537 Clear 17 1023 23 10000 4.1 130 05:24 03.07.2019
5538 Clear 15 1024 28 10000 4.1 100 03:55 03.07.2019
5539 Clear 13 1024 30 10000 2.6 50 02:47 03.07.2019
5540 Clear 9 1024 42 10000 4.75 69.179 01:37 03.07.2019
5541 Clear 9 1024 42 10000 4.75 69.179 01:19 03.07.2019
5542 Clear 4 1024 55 10000 0.5 100 00:40 03.07.2019
5543 Clear 6 1023 48 10000 3.6 80 23:54 02.07.2019
5544 Clear 6 1023 48 10000 3.6 80 23:36 02.07.2019
5545 Clear 7 1023 48 10000 3.6 80 23:18 02.07.2019
5546 Clear 7 1023 48 10000 3.1 70 22:41 02.07.2019
5547 Clear 7 1023 48 10000 3.1 70 22:22 02.07.2019
5548 Clear 6 1022 48 10000 2.6 130 21:57 02.07.2019
5549 Clear 6 1022 48 10000 2.6 130 21:38 02.07.2019
5550 Clear 6 1022 48 10000 2.6 130 21:19 02.07.2019
5551 Clear 9 1022 42 10000 2.1 70 20:42 02.07.2019
5552 Clear 9 1022 42 10000 2.1 70 20:24 02.07.2019
5553 Clear 9 1022 42 10000 2.6 90 19:59 02.07.2019
5554 Clear 8 1022 42 10000 2.1 100 19:40 02.07.2019
5555 Clear 9 1022 42 10000 2.1 70 19:20 02.07.2019
5556 Clear 8 1022 42 10000 2.6 60 18:45 02.07.2019
5557 Clear 8 1022 42 10000 2.6 60 18:18 02.07.2019
5558 Clear 8 1022 42 10000 3.1 130 17:41 02.07.2019
5559 Clear 9 1022 39 10000 4.69 68.498 17:21 02.07.2019
5560 Clear 11 1022 34 10000 2.6 10 16:47 02.07.2019
5561 Clear 11 1022 34 10000 2.6 10 16:29 02.07.2019
5562 Clear 12 1022 34 10000 3.6 110 15:45 02.07.2019
5563 Clear 12 1022 32 10000 1.5 120 15:25 02.07.2019
5564 Clear 11 1022 34 10000 1.5 180 14:51 02.07.2019
5565 Clear 11 1022 34 10000 1.5 180 14:33 02.07.2019
5566 Clear 15 1021 26 10000 2.6 80 13:48 02.07.2019
5567 Clear 15 1021 26 10000 2.6 80 13:23 02.07.2019
5568 Clear 17 1020 23 10000 3.1 100 12:59 02.07.2019
5569 Clear 17 1020 23 10000 3.1 100 12:41 02.07.2019
5570 Clear 17 1020 23 10000 3.1 100 12:18 02.07.2019
5571 Clear 20 1020 20 10000 3.6 110 11:42 02.07.2019
5572 Clear 21 1019 18 10000 3.1 110 11:21 02.07.2019
5573 Clear 22 1019 17 10000 4.1 140 10:46 02.07.2019
5574 Clear 23 1019 16 10000 3.1 130 10:25 02.07.2019
5575 Clear 24 1018 16 10000 2.6 130 09:45 02.07.2019
5576 Clear 23 1018 16 10000 3.1 140 09:22 02.07.2019
5577 Clear 24 1018 16 10000 4.1 130 08:42 02.07.2019
5578 Clear 24 1018 16 10000 4.1 130 08:42 02.07.2019
5579 Clear 24 1018 16 10000 4.1 130 08:21 02.07.2019
5580 Clear 24 1019 16 10000 3.6 110 07:53 02.07.2019
5581 Clear 24 1019 16 10000 3.6 110 07:21 02.07.2019
5582 Clear 24 1019 16 10000 4.1 160 06:50 02.07.2019
5583 Clear 24 1019 16 10000 4.1 160 06:26 02.07.2019
5584 Clear 24 1021 19 10000 2.6 20 04:57 02.07.2019
5585 Clear 14 1021 29 10000 2.6 110 02:19 02.07.2019
5586 Clear 6 1020 56 10000 2.1 270 23:50 01.07.2019
5587 Clear 8 1020 46 10000 2.6 310 23:22 01.07.2019
5588 Clear 6 1019 56 10000 2.1 270 22:46 01.07.2019
5589 Clear 7 1019 56 10000 2.6 270 22:27 01.07.2019
5590 Clear 8 1019 52 10000 2.1 280 21:48 01.07.2019
5591 Clear 8 1019 52 10000 2.1 280 21:26 01.07.2019
5592 Clear 8 1019 48 10000 2.6 280 20:53 01.07.2019
5593 Clear 8 1019 52 10000 2.1 340 20:23 01.07.2019
5594 Clear 8 1019 52 10000 2.1 340 19:59 01.07.2019
5595 Clear 9 1019 49 10000 3.1 350 19:40 01.07.2019
5596 Clear 9 1020 49 10000 3.1 350 19:22 01.07.2019
5597 Clear 9 1020 49 10000 3.1 330 18:53 01.07.2019
5598 Clear 9 1020 49 10000 3.1 330 18:31 01.07.2019
5599 Clear 9 1020 49 10000 3.6 290 17:59 01.07.2019
5600 Clear 8 1020 52 10000 3.1 200 17:41 01.07.2019
5601 Clear 8 1020 52 10000 3.1 200 17:21 01.07.2019
5602 Clear 10 1020 46 10000 2.1 340 16:47 01.07.2019
5603 Clear 10 1020 46 10000 2.1 340 16:25 01.07.2019
5604 Clear 12 1020 40 10000 3.6 360 15:54 01.07.2019
5605 Clear 12 1020 40 10000 3.6 280 15:36 01.07.2019
5606 Clear 12 1020 37 10000 2.6 360 15:18 01.07.2019
5607 Clear 12 1020 40 10000 0.5 220 14:42 01.07.2019
5608 Clear 14 1020 38 10000 2.1 140 14:19 01.07.2019
5609 Clear 13 1020 35 10000 2.6 170 13:40 01.07.2019
5610 Clear 16 1019 40 10000 1.5 350 13:22 01.07.2019
5611 Clear 17 1019 29 10000 2.6 10 12:46 01.07.2019
5612 -273 0 0 0 0 0 12:27 01.07.2019
5613 Clear 18 1019 27 10000 2.6 20 11:58 01.07.2019
5614 Clear 20 1018 30 10000 2.6 360 11:38 01.07.2019
5615 Clear 21 1018 22 10000 2.1 20 11:18 01.07.2019
5616 Clear 23 1018 30 10000 2.6 360 10:45 01.07.2019
5617 Clear 23 1018 20 10000 1 110 10:21 01.07.2019
5618 Clear 23 1018 30 10000 1.5 80 09:45 01.07.2019
5619 Clear 23 1018 18 10000 1.5 80 09:27 01.07.2019
5620 Clear 23 1018 18 10000 1.5 80 09:26 01.07.2019
5621 Clear 24 1018 18 10000 3.1 330 08:58 01.07.2019
5622 Clear 24 1018 18 10000 2.1 170 08:35 01.07.2019
5623 Clear 24 1019 19 10000 2.1 310 07:35 01.07.2019
5624 Clear 23 1020 18 10000 2.1 260 06:51 01.07.2019
5625 Clear 22 1022 30 10000 6.7 350 04:45 01.07.2019
5626 Clouds 6 1022 48 10000 2.1 180 01:20 01.07.2019
5627 Clouds 4 1022 51 10000 1.84 352.999 00:42 01.07.2019
5628 Clouds 6 1022 52 10000 3.1 30 00:21 01.07.2019
5629 Clouds 3 1022 55 10000 4.1 50 23:26 30.06.2019
5630 Clouds 4 1022 60 10000 2.38 24.32 22:58 30.06.2019
5631 Clouds 2 1022 55 10000 2.38 24.32 22:37 30.06.2019
5632 Clouds 2 1022 55 10000 2.1 290 22:18 30.06.2019
5633 Clouds 3 1022 55 10000 2.6 290 21:41 30.06.2019
5634 Clouds 3 1022 51 10000 2.1 290 21:18 30.06.2019
5635 Clouds 3 1022 51 10000 2.1 280 20:42 30.06.2019
5636 Clouds 3 1022 51 10000 2.1 280 20:23 30.06.2019
5637 Clouds 4 1022 51 10000 1.5 280 19:52 30.06.2019
5638 Clouds 4 1022 48 10000 0.5 280 19:26 30.06.2019
5639 Clouds 4 1022 48 10000 0.5 280 18:55 30.06.2019
5640 Clear 4 1023 44 10000 4.08 56.867 18:25 30.06.2019
5641 Clear 5 1023 44 10000 4.08 56.867 17:55 30.06.2019
5642 Clear 5 1023 44 10000 4.08 56.867 17:36 30.06.2019
5643 Clear 6 1023 45 10000 1 260 17:18 30.06.2019
5644 Clear 5 1023 38 10000 1.5 140 16:43 30.06.2019
5645 Clear 6 1023 38 10000 2.1 100 16:25 30.06.2019
5646 Clear 8 1023 36 10000 2.6 80 15:37 30.06.2019
5647 Clear 7 1023 39 10000 1.5 60 15:18 30.06.2019
5648 Clear 8 1023 39 10000 2.1 60 14:49 30.06.2019
5649 Clear 8 1023 39 10000 2.1 60 14:29 30.06.2019
5650 Clear 11 1023 29 10000 2.1 100 13:46 30.06.2019
5651 Clear 11 1023 29 10000 2.1 100 13:24 30.06.2019
5652 Clear 13 1022 28 10000 3.6 80 12:50 30.06.2019
5653 Clear 14 1022 26 10000 3.1 90 12:25 30.06.2019
5654 Clear 14 1022 26 10000 3.1 90 11:55 30.06.2019
5655 Clear 15 1022 24 10000 3.1 90 11:37 30.06.2019
5656 Clear 16 1021 23 10000 3.6 90 11:18 30.06.2019
5657 Clear 16 1021 23 10000 3.6 90 11:18 30.06.2019
5658 Clear 18 1021 20 10000 4.6 90 10:40 30.06.2019
5659 Clear 19 1021 19 10000 4.6 90 10:19 30.06.2019
5660 Clear 19 1021 19 10000 5.1 80 09:44 30.06.2019
5661 Clear 19 1021 19 10000 5.1 80 09:23 30.06.2019
5662 Clear 19 1021 19 10000 4.6 80 08:59 30.06.2019
5663 Clear 19 1021 19 10000 4.1 90 08:38 30.06.2019
5664 Clear 18 1022 20 10000 4.1 90 08:18 30.06.2019
5665 Clear 18 1022 22 10000 5.1 90 07:37 30.06.2019
5666 Clear 18 1023 22 10000 4.6 90 07:18 30.06.2019
5667 Clear 16 1024 25 10000 5.1 100 05:54 30.06.2019
5668 Clear 12 1026 32 10000 7.7 80 02:59 30.06.2019
5669 Clear 6 1026 56 10000 5.84 98.086 01:30 30.06.2019
5670 Clear 1 1025 74 10000 2.1 310 00:38 30.06.2019
5671 Clear 1 1025 69 10000 2.1 290 23:56 29.06.2019
5672 Clear 2 1025 69 10000 2.1 300 23:25 29.06.2019
5673 Clear 1 1025 74 10000 2.6 290 22:58 29.06.2019
5674 Clear 2 1025 69 10000 2.1 300 22:40 29.06.2019
5675 Clear 2 1025 69 10000 2.1 230 22:21 29.06.2019
5676 Clear 3 1025 69 10000 2.6 250 21:49 29.06.2019
5677 Clear 3 1025 64 10000 2.1 300 21:23 29.06.2019
5678 Clear 4 1025 69 10000 1 340 20:42 29.06.2019
5679 Clear 4 1025 69 10000 1 340 20:24 29.06.2019
5680 Clear 5 1025 65 10000 1 210 19:48 29.06.2019
5681 Clear 5 1025 65 10000 1 210 19:24 29.06.2019
5682 Clear 4 1025 60 10000 2.1 160 18:51 29.06.2019
5683 Clear 5 1025 65 10000 4.27 104.307 18:26 29.06.2019
5684 Clear 6 1025 32 10000 4.27 104.307 17:43 29.06.2019
5685 Clear 6 1025 32 10000 4.27 104.307 17:23 29.06.2019
5686 Clear 6 1025 32 10000 4.27 104.307 17:23 29.06.2019
5687 Clear 6 1025 32 10000 4.27 104.307 16:58 29.06.2019
5688 Clear 7 1025 32 10000 4.27 104.307 16:39 29.06.2019
5689 Clear 9 1026 57 10000 4.27 104.307 15:53 29.06.2019
5690 Clear 8 1026 32 10000 4.27 104.307 15:30 29.06.2019
5691 Clear 10 1025 53 10000 2.6 150 14:44 29.06.2019
5692 Clear 10 1025 53 10000 2.6 150 14:26 29.06.2019
5693 Clear 11 1025 50 10000 2.6 160 13:47 29.06.2019
5694 Clear 11 1025 50 10000 2.6 160 13:27 29.06.2019
5695 Clear 13 1024 43 10000 3.1 170 12:53 29.06.2019
5696 Clear 13 1024 43 10000 3.1 170 12:34 29.06.2019
5697 Clear 14 1024 41 10000 3.1 160 11:55 29.06.2019
5698 Clear 15 1024 41 10000 2.6 160 11:37 29.06.2019
5699 Clear 17 1023 36 10000 4.1 160 11:19 29.06.2019
5700 Clear 18 1023 34 10000 4.6 170 10:39 29.06.2019
5701 Clear 19 1023 32 10000 4.6 150 10:20 29.06.2019
5702 Clear 19 1022 34 10000 4.6 160 09:45 29.06.2019
5703 Clouds 20 1022 34 10000 5.7 150 08:51 29.06.2019
5704 Clouds 19 1022 34 10000 5.1 140 08:22 29.06.2019
5705 Clouds 19 1022 37 10000 5.1 160 07:44 29.06.2019
5706 Clouds 19 1023 39 10000 5.1 150 06:47 29.06.2019
5707 Clouds 19 1023 39 10000 5.1 150 06:24 29.06.2019
5708 Clouds 19 1023 39 10000 5.1 150 06:24 29.06.2019
5709 Clouds 14 1025 54 10000 3.6 180 02:51 29.06.2019
5710 Clear 11 1024 50 10000 3.1 260 01:22 29.06.2019
5711 Clear 10 1024 53 10000 2.6 250 00:29 29.06.2019
5712 Clear 12 1023 46 10000 4.1 190 23:36 28.06.2019
5713 Clear 11 1022 37 10000 4.6 200 23:18 28.06.2019
5714 Clear 8 1021 49 10000 5.7 210 22:44 28.06.2019
5715 Clear 8 1020 45 10000 2.6 340 21:53 28.06.2019
5716 Clear 8 1020 45 10000 2.6 340 21:26 28.06.2019
5717 Clear 8 1020 42 10000 2.1 330 20:49 28.06.2019
5718 Clear 8 1020 42 10000 2.1 330 20:29 28.06.2019
5719 Clear 8 1020 42 10000 1.5 240 19:57 28.06.2019
5720 Clear 9 1020 42 10000 2.6 250 19:37 28.06.2019
5721 Clear 11 1020 37 10000 2.1 290 19:18 28.06.2019
5722 Clear 12 1020 34 10000 2.6 310 18:40 28.06.2019
5723 Clear 11 1020 37 10000 2.1 300 18:20 28.06.2019
5724 Clear 10 1020 39 10000 2.6 280 17:33 28.06.2019
5725 Clear 10 1020 39 10000 2.1 310 16:54 28.06.2019
5726 Clear 10 1020 39 10000 2.1 330 16:29 28.06.2019
5727 Clear 12 1020 34 10000 2.1 300 15:49 28.06.2019
5728 Clear 12 1020 34 10000 2.1 300 15:26 28.06.2019
5729 Clear 14 1020 33 10000 2.6 330 14:57 28.06.2019
5730 Clear 14 1020 30 10000 2.6 340 14:38 28.06.2019
5731 Clear 14 1020 33 10000 2.1 340 14:20 28.06.2019
5732 Clear 13 1020 32 10000 2.6 330 13:44 28.06.2019
5733 Clear 15 1020 28 10000 2.1 290 13:22 28.06.2019
5734 Clear 17 1019 27 10000 2.1 320 12:49 28.06.2019
5735 Clear 17 1019 27 10000 2.1 320 12:24 28.06.2019
5736 Clear 19 1019 22 10000 3.1 330 11:28 28.06.2019
5737 Clear 23 1018 17 10000 4.1 290 10:47 28.06.2019
5738 Clear 24 1017 16 10000 3.6 300 10:23 28.06.2019
5739 Clear 24 1017 16 10000 4.1 300 09:49 28.06.2019
5740 Clear 24 1017 16 10000 4.1 300 09:31 28.06.2019
5741 Clear 24 1017 17 10000 3.6 310 08:50 28.06.2019
5742 Clear 24 1017 17 10000 3.6 310 08:27 28.06.2019
5743 Clear 24 1017 17 10000 3.6 280 07:58 28.06.2019
5744 Clear 23 1018 18 10000 4.6 320 07:40 28.06.2019
5745 Clear 23 1018 20 10000 2.6 290 06:33 28.06.2019
5746 Clear 14 1022 32 10000 3.97 10.925 02:26 28.06.2019
5747 Clear 3 1021 59 10000 2.1 270 00:44 28.06.2019
5748 Clear 3 1020 59 10000 2.1 280 23:57 27.06.2019
5749 Clear 3 1020 59 10000 2.1 280 23:57 27.06.2019
5750 Clear 4 1020 55 10000 2.6 280 23:39 27.06.2019
5751 Clear 4 1020 60 10000 2.1 280 23:20 27.06.2019
5752 Clear 4 1020 55 10000 2.1 300 22:41 27.06.2019
5753 Clear 4 1020 55 10000 2.1 300 22:23 27.06.2019
5754 Clear 4 1020 55 10000 2.6 270 21:49 27.06.2019
5755 Clear 4 1020 55 10000 2.6 270 21:31 27.06.2019
5756 Clouds 4 1020 55 10000 2.6 270 20:58 27.06.2019
5757 Clouds 5 1020 56 10000 2.1 300 20:40 27.06.2019
5758 Clouds 5 1020 56 10000 2.1 330 20:21 27.06.2019
5759 Clouds 6 1021 52 10000 2.1 310 19:44 27.06.2019
5760 Clouds 5 1021 52 10000 2.1 300 19:25 27.06.2019
5761 Clouds 6 1021 48 10000 2.1 300 18:43 27.06.2019
5762 Clouds 6 1021 48 10000 2.1 300 18:43 27.06.2019
5763 Clouds 6 1022 52 10000 2.1 300 18:22 27.06.2019
5764 Clouds 6 1022 52 10000 2.6 300 17:45 27.06.2019
5765 Clouds 6 1022 52 10000 2.6 310 17:22 27.06.2019
5766 Clouds 8 1022 45 10000 2.1 360 16:41 27.06.2019
5767 Clouds 8 1022 49 10000 3.92 54.891 16:20 27.06.2019
5768 Clouds 8 1022 49 10000 3.92 54.891 15:58 27.06.2019
5769 Clouds 8 1022 45 10000 3.92 54.891 15:40 27.06.2019
5770 Clouds 9 1022 42 10000 4.09 80.812 14:59 27.06.2019
5771 Clouds 10 1022 39 10000 4.09 80.812 14:39 27.06.2019
5772 Clouds 11 1021 37 10000 4.09 80.812 14:21 27.06.2019
5773 Clouds 10 1021 37 10000 4.09 80.812 13:43 27.06.2019
5774 Clouds 10 1021 37 10000 4.1 76.421 13:25 27.06.2019
5775 Clouds 14 1020 28 10000 3.1 100 12:49 27.06.2019
5776 Clouds 14 1020 28 10000 3.1 100 12:31 27.06.2019
5777 Clouds 16 1020 26 10000 3.6 130 11:48 27.06.2019
5778 Clouds 18 1020 25 10000 3.1 130 11:24 27.06.2019
5779 Clouds 18 1020 25 10000 3.1 130 10:58 27.06.2019
5780 Clouds 20 1020 24 10000 3.6 120 10:40 27.06.2019
5781 Clouds 20 1019 22 10000 3.1 110 10:19 27.06.2019
5782 Clouds 20 1019 24 10000 3.1 70 09:41 27.06.2019
5783 Clouds 21 1019 22 10000 3.1 110 09:20 27.06.2019
5784 Clouds 21 1019 20 10000 1.5 70 08:50 27.06.2019
5785 Clouds 21 1019 20 10000 1.5 70 08:28 27.06.2019
5786 Clouds 20 1020 24 10000 1.5 300 07:46 27.06.2019
5787 Clouds 20 1020 20 10000 2.1 180 06:58 27.06.2019
5788 Clouds 20 1021 20 10000 2.1 30 06:32 27.06.2019
5789 Clear 15 1025 44 10000 2.6 90 03:51 27.06.2019
5790 Clear 12 1025 37 10000 3.18 42.771 02:42 27.06.2019
5791 Clouds 6 1025 45 10000 2.1 250 01:29 27.06.2019
5792 Clouds 1 1024 59 10000 2.6 290 00:50 27.06.2019
5793 Clear 1 1024 59 10000 2.6 290 00:26 27.06.2019
5794 Clear 1 1024 59 10000 2.6 290 00:26 27.06.2019
5795 Clear 2 1023 59 10000 2.1 310 23:50 26.06.2019
5796 Clear 2 1023 59 10000 2.1 310 23:23 26.06.2019
5797 Clear 3 1023 55 10000 2.1 320 22:57 26.06.2019
5798 Clear 2 1023 55 10000 2.1 300 22:39 26.06.2019
5799 Clear 2 1023 55 10000 2.1 290 22:19 26.06.2019
5800 Clear 3 1023 51 10000 2.6 290 21:42 26.06.2019
5801 Clear 2 1023 51 10000 2.6 290 21:20 26.06.2019
5802 Clear 2 1023 51 10000 2.6 290 20:56 26.06.2019
5803 Clear 3 1023 47 10000 2.1 270 20:37 26.06.2019
5804 Clear 3 1023 47 10000 2.1 290 20:18 26.06.2019
5805 Clear 4 1023 48 10000 2.1 330 19:41 26.06.2019
5806 Clear 4 1023 44 10000 2.1 290 19:22 26.06.2019
5807 Clear 4 1024 44 10000 2.6 260 18:45 26.06.2019
5808 Clear 4 1024 41 10000 2.6 250 18:22 26.06.2019
5809 Clear 4 1024 41 10000 2.6 250 17:57 26.06.2019
5810 Clear 4 1024 41 10000 1.5 70 17:27 26.06.2019
5811 Clear 4 1024 41 10000 1.5 70 16:53 26.06.2019
5812 Clear 4 1024 41 10000 1.5 70 16:30 26.06.2019
5813 Clear 5 1024 38 10000 1.5 70 15:58 26.06.2019
5814 Clear 7 1024 36 10000 1.5 60 15:30 26.06.2019
5815 Clear 7 1024 33 10000 1.5 60 14:58 26.06.2019
5816 -273 0 0 0 0 0 14:37 26.06.2019
5817 Clear 9 1024 29 10000 2.1 70 14:19 26.06.2019
5818 Clear 10 1024 27 10000 2.6 110 13:39 26.06.2019
5819 Clear 11 1024 25 10000 3.1 130 13:19 26.06.2019
5820 Clear 10 1023 25 10000 3.1 130 12:40 26.06.2019
5821 Clear 13 1023 22 10000 3.6 110 12:21 26.06.2019
5822 Clear 14 1023 20 10000 3.1 130 11:42 26.06.2019
5823 Clear 14 1023 20 10000 3.1 130 11:42 26.06.2019
5824 Clear 16 1022 18 10000 3.6 120 11:19 26.06.2019
5825 Clear 18 1022 16 10000 5.1 120 10:39 26.06.2019
5826 Clear 18 1022 18 10000 5.7 100 10:21 26.06.2019
5827 Clear 19 1022 19 10000 5.1 100 09:36 26.06.2019
5828 Clear 19 1022 19 10000 5.7 90 09:18 26.06.2019
5829 Clear 19 1022 20 10000 4.1 120 08:38 26.06.2019
5830 Clear 19 1023 20 10000 5.1 120 08:19 26.06.2019
5831 Clear 19 1023 20 10000 4.1 130 07:41 26.06.2019
5832 Clear 18 1024 22 10000 4.1 110 06:33 26.06.2019
5833 Clear 15 1027 26 10000 6.2 60 03:34 26.06.2019
5834 Clear 1 1026 50 10000 2.6 280 00:41 26.06.2019
5835 Clear 1 1026 47 10000 2.6 280 00:18 26.06.2019
5836 Clear 2 1026 47 10000 2.6 280 23:39 25.06.2019
5837 Clear 2 1026 47 10000 2.6 280 23:20 25.06.2019
5838 Clear 2 1026 47 10000 2.6 280 22:42 25.06.2019
5839 Clear 2 1026 47 10000 2.6 280 22:23 25.06.2019
5840 Clear 2 1025 47 10000 2.6 290 21:47 25.06.2019
5841 Clear 2 1025 47 10000 2.6 290 21:27 25.06.2019
5842 -273 0 0 0 0 0 20:57 25.06.2019
5843 Clear 3 1026 44 10000 2.6 300 20:36 25.06.2019
5844 Clear 4 1026 41 10000 2.6 280 20:18 25.06.2019
5845 Clear 4 1026 41 10000 2.1 260 19:43 25.06.2019
5846 Clear 4 1026 41 10000 3.1 270 19:21 25.06.2019
5847 Clear 4 1026 41 10000 3.1 260 18:42 25.06.2019
5848 Clear 5 1026 38 10000 2.1 240 18:24 25.06.2019
5849 -273 0 0 0 0 0 17:46 25.06.2019
5850 -273 0 0 0 0 0 17:27 25.06.2019
5851 -273 0 0 0 0 0 17:27 25.06.2019
5852 -273 0 0 0 0 0 17:27 25.06.2019
5853 -273 0 0 0 0 0 17:27 25.06.2019
5854 Clear 5 1026 35 10000 0.5 90 16:45 25.06.2019
5855 Clear 5 1026 35 10000 0.5 90 16:26 25.06.2019
5856 Clear 6 1026 33 10000 3.36 82.905 15:59 25.06.2019
5857 Clear 8 1026 31 10000 0.5 80 15:39 25.06.2019
5858 Clear 7 1026 30 10000 4.4 87.696 15:20 25.06.2019
5859 Clear 8 1026 31 10000 1.5 80 14:45 25.06.2019
5860 Clear 8 1026 31 10000 1.5 80 14:26 25.06.2019
5861 Clear 10 1026 27 10000 2.6 120 13:42 25.06.2019
5862 Clear 11 1026 25 10000 3.1 140 13:23 25.06.2019
5863 Clear 12 1026 23 10000 3.1 140 12:42 25.06.2019
5864 Clear 12 1026 23 10000 3.1 140 12:24 25.06.2019
5865 Clear 13 1026 22 10000 3.1 140 12:24 25.06.2019
5866 Clear 15 1025 19 10000 3.6 120 11:44 25.06.2019
5867 Clear 15 1025 19 10000 3.6 120 11:23 25.06.2019
5868 Clear 15 1025 19 10000 3.6 120 11:23 25.06.2019
5869 Clear 17 1025 17 10000 4.1 110 10:56 25.06.2019
5870 Clear 18 1025 15 10000 5.1 110 10:36 25.06.2019
5871 Clear 19 1025 14 10000 5.7 120 10:18 25.06.2019
5872 Clear 19 1025 14 10000 6.2 110 09:39 25.06.2019
5873 Clear 20 1024 11 10000 5.1 120 09:21 25.06.2019
5874 Clear 20 1024 13 10000 5.1 120 08:51 25.06.2019
5875 Clear 20 1024 13 10000 5.1 120 08:30 25.06.2019
5876 Clear 20 1024 13 10000 3.6 90 07:43 25.06.2019
5877 Clear 19 1025 15 10000 5.1 90 07:23 25.06.2019
5878 Clear 18 1025 16 10000 3.6 140 06:42 25.06.2019
5879 Clear 15 1026 22 10000 3.6 110 04:31 25.06.2019
5880 Clear 10 1027 31 10000 3.2 64.995 02:37 25.06.2019
5881 Clear 2 1026 51 10000 1.5 300 00:38 25.06.2019
5882 Clear 1 1026 55 10000 0.5 300 00:19 25.06.2019
5883 Clear 2 1026 51 10000 1.5 300 23:48 24.06.2019
5884 Clear 2 1026 51 10000 1.5 300 23:30 24.06.2019
5885 Clear 3 1025 51 10000 2.1 320 22:45 24.06.2019
5886 Clear 2 1025 51 10000 2.1 270 22:19 24.06.2019
5887 Clear 3 1025 47 10000 2.1 270 21:43 24.06.2019
5888 Clear 3 1025 47 10000 2.1 280 21:20 24.06.2019
5889 Clear 3 1025 47 10000 2.1 280 21:20 24.06.2019
5890 Clear 3 1025 47 10000 2.1 280 20:59 24.06.2019
5891 Clear 3 1025 47 10000 2.1 260 20:40 24.06.2019
5892 Clear 3 1025 44 10000 1.5 240 20:22 24.06.2019
5893 Clear 4 1025 48 10000 3.1 250 19:47 24.06.2019
5894 Clear 4 1025 44 10000 2.1 270 19:25 24.06.2019
5895 Clear 4 1025 44 10000 2.1 270 18:54 24.06.2019
5896 Clear 5 1025 41 10000 3.35 57.016 18:30 24.06.2019
5897 Clear 5 1025 41 10000 3.74 61.136 17:58 24.06.2019
5898 Clear 5 1026 41 10000 1 190 17:36 24.06.2019
5899 Clear 5 1026 41 10000 0.5 170 16:56 24.06.2019
5900 Clear 6 1025 38 10000 3.74 61.136 16:37 24.06.2019
5901 Clear 7 1026 33 10000 3.74 61.136 16:18 24.06.2019
5902 Clear 7 1026 36 10000 2.6 170 15:39 24.06.2019
5903 Clear 7 1026 33 10000 1.5 80 15:20 24.06.2019
5904 Clear 9 1026 31 10000 1.5 70 14:34 24.06.2019
5905 Clear 10 1025 29 10000 2.1 50 13:54 24.06.2019
5906 Clear 10 1025 29 10000 2.1 50 13:54 24.06.2019
5907 Clear 11 1026 27 10000 3.1 110 13:31 24.06.2019
5908 Clear 11 1026 27 10000 3.1 110 13:31 24.06.2019
5909 Clear 11 1025 27 10000 3.1 130 12:45 24.06.2019
5910 Clear 12 1025 25 10000 3.1 130 12:22 24.06.2019
5911 Clear 12 1025 25 10000 3.1 130 11:58 24.06.2019
5912 Clear 12 1025 25 10000 3.1 130 11:58 24.06.2019
5913 Clear 13 1024 24 10000 3.1 70 11:40 24.06.2019
5914 Clear 15 1024 21 10000 3.1 80 11:20 24.06.2019
5915 Clear 17 1024 18 10000 3.1 90 10:46 24.06.2019
5916 Clear 17 1024 17 10000 3.6 100 10:25 24.06.2019
5917 Clear 17 1023 17 10000 4.1 90 09:49 24.06.2019
5918 Clear 17 1023 17 10000 4.1 100 09:22 24.06.2019
5919 Clear 17 1023 17 10000 4.1 90 08:51 24.06.2019
5920 Clear 17 1023 17 10000 4.1 90 08:25 24.06.2019
5921 Clear 17 1023 17 10000 4.1 90 08:25 24.06.2019
5922 Clear 16 1023 19 10000 4.1 90 07:44 24.06.2019
5923 Clear 16 1023 19 10000 4.1 90 07:25 24.06.2019
5924 Clear 16 1024 23 10000 4.1 80 06:31 24.06.2019
5925 Clear 14 1025 26 10000 4.1 80 05:57 24.06.2019
5926 Clear 13 1026 28 10000 3.6 70 04:59 24.06.2019
5927 Clear 12 1026 30 10000 3.6 70 04:21 24.06.2019
5928 Clear 10 1026 34 10000 6.2 90 02:53 24.06.2019
5929 Clear 8 1026 42 10000 6.2 80 01:58 24.06.2019
5930 Clear 7 1026 42 10000 4.1 80 01:40 24.06.2019
5931 Clear 2 1025 55 10000 2.1 10 01:21 24.06.2019
5932 Clear -1 1026 58 10000 0.5 190 00:38 24.06.2019
5933 Clear 0 1025 49 10000 3.76 77.638 00:18 24.06.2019
5934 Clear 1 1025 55 10000 3.76 77.638 23:42 23.06.2019
5935 Clear -1 1025 58 10000 3.76 77.638 23:21 23.06.2019
5936 Clear -1 1025 58 10000 3.76 77.638 22:42 23.06.2019
5937 Clear 0 1024 49 10000 3.76 77.638 22:20 23.06.2019
5938 Clear 0 1024 49 10000 3.76 77.638 21:44 23.06.2019
5939 Clear 0 1024 46 10000 3.61 73.17 21:25 23.06.2019
5940 Clear 0 1024 46 10000 3.61 73.17 20:57 23.06.2019
5941 Clear 0 1024 46 10000 3.52 79.048 20:38 23.06.2019
5942 Clear 1 1024 55 10000 3.52 79.048 20:19 23.06.2019
5943 Clear 1 1024 55 10000 3.52 79.048 19:43 23.06.2019
5944 Clear 1 1024 55 10000 3.52 79.048 19:20 23.06.2019
5945 Clear 1 1024 55 10000 3.52 79.048 19:20 23.06.2019
5946 Clear 1 1025 55 10000 3.52 79.048 18:47 23.06.2019
5947 Clear 2 1025 51 10000 3.79 75.487 18:20 23.06.2019
5948 Clear 3 1025 47 10000 2.1 280 17:45 23.06.2019
5949 Clear 3 1025 47 10000 2.1 280 17:25 23.06.2019
5950 Clear 3 1025 51 10000 3.79 75.487 16:47 23.06.2019
5951 Clear 4 1025 44 10000 1 130 16:26 23.06.2019
5952 Clear 4 1025 44 10000 1 130 15:58 23.06.2019
5953 Clear 5 1025 44 10000 3.79 75.487 15:37 23.06.2019
5954 Clear 5 1025 41 10000 4.13 84.906 15:18 23.06.2019
5955 Clear 5 1025 41 10000 4.13 84.906 14:39 23.06.2019
5956 Clear 8 1025 36 10000 1.5 90 14:21 23.06.2019
5957 Clear 8 1024 33 10000 3.1 110 13:46 23.06.2019
5958 Clear 9 1024 34 10000 3.1 110 13:21 23.06.2019
5959 Clear 9 1024 34 10000 3.1 110 12:59 23.06.2019
5960 Clear 10 1024 31 10000 3.1 110 12:40 23.06.2019
5961 Clear 11 1024 29 10000 3.6 110 12:19 23.06.2019
5962 Clear 11 1024 29 10000 3.6 110 12:19 23.06.2019
5963 Clear 12 1023 27 10000 3.1 120 11:46 23.06.2019
5964 Clear 13 1023 26 10000 4.1 120 11:27 23.06.2019
5965 Clear 15 1023 21 10000 4.6 110 10:49 23.06.2019
5966 Clear 16 1022 21 10000 5.1 110 10:21 23.06.2019
5967 Clear 16 1022 21 10000 5.1 110 09:58 23.06.2019
5968 Clear 16 1022 19 10000 4.6 100 09:22 23.06.2019
5969 Clear 17 1022 20 10000 5.7 90 08:47 23.06.2019
5970 Clear 16 1023 21 10000 4.6 90 08:28 23.06.2019
5971 Clear 15 1023 22 10000 4.6 90 07:57 23.06.2019
5972 Clear 15 1023 22 10000 4.6 90 07:39 23.06.2019
5973 Clear 16 1023 23 10000 5.7 110 07:18 23.06.2019
5974 Clear 14 1024 28 10000 5.1 110 06:46 23.06.2019
5975 Clear 13 1025 32 10000 5.1 70 05:42 23.06.2019
5976 Clear 9 1026 42 10000 5.7 70 02:32 23.06.2019
5977 Clear 4 1025 48 10000 5.57 89.702 01:39 23.06.2019
5978 Clear 1 1025 55 10000 1.5 270 00:58 23.06.2019
5979 Clear -1 1025 58 10000 2.6 260 00:27 23.06.2019
5980 Clear -1 1025 58 10000 2.1 220 23:43 22.06.2019
5981 Clear -1 1025 58 10000 2.1 220 23:25 22.06.2019
5982 Clear -1 1024 54 10000 2.1 250 22:46 22.06.2019
5983 Clear -1 1024 54 10000 2.1 250 22:25 22.06.2019
5984 Clear 0 1024 53 10000 2.1 250 21:43 22.06.2019
5985 Clear 0 1024 47 10000 2.1 260 21:20 22.06.2019
5986 Clear 0 1024 47 10000 2.1 260 20:56 22.06.2019
5987 Clear 0 1024 48 10000 1.5 240 20:38 22.06.2019
5988 Clear 0 1024 48 10000 1 240 20:19 22.06.2019
5989 Clear 0 1024 48 10000 1 230 19:40 22.06.2019
5990 Clear 0 1024 48 10000 1.5 210 19:19 22.06.2019
5991 Clear 1 1025 47 10000 2.1 210 18:42 22.06.2019
5992 Clear 2 1025 47 10000 4 94.628 18:22 22.06.2019
5993 Clear 2 1025 43 10000 4 94.628 17:43 22.06.2019
5994 Clear 2 1025 43 10000 4 94.628 17:25 22.06.2019
5995 Clear 3 1025 44 10000 4 94.628 16:42 22.06.2019
5996 Clear 3 1025 44 10000 1.5 90 16:22 22.06.2019
5997 Clear 4 1025 38 10000 2.6 90 15:43 22.06.2019
5998 Clear 4 1025 38 10000 2.6 90 15:25 22.06.2019
5999 Clear 6 1024 35 10000 2.6 90 14:51 22.06.2019
6000 Clear 6 1024 35 10000 2.6 90 14:31 22.06.2019
6001 Clear 7 1024 33 10000 2.6 120 13:56 22.06.2019
6002 Clear 7 1024 33 10000 3.1 130 13:38 22.06.2019
6003 Clear 7 1024 33 10000 3.1 130 13:38 22.06.2019
6004 Clear 8 1024 31 10000 2.6 120 13:18 22.06.2019
6005 Clear 9 1024 29 10000 3.1 120 12:42 22.06.2019
6006 Clear 10 1023 27 10000 2.6 120 12:18 22.06.2019
6007 Clear 11 1023 25 10000 3.1 110 11:40 22.06.2019
6008 Clear 13 1023 22 10000 3.6 80 10:58 22.06.2019
6009 Clear 15 1023 19 10000 4.6 100 10:22 22.06.2019
6010 Clear 15 1023 19 10000 4.6 100 09:56 22.06.2019
6011 Clear 16 1022 18 10000 4.6 80 09:28 22.06.2019
6012 Clear 15 1022 19 10000 4.6 90 08:46 22.06.2019
6013 Clear 15 1022 19 10000 4.6 90 08:28 22.06.2019
6014 Clear 15 1023 19 10000 5.7 70 07:44 22.06.2019
6015 Clear 15 1023 19 10000 5.1 100 07:18 22.06.2019
6016 Clear 14 1023 22 10000 5.7 80 06:33 22.06.2019
6017 Clear 9 1027 36 10000 6.2 70 03:21 22.06.2019
6018 Clear 7 1026 45 10000 4.6 90 02:18 22.06.2019
6019 Clear -2 1025 63 10000 1.5 170 00:47 22.06.2019
6020 Clear -3 1025 68 10000 3.55 76.738 00:23 22.06.2019
6021 Clear -3 1025 68 10000 3.55 76.738 23:49 21.06.2019
6022 Clear -1 1025 58 10000 1.5 180 23:22 21.06.2019
6023 Clear -1 1025 58 10000 1.5 180 22:54 21.06.2019
6024 Clear -2 1025 68 10000 1.5 330 22:27 21.06.2019
6025 Clear -2 1025 68 10000 2.1 350 21:56 21.06.2019
6026 Clear -1 1025 58 10000 2.1 180 21:37 21.06.2019
6027 Clear -2 1025 63 10000 2.6 180 21:19 21.06.2019
6028 Clear -1 1025 58 10000 2.1 210 20:47 21.06.2019
6029 Clear -1 1025 58 10000 1.5 290 20:22 21.06.2019
6030 Clear 0 1024 44 10000 4.26 87.244 19:38 21.06.2019
6031 Clear 2 1025 51 10000 2.1 40 18:55 21.06.2019
6032 Clear 2 1025 51 10000 2.1 40 18:34 21.06.2019
6033 Clear 4 1025 51 10000 2.1 30 17:48 21.06.2019
6034 Clear 4 1025 51 10000 2.1 30 17:30 21.06.2019
6035 Clear 2 1025 51 10000 2.1 130 16:42 21.06.2019
6036 Clear 3 1025 51 10000 2.6 80 16:23 21.06.2019
6037 Clear 5 1025 44 10000 1.5 90 15:45 21.06.2019
6038 Clear 6 1025 41 10000 2.1 100 15:24 21.06.2019
6039 Clear 6 1025 41 10000 2.1 100 14:53 21.06.2019
6040 Clear 6 1025 41 10000 3.1 120 14:31 21.06.2019
6041 Clear 7 1026 39 10000 3.1 120 13:58 21.06.2019
6042 Clear 7 1025 39 10000 3.1 130 13:36 21.06.2019
6043 Clear 7 1025 39 10000 3.1 130 13:18 21.06.2019
6044 Clear 9 1025 34 10000 3.1 130 12:40 21.06.2019
6045 Clear 10 1025 31 10000 3.6 130 12:18 21.06.2019
6046 Clear 11 1024 29 10000 3.6 120 11:47 21.06.2019
6047 Clear 13 1024 26 10000 4.1 130 11:26 21.06.2019
6048 Clear 14 1024 24 10000 4.1 100 10:51 21.06.2019
6049 Clear 15 1024 22 10000 4.1 70 10:22 21.06.2019
6050 Clear 15 1024 22 10000 4.1 70 09:59 21.06.2019
6051 Clear 15 1024 22 10000 3.6 110 09:40 21.06.2019
6052 Clear 15 1024 22 10000 4.6 110 09:19 21.06.2019
6053 Clear 15 1024 22 10000 5.1 90 08:43 21.06.2019
6054 Clear 16 1024 21 10000 4.6 80 08:23 21.06.2019
6055 Clear 15 1024 22 10000 4.1 70 07:51 21.06.2019
6056 Clear 15 1024 22 10000 4.1 70 07:30 21.06.2019
6057 Clear 14 1024 26 10000 6.2 90 06:54 21.06.2019
6058 Clear 14 1024 28 10000 4.6 80 06:21 21.06.2019
6059 Clear 13 1025 30 10000 6.2 80 05:26 21.06.2019
6060 Clear 11 1027 37 10000 5.7 70 04:29 21.06.2019
6061 Clear 10 1027 43 10000 7.2 80 03:34 21.06.2019
6062 Clear 9 1027 45 10000 5.7 80 02:52 21.06.2019
6063 Clear 3 1027 69 10000 5.74 85.585 01:49 21.06.2019
6064 Clear 1 1026 69 10000 5.64 88.912 00:55 21.06.2019
6065 Clear -1 1026 80 10000 0.5 230 00:22 21.06.2019
6066 Clear -1 1026 80 10000 0.5 230 00:22 21.06.2019
6067 Clear -1 1026 80 10000 2.1 250 23:47 20.06.2019
6068 Clear -1 1025 80 10000 1.5 240 23:22 20.06.2019
6069 Clear -1 1025 80 10000 1.5 240 22:56 20.06.2019
6070 Clear -1 1025 80 10000 1.5 220 22:38 20.06.2019
6071 Clear 0 1025 64 10000 3.41 78.822 22:19 20.06.2019
6072 Clear 0 1025 64 10000 2.1 350 21:44 20.06.2019
6073 Clear 1 1025 69 10000 3.11 95.857 21:19 20.06.2019
6074 Clear 1 1025 74 10000 3.36 102.055 20:47 20.06.2019
6075 Clear 1 1025 74 10000 3.36 102.055 20:26 20.06.2019
6076 Clear 2 1025 69 10000 0.5 260 19:58 20.06.2019
6077 Clear 1 1025 69 10000 3.36 102.055 19:39 20.06.2019
6078 Clear 2 1025 69 10000 3.36 102.055 19:18 20.06.2019
6079 Clear 1 1025 64 10000 3.36 102.055 18:43 20.06.2019
6080 Clear 3 1025 64 10000 1.5 100 18:23 20.06.2019
6081 Clear 3 1025 64 10000 2.1 100 17:53 20.06.2019
6082 Clear 3 1025 64 10000 2.1 100 17:35 20.06.2019
6083 Clear 4 1026 64 10000 2.1 150 16:56 20.06.2019
6084 Clear 4 1026 64 10000 0.5 110 16:37 20.06.2019
6085 Clear 4 1026 55 10000 1 110 16:18 20.06.2019
6086 Clear 4 1026 55 10000 1 110 16:18 20.06.2019
6087 Clear 5 1026 56 10000 1.5 110 15:41 20.06.2019
6088 Clear 6 1026 48 10000 1.5 130 15:22 20.06.2019
6089 Clear 6 1026 52 10000 2.1 130 14:46 20.06.2019
6090 Clear 7 1025 52 10000 3.1 130 14:23 20.06.2019
6091 Clear 7 1025 52 10000 3.1 130 14:23 20.06.2019
6092 Clear 8 1025 49 10000 3.1 120 13:41 20.06.2019
6093 Clear 8 1025 49 10000 2.6 130 13:21 20.06.2019
6094 Clear 9 1024 45 10000 3.1 140 12:50 20.06.2019
6095 Clear 10 1024 39 10000 3.1 150 12:25 20.06.2019
6096 Clear 10 1024 39 10000 3.1 150 11:55 20.06.2019
6097 Clear 10 1024 39 10000 3.1 150 11:55 20.06.2019
6098 Clear 12 1024 34 10000 3.1 130 11:37 20.06.2019
6099 Clear 13 1024 35 10000 3.6 120 11:18 20.06.2019
6100 Clear 15 1023 28 10000 4.1 110 10:41 20.06.2019
6101 Clear 15 1023 28 10000 4.1 130 10:21 20.06.2019
6102 Clear 15 1023 28 10000 5.1 100 09:40 20.06.2019
6103 Clear 15 1023 28 10000 4.1 130 09:22 20.06.2019
6104 Clear 16 1023 29 10000 4.6 120 08:46 20.06.2019
6105 Clear 16 1023 29 10000 4.6 120 08:27 20.06.2019
6106 Clear 16 1023 29 10000 4.6 120 08:27 20.06.2019
6107 Clear 15 1023 30 10000 4.1 100 07:54 20.06.2019
6108 Clear 15 1023 30 10000 4.1 100 07:30 20.06.2019
6109 Clear 15 1024 33 10000 3.1 140 06:30 20.06.2019
6110 Clear 13 1025 29 10000 5.7 70 05:41 20.06.2019
6111 Clear 11 1027 29 10000 4.6 90 03:32 20.06.2019
6112 Clear 1 1026 80 10000 2.1 290 00:34 20.06.2019
6113 Clear 0 1025 71 10000 2.6 300 23:58 19.06.2019
6114 Clear 0 1025 71 10000 2.6 290 23:39 19.06.2019
6115 Clear 1 1024 74 10000 2.1 300 23:21 19.06.2019
6116 Clear 1 1024 80 10000 2.1 330 22:47 19.06.2019
6117 Clear 1 1024 80 10000 2.1 330 22:47 19.06.2019
6118 Clear 1 1024 74 10000 1.5 230 22:18 19.06.2019
6119 Clear 1 1024 74 10000 1.5 220 21:46 19.06.2019
6120 Clear 1 1024 74 10000 1.5 220 21:25 19.06.2019
6121 Clear 2 1024 69 10000 2.1 150 20:56 19.06.2019
6122 Clear 2 1024 74 10000 3.15 94.294 20:37 19.06.2019
6123 Clear 2 1024 74 10000 3.15 94.294 20:37 19.06.2019
6124 Clear 2 1024 74 10000 3.15 94.294 20:19 19.06.2019
6125 Clear 2 1024 74 10000 2.1 350 19:41 19.06.2019
6126 Clear 3 1024 74 10000 2.1 310 19:20 19.06.2019
6127 Clear 3 1024 69 10000 2.1 290 18:48 19.06.2019
6128 Clear 4 1024 64 10000 3.49 97.347 18:21 19.06.2019
6129 Clear 4 1024 69 10000 3.49 97.347 17:38 19.06.2019
6130 Clear 5 1024 65 10000 3.49 97.347 17:18 19.06.2019
6131 Clear 6 1024 60 10000 1.5 350 16:40 19.06.2019
6132 Clear 6 1024 60 10000 1 30 16:21 19.06.2019
6133 Clear 6 1024 60 10000 1 30 15:54 19.06.2019
6134 Clear 6 1024 60 10000 2.1 20 15:28 19.06.2019
6135 Clear 8 1024 56 10000 2.6 130 14:57 19.06.2019
6136 Clear 8 1024 56 10000 2.6 130 14:57 19.06.2019
6137 Clear 8 1024 56 10000 3.1 130 14:38 19.06.2019
6138 Clear 9 1024 56 10000 3.1 130 14:20 19.06.2019
6139 Clear 9 1024 56 10000 3.1 150 13:43 19.06.2019
6140 Clear 10 1024 56 10000 3.6 140 13:24 19.06.2019
6141 Clear 11 1023 56 10000 3.6 140 12:44 19.06.2019
6142 Clear 11 1023 47 10000 3.6 150 12:22 19.06.2019
6143 Clear 13 1023 47 10000 3.1 150 11:56 19.06.2019
6144 Clear 13 1023 47 10000 3.1 150 11:37 19.06.2019
6145 Clear 14 1023 47 10000 4.6 140 11:19 19.06.2019
6146 Clear 15 1022 33 10000 4.6 140 10:43 19.06.2019
6147 Clear 15 1022 33 10000 4.6 140 10:43 19.06.2019
6148 Clear 16 1022 31 10000 4.1 130 10:24 19.06.2019
6149 Clear 16 1022 31 10000 4.1 120 09:42 19.06.2019
6150 Clear 16 1022 31 10000 4.6 130 09:21 19.06.2019
6151 Clear 17 1022 29 10000 3.6 150 08:50 19.06.2019
6152 Clear 17 1022 29 10000 3.6 150 08:29 19.06.2019
6153 Clear 16 1022 35 10000 4.6 130 07:48 19.06.2019
6154 Clear 16 1022 35 10000 4.6 130 07:29 19.06.2019
6155 Clear 15 1022 35 10000 5.1 150 06:55 19.06.2019
6156 Clear 15 1023 35 10000 3.6 110 06:30 19.06.2019
6157 Clear 15 1024 38 10000 4.6 90 05:50 19.06.2019
6158 Clear 14 1025 41 10000 5.7 80 04:41 19.06.2019
6159 Clear 13 1025 47 10000 6.7 90 03:36 19.06.2019
6160 Clear 10 1025 57 10000 5.98 94.403 02:28 19.06.2019
6161 Clear 7 1025 65 10000 6.27 89.068 01:27 19.06.2019
6162 Clear 3 1024 60 10000 2.1 330 00:43 19.06.2019
6163 Clear 3 1024 74 10000 2.1 260 00:20 19.06.2019
6164 Clear 4 1024 74 10000 2.6 250 23:53 18.06.2019
6165 Clear 4 1024 74 10000 2.6 250 23:28 18.06.2019
6166 Clear 4 1024 74 10000 2.1 290 22:49 18.06.2019
6167 Clear 4 1024 74 10000 2.1 290 22:25 18.06.2019
6168 Clear 4 1023 74 10000 2.6 290 21:58 18.06.2019
6169 Clear 5 1023 74 10000 1.5 330 21:39 18.06.2019
6170 Clear 5 1024 69 10000 2.1 330 21:21 18.06.2019
6171 Clear 4 1024 69 10000 1.5 310 20:44 18.06.2019
6172 Clear 4 1024 69 10000 1.5 310 20:25 18.06.2019
6173 Clear 5 1024 69 10000 2.1 320 19:47 18.06.2019
6174 Clear 5 1024 69 10000 2.1 320 19:25 18.06.2019
6175 Clear 5 1024 69 10000 1 250 18:59 18.06.2019
6176 Clear 5 1024 65 10000 0.5 210 18:39 18.06.2019
6177 Clear 6 1024 60 10000 3.93 111.344 18:21 18.06.2019
6178 Clear 6 1024 60 10000 1.5 360 17:39 18.06.2019
6179 Clear 8 1024 61 10000 2.6 350 17:20 18.06.2019
6180 Clear 9 1024 57 10000 2.1 150 16:46 18.06.2019
6181 -273 0 0 0 0 0 16:27 18.06.2019
6182 Clear 8 1024 60 10000 2.6 150 15:55 18.06.2019
6183 Clear 8 1024 60 10000 2.6 160 15:36 18.06.2019
6184 Clear 9 1024 52 10000 3.1 150 15:18 18.06.2019
6185 Clear 9 1024 57 10000 2.1 150 14:42 18.06.2019
6186 Clear 10 1024 53 10000 3.1 130 14:21 18.06.2019
6187 Clear 10 1024 52 10000 3.1 130 13:53 18.06.2019
6188 Clear 10 1024 54 10000 3.1 130 13:32 18.06.2019
6189 Clear 11 1024 54 10000 3.1 130 12:56 18.06.2019
6190 Clear 12 1024 54 10000 3.6 130 12:36 18.06.2019
6191 Clear 13 1023 46 10000 3.1 130 12:18 18.06.2019
6192 Clear 14 1023 41 10000 3.1 130 11:42 18.06.2019
6193 Clear 16 1023 46 10000 4.1 130 11:21 18.06.2019
6194 Clear 16 1023 46 10000 4.1 130 10:56 18.06.2019
6195 Clear 17 1023 46 10000 4.6 130 10:36 18.06.2019
6196 Clear 17 1023 46 10000 5.1 110 10:18 18.06.2019
6197 Clear 18 1022 46 10000 4.6 110 09:37 18.06.2019
6198 Clear 18 1022 31 10000 5.7 120 09:18 18.06.2019
6199 Clear 18 1022 31 10000 5.1 120 08:42 18.06.2019
6200 Clear 18 1022 34 10000 5.7 130 08:21 18.06.2019
6201 Clear 18 1022 31 10000 6.7 120 07:37 18.06.2019
6202 Clear 18 1023 34 10000 6.2 100 07:18 18.06.2019
6203 Clear 17 1025 33 10000 6.7 100 05:38 18.06.2019
6204 Clear 16 1026 36 10000 4.1 130 04:23 18.06.2019
6205 Clear 12 1026 46 10000 2.1 80 02:51 18.06.2019
6206 Clear 8 1026 61 10000 1 220 01:52 18.06.2019
6207 Clear 8 1026 61 10000 1 220 01:24 18.06.2019
6208 Clear 4 1025 47 10000 2.6 290 00:54 18.06.2019
6209 Clear 4 1025 53 10000 2.1 320 00:24 18.06.2019
6210 Clear 4 1024 53 10000 1.5 210 23:40 17.06.2019
6211 Clear 4 1024 53 10000 2.1 230 23:19 17.06.2019
6212 Clear 4 1024 69 10000 3.6 280 22:42 17.06.2019
6213 Clear 4 1024 53 10000 2.69 140.107 22:22 17.06.2019
6214 Clear 4 1024 53 10000 2.69 140.107 21:58 17.06.2019
6215 Clear 4 1024 69 10000 2.1 300 21:40 17.06.2019
6216 Clear 6 1024 49 10000 2.6 260 21:20 17.06.2019
6217 Clear 6 1024 49 10000 2.6 250 20:37 17.06.2019
6218 Clear 6 1024 49 10000 1.5 220 20:18 17.06.2019
6219 Clear 6 1024 49 10000 1.5 220 20:18 17.06.2019
6220 Clear 6 1023 49 10000 2.86 90.701 19:42 17.06.2019
6221 Clear 7 1023 49 10000 2.86 90.701 19:22 17.06.2019
6222 Clear 8 1023 61 10000 2.86 90.701 18:57 17.06.2019
6223 Clear 8 1023 61 10000 2.86 90.701 18:37 17.06.2019
6224 Clear 9 1024 57 10000 3.31 93.328 18:18 17.06.2019
6225 Clear 9 1024 57 10000 3.31 93.328 17:42 17.06.2019
6226 Clear 9 1024 46 10000 0.5 360 17:24 17.06.2019
6227 Clear 10 1024 46 10000 3.1 110 16:46 17.06.2019
6228 Clear 11 1024 50 10000 2.6 110 16:28 17.06.2019
6229 Clear 11 1024 50 10000 3.1 110 15:56 17.06.2019
6230 Clear 11 1024 50 10000 3.1 110 15:38 17.06.2019
6231 Clear 11 1024 50 10000 3.1 140 15:18 17.06.2019
6232 Clear 13 1024 43 10000 2.1 110 14:47 17.06.2019
6233 Clear 12 1024 46 10000 3.1 160 14:26 17.06.2019
6234 Clear 13 1023 43 10000 3.1 140 13:50 17.06.2019
6235 Clear 14 1023 41 10000 3.1 130 13:23 17.06.2019
6236 Clear 15 1022 38 10000 3.6 150 12:51 17.06.2019
6237 Clear 15 1022 38 10000 3.6 150 12:31 17.06.2019
6238 Clear 17 1021 36 10000 3.6 140 11:49 17.06.2019
6239 Clear 17 1021 36 10000 3.6 140 11:26 17.06.2019
6240 Clear 19 1021 32 10000 4.1 140 10:58 17.06.2019
6241 Clear 20 1021 30 10000 5.1 140 10:40 17.06.2019
6242 Clear 21 1021 28 10000 3.6 110 10:21 17.06.2019
6243 Clouds 20 1021 30 10000 2.6 110 09:51 17.06.2019
6244 Clouds 20 1021 30 10000 2.6 110 09:27 17.06.2019
6245 Clear 21 1021 28 10000 3.6 100 08:41 17.06.2019
6246 Clear 20 1021 28 10000 4.1 90 08:23 17.06.2019
6247 Clear 20 1021 28 10000 3.6 110 07:42 17.06.2019
6248 Clear 20 1022 28 10000 3.6 110 07:24 17.06.2019
6249 Clear 19 1022 29 10000 3.6 90 06:35 17.06.2019
6250 Clear 19 1023 29 10000 6.2 100 05:45 17.06.2019
6251 Clear 18 1024 31 10000 6.2 70 04:39 17.06.2019
6252 Clear 16 1025 38 10000 5.7 50 03:47 17.06.2019
6253 Clear 15 1025 44 10000 3.1 70 02:59 17.06.2019
6254 Clear 13 1025 50 10000 3.1 90 02:40 17.06.2019
6255 Clear 8 1024 75 10000 1 200 01:47 17.06.2019
6256 Clear 6 1024 81 10000 2.1 270 01:25 17.06.2019
6257 Clear 4 1024 86 10000 1.5 320 00:44 17.06.2019
6258 Clear 5 1024 80 10000 2.6 320 00:21 17.06.2019
6259 Clear 5 1023 80 10000 1.5 260 23:43 16.06.2019
6260 Clear 5 1023 80 10000 2.1 270 23:22 16.06.2019
6261 Clear 5 1023 80 10000 2.1 270 22:55 16.06.2019
6262 Clear 5 1023 80 10000 2.1 250 22:36 16.06.2019
6263 Clear 5 1023 80 10000 2.6 280 22:18 16.06.2019
6264 Clear 6 1022 81 10000 2.1 310 21:41 16.06.2019
6265 Clear 6 1022 75 10000 1.5 250 21:22 16.06.2019
6266 Clear 6 1022 75 10000 1.5 250 20:58 16.06.2019
6267 Clear 6 1022 75 10000 2.1 220 20:37 16.06.2019
6268 Clear 6 1022 81 10000 2.1 290 20:18 16.06.2019
6269 Clear 6 1023 75 10000 2.6 250 19:41 16.06.2019
6270 Clear 7 1023 75 10000 2.1 180 19:22 16.06.2019
6271 Clear 7 1023 70 10000 4.04 67.888 18:58 16.06.2019
6272 Clear 7 1023 70 10000 4.04 67.888 18:39 16.06.2019
6273 Clear 7 1023 75 10000 4.31 85.702 18:20 16.06.2019
6274 Clear 8 1023 70 10000 4.31 85.702 17:47 16.06.2019
6275 Clear 9 1023 61 10000 4.31 85.702 17:22 16.06.2019
6276 Clear 9 1023 61 10000 4.31 85.702 17:22 16.06.2019
6277 Clear 9 1023 61 10000 4.31 85.702 16:57 16.06.2019
6278 Clear 10 1024 61 10000 1.5 90 16:57 16.06.2019
6279 Clear 10 1024 61 10000 1.5 90 16:39 16.06.2019
6280 Clear 10 1024 61 10000 2.6 120 16:20 16.06.2019
6281 Clear 10 1024 61 10000 2.1 110 15:42 16.06.2019
6282 Clouds 11 1024 57 10000 2.1 110 15:24 16.06.2019
6283 Clouds 12 1024 54 10000 2.6 110 14:44 16.06.2019
6284 Clouds 13 1024 50 10000 2.6 120 14:23 16.06.2019
6285 Clouds 14 1023 47 10000 3.6 140 13:52 16.06.2019
6286 Clouds 14 1023 47 10000 3.6 140 13:28 16.06.2019
6287 Clear 14 1023 47 10000 3.6 150 12:58 16.06.2019
6288 Clear 14 1023 47 10000 3.6 150 12:38 16.06.2019
6289 Clear 15 1022 44 10000 3.6 150 12:19 16.06.2019
6290 Clear 16 1022 41 10000 3.1 140 11:45 16.06.2019
6291 Clear 18 1022 36 10000 3.6 130 11:20 16.06.2019
6292 Clear 19 1021 34 10000 4.1 120 10:45 16.06.2019
6293 Clear 20 1021 34 10000 4.6 110 10:21 16.06.2019
6294 Clear 20 1021 34 10000 5.1 130 09:48 16.06.2019
6295 Clouds 20 1021 34 10000 5.1 130 09:26 16.06.2019
6296 Clear 20 1021 34 10000 5.1 130 08:59 16.06.2019
6297 Clear 20 1021 32 10000 4.6 130 08:38 16.06.2019
6298 Clear 21 1021 32 10000 5.1 140 08:18 16.06.2019
6299 Clear 20 1021 32 10000 5.1 130 07:43 16.06.2019
6300 Clear 20 1022 37 10000 4.6 120 06:57 16.06.2019
6301 Clear 20 1022 37 10000 4.6 120 06:37 16.06.2019
6302 Clear 19 1023 39 10000 5.7 120 05:43 16.06.2019
6303 Clear 17 1024 51 10000 4.6 120 04:36 16.06.2019
6304 Clear 16 1024 51 10000 4.1 110 03:54 16.06.2019
6305 Clear 15 1024 58 10000 4.6 110 03:31 16.06.2019
6306 Clouds 11 1024 87 10000 1.5 200 02:18 16.06.2019
6307 Clouds 10 1024 93 10000 2.1 210 01:41 16.06.2019
6308 Clouds 8 1023 100 10000 2.1 240 01:23 16.06.2019
6309 Clouds 7 1023 100 10000 2.1 280 00:40 16.06.2019
6310 Clear 7 1023 100 10000 2.6 290 00:19 16.06.2019
6311 Clear 7 1022 100 10000 2.6 250 23:42 15.06.2019
6312 Clear 7 1022 100 10000 2.6 250 23:42 15.06.2019
6313 Clear 7 1022 100 10000 2.1 290 23:22 15.06.2019
6314 Clear 8 1022 100 10000 2.1 300 22:49 15.06.2019
6315 Clear 8 1022 100 10000 2.1 300 22:26 15.06.2019
6316 Clear 8 1022 100 10000 2.1 230 21:47 15.06.2019
6317 Clear 8 1022 100 10000 2.1 230 21:29 15.06.2019
6318 Clouds 8 1022 100 10000 2.6 260 20:56 15.06.2019
6319 Clouds 9 1021 93 10000 1.5 210 20:36 15.06.2019
6320 Clouds 9 1021 93 10000 1.5 210 20:18 15.06.2019
6321 Clouds 9 1021 100 10000 2.6 190 19:40 15.06.2019
6322 Clear 9 1021 100 10000 3.07 105.34 19:22 15.06.2019
6323 Clear 9 1021 100 10000 3.07 105.34 18:37 15.06.2019
6324 Clear 10 1021 93 10000 3.61 86.111 18:19 15.06.2019
6325 Clouds 10 1022 100 10000 2.1 160 17:43 15.06.2019
6326 Clouds 10 1022 100 10000 2.1 160 17:43 15.06.2019
6327 Clear 11 1022 93 10000 1.5 150 17:21 15.06.2019
6328 Clear 11 1022 93 10000 2.6 180 16:45 15.06.2019
6329 Clouds 12 1022 93 10000 2.1 170 16:19 15.06.2019
6330 Clouds 12 1022 93 10000 3.1 170 15:42 15.06.2019
6331 Clouds 13 1021 82 10000 2.6 170 15:23 15.06.2019
6332 Clouds 13 1021 82 10000 2.6 60 14:42 15.06.2019
6333 Clouds 13 1021 82 10000 2.6 40 14:18 15.06.2019
6334 Clouds 13 1021 82 10000 2.6 40 13:55 15.06.2019
6335 Rain 13 1021 82 10000 2.1 80 13:36 15.06.2019
6336 Rain 13 1022 87 10000 4.6 230 13:18 15.06.2019
6337 Rain 13 1022 87 10000 5.7 230 12:42 15.06.2019
6338 Rain 13 1020 82 10000 2.6 80 12:23 15.06.2019
6339 Rain 14 1020 76 10000 3.1 150 11:48 15.06.2019
6340 Rain 14 1020 76 10000 3.1 150 11:29 15.06.2019
6341 Clouds 16 1019 59 10000 4.1 140 10:46 15.06.2019
6342 Rain 17 1019 59 10000 5.7 160 10:25 15.06.2019
6343 Rain 19 1018 45 10000 6.7 170 09:48 15.06.2019
6344 Rain 19 1018 45 10000 6.7 170 09:27 15.06.2019
6345 Clouds 22 1016 28 10000 5.7 130 08:55 15.06.2019
6346 Clouds 22 1016 28 10000 5.7 130 08:55 15.06.2019
6347 Clouds 22 1016 28 10000 5.7 130 08:37 15.06.2019
6348 Clouds 22 1017 28 10000 3.6 130 08:18 15.06.2019
6349 Clouds 23 1016 27 10000 4.1 60 07:26 15.06.2019
6350 Clouds 22 1017 28 10000 5.7 60 06:48 15.06.2019
6351 Clouds 22 1018 26 10000 5.1 70 06:25 15.06.2019
6352 Clouds 21 1019 28 10000 5.1 90 05:39 15.06.2019
6353 Clouds 21 1019 28 10000 5.1 90 05:39 15.06.2019
6354 Clouds 18 1020 31 10000 6.2 80 04:52 15.06.2019
6355 Clouds 18 1021 31 10000 5.1 80 04:19 15.06.2019
6356 Clouds 16 1022 36 10000 6.2 80 03:22 15.06.2019
6357 Clouds 15 1022 38 10000 6.2 80 02:31 15.06.2019
6358 Clouds 15 1021 38 10000 6.2 80 01:57 15.06.2019
6359 Clouds 13 1021 43 10000 5.1 80 01:20 15.06.2019
6360 Clouds 12 1021 50 10000 4.1 80 00:41 15.06.2019
6361 Clouds 12 1020 50 10000 5.1 80 00:20 15.06.2019
6362 Clouds 12 1020 46 10000 4.6 80 23:42 14.06.2019
6363 Clouds 12 1020 50 10000 4.1 90 23:18 14.06.2019
6364 Clouds 13 1020 47 10000 4.6 100 22:41 14.06.2019
6365 Clouds 12 1019 50 10000 5.1 90 22:21 14.06.2019
6366 Clouds 12 1019 50 10000 4.1 90 21:48 14.06.2019
6367 Clouds 12 1019 50 10000 4.1 90 21:27 14.06.2019
6368 Clouds 12 1020 54 10000 3.1 90 20:44 14.06.2019
6369 Clouds 12 1020 54 10000 2.6 100 20:19 14.06.2019
6370 -273 0 0 0 0 0 19:58 14.06.2019
6371 Clouds 12 1020 54 10000 3.1 90 19:37 14.06.2019
6372 Clouds 11 1020 57 10000 2.6 100 19:18 14.06.2019
6373 Clouds 11 1020 57 10000 3.1 90 18:45 14.06.2019
6374 Clouds 11 1020 57 10000 3.1 90 18:26 14.06.2019
6375 Clouds 12 1021 54 10000 2.6 80 17:58 14.06.2019
6376 Clouds 12 1021 54 10000 2.6 80 17:39 14.06.2019
6377 Clouds 12 1021 54 10000 2.6 80 17:21 14.06.2019
6378 Clouds 13 1021 50 10000 2.6 80 16:46 14.06.2019
6379 Clouds 13 1021 50 10000 3.1 90 16:22 14.06.2019
6380 Clouds 13 1021 50 10000 3.1 90 16:22 14.06.2019
6381 Clouds 13 1021 50 10000 3.1 90 15:57 14.06.2019
6382 Clouds 14 1021 47 10000 3.6 110 15:38 14.06.2019
6383 Clouds 14 1021 47 10000 3.6 110 15:38 14.06.2019
6384 Clear 15 1021 44 10000 3.1 100 15:19 14.06.2019
6385 Clear 15 1021 44 10000 2.6 110 14:41 14.06.2019
6386 Clear 16 1021 41 10000 3.1 120 14:22 14.06.2019
6387 Clouds 17 1021 39 10000 4.1 110 13:45 14.06.2019
6388 Clouds 17 1021 39 10000 4.1 110 13:45 14.06.2019
6389 Clouds 17 1021 39 10000 4.1 110 13:26 14.06.2019
6390 Clouds 18 1020 39 10000 4.1 120 12:49 14.06.2019
6391 Clouds 18 1020 39 10000 4.1 120 12:27 14.06.2019
6392 Clouds 18 1020 39 10000 4.6 120 11:59 14.06.2019
6393 Clouds 19 1020 37 10000 4.6 110 11:41 14.06.2019
6394 Clouds 20 1019 34 10000 5.7 90 11:22 14.06.2019
6395 Clouds 21 1019 32 10000 5.7 100 10:45 14.06.2019
6396 Clouds 21 1019 32 10000 5.7 90 10:20 14.06.2019
6397 Clouds 21 1019 32 10000 6.2 100 09:48 14.06.2019
6398 Clouds 21 1019 32 10000 6.2 100 09:25 14.06.2019
6399 Clouds 21 1019 32 10000 6.2 100 09:25 14.06.2019
6400 Clouds 22 1019 30 10000 5.1 90 08:47 14.06.2019
6401 Clouds 22 1019 30 10000 4.6 80 08:19 14.06.2019
6402 Clouds 21 1019 32 10000 4.6 100 07:52 14.06.2019
6403 Clouds 21 1019 32 10000 4.6 100 07:52 14.06.2019
6404 Clouds 21 1019 32 10000 5.1 50 07:22 14.06.2019
6405 Clouds 21 1020 32 10000 5.7 90 06:39 14.06.2019
6406 Clouds 20 1020 32 10000 6.2 70 05:58 14.06.2019
6407 Clouds 20 1021 32 10000 7.2 80 05:33 14.06.2019
6408 Clear 19 1022 34 10000 6.7 90 04:48 14.06.2019
6409 Clear 17 1023 42 10000 5.7 80 03:56 14.06.2019
6410 Clear 17 1023 42 10000 5.7 80 03:26 14.06.2019
6411 Clouds 16 1023 41 10000 4.1 100 02:56 14.06.2019
6412 Clouds 14 1023 47 10000 3.1 100 02:27 14.06.2019
6413 Clouds 14 1023 47 10000 3.1 100 02:27 14.06.2019
6414 Clouds 11 1022 62 10000 2.1 240 00:59 14.06.2019
6415 Clouds 9 1021 70 10000 4.57 83.279 00:24 14.06.2019
6416 Clouds 9 1021 70 10000 4.57 83.279 23:59 13.06.2019
6417 Clouds 10 1021 66 10000 4.57 83.279 23:41 13.06.2019
6418 Clouds 10 1021 66 10000 0.5 210 23:22 13.06.2019
6419 Clouds 10 1020 66 10000 1.5 40 22:40 13.06.2019
6420 Clouds 10 1020 66 10000 0.5 110 22:22 13.06.2019
6421 Clouds 10 1020 66 10000 0.5 110 22:22 13.06.2019
6422 Clouds 11 1020 62 10000 2.1 130 21:40 13.06.2019
6423 Clouds 11 1020 62 10000 2.6 120 21:20 13.06.2019
6424 Clouds 11 1020 62 10000 2.6 120 20:58 13.06.2019
6425 Clouds 11 1020 62 10000 2.6 130 20:39 13.06.2019
6426 Clouds 11 1020 62 10000 2.6 160 20:19 13.06.2019
6427 Clear 10 1021 66 10000 2.6 130 19:42 13.06.2019
6428 Clear 11 1021 62 10000 1.5 90 19:22 13.06.2019
6429 Clear 12 1021 58 10000 1.5 70 18:58 13.06.2019
6430 Clear 12 1021 58 10000 1.5 70 18:40 13.06.2019
6431 Clouds 13 1021 54 10000 2.1 90 18:21 13.06.2019
6432 Clouds 12 1021 58 10000 2.1 140 17:43 13.06.2019
6433 Clouds 13 1021 54 10000 1.5 40 17:20 13.06.2019
6434 Clouds 14 1021 50 10000 2.1 80 16:53 13.06.2019
6435 Clouds 15 1022 47 10000 3.1 100 16:22 13.06.2019
6436 Clouds 15 1022 47 10000 3.1 100 15:59 13.06.2019
6437 Clouds 15 1022 47 10000 3.1 110 15:39 13.06.2019
6438 Clouds 16 1022 44 10000 3.1 110 15:19 13.06.2019
6439 Clouds 17 1022 42 10000 3.6 110 14:47 13.06.2019
6440 Clouds 17 1022 42 10000 3.6 120 14:27 13.06.2019
6441 Clouds 17 1021 42 10000 3.6 130 13:47 13.06.2019
6442 Clouds 17 1021 45 10000 3.6 130 13:22 13.06.2019
6443 Clouds 17 1021 45 10000 3.6 130 12:58 13.06.2019
6444 Clouds 18 1021 42 10000 3.1 130 12:38 13.06.2019
6445 Clouds 19 1020 39 10000 4.6 120 12:19 13.06.2019
6446 Clouds 20 1020 37 10000 4.6 110 11:43 13.06.2019
6447 Clouds 20 1020 37 10000 5.1 110 11:24 13.06.2019
6448 Clouds 21 1019 35 10000 5.1 110 10:47 13.06.2019
6449 Clouds 21 1019 35 10000 5.1 110 10:28 13.06.2019
6450 Clouds 22 1019 35 10000 5.1 90 09:50 13.06.2019
6451 Clouds 22 1019 35 10000 5.1 90 09:50 13.06.2019
6452 -273 0 0 0 0 0 09:27 13.06.2019
6453 Clouds 22 1019 35 10000 5.1 70 08:51 13.06.2019
6454 Clouds 22 1019 35 10000 5.1 70 08:30 13.06.2019
6455 Clouds 22 1019 35 10000 5.1 90 07:59 13.06.2019
6456 Clear 21 1019 37 10000 4.6 80 07:31 13.06.2019
6457 Clouds 21 1020 37 10000 4.6 100 06:53 13.06.2019
6458 Clouds 20 1020 40 10000 5.1 110 06:26 13.06.2019
6459 Clouds 20 1020 40 10000 5.1 110 05:58 13.06.2019
6460 Clouds 20 1021 40 10000 5.1 100 05:38 13.06.2019
6461 Clouds 20 1021 40 10000 5.1 100 05:18 13.06.2019
6462 Clear 18 1023 45 10000 6.2 110 03:44 13.06.2019
6463 Clouds 15 1023 67 10000 4.1 110 01:55 13.06.2019
6464 Clouds 12 1022 87 10000 3.1 150 00:30 13.06.2019
6465 Clouds 12 1022 87 10000 3.1 150 00:30 13.06.2019
6466 Clouds 13 1022 82 10000 3.42 115.92 23:26 12.06.2019
6467 Clouds 13 1021 82 10000 3.42 115.92 22:58 12.06.2019
6468 Clouds 13 1021 82 10000 3.42 115.92 22:39 12.06.2019
6469 Clouds 13 1021 82 10000 3.42 115.92 22:39 12.06.2019
6470 Clouds 13 1020 82 10000 3.42 115.92 22:21 12.06.2019
6471 Clouds 12 1020 87 10000 1.5 160 21:42 12.06.2019
6472 Clouds 12 1020 87 10000 1.5 160 21:42 12.06.2019
6473 Clouds 12 1020 81 10000 2.6 160 21:22 12.06.2019
6474 Clear 12 1020 87 10000 2.6 160 20:48 12.06.2019
6475 Clear 12 1020 87 10000 2.6 160 20:29 12.06.2019
6476 Clear 13 1020 82 10000 2.6 140 19:57 12.06.2019
6477 Clear 13 1020 82 10000 2.6 140 19:38 12.06.2019
6478 Clear 13 1021 82 10000 2.6 140 19:19 12.06.2019
6479 Clear 13 1020 76 10000 3.1 130 18:44 12.06.2019
6480 Clear 13 1020 76 10000 3.1 130 18:24 12.06.2019
6481 Clear 14 1021 71 10000 2.6 180 17:46 12.06.2019
6482 Clear 14 1021 71 10000 1 200 17:23 12.06.2019
6483 Clear 15 1021 67 10000 3.29 107.151 16:43 12.06.2019
6484 Clear 15 1021 67 10000 3.29 107.151 16:25 12.06.2019
6485 Clear 15 1021 67 10000 3.29 107.151 15:58 12.06.2019
6486 Clear 16 1021 63 10000 3.29 107.151 15:33 12.06.2019
6487 Clouds 16 1021 67 10000 2.1 240 14:55 12.06.2019
6488 Clouds 16 1021 67 10000 2.1 240 14:32 12.06.2019
6489 Clouds 17 1020 59 10000 2.1 240 13:57 12.06.2019
6490 Clouds 18 1020 55 10000 2.1 230 13:38 12.06.2019
6491 Clouds 19 1020 52 10000 1 180 13:19 12.06.2019
6492 Clouds 20 1020 52 10000 2.1 160 12:40 12.06.2019
6493 Clouds 20 1019 49 10000 2.1 160 12:20 12.06.2019
6494 Clouds 21 1019 46 10000 3.6 180 11:48 12.06.2019
6495 Clouds 21 1019 46 10000 3.6 180 11:29 12.06.2019
6496 Clouds 22 1018 43 10000 4.1 190 10:57 12.06.2019
6497 Clouds 22 1018 43 10000 4.1 190 10:39 12.06.2019
6498 Clouds 23 1018 40 10000 4.1 180 09:59 12.06.2019
6499 Clouds 23 1018 40 10000 4.1 170 09:41 12.06.2019
6500 Clouds 24 1018 38 10000 3.6 180 09:19 12.06.2019
6501 Clouds 24 1017 41 10000 4.6 190 08:28 12.06.2019
6502 Clouds 24 1018 41 10000 5.7 190 07:56 12.06.2019
6503 Clouds 25 1018 38 10000 6.2 210 07:18 12.06.2019
6504 Clouds 26 1017 41 10000 5.1 230 06:33 12.06.2019
6505 Clouds 27 1018 42 10000 7.2 310 05:25 12.06.2019
6506 Clouds 23 1019 53 10000 7.2 330 02:21 12.06.2019
6507 Clouds 22 1018 53 10000 7.2 360 00:46 12.06.2019
6508 Clear 23 1017 49 10000 5.1 360 23:54 11.06.2019
6509 Clear 23 1017 49 10000 5.1 360 23:35 11.06.2019
6510 Clear 23 1017 49 10000 5.1 360 22:57 11.06.2019
6511 Clear 23 1016 49 10000 4.6 350 22:38 11.06.2019
6512 Clear 22 1016 53 10000 6.2 360 22:18 11.06.2019
6513 Clear 22 1016 53 10000 6.2 360 22:18 11.06.2019
6514 Clear 23 1016 49 10000 5.1 360 21:41 11.06.2019
6515 Clear 23 1016 49 10000 4.1 360 21:23 11.06.2019
6516 Clear 23 1016 49 10000 4.1 360 20:58 11.06.2019
6517 Clear 22 1017 56 10000 3.6 360 20:39 11.06.2019
6518 Clear 23 1017 53 10000 3.1 360 20:21 11.06.2019
6519 Clear 23 1017 53 10000 5.1 10 19:50 11.06.2019
6520 Clear 23 1017 53 10000 5.1 10 19:28 11.06.2019
6521 Clear 23 1017 53 10000 5.1 10 19:28 11.06.2019
6522 Clear 24 1017 50 10000 4.1 10 18:49 11.06.2019
6523 Clouds 24 1018 47 10000 4.6 360 18:20 11.06.2019
6524 Clouds 24 1018 50 10000 6.7 360 17:41 11.06.2019
6525 Clouds 25 1018 47 10000 7.2 360 17:21 11.06.2019
6526 Clear 25 1018 44 10000 8.2 10 16:46 11.06.2019
6527 Clear 25 1018 44 10000 6.7 10 16:24 11.06.2019
6528 Clouds 25 1018 44 10000 5.1 10 15:59 11.06.2019
6529 Clouds 25 1018 44 10000 5.1 10 15:41 11.06.2019
6530 Clouds 25 1018 44 10000 3.1 10 15:18 11.06.2019
6531 Clouds 23 1018 46 10000 3.1 360 14:40 11.06.2019
6532 Clouds 24 1018 44 10000 3.1 360 14:20 11.06.2019
6533 Clouds 24 1018 44 10000 3.1 360 14:20 11.06.2019
6534 Clear 25 1018 41 10000 3.6 350 13:43 11.06.2019
6535 Clouds 25 1017 41 10000 3.6 350 13:22 11.06.2019
6536 Clouds 25 1017 38 10000 3.1 340 12:43 11.06.2019
6537 Clear 26 1017 36 10000 3.1 350 12:22 11.06.2019
6538 Clear 26 1016 36 10000 3.1 350 11:57 11.06.2019
6539 Clear 26 1016 36 10000 3.1 350 11:33 11.06.2019
6540 Clear 28 1016 30 10000 4.1 350 10:57 11.06.2019
6541 Clouds 29 1016 28 10000 5.7 350 10:39 11.06.2019
6542 Clouds 30 1016 28 10000 5.7 360 10:19 11.06.2019
6543 Clouds 30 1016 28 10000 6.2 350 09:43 11.06.2019
6544 Clouds 30 1015 28 10000 5.1 350 09:23 11.06.2019
6545 Clear 30 1016 28 10000 4.6 340 08:41 11.06.2019
6546 Clear 30 1016 28 10000 5.1 330 08:22 11.06.2019
6547 Clear 30 1016 28 10000 7.2 330 07:34 11.06.2019
6548 Clear 30 1017 30 10000 7.2 360 06:54 11.06.2019
6549 Clear 30 1017 30 10000 6.7 360 05:56 11.06.2019
6550 Clear 28 1019 34 10000 6.7 360 04:40 11.06.2019
6551 -273 0 0 0 0 0 02:27 11.06.2019
6552 Clear 11 1019 76 10000 8.14 7.659 00:53 11.06.2019
6553 Clear 11 1019 76 10000 8.14 7.659 00:31 11.06.2019
6554 Clear 11 1018 71 10000 2.1 100 23:46 10.06.2019
6555 Clear 11 1018 71 10000 4.9 26.858 23:21 10.06.2019
6556 Clear 12 1018 66 10000 4.9 26.858 22:45 10.06.2019
6557 Clear 12 1018 66 10000 4.9 26.858 22:27 10.06.2019
6558 Clear 11 1018 71 10000 4.9 26.858 21:56 10.06.2019
6559 Clear 12 1017 66 10000 4.9 26.858 21:38 10.06.2019
6560 Clear 11 1017 71 10000 5.07 43.634 21:19 10.06.2019
6561 Clear 12 1017 66 10000 5.07 43.634 20:42 10.06.2019
6562 Clear 12 1018 66 10000 5.07 43.634 20:21 10.06.2019
6563 Clear 12 1018 66 10000 5.07 43.634 19:44 10.06.2019
6564 Clear 13 1018 62 10000 5.07 43.634 19:22 10.06.2019
6565 Clear 13 1018 62 10000 5.07 43.634 18:57 10.06.2019
6566 Clear 13 1018 62 10000 5.07 43.634 18:39 10.06.2019
6567 Clear 14 1018 58 10000 4.44 57.051 18:19 10.06.2019
6568 Clouds 14 1018 58 10000 2.6 130 17:43 10.06.2019
6569 Clouds 16 1019 55 10000 3.1 90 17:24 10.06.2019
6570 Clouds 16 1019 55 10000 3.1 90 17:24 10.06.2019
6571 Clouds 15 1019 54 10000 1.5 70 16:49 10.06.2019
6572 Clouds 15 1019 54 10000 1.5 70 16:30 10.06.2019
6573 Clouds 16 1019 51 10000 2.6 60 15:57 10.06.2019
6574 Clouds 16 1019 51 10000 2.6 60 15:38 10.06.2019
6575 Clear 16 1019 51 10000 2.1 100 15:20 10.06.2019
6576 Clouds 18 1019 45 10000 2.1 80 14:41 10.06.2019
6577 Clouds 18 1019 45 10000 2.1 80 14:41 10.06.2019
6578 Clouds 18 1019 45 10000 2.6 70 14:23 10.06.2019
6579 Clear 19 1019 42 10000 2.1 100 13:46 10.06.2019
6580 Clear 20 1018 40 10000 3.1 110 13:26 10.06.2019
6581 Clear 20 1018 37 10000 3.1 90 12:53 10.06.2019
6582 Clear 20 1018 37 10000 3.1 90 12:30 10.06.2019
6583 Clear 21 1017 37 10000 3.1 110 11:54 10.06.2019
6584 Clear 23 1017 31 10000 3.6 120 11:30 10.06.2019
6585 Clear 23 1017 31 10000 3.6 120 10:59 10.06.2019
6586 Clear 24 1016 31 10000 4.6 120 10:40 10.06.2019
6587 Clear 25 1016 29 10000 4.6 110 10:18 10.06.2019
6588 Clear 25 1016 29 10000 4.1 110 09:51 10.06.2019
6589 Clear 25 1016 29 10000 4.1 110 09:29 10.06.2019
6590 Clear 25 1016 29 10000 4.1 110 09:29 10.06.2019
6591 Clear 26 1016 27 10000 3.6 100 08:48 10.06.2019
6592 Clear 26 1016 27 10000 3.6 100 08:26 10.06.2019
6593 Clear 25 1016 31 10000 3.6 150 07:40 10.06.2019
6594 Clear 23 1019 33 10000 3.6 150 04:42 10.06.2019
6595 Clear 19 1019 55 10000 2.1 160 02:35 10.06.2019
6596 Clear 15 1019 67 10000 2.6 140 01:49 10.06.2019
6597 Clear 13 1018 71 10000 5.7 190 00:59 10.06.2019
6598 Clear 13 1018 76 10000 3.18 196.267 00:37 10.06.2019
6599 Clear 12 1017 81 10000 2.36 293.788 23:46 09.06.2019
6600 Clear 11 1017 81 10000 0.5 350 23:21 09.06.2019
6601 Clear 12 1017 81 10000 2.36 293.788 22:46 09.06.2019
6602 Clear 12 1017 76 10000 1.5 360 22:26 09.06.2019
6603 Clear 15 1017 72 10000 1 230 21:47 09.06.2019
6604 Clear 15 1017 72 10000 1 230 21:28 09.06.2019
6605 Clouds 15 1017 72 10000 2.6 340 20:58 09.06.2019
6606 Clouds 16 1017 67 10000 2.6 360 20:40 09.06.2019
6607 Clouds 14 1017 71 10000 3.1 340 20:21 09.06.2019
6608 Clouds 15 1017 67 10000 3.6 350 19:42 09.06.2019
6609 Clouds 17 1017 59 10000 3.6 350 19:18 09.06.2019
6610 Clouds 18 1017 55 10000 3.6 350 18:43 09.06.2019
6611 Clouds 18 1017 55 10000 3.1 350 18:24 09.06.2019
6612 Clouds 17 1017 63 10000 3.1 330 17:53 09.06.2019
6613 Clouds 17 1017 63 10000 3.1 330 17:30 09.06.2019
6614 Clouds 15 1017 67 10000 2.1 360 16:58 09.06.2019
6615 Clouds 15 1017 67 10000 2.1 360 16:58 09.06.2019
6616 Clouds 18 1017 55 10000 1.5 360 16:39 09.06.2019
6617 Clouds 19 1017 55 10000 3.1 320 16:20 09.06.2019
6618 Clouds 19 1017 55 10000 3.1 320 16:20 09.06.2019
6619 Clouds 20 1017 52 10000 1.5 350 15:49 09.06.2019
6620 Clouds 21 1017 46 10000 0.5 290 15:28 09.06.2019
6621 Clouds 22 1017 46 10000 2.6 270 14:51 09.06.2019
6622 Clouds 22 1017 46 10000 2.6 270 14:51 09.06.2019
6623 Clouds 22 1017 46 10000 2.6 270 14:33 09.06.2019
6624 Clouds 20 1017 49 10000 2.6 280 13:57 09.06.2019
6625 Clouds 20 1017 49 10000 2.6 280 13:38 09.06.2019
6626 Clear 22 1016 40 10000 3.6 310 12:55 09.06.2019
6627 Clear 22 1016 40 10000 3.6 310 12:34 09.06.2019
6628 Clouds 23 1015 40 10000 4.1 330 11:49 09.06.2019
6629 Clouds 23 1015 40 10000 4.1 330 11:30 09.06.2019
6630 Clear 25 1015 33 10000 6.2 330 10:47 09.06.2019
6631 Clear 25 1015 33 10000 6.2 330 10:26 09.06.2019
6632 -273 0 0 0 0 0 09:58 09.06.2019
6633 Clear 26 1015 31 10000 6.7 330 09:38 09.06.2019
6634 Clear 26 1015 31 10000 6.7 330 09:37 09.06.2019
6635 Clear 27 1014 30 10000 6.7 320 09:18 09.06.2019
6636 Clear 27 1014 30 10000 6.7 320 09:18 09.06.2019
6637 Clear 27 1014 30 10000 6.7 310 08:42 09.06.2019
6638 Clear 26 1015 29 10000 8.2 320 07:50 09.06.2019
6639 Clear 26 1016 34 10000 8.2 320 06:33 09.06.2019
6640 Clear 25 1017 36 10000 8.2 320 05:47 09.06.2019
6641 Clear 18 1019 42 10000 2.6 90 02:55 09.06.2019
6642 Clear 11 1019 57 10000 1 200 01:36 09.06.2019
6643 Clear 11 1019 57 10000 1 200 01:36 09.06.2019
6644 Clear 11 1019 57 10000 1 200 01:36 09.06.2019
6645 Clear 8 1019 61 10000 2.1 70 01:18 09.06.2019
6646 Clear 6 1018 70 10000 5.41 8.864 00:22 09.06.2019
6647 Clear 6 1018 46 10000 2.6 200 23:40 08.06.2019
6648 Clear 6 1018 70 10000 3.1 130 23:22 08.06.2019
6649 Clear 5 1018 46 10000 2.6 60 22:45 08.06.2019
6650 Clear 5 1018 46 10000 2.6 60 22:26 08.06.2019
6651 Clear 4 1018 69 10000 5.41 8.864 21:56 08.06.2019
6652 Clear 4 1018 69 10000 1.5 230 21:38 08.06.2019
6653 Clear 4 1018 69 10000 1.5 230 21:38 08.06.2019
6654 Clear 4 1019 69 10000 0.5 270 21:19 08.06.2019
6655 Clear 5 1019 65 10000 4.9 23.404 20:42 08.06.2019
6656 Clear 5 1019 65 10000 2.6 60 20:21 08.06.2019
6657 Clear 8 1019 38 10000 2.1 30 19:43 08.06.2019
6658 Clear 7 1020 38 10000 1.5 310 19:23 08.06.2019
6659 Clear 7 1020 37 10000 1.5 310 18:58 08.06.2019
6660 Clear 6 1020 60 10000 2.1 260 18:39 08.06.2019
6661 Clear 7 1020 56 10000 4.65 47.686 18:18 08.06.2019
6662 Clear 6 1020 60 10000 2.1 230 17:42 08.06.2019
6663 Clear 6 1020 60 10000 1.5 200 17:19 08.06.2019
6664 Clear 8 1020 52 10000 1.5 210 16:45 08.06.2019
6665 Clear 7 1020 56 10000 4.65 47.686 16:24 08.06.2019
6666 Clear 9 1020 49 10000 2.6 90 15:40 08.06.2019
6667 Clear 9 1020 49 10000 2.6 90 15:40 08.06.2019
6668 Clear 9 1020 49 10000 2.6 90 15:40 08.06.2019
6669 Clear 10 1020 46 10000 2.1 110 15:21 08.06.2019
6670 Clear 11 1020 43 10000 2.6 110 14:42 08.06.2019
6671 Clear 12 1020 40 10000 2.6 80 14:24 08.06.2019
6672 Clear 12 1020 40 10000 3.1 70 13:38 08.06.2019
6673 Clear 14 1020 35 10000 2.6 90 12:47 08.06.2019
6674 Clear 14 1020 35 10000 2.6 90 12:27 08.06.2019
6675 Clear 16 1019 31 10000 2.1 100 11:44 08.06.2019
6676 Clear 17 1019 29 10000 3.6 120 11:24 08.06.2019
6677 Clear 20 1019 24 10000 4.1 110 10:45 08.06.2019
6678 Clear 20 1019 24 10000 4.1 110 10:24 08.06.2019
6679 Clear 21 1019 22 10000 4.1 100 09:51 08.06.2019
6680 Clear 21 1019 22 10000 4.1 120